<?xml version="1.0" encoding="UTF-8" standalone="no" ?>
<gpx xmlns="http://www.topografix.com/GPX/1/1" xmlns:xsi="http://www.w3.org/2001/XMLSchema-instance" xsi:schemaLocation="http://www.topografix.com/GPX/1/1 http://www.topografix.com/GPX/1/1/gpx.xsd" version="1.1" creator="VisuGPX - https://www.visugpx.com">
  <metadata>
    <name>Thorame (04) - Fabas (82) -  2021</name>
    <desc><![CDATA[Thorame (04) - Fabas (82) -  2021
plus de voies vertes qu'à l'aller vers Tarascon...]]></desc>
  </metadata>
  <trk>
    <name><![CDATA[Jour01]]></name>
    <trkseg>
      <trkpt lat="44.08168" lon="6.50068">
        <ele>101.3</ele>
        <time>2021-08-13T06:03:32Z</time>
      </trkpt>
      <trkpt lat="44.08213" lon="6.49956">
        <ele>106.8</ele>
        <time>2021-08-13T06:06:06Z</time>
      </trkpt>
      <trkpt lat="44.0839" lon="6.4981">
        <ele>105.5</ele>
        <time>2021-08-13T06:06:46Z</time>
      </trkpt>
      <trkpt lat="44.085" lon="6.49785">
        <ele>105.7</ele>
        <time>2021-08-13T06:07:02Z</time>
      </trkpt>
      <trkpt lat="44.08625" lon="6.49767">
        <ele>106.1</ele>
        <time>2021-08-13T06:07:17Z</time>
      </trkpt>
      <trkpt lat="44.08762" lon="6.49779">
        <ele>108.5</ele>
        <time>2021-08-13T06:07:32Z</time>
      </trkpt>
      <trkpt lat="44.08866" lon="6.49699">
        <ele>115.1</ele>
        <time>2021-08-13T06:07:47Z</time>
      </trkpt>
      <trkpt lat="44.0896" lon="6.49675">
        <ele>117.1</ele>
        <time>2021-08-13T06:08:07Z</time>
      </trkpt>
      <trkpt lat="44.09043" lon="6.49605">
        <ele>138.9</ele>
        <time>2021-08-13T06:08:51Z</time>
      </trkpt>
      <trkpt lat="44.09042" lon="6.49472">
        <ele>213.7</ele>
        <time>2021-08-13T06:09:28Z</time>
      </trkpt>
      <trkpt lat="44.08999" lon="6.49346">
        <ele>226</ele>
        <time>2021-08-13T06:09:43Z</time>
      </trkpt>
      <trkpt lat="44.08953" lon="6.49226">
        <ele>247.2</ele>
        <time>2021-08-13T06:10:03Z</time>
      </trkpt>
      <trkpt lat="44.08928" lon="6.49103">
        <ele>171.4</ele>
        <time>2021-08-13T06:10:23Z</time>
      </trkpt>
      <trkpt lat="44.08913" lon="6.4896">
        <ele>177.5</ele>
        <time>2021-08-13T06:10:38Z</time>
      </trkpt>
      <trkpt lat="44.08941" lon="6.48818">
        <ele>184.2</ele>
        <time>2021-08-13T06:10:53Z</time>
      </trkpt>
      <trkpt lat="44.08966" lon="6.48664">
        <ele>202.4</ele>
        <time>2021-08-13T06:11:08Z</time>
      </trkpt>
      <trkpt lat="44.08975" lon="6.48505">
        <ele>212.7</ele>
        <time>2021-08-13T06:11:23Z</time>
      </trkpt>
      <trkpt lat="44.08962" lon="6.48367">
        <ele>218.3</ele>
        <time>2021-08-13T06:11:38Z</time>
      </trkpt>
      <trkpt lat="44.08935" lon="6.48223">
        <ele>190.8</ele>
        <time>2021-08-13T06:11:58Z</time>
      </trkpt>
      <trkpt lat="44.08823" lon="6.48217">
        <ele>206.7</ele>
        <time>2021-08-13T06:12:18Z</time>
      </trkpt>
      <trkpt lat="44.08722" lon="6.48185">
        <ele>216</ele>
        <time>2021-08-13T06:12:38Z</time>
      </trkpt>
      <trkpt lat="44.08596" lon="6.48136">
        <ele>225.7</ele>
        <time>2021-08-13T06:12:58Z</time>
      </trkpt>
      <trkpt lat="44.08477" lon="6.48154">
        <ele>231.1</ele>
        <time>2021-08-13T06:13:13Z</time>
      </trkpt>
      <trkpt lat="44.08374" lon="6.48185">
        <ele>241.6</ele>
        <time>2021-08-13T06:13:28Z</time>
      </trkpt>
      <trkpt lat="44.08281" lon="6.48204">
        <ele>250.2</ele>
        <time>2021-08-13T06:13:43Z</time>
      </trkpt>
      <trkpt lat="44.08181" lon="6.48197">
        <ele>255.1</ele>
        <time>2021-08-13T06:13:53Z</time>
      </trkpt>
      <trkpt lat="44.08087" lon="6.48185">
        <ele>260.4</ele>
        <time>2021-08-13T06:14:03Z</time>
      </trkpt>
      <trkpt lat="44.07981" lon="6.48198">
        <ele>267.6</ele>
        <time>2021-08-13T06:14:18Z</time>
      </trkpt>
      <trkpt lat="44.07864" lon="6.48149">
        <ele>272.7</ele>
        <time>2021-08-13T06:14:33Z</time>
      </trkpt>
      <trkpt lat="44.07752" lon="6.48067">
        <ele>281.5</ele>
        <time>2021-08-13T06:14:48Z</time>
      </trkpt>
      <trkpt lat="44.07641" lon="6.48117">
        <ele>325.3</ele>
        <time>2021-08-13T06:16:15Z</time>
      </trkpt>
      <trkpt lat="44.07438" lon="6.48546">
        <ele>315.8</ele>
        <time>2021-08-13T06:16:20Z</time>
      </trkpt>
      <trkpt lat="44.0734" lon="6.48444">
        <ele>506.3</ele>
        <time>2021-08-13T06:16:30Z</time>
      </trkpt>
      <trkpt lat="44.07219" lon="6.48452">
        <ele>651</ele>
        <time>2021-08-13T06:16:45Z</time>
      </trkpt>
      <trkpt lat="44.0712" lon="6.48437">
        <ele>751.5</ele>
        <time>2021-08-13T06:17:00Z</time>
      </trkpt>
      <trkpt lat="44.06992" lon="6.48339">
        <ele>919.7</ele>
        <time>2021-08-13T06:17:15Z</time>
      </trkpt>
      <trkpt lat="44.06907" lon="6.48262">
        <ele>955.9</ele>
        <time>2021-08-13T06:17:30Z</time>
      </trkpt>
      <trkpt lat="44.068" lon="6.48185">
        <ele>970.4</ele>
        <time>2021-08-13T06:17:45Z</time>
      </trkpt>
      <trkpt lat="44.06689" lon="6.48142">
        <ele>982.6</ele>
        <time>2021-08-13T06:18:00Z</time>
      </trkpt>
      <trkpt lat="44.06572" lon="6.48123">
        <ele>992.1</ele>
        <time>2021-08-13T06:18:15Z</time>
      </trkpt>
      <trkpt lat="44.06437" lon="6.4812">
        <ele>1001.5</ele>
        <time>2021-08-13T06:18:30Z</time>
      </trkpt>
      <trkpt lat="44.06305" lon="6.4814">
        <ele>1011.2</ele>
        <time>2021-08-13T06:18:45Z</time>
      </trkpt>
      <trkpt lat="44.06216" lon="6.48152">
        <ele>1016.9</ele>
        <time>2021-08-13T06:18:55Z</time>
      </trkpt>
      <trkpt lat="44.06084" lon="6.48158">
        <ele>1025.1</ele>
        <time>2021-08-13T06:19:10Z</time>
      </trkpt>
      <trkpt lat="44.05995" lon="6.48181">
        <ele>1030.3</ele>
        <time>2021-08-13T06:19:20Z</time>
      </trkpt>
      <trkpt lat="44.05881" lon="6.48209">
        <ele>1037.5</ele>
        <time>2021-08-13T06:19:35Z</time>
      </trkpt>
      <trkpt lat="44.05783" lon="6.48246">
        <ele>1044.5</ele>
        <time>2021-08-13T06:19:50Z</time>
      </trkpt>
      <trkpt lat="44.05691" lon="6.48293">
        <ele>1051</ele>
        <time>2021-08-13T06:20:05Z</time>
      </trkpt>
      <trkpt lat="44.05601" lon="6.48315">
        <ele>1058</ele>
        <time>2021-08-13T06:20:20Z</time>
      </trkpt>
      <trkpt lat="44.05514" lon="6.48257">
        <ele>1061.5</ele>
        <time>2021-08-13T06:20:35Z</time>
      </trkpt>
      <trkpt lat="44.05382" lon="6.48246">
        <ele>1067.3</ele>
        <time>2021-08-13T06:20:50Z</time>
      </trkpt>
      <trkpt lat="44.05287" lon="6.48296">
        <ele>1070.7</ele>
        <time>2021-08-13T06:21:05Z</time>
      </trkpt>
      <trkpt lat="44.05188" lon="6.48286">
        <ele>1076.3</ele>
        <time>2021-08-13T06:21:20Z</time>
      </trkpt>
      <trkpt lat="44.05075" lon="6.48217">
        <ele>1082.6</ele>
        <time>2021-08-13T06:21:35Z</time>
      </trkpt>
      <trkpt lat="44.04997" lon="6.48143">
        <ele>1085.8</ele>
        <time>2021-08-13T06:21:45Z</time>
      </trkpt>
      <trkpt lat="44.04902" lon="6.4814">
        <ele>1092</ele>
        <time>2021-08-13T06:22:00Z</time>
      </trkpt>
      <trkpt lat="44.04809" lon="6.4817">
        <ele>1096.6</ele>
        <time>2021-08-13T06:22:20Z</time>
      </trkpt>
      <trkpt lat="44.04737" lon="6.4824">
        <ele>1103.9</ele>
        <time>2021-08-13T06:22:35Z</time>
      </trkpt>
      <trkpt lat="44.0462" lon="6.48268">
        <ele>1106.4</ele>
        <time>2021-08-13T06:22:45Z</time>
      </trkpt>
      <trkpt lat="44.04507" lon="6.48321">
        <ele>1108.6</ele>
        <time>2021-08-13T06:23:00Z</time>
      </trkpt>
      <trkpt lat="44.04418" lon="6.48379">
        <ele>1112.4</ele>
        <time>2021-08-13T06:23:15Z</time>
      </trkpt>
      <trkpt lat="44.04307" lon="6.48358">
        <ele>1114.5</ele>
        <time>2021-08-13T06:23:30Z</time>
      </trkpt>
      <trkpt lat="44.04206" lon="6.48428">
        <ele>1117.8</ele>
        <time>2021-08-13T06:23:45Z</time>
      </trkpt>
      <trkpt lat="44.04084" lon="6.48453">
        <ele>1123.1</ele>
        <time>2021-08-13T06:24:00Z</time>
      </trkpt>
      <trkpt lat="44.04002" lon="6.48513">
        <ele>1126.9</ele>
        <time>2021-08-13T06:24:10Z</time>
      </trkpt>
      <trkpt lat="44.0392" lon="6.4859">
        <ele>1130.3</ele>
        <time>2021-08-13T06:24:25Z</time>
      </trkpt>
      <trkpt lat="44.03813" lon="6.48606">
        <ele>1135.7</ele>
        <time>2021-08-13T06:24:45Z</time>
      </trkpt>
      <trkpt lat="44.0373" lon="6.48658">
        <ele>1138.9</ele>
        <time>2021-08-13T06:24:55Z</time>
      </trkpt>
      <trkpt lat="44.03616" lon="6.48719">
        <ele>1127.8</ele>
        <time>2021-08-13T06:25:10Z</time>
      </trkpt>
      <trkpt lat="44.03554" lon="6.48606">
        <ele>1129.3</ele>
        <time>2021-08-13T06:25:25Z</time>
      </trkpt>
      <trkpt lat="44.03463" lon="6.48568">
        <ele>1132.8</ele>
        <time>2021-08-13T06:25:40Z</time>
      </trkpt>
      <trkpt lat="44.03371" lon="6.48572">
        <ele>1114.3</ele>
        <time>2021-08-13T06:26:25Z</time>
      </trkpt>
      <trkpt lat="44.03264" lon="6.48624">
        <ele>1096</ele>
        <time>2021-08-13T06:26:53Z</time>
      </trkpt>
      <trkpt lat="44.03173" lon="6.48704">
        <ele>1079.6</ele>
        <time>2021-08-13T06:27:08Z</time>
      </trkpt>
      <trkpt lat="44.03119" lon="6.48834">
        <ele>1067.4</ele>
        <time>2021-08-13T06:27:23Z</time>
      </trkpt>
      <trkpt lat="44.0305" lon="6.4895">
        <ele>1052.9</ele>
        <time>2021-08-13T06:27:38Z</time>
      </trkpt>
      <trkpt lat="44.02947" lon="6.48939">
        <ele>1045.7</ele>
        <time>2021-08-13T06:27:53Z</time>
      </trkpt>
      <trkpt lat="44.02834" lon="6.48898">
        <ele>1037.1</ele>
        <time>2021-08-13T06:28:08Z</time>
      </trkpt>
      <trkpt lat="44.02753" lon="6.48958">
        <ele>1027.9</ele>
        <time>2021-08-13T06:28:18Z</time>
      </trkpt>
      <trkpt lat="44.02698" lon="6.49072">
        <ele>1021.7</ele>
        <time>2021-08-13T06:28:28Z</time>
      </trkpt>
      <trkpt lat="44.02597" lon="6.49158">
        <ele>1009.3</ele>
        <time>2021-08-13T06:28:43Z</time>
      </trkpt>
      <trkpt lat="44.02533" lon="6.49279">
        <ele>1000.6</ele>
        <time>2021-08-13T06:28:58Z</time>
      </trkpt>
      <trkpt lat="44.02475" lon="6.49423">
        <ele>993.6</ele>
        <time>2021-08-13T06:29:13Z</time>
      </trkpt>
      <trkpt lat="44.02402" lon="6.49553">
        <ele>986.4</ele>
        <time>2021-08-13T06:29:28Z</time>
      </trkpt>
      <trkpt lat="44.02301" lon="6.49574">
        <ele>979.9</ele>
        <time>2021-08-13T06:29:43Z</time>
      </trkpt>
      <trkpt lat="44.02185" lon="6.4959">
        <ele>973.8</ele>
        <time>2021-08-13T06:29:58Z</time>
      </trkpt>
      <trkpt lat="44.02071" lon="6.49632">
        <ele>969.5</ele>
        <time>2021-08-13T06:30:13Z</time>
      </trkpt>
      <trkpt lat="44.01985" lon="6.49728">
        <ele>964.2</ele>
        <time>2021-08-13T06:30:28Z</time>
      </trkpt>
      <trkpt lat="44.01912" lon="6.49837">
        <ele>960.2</ele>
        <time>2021-08-13T06:30:43Z</time>
      </trkpt>
      <trkpt lat="44.01834" lon="6.49936">
        <ele>956.4</ele>
        <time>2021-08-13T06:30:58Z</time>
      </trkpt>
      <trkpt lat="44.01722" lon="6.49976">
        <ele>952.3</ele>
        <time>2021-08-13T06:31:13Z</time>
      </trkpt>
      <trkpt lat="44.0161" lon="6.49937">
        <ele>948.2</ele>
        <time>2021-08-13T06:31:28Z</time>
      </trkpt>
      <trkpt lat="44.01481" lon="6.49864">
        <ele>944.2</ele>
        <time>2021-08-13T06:31:43Z</time>
      </trkpt>
      <trkpt lat="44.01377" lon="6.49763">
        <ele>940.1</ele>
        <time>2021-08-13T06:31:58Z</time>
      </trkpt>
      <trkpt lat="44.01274" lon="6.49664">
        <ele>936.6</ele>
        <time>2021-08-13T06:32:13Z</time>
      </trkpt>
      <trkpt lat="44.01179" lon="6.49664">
        <ele>934.2</ele>
        <time>2021-08-13T06:32:23Z</time>
      </trkpt>
      <trkpt lat="44.01071" lon="6.49684">
        <ele>931.5</ele>
        <time>2021-08-13T06:32:38Z</time>
      </trkpt>
      <trkpt lat="44.00956" lon="6.49698">
        <ele>929.8</ele>
        <time>2021-08-13T06:32:53Z</time>
      </trkpt>
      <trkpt lat="44.00836" lon="6.49696">
        <ele>927.9</ele>
        <time>2021-08-13T06:33:08Z</time>
      </trkpt>
      <trkpt lat="44.00736" lon="6.49749">
        <ele>926.6</ele>
        <time>2021-08-13T06:33:28Z</time>
      </trkpt>
      <trkpt lat="44.00695" lon="6.49876">
        <ele>925.7</ele>
        <time>2021-08-13T06:33:43Z</time>
      </trkpt>
      <trkpt lat="44.00673" lon="6.50026">
        <ele>924.2</ele>
        <time>2021-08-13T06:33:58Z</time>
      </trkpt>
      <trkpt lat="44.00604" lon="6.50107">
        <ele>922.5</ele>
        <time>2021-08-13T06:34:08Z</time>
      </trkpt>
      <trkpt lat="44.00477" lon="6.50091">
        <ele>922.8</ele>
        <time>2021-08-13T06:34:23Z</time>
      </trkpt>
      <trkpt lat="44.00355" lon="6.50113">
        <ele>922</ele>
        <time>2021-08-13T06:34:38Z</time>
      </trkpt>
      <trkpt lat="44.00234" lon="6.50149">
        <ele>920.8</ele>
        <time>2021-08-13T06:34:53Z</time>
      </trkpt>
      <trkpt lat="44.0012" lon="6.50102">
        <ele>920.4</ele>
        <time>2021-08-13T06:35:08Z</time>
      </trkpt>
      <trkpt lat="44.00035" lon="6.50041">
        <ele>922</ele>
        <time>2021-08-13T06:35:18Z</time>
      </trkpt>
      <trkpt lat="43.99932" lon="6.50023">
        <ele>921.9</ele>
        <time>2021-08-13T06:35:28Z</time>
      </trkpt>
      <trkpt lat="43.99838" lon="6.50038">
        <ele>921.6</ele>
        <time>2021-08-13T06:35:38Z</time>
      </trkpt>
      <trkpt lat="43.99742" lon="6.50142">
        <ele>922.8</ele>
        <time>2021-08-13T06:35:53Z</time>
      </trkpt>
      <trkpt lat="43.99666" lon="6.50205">
        <ele>923.2</ele>
        <time>2021-08-13T06:36:03Z</time>
      </trkpt>
      <trkpt lat="43.99563" lon="6.50268">
        <ele>922.8</ele>
        <time>2021-08-13T06:36:18Z</time>
      </trkpt>
      <trkpt lat="43.9947" lon="6.50273">
        <ele>923</ele>
        <time>2021-08-13T06:36:33Z</time>
      </trkpt>
      <trkpt lat="43.99377" lon="6.50312">
        <ele>925.1</ele>
        <time>2021-08-13T06:36:48Z</time>
      </trkpt>
      <trkpt lat="43.99287" lon="6.5031">
        <ele>925.4</ele>
        <time>2021-08-13T06:37:03Z</time>
      </trkpt>
      <trkpt lat="43.99173" lon="6.50336">
        <ele>928.6</ele>
        <time>2021-08-13T06:37:23Z</time>
      </trkpt>
      <trkpt lat="43.99073" lon="6.50354">
        <ele>929.6</ele>
        <time>2021-08-13T06:37:38Z</time>
      </trkpt>
      <trkpt lat="43.99003" lon="6.50441">
        <ele>931.2</ele>
        <time>2021-08-13T06:37:53Z</time>
      </trkpt>
      <trkpt lat="43.98911" lon="6.50513">
        <ele>934</ele>
        <time>2021-08-13T06:38:08Z</time>
      </trkpt>
      <trkpt lat="43.98793" lon="6.50475">
        <ele>934.3</ele>
        <time>2021-08-13T06:38:23Z</time>
      </trkpt>
      <trkpt lat="43.98695" lon="6.50476">
        <ele>934.9</ele>
        <time>2021-08-13T06:38:33Z</time>
      </trkpt>
      <trkpt lat="43.98586" lon="6.50566">
        <ele>936.4</ele>
        <time>2021-08-13T06:38:48Z</time>
      </trkpt>
      <trkpt lat="43.98487" lon="6.50633">
        <ele>937.4</ele>
        <time>2021-08-13T06:39:03Z</time>
      </trkpt>
      <trkpt lat="43.98387" lon="6.50665">
        <ele>938.6</ele>
        <time>2021-08-13T06:39:18Z</time>
      </trkpt>
      <trkpt lat="43.98266" lon="6.50701">
        <ele>939.5</ele>
        <time>2021-08-13T06:39:33Z</time>
      </trkpt>
      <trkpt lat="43.98165" lon="6.50774">
        <ele>939.4</ele>
        <time>2021-08-13T06:39:48Z</time>
      </trkpt>
      <trkpt lat="43.9805" lon="6.5076">
        <ele>937.6</ele>
        <time>2021-08-13T06:40:03Z</time>
      </trkpt>
      <trkpt lat="43.97943" lon="6.50809">
        <ele>938.1</ele>
        <time>2021-08-13T06:40:18Z</time>
      </trkpt>
      <trkpt lat="43.97857" lon="6.50851">
        <ele>937.7</ele>
        <time>2021-08-13T06:40:33Z</time>
      </trkpt>
      <trkpt lat="43.97737" lon="6.50883">
        <ele>936.5</ele>
        <time>2021-08-13T06:40:53Z</time>
      </trkpt>
      <trkpt lat="43.97635" lon="6.50925">
        <ele>935.5</ele>
        <time>2021-08-13T06:41:08Z</time>
      </trkpt>
      <trkpt lat="43.97523" lon="6.50909">
        <ele>932</ele>
        <time>2021-08-13T06:41:28Z</time>
      </trkpt>
      <trkpt lat="43.97431" lon="6.5087">
        <ele>930</ele>
        <time>2021-08-13T06:41:43Z</time>
      </trkpt>
      <trkpt lat="43.97342" lon="6.50938">
        <ele>927.9</ele>
        <time>2021-08-13T06:42:03Z</time>
      </trkpt>
      <trkpt lat="43.97221" lon="6.50966">
        <ele>921.8</ele>
        <time>2021-08-13T06:42:23Z</time>
      </trkpt>
      <trkpt lat="43.97146" lon="6.51052">
        <ele>911.9</ele>
        <time>2021-08-13T06:42:38Z</time>
      </trkpt>
      <trkpt lat="43.97055" lon="6.51076">
        <ele>905.4</ele>
        <time>2021-08-13T06:42:58Z</time>
      </trkpt>
      <trkpt lat="43.9701" lon="6.50949">
        <ele>896.7</ele>
        <time>2021-08-13T06:46:29Z</time>
      </trkpt>
      <trkpt lat="43.96953" lon="6.50833">
        <ele>893</ele>
        <time>2021-08-13T06:46:49Z</time>
      </trkpt>
      <trkpt lat="43.96875" lon="6.5076">
        <ele>888.4</ele>
        <time>2021-08-13T06:47:04Z</time>
      </trkpt>
      <trkpt lat="43.96884" lon="6.50625">
        <ele>897.5</ele>
        <time>2021-08-13T06:47:34Z</time>
      </trkpt>
      <trkpt lat="43.96851" lon="6.50497">
        <ele>904.6</ele>
        <time>2021-08-13T06:48:20Z</time>
      </trkpt>
      <trkpt lat="43.96763" lon="6.50433">
        <ele>905.9</ele>
        <time>2021-08-13T06:49:05Z</time>
      </trkpt>
      <trkpt lat="43.9668" lon="6.50372">
        <ele>912.8</ele>
        <time>2021-08-13T06:49:45Z</time>
      </trkpt>
      <trkpt lat="43.96595" lon="6.50297">
        <ele>917.2</ele>
        <time>2021-08-13T06:50:30Z</time>
      </trkpt>
      <trkpt lat="43.9654" lon="6.50179">
        <ele>930.8</ele>
        <time>2021-08-13T06:51:15Z</time>
      </trkpt>
      <trkpt lat="43.96484" lon="6.50067">
        <ele>937.3</ele>
        <time>2021-08-13T06:52:00Z</time>
      </trkpt>
      <trkpt lat="43.96395" lon="6.49997">
        <ele>938.6</ele>
        <time>2021-08-13T06:52:45Z</time>
      </trkpt>
      <trkpt lat="43.96307" lon="6.49928">
        <ele>946</ele>
        <time>2021-08-13T06:53:31Z</time>
      </trkpt>
      <trkpt lat="43.96221" lon="6.49854">
        <ele>953.5</ele>
        <time>2021-08-13T06:54:21Z</time>
      </trkpt>
      <trkpt lat="43.96176" lon="6.49736">
        <ele>958.3</ele>
        <time>2021-08-13T06:55:09Z</time>
      </trkpt>
      <trkpt lat="43.96166" lon="6.49607">
        <ele>965.3</ele>
        <time>2021-08-13T06:55:57Z</time>
      </trkpt>
      <trkpt lat="43.96172" lon="6.49475">
        <ele>973</ele>
        <time>2021-08-13T06:56:42Z</time>
      </trkpt>
      <trkpt lat="43.96154" lon="6.4935">
        <ele>981.8</ele>
        <time>2021-08-13T06:57:28Z</time>
      </trkpt>
      <trkpt lat="43.96097" lon="6.49193">
        <ele>995.1</ele>
        <time>2021-08-13T06:58:11Z</time>
      </trkpt>
      <trkpt lat="43.96058" lon="6.49056">
        <ele>996.9</ele>
        <time>2021-08-13T06:58:21Z</time>
      </trkpt>
      <trkpt lat="43.96035" lon="6.48917">
        <ele>997.5</ele>
        <time>2021-08-13T06:58:31Z</time>
      </trkpt>
      <trkpt lat="43.96005" lon="6.48785">
        <ele>992.7</ele>
        <time>2021-08-13T06:58:41Z</time>
      </trkpt>
      <trkpt lat="43.95976" lon="6.48647">
        <ele>983.1</ele>
        <time>2021-08-13T06:58:51Z</time>
      </trkpt>
      <trkpt lat="43.95968" lon="6.48497">
        <ele>969.4</ele>
        <time>2021-08-13T06:59:01Z</time>
      </trkpt>
      <trkpt lat="43.95985" lon="6.48349">
        <ele>956.7</ele>
        <time>2021-08-13T06:59:11Z</time>
      </trkpt>
      <trkpt lat="43.9601" lon="6.48196">
        <ele>949.1</ele>
        <time>2021-08-13T06:59:21Z</time>
      </trkpt>
      <trkpt lat="43.96039" lon="6.4803">
        <ele>940.2</ele>
        <time>2021-08-13T06:59:31Z</time>
      </trkpt>
      <trkpt lat="43.96065" lon="6.47855">
        <ele>931.5</ele>
        <time>2021-08-13T06:59:41Z</time>
      </trkpt>
      <trkpt lat="43.96077" lon="6.47678">
        <ele>924.3</ele>
        <time>2021-08-13T06:59:51Z</time>
      </trkpt>
      <trkpt lat="43.96064" lon="6.47506">
        <ele>915.1</ele>
        <time>2021-08-13T07:00:01Z</time>
      </trkpt>
      <trkpt lat="43.96061" lon="6.47339">
        <ele>905.4</ele>
        <time>2021-08-13T07:00:11Z</time>
      </trkpt>
      <trkpt lat="43.96078" lon="6.47181">
        <ele>896.3</ele>
        <time>2021-08-13T07:00:21Z</time>
      </trkpt>
      <trkpt lat="43.96118" lon="6.47038">
        <ele>891.1</ele>
        <time>2021-08-13T07:00:31Z</time>
      </trkpt>
      <trkpt lat="43.9615" lon="6.46902">
        <ele>885.3</ele>
        <time>2021-08-13T07:00:41Z</time>
      </trkpt>
      <trkpt lat="43.96169" lon="6.46778">
        <ele>881.8</ele>
        <time>2021-08-13T07:00:51Z</time>
      </trkpt>
      <trkpt lat="43.96192" lon="6.4665">
        <ele>877</ele>
        <time>2021-08-13T07:01:01Z</time>
      </trkpt>
      <trkpt lat="43.96163" lon="6.46527">
        <ele>872.5</ele>
        <time>2021-08-13T07:01:11Z</time>
      </trkpt>
      <trkpt lat="43.96204" lon="6.46415">
        <ele>869.8</ele>
        <time>2021-08-13T07:01:21Z</time>
      </trkpt>
      <trkpt lat="43.96206" lon="6.46274">
        <ele>864.6</ele>
        <time>2021-08-13T07:01:31Z</time>
      </trkpt>
      <trkpt lat="43.96231" lon="6.46136">
        <ele>859.9</ele>
        <time>2021-08-13T07:01:41Z</time>
      </trkpt>
      <trkpt lat="43.96247" lon="6.45961">
        <ele>853.7</ele>
        <time>2021-08-13T07:01:56Z</time>
      </trkpt>
      <trkpt lat="43.9626" lon="6.45777">
        <ele>847.5</ele>
        <time>2021-08-13T07:02:11Z</time>
      </trkpt>
      <trkpt lat="43.96286" lon="6.45656">
        <ele>843.3</ele>
        <time>2021-08-13T07:02:21Z</time>
      </trkpt>
      <trkpt lat="43.9631" lon="6.45535">
        <ele>838.2</ele>
        <time>2021-08-13T07:02:31Z</time>
      </trkpt>
      <trkpt lat="43.96347" lon="6.45417">
        <ele>835.3</ele>
        <time>2021-08-13T07:02:41Z</time>
      </trkpt>
      <trkpt lat="43.96399" lon="6.45314">
        <ele>835.4</ele>
        <time>2021-08-13T07:02:51Z</time>
      </trkpt>
      <trkpt lat="43.96461" lon="6.45159">
        <ele>832.7</ele>
        <time>2021-08-13T07:03:06Z</time>
      </trkpt>
      <trkpt lat="43.96541" lon="6.45047">
        <ele>833.8</ele>
        <time>2021-08-13T07:03:21Z</time>
      </trkpt>
      <trkpt lat="43.96518" lon="6.44904">
        <ele>832.5</ele>
        <time>2021-08-13T07:03:36Z</time>
      </trkpt>
      <trkpt lat="43.96416" lon="6.44794">
        <ele>828.5</ele>
        <time>2021-08-13T07:03:51Z</time>
      </trkpt>
      <trkpt lat="43.96318" lon="6.44668">
        <ele>825.6</ele>
        <time>2021-08-13T07:04:06Z</time>
      </trkpt>
      <trkpt lat="43.9625" lon="6.44495">
        <ele>822.7</ele>
        <time>2021-08-13T07:04:21Z</time>
      </trkpt>
      <trkpt lat="43.9619" lon="6.44376">
        <ele>821.2</ele>
        <time>2021-08-13T07:04:31Z</time>
      </trkpt>
      <trkpt lat="43.96149" lon="6.44259">
        <ele>818.9</ele>
        <time>2021-08-13T07:04:41Z</time>
      </trkpt>
      <trkpt lat="43.96121" lon="6.44131">
        <ele>818</ele>
        <time>2021-08-13T07:04:51Z</time>
      </trkpt>
      <trkpt lat="43.96145" lon="6.44011">
        <ele>816.6</ele>
        <time>2021-08-13T07:05:01Z</time>
      </trkpt>
      <trkpt lat="43.96168" lon="6.43891">
        <ele>816</ele>
        <time>2021-08-13T07:05:11Z</time>
      </trkpt>
      <trkpt lat="43.96203" lon="6.43751">
        <ele>820.5</ele>
        <time>2021-08-13T07:05:26Z</time>
      </trkpt>
      <trkpt lat="43.96191" lon="6.43601">
        <ele>817.4</ele>
        <time>2021-08-13T07:05:41Z</time>
      </trkpt>
      <trkpt lat="43.9612" lon="6.43443">
        <ele>814</ele>
        <time>2021-08-13T07:05:56Z</time>
      </trkpt>
      <trkpt lat="43.96029" lon="6.43338">
        <ele>812.4</ele>
        <time>2021-08-13T07:06:11Z</time>
      </trkpt>
      <trkpt lat="43.95945" lon="6.43234">
        <ele>809.3</ele>
        <time>2021-08-13T07:06:26Z</time>
      </trkpt>
      <trkpt lat="43.95905" lon="6.43104">
        <ele>809.6</ele>
        <time>2021-08-13T07:06:41Z</time>
      </trkpt>
      <trkpt lat="43.95829" lon="6.43006">
        <ele>812.7</ele>
        <time>2021-08-13T07:06:56Z</time>
      </trkpt>
      <trkpt lat="43.95734" lon="6.42923">
        <ele>811.5</ele>
        <time>2021-08-13T07:07:11Z</time>
      </trkpt>
      <trkpt lat="43.95641" lon="6.42819">
        <ele>808.6</ele>
        <time>2021-08-13T07:07:26Z</time>
      </trkpt>
      <trkpt lat="43.95585" lon="6.42664">
        <ele>807</ele>
        <time>2021-08-13T07:07:41Z</time>
      </trkpt>
      <trkpt lat="43.95541" lon="6.42545">
        <ele>801.1</ele>
        <time>2021-08-13T07:07:51Z</time>
      </trkpt>
      <trkpt lat="43.95447" lon="6.42412">
        <ele>797.7</ele>
        <time>2021-08-13T07:08:06Z</time>
      </trkpt>
      <trkpt lat="43.95354" lon="6.42279">
        <ele>797.3</ele>
        <time>2021-08-13T07:08:21Z</time>
      </trkpt>
      <trkpt lat="43.95304" lon="6.42102">
        <ele>794.2</ele>
        <time>2021-08-13T07:08:36Z</time>
      </trkpt>
      <trkpt lat="43.9527" lon="6.41926">
        <ele>790.2</ele>
        <time>2021-08-13T07:08:51Z</time>
      </trkpt>
      <trkpt lat="43.95214" lon="6.41798">
        <ele>786.2</ele>
        <time>2021-08-13T07:09:06Z</time>
      </trkpt>
      <trkpt lat="43.95159" lon="6.41675">
        <ele>786.4</ele>
        <time>2021-08-13T07:09:21Z</time>
      </trkpt>
      <trkpt lat="43.95159" lon="6.41521">
        <ele>785.4</ele>
        <time>2021-08-13T07:09:36Z</time>
      </trkpt>
      <trkpt lat="43.95161" lon="6.41336">
        <ele>784.4</ele>
        <time>2021-08-13T07:09:51Z</time>
      </trkpt>
      <trkpt lat="43.95154" lon="6.41206">
        <ele>783.2</ele>
        <time>2021-08-13T07:10:01Z</time>
      </trkpt>
      <trkpt lat="43.9518" lon="6.4103">
        <ele>779.3</ele>
        <time>2021-08-13T07:10:16Z</time>
      </trkpt>
      <trkpt lat="43.95216" lon="6.40866">
        <ele>774.2</ele>
        <time>2021-08-13T07:10:31Z</time>
      </trkpt>
      <trkpt lat="43.95267" lon="6.40702">
        <ele>770</ele>
        <time>2021-08-13T07:10:46Z</time>
      </trkpt>
      <trkpt lat="43.95327" lon="6.40556">
        <ele>767</ele>
        <time>2021-08-13T07:11:01Z</time>
      </trkpt>
      <trkpt lat="43.95378" lon="6.40422">
        <ele>762.5</ele>
        <time>2021-08-13T07:11:16Z</time>
      </trkpt>
      <trkpt lat="43.95425" lon="6.403">
        <ele>761.1</ele>
        <time>2021-08-13T07:11:31Z</time>
      </trkpt>
      <trkpt lat="43.95469" lon="6.40172">
        <ele>759.9</ele>
        <time>2021-08-13T07:11:46Z</time>
      </trkpt>
      <trkpt lat="43.955" lon="6.40017">
        <ele>755.6</ele>
        <time>2021-08-13T07:12:01Z</time>
      </trkpt>
      <trkpt lat="43.95523" lon="6.39843">
        <ele>751.9</ele>
        <time>2021-08-13T07:12:16Z</time>
      </trkpt>
      <trkpt lat="43.95552" lon="6.39663">
        <ele>753.1</ele>
        <time>2021-08-13T07:12:31Z</time>
      </trkpt>
      <trkpt lat="43.95571" lon="6.39537">
        <ele>751</ele>
        <time>2021-08-13T07:12:41Z</time>
      </trkpt>
      <trkpt lat="43.9559" lon="6.39411">
        <ele>749</ele>
        <time>2021-08-13T07:12:51Z</time>
      </trkpt>
      <trkpt lat="43.95618" lon="6.39236">
        <ele>746.4</ele>
        <time>2021-08-13T07:13:06Z</time>
      </trkpt>
      <trkpt lat="43.95665" lon="6.39089">
        <ele>746.6</ele>
        <time>2021-08-13T07:13:21Z</time>
      </trkpt>
      <trkpt lat="43.95736" lon="6.38953">
        <ele>746.7</ele>
        <time>2021-08-13T07:13:36Z</time>
      </trkpt>
      <trkpt lat="43.95811" lon="6.38808">
        <ele>747.1</ele>
        <time>2021-08-13T07:13:51Z</time>
      </trkpt>
      <trkpt lat="43.95884" lon="6.38668">
        <ele>747</ele>
        <time>2021-08-13T07:14:06Z</time>
      </trkpt>
      <trkpt lat="43.95975" lon="6.38559">
        <ele>746.8</ele>
        <time>2021-08-13T07:14:21Z</time>
      </trkpt>
      <trkpt lat="43.96056" lon="6.38473">
        <ele>743</ele>
        <time>2021-08-13T07:14:36Z</time>
      </trkpt>
      <trkpt lat="43.9612" lon="6.38366">
        <ele>741.6</ele>
        <time>2021-08-13T07:14:51Z</time>
      </trkpt>
      <trkpt lat="43.96093" lon="6.38236">
        <ele>737.8</ele>
        <time>2021-08-13T07:15:06Z</time>
      </trkpt>
      <trkpt lat="43.9604" lon="6.38099">
        <ele>734.8</ele>
        <time>2021-08-13T07:15:21Z</time>
      </trkpt>
      <trkpt lat="43.9599" lon="6.37966">
        <ele>735.1</ele>
        <time>2021-08-13T07:15:36Z</time>
      </trkpt>
      <trkpt lat="43.9594" lon="6.37845">
        <ele>734.7</ele>
        <time>2021-08-13T07:15:51Z</time>
      </trkpt>
      <trkpt lat="43.95869" lon="6.37752">
        <ele>737.9</ele>
        <time>2021-08-13T07:16:06Z</time>
      </trkpt>
      <trkpt lat="43.95788" lon="6.37674">
        <ele>737.8</ele>
        <time>2021-08-13T07:16:21Z</time>
      </trkpt>
      <trkpt lat="43.95712" lon="6.37597">
        <ele>736.6</ele>
        <time>2021-08-13T07:16:36Z</time>
      </trkpt>
      <trkpt lat="43.95648" lon="6.37485">
        <ele>737.6</ele>
        <time>2021-08-13T07:16:51Z</time>
      </trkpt>
      <trkpt lat="43.95592" lon="6.37344">
        <ele>735.6</ele>
        <time>2021-08-13T07:17:11Z</time>
      </trkpt>
      <trkpt lat="43.95514" lon="6.37245">
        <ele>737.5</ele>
        <time>2021-08-13T07:17:26Z</time>
      </trkpt>
      <trkpt lat="43.9543" lon="6.37109">
        <ele>733.5</ele>
        <time>2021-08-13T07:17:41Z</time>
      </trkpt>
      <trkpt lat="43.95384" lon="6.36974">
        <ele>730.7</ele>
        <time>2021-08-13T07:17:56Z</time>
      </trkpt>
      <trkpt lat="43.95324" lon="6.36837">
        <ele>729.5</ele>
        <time>2021-08-13T07:18:16Z</time>
      </trkpt>
      <trkpt lat="43.95288" lon="6.36701">
        <ele>727.5</ele>
        <time>2021-08-13T07:19:05Z</time>
      </trkpt>
      <trkpt lat="43.95229" lon="6.3659">
        <ele>732.2</ele>
        <time>2021-08-13T07:23:20Z</time>
      </trkpt>
      <trkpt lat="43.95307" lon="6.3648">
        <ele>731.3</ele>
        <time>2021-08-13T07:26:14Z</time>
      </trkpt>
      <trkpt lat="43.95377" lon="6.36394">
        <ele>731.9</ele>
        <time>2021-08-13T07:26:29Z</time>
      </trkpt>
      <trkpt lat="43.95469" lon="6.36331">
        <ele>729</ele>
        <time>2021-08-13T07:26:44Z</time>
      </trkpt>
      <trkpt lat="43.95561" lon="6.36237">
        <ele>725.7</ele>
        <time>2021-08-13T07:26:59Z</time>
      </trkpt>
      <trkpt lat="43.95639" lon="6.3612">
        <ele>722.5</ele>
        <time>2021-08-13T07:27:14Z</time>
      </trkpt>
      <trkpt lat="43.95729" lon="6.36033">
        <ele>720.7</ele>
        <time>2021-08-13T07:27:29Z</time>
      </trkpt>
      <trkpt lat="43.95807" lon="6.35919">
        <ele>717</ele>
        <time>2021-08-13T07:27:44Z</time>
      </trkpt>
      <trkpt lat="43.95896" lon="6.35813">
        <ele>712.7</ele>
        <time>2021-08-13T07:27:59Z</time>
      </trkpt>
      <trkpt lat="43.95978" lon="6.35706">
        <ele>710.1</ele>
        <time>2021-08-13T07:28:14Z</time>
      </trkpt>
      <trkpt lat="43.96054" lon="6.356">
        <ele>708.4</ele>
        <time>2021-08-13T07:28:29Z</time>
      </trkpt>
      <trkpt lat="43.96128" lon="6.35492">
        <ele>710</ele>
        <time>2021-08-13T07:28:44Z</time>
      </trkpt>
      <trkpt lat="43.96204" lon="6.35384">
        <ele>711.5</ele>
        <time>2021-08-13T07:28:59Z</time>
      </trkpt>
      <trkpt lat="43.96221" lon="6.35222">
        <ele>713</ele>
        <time>2021-08-13T07:29:14Z</time>
      </trkpt>
      <trkpt lat="43.96175" lon="6.35094">
        <ele>710.2</ele>
        <time>2021-08-13T07:29:29Z</time>
      </trkpt>
      <trkpt lat="43.96168" lon="6.3495">
        <ele>711.3</ele>
        <time>2021-08-13T07:29:44Z</time>
      </trkpt>
      <trkpt lat="43.96196" lon="6.34797">
        <ele>710.3</ele>
        <time>2021-08-13T07:29:59Z</time>
      </trkpt>
      <trkpt lat="43.9621" lon="6.34662">
        <ele>710.6</ele>
        <time>2021-08-13T07:30:14Z</time>
      </trkpt>
      <trkpt lat="43.96155" lon="6.34499">
        <ele>710.3</ele>
        <time>2021-08-13T07:30:29Z</time>
      </trkpt>
      <trkpt lat="43.96055" lon="6.34392">
        <ele>709.2</ele>
        <time>2021-08-13T07:30:44Z</time>
      </trkpt>
      <trkpt lat="43.96033" lon="6.34208">
        <ele>706.9</ele>
        <time>2021-08-13T07:30:59Z</time>
      </trkpt>
      <trkpt lat="43.96048" lon="6.34042">
        <ele>706.8</ele>
        <time>2021-08-13T07:31:14Z</time>
      </trkpt>
      <trkpt lat="43.96073" lon="6.33879">
        <ele>705.6</ele>
        <time>2021-08-13T07:31:29Z</time>
      </trkpt>
      <trkpt lat="43.9613" lon="6.33726">
        <ele>706.8</ele>
        <time>2021-08-13T07:31:44Z</time>
      </trkpt>
      <trkpt lat="43.96191" lon="6.33589">
        <ele>704.1</ele>
        <time>2021-08-13T07:31:59Z</time>
      </trkpt>
      <trkpt lat="43.96193" lon="6.33433">
        <ele>704.6</ele>
        <time>2021-08-13T07:32:14Z</time>
      </trkpt>
      <trkpt lat="43.96176" lon="6.33282">
        <ele>703.7</ele>
        <time>2021-08-13T07:32:29Z</time>
      </trkpt>
      <trkpt lat="43.96156" lon="6.33114">
        <ele>703.1</ele>
        <time>2021-08-13T07:32:44Z</time>
      </trkpt>
      <trkpt lat="43.96172" lon="6.32951">
        <ele>702.7</ele>
        <time>2021-08-13T07:32:59Z</time>
      </trkpt>
      <trkpt lat="43.96187" lon="6.32804">
        <ele>704.6</ele>
        <time>2021-08-13T07:33:14Z</time>
      </trkpt>
      <trkpt lat="43.96213" lon="6.3263">
        <ele>703.8</ele>
        <time>2021-08-13T07:33:29Z</time>
      </trkpt>
      <trkpt lat="43.9626" lon="6.3251">
        <ele>703.5</ele>
        <time>2021-08-13T07:33:39Z</time>
      </trkpt>
      <trkpt lat="43.96307" lon="6.32353">
        <ele>700.8</ele>
        <time>2021-08-13T07:33:54Z</time>
      </trkpt>
      <trkpt lat="43.96322" lon="6.32228">
        <ele>700.8</ele>
        <time>2021-08-13T07:34:04Z</time>
      </trkpt>
      <trkpt lat="43.96381" lon="6.32127">
        <ele>699.9</ele>
        <time>2021-08-13T07:34:14Z</time>
      </trkpt>
      <trkpt lat="43.96451" lon="6.32047">
        <ele>699.6</ele>
        <time>2021-08-13T07:34:24Z</time>
      </trkpt>
      <trkpt lat="43.9655" lon="6.31958">
        <ele>699.6</ele>
        <time>2021-08-13T07:34:39Z</time>
      </trkpt>
      <trkpt lat="43.96624" lon="6.31862">
        <ele>698.9</ele>
        <time>2021-08-13T07:34:54Z</time>
      </trkpt>
      <trkpt lat="43.9669" lon="6.31702">
        <ele>695.1</ele>
        <time>2021-08-13T07:35:09Z</time>
      </trkpt>
      <trkpt lat="43.96731" lon="6.31576">
        <ele>690.9</ele>
        <time>2021-08-13T07:35:19Z</time>
      </trkpt>
      <trkpt lat="43.96747" lon="6.3145">
        <ele>687.1</ele>
        <time>2021-08-13T07:35:29Z</time>
      </trkpt>
      <trkpt lat="43.96806" lon="6.31307">
        <ele>689</ele>
        <time>2021-08-13T07:35:44Z</time>
      </trkpt>
      <trkpt lat="43.96907" lon="6.31232">
        <ele>688</ele>
        <time>2021-08-13T07:35:59Z</time>
      </trkpt>
      <trkpt lat="43.97023" lon="6.3118">
        <ele>691.1</ele>
        <time>2021-08-13T07:36:14Z</time>
      </trkpt>
      <trkpt lat="43.97138" lon="6.31149">
        <ele>693.6</ele>
        <time>2021-08-13T07:36:29Z</time>
      </trkpt>
      <trkpt lat="43.9725" lon="6.31198">
        <ele>692</ele>
        <time>2021-08-13T07:36:44Z</time>
      </trkpt>
      <trkpt lat="43.97349" lon="6.3118">
        <ele>689.5</ele>
        <time>2021-08-13T07:36:59Z</time>
      </trkpt>
      <trkpt lat="43.97447" lon="6.31162">
        <ele>688.8</ele>
        <time>2021-08-13T07:37:14Z</time>
      </trkpt>
      <trkpt lat="43.97545" lon="6.31175">
        <ele>693.4</ele>
        <time>2021-08-13T07:37:29Z</time>
      </trkpt>
      <trkpt lat="43.97636" lon="6.3118">
        <ele>697.4</ele>
        <time>2021-08-13T07:37:49Z</time>
      </trkpt>
      <trkpt lat="43.97722" lon="6.31152">
        <ele>696.4</ele>
        <time>2021-08-13T07:38:04Z</time>
      </trkpt>
      <trkpt lat="43.97828" lon="6.31091">
        <ele>692.8</ele>
        <time>2021-08-13T07:38:24Z</time>
      </trkpt>
      <trkpt lat="43.97909" lon="6.31022">
        <ele>691.4</ele>
        <time>2021-08-13T07:38:44Z</time>
      </trkpt>
      <trkpt lat="43.97989" lon="6.30905">
        <ele>696.7</ele>
        <time>2021-08-13T07:39:09Z</time>
      </trkpt>
      <trkpt lat="43.98003" lon="6.30735">
        <ele>698.1</ele>
        <time>2021-08-13T07:39:24Z</time>
      </trkpt>
      <trkpt lat="43.98017" lon="6.30597">
        <ele>697.5</ele>
        <time>2021-08-13T07:39:34Z</time>
      </trkpt>
      <trkpt lat="43.9806" lon="6.30461">
        <ele>697.6</ele>
        <time>2021-08-13T07:39:44Z</time>
      </trkpt>
      <trkpt lat="43.98143" lon="6.30378">
        <ele>696.8</ele>
        <time>2021-08-13T07:39:54Z</time>
      </trkpt>
      <trkpt lat="43.98269" lon="6.30331">
        <ele>696.6</ele>
        <time>2021-08-13T07:40:09Z</time>
      </trkpt>
      <trkpt lat="43.98379" lon="6.30265">
        <ele>687.6</ele>
        <time>2021-08-13T07:40:24Z</time>
      </trkpt>
      <trkpt lat="43.9847" lon="6.30146">
        <ele>682.4</ele>
        <time>2021-08-13T07:40:39Z</time>
      </trkpt>
      <trkpt lat="43.9852" lon="6.29984">
        <ele>678.1</ele>
        <time>2021-08-13T07:40:54Z</time>
      </trkpt>
      <trkpt lat="43.98609" lon="6.29893">
        <ele>673.8</ele>
        <time>2021-08-13T07:41:09Z</time>
      </trkpt>
      <trkpt lat="43.98711" lon="6.29863">
        <ele>672.3</ele>
        <time>2021-08-13T07:41:29Z</time>
      </trkpt>
      <trkpt lat="43.98795" lon="6.29777">
        <ele>673.9</ele>
        <time>2021-08-13T07:41:49Z</time>
      </trkpt>
      <trkpt lat="43.98848" lon="6.29669">
        <ele>674</ele>
        <time>2021-08-13T07:42:04Z</time>
      </trkpt>
      <trkpt lat="43.98964" lon="6.29686">
        <ele>673.4</ele>
        <time>2021-08-13T07:42:19Z</time>
      </trkpt>
      <trkpt lat="43.99061" lon="6.29723">
        <ele>672.7</ele>
        <time>2021-08-13T07:42:29Z</time>
      </trkpt>
      <trkpt lat="43.99152" lon="6.29678">
        <ele>667.1</ele>
        <time>2021-08-13T07:42:39Z</time>
      </trkpt>
      <trkpt lat="43.99229" lon="6.29602">
        <ele>664.2</ele>
        <time>2021-08-13T07:42:49Z</time>
      </trkpt>
      <trkpt lat="43.99262" lon="6.29487">
        <ele>662.6</ele>
        <time>2021-08-13T07:42:59Z</time>
      </trkpt>
      <trkpt lat="43.99314" lon="6.29334">
        <ele>660.4</ele>
        <time>2021-08-13T07:43:14Z</time>
      </trkpt>
      <trkpt lat="43.99426" lon="6.29297">
        <ele>656.2</ele>
        <time>2021-08-13T07:43:29Z</time>
      </trkpt>
      <trkpt lat="43.99549" lon="6.29258">
        <ele>652.7</ele>
        <time>2021-08-13T07:43:44Z</time>
      </trkpt>
      <trkpt lat="43.99656" lon="6.29183">
        <ele>649.1</ele>
        <time>2021-08-13T07:43:59Z</time>
      </trkpt>
      <trkpt lat="43.99768" lon="6.29158">
        <ele>646.4</ele>
        <time>2021-08-13T07:44:14Z</time>
      </trkpt>
      <trkpt lat="43.99876" lon="6.29151">
        <ele>643.3</ele>
        <time>2021-08-13T07:44:34Z</time>
      </trkpt>
      <trkpt lat="43.99966" lon="6.29111">
        <ele>653.2</ele>
        <time>2021-08-13T07:44:54Z</time>
      </trkpt>
      <trkpt lat="44.00031" lon="6.29011">
        <ele>652.8</ele>
        <time>2021-08-13T07:45:09Z</time>
      </trkpt>
      <trkpt lat="44.00064" lon="6.28845">
        <ele>654.1</ele>
        <time>2021-08-13T07:45:24Z</time>
      </trkpt>
      <trkpt lat="44.00119" lon="6.28751">
        <ele>653.6</ele>
        <time>2021-08-13T07:45:34Z</time>
      </trkpt>
      <trkpt lat="44.00221" lon="6.28676">
        <ele>652.1</ele>
        <time>2021-08-13T07:45:49Z</time>
      </trkpt>
      <trkpt lat="44.00326" lon="6.28611">
        <ele>650.8</ele>
        <time>2021-08-13T07:46:04Z</time>
      </trkpt>
      <trkpt lat="44.00419" lon="6.2852">
        <ele>650.2</ele>
        <time>2021-08-13T07:46:19Z</time>
      </trkpt>
      <trkpt lat="44.00533" lon="6.28433">
        <ele>646.4</ele>
        <time>2021-08-13T07:46:34Z</time>
      </trkpt>
      <trkpt lat="44.00631" lon="6.28324">
        <ele>644.2</ele>
        <time>2021-08-13T07:46:49Z</time>
      </trkpt>
      <trkpt lat="44.00696" lon="6.28177">
        <ele>642.8</ele>
        <time>2021-08-13T07:47:04Z</time>
      </trkpt>
      <trkpt lat="44.00747" lon="6.28033">
        <ele>642.5</ele>
        <time>2021-08-13T07:47:19Z</time>
      </trkpt>
      <trkpt lat="44.00777" lon="6.27869">
        <ele>642</ele>
        <time>2021-08-13T07:47:34Z</time>
      </trkpt>
      <trkpt lat="44.00833" lon="6.27765">
        <ele>640.3</ele>
        <time>2021-08-13T07:47:44Z</time>
      </trkpt>
      <trkpt lat="44.00883" lon="6.27626">
        <ele>639.1</ele>
        <time>2021-08-13T07:47:59Z</time>
      </trkpt>
      <trkpt lat="44.00925" lon="6.27488">
        <ele>639.8</ele>
        <time>2021-08-13T07:48:14Z</time>
      </trkpt>
      <trkpt lat="44.00935" lon="6.27321">
        <ele>641.2</ele>
        <time>2021-08-13T07:48:29Z</time>
      </trkpt>
      <trkpt lat="44.00933" lon="6.27191">
        <ele>641.5</ele>
        <time>2021-08-13T07:48:39Z</time>
      </trkpt>
      <trkpt lat="44.00941" lon="6.27062">
        <ele>642.4</ele>
        <time>2021-08-13T07:48:49Z</time>
      </trkpt>
      <trkpt lat="44.0094" lon="6.26934">
        <ele>643</ele>
        <time>2021-08-13T07:48:59Z</time>
      </trkpt>
      <trkpt lat="44.00953" lon="6.26753">
        <ele>642.6</ele>
        <time>2021-08-13T07:49:14Z</time>
      </trkpt>
      <trkpt lat="44.00965" lon="6.26571">
        <ele>638.9</ele>
        <time>2021-08-13T07:49:29Z</time>
      </trkpt>
      <trkpt lat="44.00974" lon="6.26444">
        <ele>637.4</ele>
        <time>2021-08-13T07:49:39Z</time>
      </trkpt>
      <trkpt lat="44.00982" lon="6.2626">
        <ele>635.7</ele>
        <time>2021-08-13T07:49:54Z</time>
      </trkpt>
      <trkpt lat="44.00993" lon="6.26095">
        <ele>637.9</ele>
        <time>2021-08-13T07:50:09Z</time>
      </trkpt>
      <trkpt lat="44.01023" lon="6.25938">
        <ele>640.4</ele>
        <time>2021-08-13T07:50:24Z</time>
      </trkpt>
      <trkpt lat="44.01075" lon="6.25793">
        <ele>639.2</ele>
        <time>2021-08-13T07:50:39Z</time>
      </trkpt>
      <trkpt lat="44.01085" lon="6.2563">
        <ele>640.2</ele>
        <time>2021-08-13T07:50:54Z</time>
      </trkpt>
      <trkpt lat="44.01085" lon="6.25474">
        <ele>642.4</ele>
        <time>2021-08-13T07:51:09Z</time>
      </trkpt>
      <trkpt lat="44.01161" lon="6.25364">
        <ele>643.8</ele>
        <time>2021-08-13T07:51:24Z</time>
      </trkpt>
      <trkpt lat="44.01271" lon="6.25315">
        <ele>645.2</ele>
        <time>2021-08-13T07:51:39Z</time>
      </trkpt>
      <trkpt lat="44.01669" lon="6.25262">
        <ele>614.8</ele>
        <time>2021-08-13T07:52:23Z</time>
      </trkpt>
      <trkpt lat="44.01689" lon="6.25092">
        <ele>618.4</ele>
        <time>2021-08-13T07:52:38Z</time>
      </trkpt>
      <trkpt lat="44.01691" lon="6.24908">
        <ele>619.3</ele>
        <time>2021-08-13T07:52:53Z</time>
      </trkpt>
      <trkpt lat="44.01698" lon="6.24737">
        <ele>620</ele>
        <time>2021-08-13T07:53:08Z</time>
      </trkpt>
      <trkpt lat="44.01703" lon="6.24557">
        <ele>620.5</ele>
        <time>2021-08-13T07:53:23Z</time>
      </trkpt>
      <trkpt lat="44.0171" lon="6.24387">
        <ele>622.2</ele>
        <time>2021-08-13T07:53:38Z</time>
      </trkpt>
      <trkpt lat="44.01699" lon="6.24241">
        <ele>623</ele>
        <time>2021-08-13T07:53:53Z</time>
      </trkpt>
      <trkpt lat="44.01672" lon="6.24115">
        <ele>624</ele>
        <time>2021-08-13T07:54:08Z</time>
      </trkpt>
      <trkpt lat="44.01663" lon="6.23967">
        <ele>626.6</ele>
        <time>2021-08-13T07:54:28Z</time>
      </trkpt>
      <trkpt lat="44.01662" lon="6.23842">
        <ele>631</ele>
        <time>2021-08-13T07:54:48Z</time>
      </trkpt>
      <trkpt lat="44.01651" lon="6.23716">
        <ele>634.2</ele>
        <time>2021-08-13T07:55:13Z</time>
      </trkpt>
      <trkpt lat="44.0162" lon="6.23579">
        <ele>642.3</ele>
        <time>2021-08-13T07:55:38Z</time>
      </trkpt>
      <trkpt lat="44.01587" lon="6.23439">
        <ele>651</ele>
        <time>2021-08-13T07:56:03Z</time>
      </trkpt>
      <trkpt lat="44.01568" lon="6.23285">
        <ele>659</ele>
        <time>2021-08-13T07:56:23Z</time>
      </trkpt>
      <trkpt lat="44.01561" lon="6.2314">
        <ele>665.3</ele>
        <time>2021-08-13T07:56:38Z</time>
      </trkpt>
      <trkpt lat="44.01567" lon="6.22976">
        <ele>670.5</ele>
        <time>2021-08-13T07:56:53Z</time>
      </trkpt>
      <trkpt lat="44.01575" lon="6.22793">
        <ele>675.9</ele>
        <time>2021-08-13T07:57:08Z</time>
      </trkpt>
      <trkpt lat="44.01546" lon="6.22608">
        <ele>680</ele>
        <time>2021-08-13T07:57:23Z</time>
      </trkpt>
      <trkpt lat="44.01461" lon="6.22457">
        <ele>686.3</ele>
        <time>2021-08-13T07:57:38Z</time>
      </trkpt>
      <trkpt lat="44.01377" lon="6.22332">
        <ele>692.1</ele>
        <time>2021-08-13T07:57:53Z</time>
      </trkpt>
      <trkpt lat="44.01278" lon="6.22212">
        <ele>697.2</ele>
        <time>2021-08-13T07:58:08Z</time>
      </trkpt>
      <trkpt lat="44.01178" lon="6.22089">
        <ele>702.1</ele>
        <time>2021-08-13T07:58:23Z</time>
      </trkpt>
      <trkpt lat="44.01082" lon="6.2198">
        <ele>706.6</ele>
        <time>2021-08-13T07:58:38Z</time>
      </trkpt>
      <trkpt lat="44.00976" lon="6.21878">
        <ele>708.6</ele>
        <time>2021-08-13T07:58:53Z</time>
      </trkpt>
      <trkpt lat="44.00956" lon="6.21706">
        <ele>703.5</ele>
        <time>2021-08-13T07:59:08Z</time>
      </trkpt>
      <trkpt lat="44.01004" lon="6.21597">
        <ele>700.4</ele>
        <time>2021-08-13T07:59:18Z</time>
      </trkpt>
      <trkpt lat="44.01092" lon="6.21489">
        <ele>696.5</ele>
        <time>2021-08-13T07:59:33Z</time>
      </trkpt>
      <trkpt lat="44.01174" lon="6.21434">
        <ele>690.5</ele>
        <time>2021-08-13T07:59:53Z</time>
      </trkpt>
      <trkpt lat="44.01268" lon="6.21387">
        <ele>648</ele>
        <time>2021-08-13T08:00:28Z</time>
      </trkpt>
      <trkpt lat="44.01365" lon="6.2137">
        <ele>620.1</ele>
        <time>2021-08-13T08:01:03Z</time>
      </trkpt>
      <trkpt lat="44.01456" lon="6.21344">
        <ele>621</ele>
        <time>2021-08-13T08:01:38Z</time>
      </trkpt>
      <trkpt lat="44.01466" lon="6.21214">
        <ele>628</ele>
        <time>2021-08-13T08:07:19Z</time>
      </trkpt>
      <trkpt lat="44.01425" lon="6.21048">
        <ele>628.2</ele>
        <time>2021-08-13T08:07:34Z</time>
      </trkpt>
      <trkpt lat="44.01335" lon="6.2102">
        <ele>625.7</ele>
        <time>2021-08-13T08:07:44Z</time>
      </trkpt>
      <trkpt lat="44.01229" lon="6.20932">
        <ele>623.6</ele>
        <time>2021-08-13T08:07:59Z</time>
      </trkpt>
      <trkpt lat="44.0117" lon="6.2079">
        <ele>621.8</ele>
        <time>2021-08-13T08:08:14Z</time>
      </trkpt>
      <trkpt lat="44.01061" lon="6.20681">
        <ele>620.3</ele>
        <time>2021-08-13T08:08:29Z</time>
      </trkpt>
      <trkpt lat="44.0099" lon="6.20595">
        <ele>619.2</ele>
        <time>2021-08-13T08:08:39Z</time>
      </trkpt>
      <trkpt lat="44.00909" lon="6.20523">
        <ele>618.1</ele>
        <time>2021-08-13T08:08:49Z</time>
      </trkpt>
      <trkpt lat="44.00831" lon="6.20433">
        <ele>616.8</ele>
        <time>2021-08-13T08:08:59Z</time>
      </trkpt>
      <trkpt lat="44.00762" lon="6.20342">
        <ele>616.2</ele>
        <time>2021-08-13T08:09:09Z</time>
      </trkpt>
      <trkpt lat="44.00692" lon="6.20251">
        <ele>615</ele>
        <time>2021-08-13T08:09:19Z</time>
      </trkpt>
      <trkpt lat="44.0062" lon="6.20163">
        <ele>611.6</ele>
        <time>2021-08-13T08:09:29Z</time>
      </trkpt>
      <trkpt lat="44.00522" lon="6.20055">
        <ele>604.5</ele>
        <time>2021-08-13T08:09:44Z</time>
      </trkpt>
      <trkpt lat="44.00438" lon="6.19982">
        <ele>599.9</ele>
        <time>2021-08-13T08:09:59Z</time>
      </trkpt>
      <trkpt lat="44.00336" lon="6.19917">
        <ele>595.3</ele>
        <time>2021-08-13T08:10:19Z</time>
      </trkpt>
      <trkpt lat="44.00236" lon="6.19876">
        <ele>591.9</ele>
        <time>2021-08-13T08:10:39Z</time>
      </trkpt>
      <trkpt lat="44.00121" lon="6.19808">
        <ele>587.4</ele>
        <time>2021-08-13T08:10:59Z</time>
      </trkpt>
      <trkpt lat="44.00015" lon="6.19759">
        <ele>586</ele>
        <time>2021-08-13T08:11:14Z</time>
      </trkpt>
      <trkpt lat="43.99906" lon="6.19706">
        <ele>584</ele>
        <time>2021-08-13T08:11:29Z</time>
      </trkpt>
      <trkpt lat="43.99805" lon="6.1967">
        <ele>582.3</ele>
        <time>2021-08-13T08:11:44Z</time>
      </trkpt>
      <trkpt lat="43.99692" lon="6.19641">
        <ele>581.3</ele>
        <time>2021-08-13T08:11:59Z</time>
      </trkpt>
      <trkpt lat="43.99603" lon="6.19605">
        <ele>579.9</ele>
        <time>2021-08-13T08:12:09Z</time>
      </trkpt>
      <trkpt lat="43.99505" lon="6.19545">
        <ele>581.7</ele>
        <time>2021-08-13T08:23:05Z</time>
      </trkpt>
      <trkpt lat="43.99393" lon="6.19535">
        <ele>581.9</ele>
        <time>2021-08-13T08:23:20Z</time>
      </trkpt>
      <trkpt lat="43.99269" lon="6.19572">
        <ele>581.8</ele>
        <time>2021-08-13T08:23:35Z</time>
      </trkpt>
      <trkpt lat="43.99177" lon="6.19558">
        <ele>580.5</ele>
        <time>2021-08-13T08:23:45Z</time>
      </trkpt>
      <trkpt lat="43.99085" lon="6.19549">
        <ele>579</ele>
        <time>2021-08-13T08:23:55Z</time>
      </trkpt>
      <trkpt lat="43.99052" lon="6.19682">
        <ele>574</ele>
        <time>2021-08-13T08:24:10Z</time>
      </trkpt>
      <trkpt lat="43.99041" lon="6.19824">
        <ele>569.1</ele>
        <time>2021-08-13T08:24:25Z</time>
      </trkpt>
      <trkpt lat="43.98949" lon="6.19878">
        <ele>560.6</ele>
        <time>2021-08-13T08:24:40Z</time>
      </trkpt>
      <trkpt lat="43.98838" lon="6.1985">
        <ele>555.6</ele>
        <time>2021-08-13T08:24:55Z</time>
      </trkpt>
      <trkpt lat="43.98723" lon="6.19813">
        <ele>553.1</ele>
        <time>2021-08-13T08:25:10Z</time>
      </trkpt>
      <trkpt lat="43.98602" lon="6.19769">
        <ele>551.8</ele>
        <time>2021-08-13T08:25:25Z</time>
      </trkpt>
      <trkpt lat="43.98493" lon="6.19729">
        <ele>555.7</ele>
        <time>2021-08-13T08:25:40Z</time>
      </trkpt>
      <trkpt lat="43.98403" lon="6.19701">
        <ele>558.1</ele>
        <time>2021-08-13T08:25:55Z</time>
      </trkpt>
      <trkpt lat="43.98301" lon="6.19689">
        <ele>560.9</ele>
        <time>2021-08-13T08:26:10Z</time>
      </trkpt>
      <trkpt lat="43.98173" lon="6.19671">
        <ele>562.8</ele>
        <time>2021-08-13T08:26:25Z</time>
      </trkpt>
      <trkpt lat="43.98059" lon="6.19672">
        <ele>560</ele>
        <time>2021-08-13T08:26:40Z</time>
      </trkpt>
      <trkpt lat="43.97937" lon="6.19697">
        <ele>558</ele>
        <time>2021-08-13T08:26:55Z</time>
      </trkpt>
      <trkpt lat="43.97832" lon="6.19686">
        <ele>551.2</ele>
        <time>2021-08-13T08:27:10Z</time>
      </trkpt>
      <trkpt lat="43.97733" lon="6.19621">
        <ele>548.4</ele>
        <time>2021-08-13T08:27:25Z</time>
      </trkpt>
      <trkpt lat="43.97656" lon="6.19527">
        <ele>546</ele>
        <time>2021-08-13T08:28:51Z</time>
      </trkpt>
      <trkpt lat="43.97544" lon="6.19485">
        <ele>546.1</ele>
        <time>2021-08-13T08:29:11Z</time>
      </trkpt>
      <trkpt lat="43.97444" lon="6.19432">
        <ele>546.6</ele>
        <time>2021-08-13T08:29:26Z</time>
      </trkpt>
      <trkpt lat="43.97352" lon="6.19383">
        <ele>546.9</ele>
        <time>2021-08-13T08:29:41Z</time>
      </trkpt>
      <trkpt lat="43.97257" lon="6.19306">
        <ele>548.2</ele>
        <time>2021-08-13T08:30:06Z</time>
      </trkpt>
      <trkpt lat="43.97147" lon="6.19247">
        <ele>546.5</ele>
        <time>2021-08-13T08:30:31Z</time>
      </trkpt>
      <trkpt lat="43.97021" lon="6.19197">
        <ele>543.7</ele>
        <time>2021-08-13T08:30:46Z</time>
      </trkpt>
      <trkpt lat="43.96931" lon="6.19158">
        <ele>542.4</ele>
        <time>2021-08-13T08:30:56Z</time>
      </trkpt>
      <trkpt lat="43.96829" lon="6.19111">
        <ele>538.1</ele>
        <time>2021-08-13T08:31:11Z</time>
      </trkpt>
      <trkpt lat="43.96712" lon="6.19047">
        <ele>532.4</ele>
        <time>2021-08-13T08:31:31Z</time>
      </trkpt>
      <trkpt lat="43.9662" lon="6.18989">
        <ele>530.8</ele>
        <time>2021-08-13T08:31:46Z</time>
      </trkpt>
      <trkpt lat="43.9653" lon="6.18936">
        <ele>528.8</ele>
        <time>2021-08-13T08:32:01Z</time>
      </trkpt>
      <trkpt lat="43.96413" lon="6.18882">
        <ele>529.2</ele>
        <time>2021-08-13T08:32:16Z</time>
      </trkpt>
      <trkpt lat="43.96314" lon="6.18828">
        <ele>529.3</ele>
        <time>2021-08-13T08:32:26Z</time>
      </trkpt>
      <trkpt lat="43.96228" lon="6.18776">
        <ele>527.4</ele>
        <time>2021-08-13T08:32:36Z</time>
      </trkpt>
      <trkpt lat="43.96119" lon="6.187">
        <ele>526.1</ele>
        <time>2021-08-13T08:32:51Z</time>
      </trkpt>
      <trkpt lat="43.96041" lon="6.18623">
        <ele>525</ele>
        <time>2021-08-13T08:33:06Z</time>
      </trkpt>
      <trkpt lat="43.95942" lon="6.18526">
        <ele>522.9</ele>
        <time>2021-08-13T08:33:21Z</time>
      </trkpt>
      <trkpt lat="43.95857" lon="6.18459">
        <ele>521.2</ele>
        <time>2021-08-13T08:33:31Z</time>
      </trkpt>
      <trkpt lat="43.95756" lon="6.18382">
        <ele>518.6</ele>
        <time>2021-08-13T08:33:46Z</time>
      </trkpt>
      <trkpt lat="43.9566" lon="6.18296">
        <ele>516.7</ele>
        <time>2021-08-13T08:34:01Z</time>
      </trkpt>
      <trkpt lat="43.95561" lon="6.18203">
        <ele>514.2</ele>
        <time>2021-08-13T08:34:16Z</time>
      </trkpt>
      <trkpt lat="43.95458" lon="6.18137">
        <ele>511.4</ele>
        <time>2021-08-13T08:34:31Z</time>
      </trkpt>
      <trkpt lat="43.95357" lon="6.18061">
        <ele>509.1</ele>
        <time>2021-08-13T08:34:46Z</time>
      </trkpt>
      <trkpt lat="43.95264" lon="6.17987">
        <ele>507.6</ele>
        <time>2021-08-13T08:35:01Z</time>
      </trkpt>
      <trkpt lat="43.95161" lon="6.17887">
        <ele>505.4</ele>
        <time>2021-08-13T08:35:16Z</time>
      </trkpt>
      <trkpt lat="43.95051" lon="6.17781">
        <ele>503.8</ele>
        <time>2021-08-13T08:35:31Z</time>
      </trkpt>
      <trkpt lat="43.94931" lon="6.17692">
        <ele>501.4</ele>
        <time>2021-08-13T08:35:46Z</time>
      </trkpt>
      <trkpt lat="43.94814" lon="6.17627">
        <ele>499.2</ele>
        <time>2021-08-13T08:36:01Z</time>
      </trkpt>
      <trkpt lat="43.94715" lon="6.17521">
        <ele>496.8</ele>
        <time>2021-08-13T08:36:16Z</time>
      </trkpt>
      <trkpt lat="43.94616" lon="6.17399">
        <ele>494.9</ele>
        <time>2021-08-13T08:36:31Z</time>
      </trkpt>
      <trkpt lat="43.94503" lon="6.17321">
        <ele>496.1</ele>
        <time>2021-08-13T08:36:46Z</time>
      </trkpt>
      <trkpt lat="43.94423" lon="6.17218">
        <ele>498.5</ele>
        <time>2021-08-13T08:37:01Z</time>
      </trkpt>
      <trkpt lat="43.94356" lon="6.17098">
        <ele>497.9</ele>
        <time>2021-08-13T08:37:16Z</time>
      </trkpt>
      <trkpt lat="43.9427" lon="6.16982">
        <ele>497.3</ele>
        <time>2021-08-13T08:37:41Z</time>
      </trkpt>
      <trkpt lat="43.94177" lon="6.16956">
        <ele>505.6</ele>
        <time>2021-08-13T08:38:19Z</time>
      </trkpt>
      <trkpt lat="43.94119" lon="6.16812">
        <ele>513</ele>
        <time>2021-08-13T08:39:29Z</time>
      </trkpt>
      <trkpt lat="43.94066" lon="6.16658">
        <ele>514.6</ele>
        <time>2021-08-13T08:39:44Z</time>
      </trkpt>
      <trkpt lat="43.94018" lon="6.16514">
        <ele>515.6</ele>
        <time>2021-08-13T08:39:59Z</time>
      </trkpt>
      <trkpt lat="43.93935" lon="6.16379">
        <ele>515.4</ele>
        <time>2021-08-13T08:40:14Z</time>
      </trkpt>
      <trkpt lat="43.93825" lon="6.16278">
        <ele>514.5</ele>
        <time>2021-08-13T08:40:29Z</time>
      </trkpt>
      <trkpt lat="43.93737" lon="6.16161">
        <ele>513.2</ele>
        <time>2021-08-13T08:40:44Z</time>
      </trkpt>
      <trkpt lat="43.9365" lon="6.16027">
        <ele>511.5</ele>
        <time>2021-08-13T08:40:59Z</time>
      </trkpt>
      <trkpt lat="43.9358" lon="6.15894">
        <ele>509.7</ele>
        <time>2021-08-13T08:41:14Z</time>
      </trkpt>
      <trkpt lat="43.93516" lon="6.15757">
        <ele>510.6</ele>
        <time>2021-08-13T08:41:29Z</time>
      </trkpt>
      <trkpt lat="43.93408" lon="6.15629">
        <ele>509.1</ele>
        <time>2021-08-13T08:41:44Z</time>
      </trkpt>
      <trkpt lat="43.93327" lon="6.15547">
        <ele>508.3</ele>
        <time>2021-08-13T08:41:54Z</time>
      </trkpt>
      <trkpt lat="43.93247" lon="6.15443">
        <ele>507.3</ele>
        <time>2021-08-13T08:42:09Z</time>
      </trkpt>
      <trkpt lat="43.93149" lon="6.15327">
        <ele>503.6</ele>
        <time>2021-08-13T08:42:24Z</time>
      </trkpt>
      <trkpt lat="43.93075" lon="6.15204">
        <ele>501.4</ele>
        <time>2021-08-13T08:42:37Z</time>
      </trkpt>
      <trkpt lat="43.9304" lon="6.1507">
        <ele>499</ele>
        <time>2021-08-13T08:42:52Z</time>
      </trkpt>
      <trkpt lat="43.93006" lon="6.14915">
        <ele>495.1</ele>
        <time>2021-08-13T08:43:13Z</time>
      </trkpt>
      <trkpt lat="43.92967" lon="6.14746">
        <ele>492.6</ele>
        <time>2021-08-13T08:43:28Z</time>
      </trkpt>
      <trkpt lat="43.92897" lon="6.14616">
        <ele>489.5</ele>
        <time>2021-08-13T08:43:43Z</time>
      </trkpt>
      <trkpt lat="43.92867" lon="6.14486">
        <ele>487.6</ele>
        <time>2021-08-13T08:43:58Z</time>
      </trkpt>
      <trkpt lat="43.9286" lon="6.14343">
        <ele>491.3</ele>
        <time>2021-08-13T08:44:18Z</time>
      </trkpt>
      <trkpt lat="43.92783" lon="6.14204">
        <ele>494</ele>
        <time>2021-08-13T08:44:38Z</time>
      </trkpt>
      <trkpt lat="43.92678" lon="6.14126">
        <ele>495.4</ele>
        <time>2021-08-13T08:44:53Z</time>
      </trkpt>
      <trkpt lat="43.92546" lon="6.14103">
        <ele>491.3</ele>
        <time>2021-08-13T08:45:08Z</time>
      </trkpt>
      <trkpt lat="43.92451" lon="6.14089">
        <ele>490.2</ele>
        <time>2021-08-13T08:45:18Z</time>
      </trkpt>
      <trkpt lat="43.92361" lon="6.13986">
        <ele>488.3</ele>
        <time>2021-08-13T08:45:33Z</time>
      </trkpt>
      <trkpt lat="43.92269" lon="6.1388">
        <ele>487.1</ele>
        <time>2021-08-13T08:45:48Z</time>
      </trkpt>
      <trkpt lat="43.92212" lon="6.13728">
        <ele>487.7</ele>
        <time>2021-08-13T08:46:03Z</time>
      </trkpt>
      <trkpt lat="43.92189" lon="6.13593">
        <ele>485.4</ele>
        <time>2021-08-13T08:46:18Z</time>
      </trkpt>
      <trkpt lat="43.92135" lon="6.13477">
        <ele>481.6</ele>
        <time>2021-08-13T08:46:38Z</time>
      </trkpt>
      <trkpt lat="43.92038" lon="6.13399">
        <ele>481.2</ele>
        <time>2021-08-13T08:46:58Z</time>
      </trkpt>
      <trkpt lat="43.91937" lon="6.13315">
        <ele>482.2</ele>
        <time>2021-08-13T08:57:30Z</time>
      </trkpt>
      <trkpt lat="43.9186" lon="6.13226">
        <ele>480.7</ele>
        <time>2021-08-13T08:57:45Z</time>
      </trkpt>
      <trkpt lat="43.9179" lon="6.13119">
        <ele>482.7</ele>
        <time>2021-08-13T08:58:00Z</time>
      </trkpt>
      <trkpt lat="43.91718" lon="6.13015">
        <ele>481.8</ele>
        <time>2021-08-13T08:58:15Z</time>
      </trkpt>
      <trkpt lat="43.91644" lon="6.12903">
        <ele>482.1</ele>
        <time>2021-08-13T08:58:30Z</time>
      </trkpt>
      <trkpt lat="43.9157" lon="6.12808">
        <ele>480.1</ele>
        <time>2021-08-13T08:58:45Z</time>
      </trkpt>
      <trkpt lat="43.91477" lon="6.12702">
        <ele>481.6</ele>
        <time>2021-08-13T08:59:05Z</time>
      </trkpt>
      <trkpt lat="43.91426" lon="6.12579">
        <ele>483</ele>
        <time>2021-08-13T08:59:20Z</time>
      </trkpt>
      <trkpt lat="43.9138" lon="6.12466">
        <ele>485.9</ele>
        <time>2021-08-13T08:59:35Z</time>
      </trkpt>
      <trkpt lat="43.91316" lon="6.12312">
        <ele>481.9</ele>
        <time>2021-08-13T08:59:50Z</time>
      </trkpt>
      <trkpt lat="43.9125" lon="6.12162">
        <ele>474.9</ele>
        <time>2021-08-13T09:00:05Z</time>
      </trkpt>
      <trkpt lat="43.91198" lon="6.12014">
        <ele>474.8</ele>
        <time>2021-08-13T09:00:20Z</time>
      </trkpt>
      <trkpt lat="43.91161" lon="6.11881">
        <ele>475.6</ele>
        <time>2021-08-13T09:00:35Z</time>
      </trkpt>
      <trkpt lat="43.91169" lon="6.11711">
        <ele>471.7</ele>
        <time>2021-08-13T09:00:50Z</time>
      </trkpt>
      <trkpt lat="43.9116" lon="6.1155">
        <ele>466.2</ele>
        <time>2021-08-13T09:01:05Z</time>
      </trkpt>
      <trkpt lat="43.91138" lon="6.11394">
        <ele>460.9</ele>
        <time>2021-08-13T09:01:20Z</time>
      </trkpt>
      <trkpt lat="43.91104" lon="6.11259">
        <ele>460.1</ele>
        <time>2021-08-13T09:01:35Z</time>
      </trkpt>
      <trkpt lat="43.91065" lon="6.11129">
        <ele>462.7</ele>
        <time>2021-08-13T09:01:50Z</time>
      </trkpt>
      <trkpt lat="43.9102" lon="6.10999">
        <ele>466.2</ele>
        <time>2021-08-13T09:02:05Z</time>
      </trkpt>
      <trkpt lat="43.9096" lon="6.10877">
        <ele>466.9</ele>
        <time>2021-08-13T09:02:20Z</time>
      </trkpt>
      <trkpt lat="43.90896" lon="6.10772">
        <ele>463.7</ele>
        <time>2021-08-13T09:02:35Z</time>
      </trkpt>
      <trkpt lat="43.90833" lon="6.10664">
        <ele>462.3</ele>
        <time>2021-08-13T09:02:50Z</time>
      </trkpt>
      <trkpt lat="43.9078" lon="6.10533">
        <ele>461.4</ele>
        <time>2021-08-13T09:03:05Z</time>
      </trkpt>
      <trkpt lat="43.90728" lon="6.10401">
        <ele>460.6</ele>
        <time>2021-08-13T09:03:20Z</time>
      </trkpt>
      <trkpt lat="43.90678" lon="6.10272">
        <ele>460.2</ele>
        <time>2021-08-13T09:03:35Z</time>
      </trkpt>
      <trkpt lat="43.90648" lon="6.10131">
        <ele>457.1</ele>
        <time>2021-08-13T09:03:50Z</time>
      </trkpt>
      <trkpt lat="43.90629" lon="6.09984">
        <ele>452.2</ele>
        <time>2021-08-13T09:04:05Z</time>
      </trkpt>
      <trkpt lat="43.90623" lon="6.09837">
        <ele>452.6</ele>
        <time>2021-08-13T09:04:20Z</time>
      </trkpt>
      <trkpt lat="43.90621" lon="6.09707">
        <ele>453.6</ele>
        <time>2021-08-13T09:04:35Z</time>
      </trkpt>
      <trkpt lat="43.90609" lon="6.09573">
        <ele>450.3</ele>
        <time>2021-08-13T09:04:50Z</time>
      </trkpt>
      <trkpt lat="43.90596" lon="6.09429">
        <ele>449.1</ele>
        <time>2021-08-13T09:05:05Z</time>
      </trkpt>
      <trkpt lat="43.90582" lon="6.09282">
        <ele>448.8</ele>
        <time>2021-08-13T09:05:20Z</time>
      </trkpt>
      <trkpt lat="43.90568" lon="6.09154">
        <ele>449.8</ele>
        <time>2021-08-13T09:05:35Z</time>
      </trkpt>
      <trkpt lat="43.90545" lon="6.08985">
        <ele>450.5</ele>
        <time>2021-08-13T09:05:55Z</time>
      </trkpt>
      <trkpt lat="43.90509" lon="6.08841">
        <ele>449.4</ele>
        <time>2021-08-13T09:06:10Z</time>
      </trkpt>
      <trkpt lat="43.90501" lon="6.0869">
        <ele>445.4</ele>
        <time>2021-08-13T09:06:25Z</time>
      </trkpt>
      <trkpt lat="43.90508" lon="6.08518">
        <ele>442.1</ele>
        <time>2021-08-13T09:06:40Z</time>
      </trkpt>
      <trkpt lat="43.90511" lon="6.08373">
        <ele>437.8</ele>
        <time>2021-08-13T09:06:55Z</time>
      </trkpt>
      <trkpt lat="43.90513" lon="6.08232">
        <ele>436.2</ele>
        <time>2021-08-13T09:07:10Z</time>
      </trkpt>
      <trkpt lat="43.90493" lon="6.08085">
        <ele>439.6</ele>
        <time>2021-08-13T09:07:25Z</time>
      </trkpt>
      <trkpt lat="43.90472" lon="6.07944">
        <ele>438.4</ele>
        <time>2021-08-13T09:07:40Z</time>
      </trkpt>
      <trkpt lat="43.90458" lon="6.07805">
        <ele>436.2</ele>
        <time>2021-08-13T09:07:55Z</time>
      </trkpt>
      <trkpt lat="43.90462" lon="6.07674">
        <ele>437</ele>
        <time>2021-08-13T09:08:10Z</time>
      </trkpt>
      <trkpt lat="43.90463" lon="6.07548">
        <ele>436.8</ele>
        <time>2021-08-13T09:08:25Z</time>
      </trkpt>
      <trkpt lat="43.90433" lon="6.07419">
        <ele>434.2</ele>
        <time>2021-08-13T09:08:40Z</time>
      </trkpt>
      <trkpt lat="43.90428" lon="6.07259">
        <ele>433.2</ele>
        <time>2021-08-13T09:08:55Z</time>
      </trkpt>
      <trkpt lat="43.90424" lon="6.07091">
        <ele>432.3</ele>
        <time>2021-08-13T09:09:10Z</time>
      </trkpt>
      <trkpt lat="43.90409" lon="6.06929">
        <ele>430.7</ele>
        <time>2021-08-13T09:09:25Z</time>
      </trkpt>
      <trkpt lat="43.90394" lon="6.06772">
        <ele>427.5</ele>
        <time>2021-08-13T09:09:40Z</time>
      </trkpt>
      <trkpt lat="43.90378" lon="6.06604">
        <ele>424.8</ele>
        <time>2021-08-13T09:09:55Z</time>
      </trkpt>
      <trkpt lat="43.90364" lon="6.06441">
        <ele>431.4</ele>
        <time>2021-08-13T09:10:10Z</time>
      </trkpt>
      <trkpt lat="43.9035" lon="6.06287">
        <ele>431.3</ele>
        <time>2021-08-13T09:10:25Z</time>
      </trkpt>
      <trkpt lat="43.90342" lon="6.06133">
        <ele>431.6</ele>
        <time>2021-08-13T09:10:40Z</time>
      </trkpt>
      <trkpt lat="43.90325" lon="6.05984">
        <ele>430.4</ele>
        <time>2021-08-13T09:10:55Z</time>
      </trkpt>
      <trkpt lat="43.90298" lon="6.05837">
        <ele>426.7</ele>
        <time>2021-08-13T09:11:10Z</time>
      </trkpt>
      <trkpt lat="43.90268" lon="6.05683">
        <ele>420.7</ele>
        <time>2021-08-13T09:11:25Z</time>
      </trkpt>
      <trkpt lat="43.90231" lon="6.0554">
        <ele>417.6</ele>
        <time>2021-08-13T09:11:40Z</time>
      </trkpt>
      <trkpt lat="43.90193" lon="6.05414">
        <ele>419.6</ele>
        <time>2021-08-13T09:11:55Z</time>
      </trkpt>
      <trkpt lat="43.90147" lon="6.05294">
        <ele>421.9</ele>
        <time>2021-08-13T09:12:10Z</time>
      </trkpt>
      <trkpt lat="43.90099" lon="6.05182">
        <ele>421.1</ele>
        <time>2021-08-13T09:12:25Z</time>
      </trkpt>
      <trkpt lat="43.90014" lon="6.0506">
        <ele>421</ele>
        <time>2021-08-13T09:12:45Z</time>
      </trkpt>
      <trkpt lat="43.89948" lon="6.04955">
        <ele>420</ele>
        <time>2021-08-13T09:13:00Z</time>
      </trkpt>
      <trkpt lat="43.8989" lon="6.04813">
        <ele>419.8</ele>
        <time>2021-08-13T09:13:20Z</time>
      </trkpt>
      <trkpt lat="43.89876" lon="6.0468">
        <ele>418.8</ele>
        <time>2021-08-13T09:13:35Z</time>
      </trkpt>
      <trkpt lat="43.89912" lon="6.0455">
        <ele>413.9</ele>
        <time>2021-08-13T09:13:50Z</time>
      </trkpt>
      <trkpt lat="43.89887" lon="6.04389">
        <ele>408.8</ele>
        <time>2021-08-13T09:14:05Z</time>
      </trkpt>
      <trkpt lat="43.89862" lon="6.04233">
        <ele>408.8</ele>
        <time>2021-08-13T09:14:20Z</time>
      </trkpt>
      <trkpt lat="43.89804" lon="6.04117">
        <ele>407.6</ele>
        <time>2021-08-13T09:14:35Z</time>
      </trkpt>
      <trkpt lat="43.8974" lon="6.04">
        <ele>407.2</ele>
        <time>2021-08-13T09:14:55Z</time>
      </trkpt>
      <trkpt lat="43.89667" lon="6.03865">
        <ele>404.8</ele>
        <time>2021-08-13T09:17:24Z</time>
      </trkpt>
      <trkpt lat="43.89606" lon="6.03746">
        <ele>401.6</ele>
        <time>2021-08-13T09:17:39Z</time>
      </trkpt>
      <trkpt lat="43.89567" lon="6.03611">
        <ele>399.7</ele>
        <time>2021-08-13T09:17:54Z</time>
      </trkpt>
      <trkpt lat="43.89523" lon="6.03483">
        <ele>399.4</ele>
        <time>2021-08-13T09:18:09Z</time>
      </trkpt>
      <trkpt lat="43.89444" lon="6.0338">
        <ele>399.7</ele>
        <time>2021-08-13T09:18:29Z</time>
      </trkpt>
      <trkpt lat="43.89392" lon="6.03264">
        <ele>402.9</ele>
        <time>2021-08-13T09:18:59Z</time>
      </trkpt>
      <trkpt lat="43.89378" lon="6.03122">
        <ele>410.5</ele>
        <time>2021-08-13T09:19:34Z</time>
      </trkpt>
      <trkpt lat="43.89346" lon="6.02977">
        <ele>414.5</ele>
        <time>2021-08-13T09:20:04Z</time>
      </trkpt>
      <trkpt lat="43.89314" lon="6.02855">
        <ele>420.2</ele>
        <time>2021-08-13T09:20:29Z</time>
      </trkpt>
      <trkpt lat="43.89276" lon="6.02698">
        <ele>425.8</ele>
        <time>2021-08-13T09:20:54Z</time>
      </trkpt>
      <trkpt lat="43.89248" lon="6.02564">
        <ele>425.5</ele>
        <time>2021-08-13T09:21:04Z</time>
      </trkpt>
      <trkpt lat="43.89202" lon="6.02421">
        <ele>426.4</ele>
        <time>2021-08-13T09:21:14Z</time>
      </trkpt>
      <trkpt lat="43.89166" lon="6.02299">
        <ele>427.1</ele>
        <time>2021-08-13T09:21:24Z</time>
      </trkpt>
      <trkpt lat="43.89116" lon="6.02135">
        <ele>428.7</ele>
        <time>2021-08-13T09:21:39Z</time>
      </trkpt>
      <trkpt lat="43.89095" lon="6.02001">
        <ele>429.3</ele>
        <time>2021-08-13T09:21:54Z</time>
      </trkpt>
      <trkpt lat="43.89075" lon="6.01868">
        <ele>422</ele>
        <time>2021-08-13T09:22:14Z</time>
      </trkpt>
      <trkpt lat="43.89097" lon="6.01726">
        <ele>410</ele>
        <time>2021-08-13T09:22:34Z</time>
      </trkpt>
      <trkpt lat="43.89088" lon="6.01551">
        <ele>398.5</ele>
        <time>2021-08-13T09:22:49Z</time>
      </trkpt>
      <trkpt lat="43.89064" lon="6.01425">
        <ele>390.2</ele>
        <time>2021-08-13T09:22:59Z</time>
      </trkpt>
      <trkpt lat="43.89029" lon="6.01252">
        <ele>380.5</ele>
        <time>2021-08-13T09:23:14Z</time>
      </trkpt>
      <trkpt lat="43.88996" lon="6.01105">
        <ele>372.4</ele>
        <time>2021-08-13T09:23:29Z</time>
      </trkpt>
      <trkpt lat="43.88959" lon="6.00967">
        <ele>361.7</ele>
        <time>2021-08-13T09:23:49Z</time>
      </trkpt>
      <trkpt lat="43.8892" lon="6.00836">
        <ele>355.7</ele>
        <time>2021-08-13T09:24:04Z</time>
      </trkpt>
      <trkpt lat="43.88889" lon="6.00676">
        <ele>356.1</ele>
        <time>2021-08-13T09:24:19Z</time>
      </trkpt>
      <trkpt lat="43.88852" lon="6.00534">
        <ele>352.9</ele>
        <time>2021-08-13T09:24:34Z</time>
      </trkpt>
      <trkpt lat="43.88837" lon="6.00362">
        <ele>370.3</ele>
        <time>2021-08-13T09:24:49Z</time>
      </trkpt>
      <trkpt lat="43.88827" lon="6.00198">
        <ele>376.7</ele>
        <time>2021-08-13T09:25:09Z</time>
      </trkpt>
      <trkpt lat="43.88794" lon="6.00039">
        <ele>379.6</ele>
        <time>2021-08-13T09:25:29Z</time>
      </trkpt>
      <trkpt lat="43.88761" lon="5.99913">
        <ele>382.1</ele>
        <time>2021-08-13T09:25:49Z</time>
      </trkpt>
      <trkpt lat="43.88696" lon="5.99782">
        <ele>383.7</ele>
        <time>2021-08-13T09:26:14Z</time>
      </trkpt>
      <trkpt lat="43.88656" lon="5.99651">
        <ele>382.8</ele>
        <time>2021-08-13T09:26:29Z</time>
      </trkpt>
      <trkpt lat="43.88624" lon="5.99515">
        <ele>380.1</ele>
        <time>2021-08-13T09:26:44Z</time>
      </trkpt>
      <trkpt lat="43.88614" lon="5.99388">
        <ele>379.3</ele>
        <time>2021-08-13T09:26:59Z</time>
      </trkpt>
      <trkpt lat="43.88628" lon="5.99225">
        <ele>376.2</ele>
        <time>2021-08-13T09:27:19Z</time>
      </trkpt>
      <trkpt lat="43.88597" lon="5.99104">
        <ele>375.4</ele>
        <time>2021-08-13T09:27:34Z</time>
      </trkpt>
      <trkpt lat="43.88584" lon="5.98956">
        <ele>374.8</ele>
        <time>2021-08-13T09:27:49Z</time>
      </trkpt>
      <trkpt lat="43.88573" lon="5.98807">
        <ele>374.7</ele>
        <time>2021-08-13T09:28:09Z</time>
      </trkpt>
      <trkpt lat="43.8857" lon="5.98681">
        <ele>378.3</ele>
        <time>2021-08-13T09:28:39Z</time>
      </trkpt>
      <trkpt lat="43.88518" lon="5.98568">
        <ele>376.9</ele>
        <time>2021-08-13T09:29:04Z</time>
      </trkpt>
      <trkpt lat="43.88463" lon="5.98414">
        <ele>376.1</ele>
        <time>2021-08-13T09:29:19Z</time>
      </trkpt>
      <trkpt lat="43.88451" lon="5.98257">
        <ele>375</ele>
        <time>2021-08-13T09:29:34Z</time>
      </trkpt>
      <trkpt lat="43.88427" lon="5.98107">
        <ele>371.9</ele>
        <time>2021-08-13T09:29:54Z</time>
      </trkpt>
      <trkpt lat="43.88411" lon="5.97981">
        <ele>369.6</ele>
        <time>2021-08-13T09:30:09Z</time>
      </trkpt>
      <trkpt lat="43.88397" lon="5.97856">
        <ele>369.2</ele>
        <time>2021-08-13T09:30:24Z</time>
      </trkpt>
      <trkpt lat="43.88361" lon="5.97706">
        <ele>367.7</ele>
        <time>2021-08-13T09:30:44Z</time>
      </trkpt>
      <trkpt lat="43.88401" lon="5.97567">
        <ele>366.4</ele>
        <time>2021-08-13T09:31:09Z</time>
      </trkpt>
      <trkpt lat="43.88401" lon="5.97429">
        <ele>365.6</ele>
        <time>2021-08-13T09:31:24Z</time>
      </trkpt>
      <trkpt lat="43.8835" lon="5.97307">
        <ele>362.6</ele>
        <time>2021-08-13T09:31:44Z</time>
      </trkpt>
      <trkpt lat="43.88308" lon="5.97147">
        <ele>359.5</ele>
        <time>2021-08-13T09:32:04Z</time>
      </trkpt>
      <trkpt lat="43.88299" lon="5.96988">
        <ele>361</ele>
        <time>2021-08-13T09:32:19Z</time>
      </trkpt>
      <trkpt lat="43.88311" lon="5.96856">
        <ele>358.6</ele>
        <time>2021-08-13T09:32:34Z</time>
      </trkpt>
      <trkpt lat="43.88272" lon="5.96703">
        <ele>356.2</ele>
        <time>2021-08-13T09:32:54Z</time>
      </trkpt>
      <trkpt lat="43.88271" lon="5.96568">
        <ele>356.9</ele>
        <time>2021-08-13T09:33:09Z</time>
      </trkpt>
      <trkpt lat="43.88238" lon="5.96428">
        <ele>354.7</ele>
        <time>2021-08-13T09:33:29Z</time>
      </trkpt>
      <trkpt lat="43.88225" lon="5.96275">
        <ele>355.4</ele>
        <time>2021-08-13T09:33:49Z</time>
      </trkpt>
      <trkpt lat="43.88223" lon="5.96115">
        <ele>356.5</ele>
        <time>2021-08-13T09:34:14Z</time>
      </trkpt>
      <trkpt lat="43.88205" lon="5.95989">
        <ele>355.5</ele>
        <time>2021-08-13T09:34:29Z</time>
      </trkpt>
      <trkpt lat="43.88132" lon="5.9588">
        <ele>355.8</ele>
        <time>2021-08-13T09:34:54Z</time>
      </trkpt>
      <trkpt lat="43.88043" lon="5.9581">
        <ele>350</ele>
        <time>2021-08-13T09:35:24Z</time>
      </trkpt>
      <trkpt lat="43.88037" lon="5.95656">
        <ele>348.4</ele>
        <time>2021-08-13T09:35:49Z</time>
      </trkpt>
      <trkpt lat="43.88029" lon="5.95512">
        <ele>348.2</ele>
        <time>2021-08-13T09:36:09Z</time>
      </trkpt>
      <trkpt lat="43.88026" lon="5.95375">
        <ele>347.3</ele>
        <time>2021-08-13T09:36:24Z</time>
      </trkpt>
      <trkpt lat="43.87959" lon="5.95279">
        <ele>345.4</ele>
        <time>2021-08-13T09:36:39Z</time>
      </trkpt>
      <trkpt lat="43.87931" lon="5.95124">
        <ele>345.8</ele>
        <time>2021-08-13T09:36:59Z</time>
      </trkpt>
      <trkpt lat="43.87872" lon="5.95011">
        <ele>342.4</ele>
        <time>2021-08-13T09:37:19Z</time>
      </trkpt>
      <trkpt lat="43.87848" lon="5.94874">
        <ele>340.9</ele>
        <time>2021-08-13T09:37:44Z</time>
      </trkpt>
      <trkpt lat="43.87809" lon="5.9473">
        <ele>339.4</ele>
        <time>2021-08-13T09:38:04Z</time>
      </trkpt>
      <trkpt lat="43.87756" lon="5.94579">
        <ele>336.3</ele>
        <time>2021-08-13T09:38:24Z</time>
      </trkpt>
      <trkpt lat="43.87728" lon="5.94442">
        <ele>335.2</ele>
        <time>2021-08-13T09:38:39Z</time>
      </trkpt>
      <trkpt lat="43.8771" lon="5.94316">
        <ele>333.4</ele>
        <time>2021-08-13T09:38:54Z</time>
      </trkpt>
      <trkpt lat="43.87711" lon="5.94189">
        <ele>332.1</ele>
        <time>2021-08-13T09:39:09Z</time>
      </trkpt>
      <trkpt lat="43.87728" lon="5.94064">
        <ele>332</ele>
        <time>2021-08-13T09:39:24Z</time>
      </trkpt>
      <trkpt lat="43.87674" lon="5.93938">
        <ele>332.9</ele>
        <time>2021-08-13T09:39:49Z</time>
      </trkpt>
      <trkpt lat="43.87662" lon="5.93811">
        <ele>334.9</ele>
        <time>2021-08-13T09:40:04Z</time>
      </trkpt>
      <trkpt lat="43.87648" lon="5.93663">
        <ele>336</ele>
        <time>2021-08-13T09:40:24Z</time>
      </trkpt>
      <trkpt lat="43.87637" lon="5.93511">
        <ele>336</ele>
        <time>2021-08-13T09:40:44Z</time>
      </trkpt>
      <trkpt lat="43.87625" lon="5.93378">
        <ele>336</ele>
        <time>2021-08-13T09:40:59Z</time>
      </trkpt>
      <trkpt lat="43.87614" lon="5.93239">
        <ele>336.4</ele>
        <time>2021-08-13T09:41:14Z</time>
      </trkpt>
      <trkpt lat="43.87599" lon="5.93109">
        <ele>337.2</ele>
        <time>2021-08-13T09:41:29Z</time>
      </trkpt>
      <trkpt lat="43.87594" lon="5.92956">
        <ele>338</ele>
        <time>2021-08-13T09:41:49Z</time>
      </trkpt>
      <trkpt lat="43.87585" lon="5.92827">
        <ele>339.1</ele>
        <time>2021-08-13T09:42:04Z</time>
      </trkpt>
      <trkpt lat="43.87582" lon="5.92684">
        <ele>339</ele>
        <time>2021-08-13T09:42:19Z</time>
      </trkpt>
      <trkpt lat="43.87572" lon="5.92523">
        <ele>338.7</ele>
        <time>2021-08-13T09:42:39Z</time>
      </trkpt>
      <trkpt lat="43.8757" lon="5.92376">
        <ele>339.3</ele>
        <time>2021-08-13T09:42:59Z</time>
      </trkpt>
      <trkpt lat="43.87564" lon="5.92248">
        <ele>339.8</ele>
        <time>2021-08-13T09:43:19Z</time>
      </trkpt>
      <trkpt lat="43.87616" lon="5.92149">
        <ele>339.7</ele>
        <time>2021-08-13T09:43:34Z</time>
      </trkpt>
      <trkpt lat="43.87585" lon="5.92014">
        <ele>341.3</ele>
        <time>2021-08-13T09:43:54Z</time>
      </trkpt>
      <trkpt lat="43.87575" lon="5.9188">
        <ele>342.9</ele>
        <time>2021-08-13T09:44:09Z</time>
      </trkpt>
      <trkpt lat="43.87615" lon="5.91748">
        <ele>342.7</ele>
        <time>2021-08-13T09:44:29Z</time>
      </trkpt>
      <trkpt lat="43.87585" lon="5.9162">
        <ele>344.5</ele>
        <time>2021-08-13T09:44:49Z</time>
      </trkpt>
      <trkpt lat="43.8762" lon="5.91474">
        <ele>346</ele>
        <time>2021-08-13T09:45:04Z</time>
      </trkpt>
      <trkpt lat="43.8764" lon="5.91344">
        <ele>347.4</ele>
        <time>2021-08-13T09:45:24Z</time>
      </trkpt>
      <trkpt lat="43.87633" lon="5.91199">
        <ele>349.6</ele>
        <time>2021-08-13T09:45:49Z</time>
      </trkpt>
      <trkpt lat="43.87656" lon="5.91075">
        <ele>350.1</ele>
        <time>2021-08-13T09:46:04Z</time>
      </trkpt>
      <trkpt lat="43.87692" lon="5.90954">
        <ele>343.7</ele>
        <time>2021-08-13T09:46:24Z</time>
      </trkpt>
      <trkpt lat="43.87676" lon="5.90826">
        <ele>334.3</ele>
        <time>2021-08-13T09:51:15Z</time>
      </trkpt>
      <trkpt lat="43.87609" lon="5.90721">
        <ele>332</ele>
        <time>2021-08-13T09:51:30Z</time>
      </trkpt>
      <trkpt lat="43.87541" lon="5.9061">
        <ele>329.6</ele>
        <time>2021-08-13T09:51:45Z</time>
      </trkpt>
      <trkpt lat="43.87464" lon="5.90501">
        <ele>328</ele>
        <time>2021-08-13T09:52:00Z</time>
      </trkpt>
      <trkpt lat="43.87393" lon="5.90387">
        <ele>327</ele>
        <time>2021-08-13T09:52:15Z</time>
      </trkpt>
      <trkpt lat="43.87316" lon="5.903">
        <ele>326</ele>
        <time>2021-08-13T09:52:30Z</time>
      </trkpt>
      <trkpt lat="43.87231" lon="5.90224">
        <ele>325.6</ele>
        <time>2021-08-13T09:52:45Z</time>
      </trkpt>
      <trkpt lat="43.87148" lon="5.90158">
        <ele>325.4</ele>
        <time>2021-08-13T09:53:00Z</time>
      </trkpt>
      <trkpt lat="43.87051" lon="5.90098">
        <ele>324.8</ele>
        <time>2021-08-13T09:53:15Z</time>
      </trkpt>
      <trkpt lat="43.86961" lon="5.90048">
        <ele>324.9</ele>
        <time>2021-08-13T09:53:30Z</time>
      </trkpt>
      <trkpt lat="43.86872" lon="5.89961">
        <ele>326.1</ele>
        <time>2021-08-13T09:53:55Z</time>
      </trkpt>
      <trkpt lat="43.8679" lon="5.89876">
        <ele>327.3</ele>
        <time>2021-08-13T09:54:15Z</time>
      </trkpt>
      <trkpt lat="43.86711" lon="5.898">
        <ele>326.9</ele>
        <time>2021-08-13T09:54:30Z</time>
      </trkpt>
      <trkpt lat="43.86631" lon="5.89708">
        <ele>325.3</ele>
        <time>2021-08-13T09:54:45Z</time>
      </trkpt>
      <trkpt lat="43.8654" lon="5.89615">
        <ele>324</ele>
        <time>2021-08-13T09:55:00Z</time>
      </trkpt>
      <trkpt lat="43.86455" lon="5.89515">
        <ele>323.2</ele>
        <time>2021-08-13T09:55:15Z</time>
      </trkpt>
      <trkpt lat="43.86366" lon="5.89402">
        <ele>323.2</ele>
        <time>2021-08-13T09:55:30Z</time>
      </trkpt>
      <trkpt lat="43.86261" lon="5.89319">
        <ele>323</ele>
        <time>2021-08-13T09:55:45Z</time>
      </trkpt>
      <trkpt lat="43.86178" lon="5.89229">
        <ele>322.9</ele>
        <time>2021-08-13T09:56:00Z</time>
      </trkpt>
      <trkpt lat="43.86079" lon="5.89141">
        <ele>322.1</ele>
        <time>2021-08-13T09:56:20Z</time>
      </trkpt>
      <trkpt lat="43.85997" lon="5.89061">
        <ele>322.9</ele>
        <time>2021-08-13T09:56:35Z</time>
      </trkpt>
      <trkpt lat="43.85919" lon="5.88976">
        <ele>321.4</ele>
        <time>2021-08-13T09:56:50Z</time>
      </trkpt>
      <trkpt lat="43.85829" lon="5.88934">
        <ele>321.4</ele>
        <time>2021-08-13T09:57:05Z</time>
      </trkpt>
      <trkpt lat="43.85716" lon="5.88881">
        <ele>321.8</ele>
        <time>2021-08-13T09:57:20Z</time>
      </trkpt>
      <trkpt lat="43.85608" lon="5.88794">
        <ele>320.5</ele>
        <time>2021-08-13T09:57:35Z</time>
      </trkpt>
      <trkpt lat="43.85536" lon="5.88695">
        <ele>320.2</ele>
        <time>2021-08-13T09:57:50Z</time>
      </trkpt>
      <trkpt lat="43.85479" lon="5.88585">
        <ele>319.5</ele>
        <time>2021-08-13T09:58:05Z</time>
      </trkpt>
      <trkpt lat="43.85393" lon="5.88468">
        <ele>318.4</ele>
        <time>2021-08-13T09:58:20Z</time>
      </trkpt>
      <trkpt lat="43.8529" lon="5.88344">
        <ele>316.2</ele>
        <time>2021-08-13T09:58:35Z</time>
      </trkpt>
      <trkpt lat="43.85203" lon="5.88224">
        <ele>312.8</ele>
        <time>2021-08-13T09:58:50Z</time>
      </trkpt>
      <trkpt lat="43.85121" lon="5.8812">
        <ele>310.5</ele>
        <time>2021-08-13T09:59:05Z</time>
      </trkpt>
      <trkpt lat="43.85049" lon="5.88023">
        <ele>308.7</ele>
        <time>2021-08-13T09:59:20Z</time>
      </trkpt>
      <trkpt lat="43.84974" lon="5.8793">
        <ele>307.6</ele>
        <time>2021-08-13T09:59:40Z</time>
      </trkpt>
      <trkpt lat="43.84878" lon="5.87924">
        <ele>309.6</ele>
        <time>2021-08-13T10:00:05Z</time>
      </trkpt>
      <trkpt lat="43.84812" lon="5.88011">
        <ele>312.3</ele>
        <time>2021-08-13T10:00:40Z</time>
      </trkpt>
      <trkpt lat="43.84776" lon="5.88126">
        <ele>315</ele>
        <time>2021-08-13T10:01:32Z</time>
      </trkpt>
      <trkpt lat="43.84787" lon="5.8799">
        <ele>328</ele>
        <time>2021-08-13T10:02:33Z</time>
      </trkpt>
      <trkpt lat="43.84772" lon="5.87861">
        <ele>358.8</ele>
        <time>2021-08-13T10:04:14Z</time>
      </trkpt>
      <trkpt lat="43.84771" lon="5.8773">
        <ele>368.9</ele>
        <time>2021-08-13T10:05:30Z</time>
      </trkpt>
      <trkpt lat="43.84686" lon="5.87663">
        <ele>372.8</ele>
        <time>2021-08-13T10:06:24Z</time>
      </trkpt>
      <trkpt lat="43.84599" lon="5.8771">
        <ele>380</ele>
        <time>2021-08-13T10:06:54Z</time>
      </trkpt>
      <trkpt lat="43.84504" lon="5.87718">
        <ele>380.6</ele>
        <time>2021-08-13T10:07:19Z</time>
      </trkpt>
      <trkpt lat="43.84464" lon="5.87595">
        <ele>377.9</ele>
        <time>2021-08-13T10:07:54Z</time>
      </trkpt>
      <trkpt lat="43.84368" lon="5.8755">
        <ele>380.2</ele>
        <time>2021-08-13T10:08:14Z</time>
      </trkpt>
      <trkpt lat="43.8429" lon="5.87476">
        <ele>377.5</ele>
        <time>2021-08-13T10:08:29Z</time>
      </trkpt>
      <trkpt lat="43.84189" lon="5.87385">
        <ele>374.8</ele>
        <time>2021-08-13T10:08:49Z</time>
      </trkpt>
      <trkpt lat="43.841" lon="5.87347">
        <ele>374.5</ele>
        <time>2021-08-13T10:09:04Z</time>
      </trkpt>
      <trkpt lat="43.84053" lon="5.87234">
        <ele>373.3</ele>
        <time>2021-08-13T10:09:29Z</time>
      </trkpt>
      <trkpt lat="43.83959" lon="5.87167">
        <ele>372.2</ele>
        <time>2021-08-13T10:09:44Z</time>
      </trkpt>
      <trkpt lat="43.83851" lon="5.87072">
        <ele>367.4</ele>
        <time>2021-08-13T10:10:04Z</time>
      </trkpt>
      <trkpt lat="43.83783" lon="5.86955">
        <ele>367.6</ele>
        <time>2021-08-13T10:10:19Z</time>
      </trkpt>
      <trkpt lat="43.83697" lon="5.86893">
        <ele>365.6</ele>
        <time>2021-08-13T10:10:34Z</time>
      </trkpt>
      <trkpt lat="43.83616" lon="5.86818">
        <ele>364</ele>
        <time>2021-08-13T10:10:49Z</time>
      </trkpt>
      <trkpt lat="43.83509" lon="5.86739">
        <ele>362.4</ele>
        <time>2021-08-13T10:11:04Z</time>
      </trkpt>
      <trkpt lat="43.83452" lon="5.86604">
        <ele>359</ele>
        <time>2021-08-13T10:11:19Z</time>
      </trkpt>
      <trkpt lat="43.83375" lon="5.86517">
        <ele>356.8</ele>
        <time>2021-08-13T10:11:44Z</time>
      </trkpt>
      <trkpt lat="43.83275" lon="5.86441">
        <ele>357.6</ele>
        <time>2021-08-13T10:12:04Z</time>
      </trkpt>
      <trkpt lat="43.832" lon="5.86345">
        <ele>357.2</ele>
        <time>2021-08-13T10:12:19Z</time>
      </trkpt>
      <trkpt lat="43.8312" lon="5.86253">
        <ele>359.3</ele>
        <time>2021-08-13T10:12:34Z</time>
      </trkpt>
      <trkpt lat="43.83034" lon="5.86162">
        <ele>359.7</ele>
        <time>2021-08-13T10:12:49Z</time>
      </trkpt>
      <trkpt lat="43.82944" lon="5.8618">
        <ele>358.5</ele>
        <time>2021-08-13T10:13:04Z</time>
      </trkpt>
      <trkpt lat="43.82906" lon="5.86307">
        <ele>354.8</ele>
        <time>2021-08-13T10:13:14Z</time>
      </trkpt>
      <trkpt lat="43.82859" lon="5.86153">
        <ele>346.5</ele>
        <time>2021-08-13T10:13:45Z</time>
      </trkpt>
      <trkpt lat="43.8284" lon="5.86006">
        <ele>342.4</ele>
        <time>2021-08-13T10:13:55Z</time>
      </trkpt>
      <trkpt lat="43.82803" lon="5.85866">
        <ele>337.7</ele>
        <time>2021-08-13T10:14:05Z</time>
      </trkpt>
      <trkpt lat="43.82737" lon="5.85739">
        <ele>331.9</ele>
        <time>2021-08-13T10:14:15Z</time>
      </trkpt>
      <trkpt lat="43.82683" lon="5.85625">
        <ele>327</ele>
        <time>2021-08-13T10:14:25Z</time>
      </trkpt>
      <trkpt lat="43.82594" lon="5.85588">
        <ele>318.9</ele>
        <time>2021-08-13T10:14:35Z</time>
      </trkpt>
      <trkpt lat="43.82507" lon="5.85499">
        <ele>311.5</ele>
        <time>2021-08-13T10:14:50Z</time>
      </trkpt>
      <trkpt lat="43.82393" lon="5.8546">
        <ele>305.3</ele>
        <time>2021-08-13T10:15:10Z</time>
      </trkpt>
      <trkpt lat="43.82306" lon="5.85402">
        <ele>299.9</ele>
        <time>2021-08-13T10:15:25Z</time>
      </trkpt>
      <trkpt lat="43.82208" lon="5.85347">
        <ele>294.9</ele>
        <time>2021-08-13T10:15:50Z</time>
      </trkpt>
      <trkpt lat="43.82114" lon="5.8531">
        <ele>293.3</ele>
        <time>2021-08-13T10:16:05Z</time>
      </trkpt>
      <trkpt lat="43.82019" lon="5.85272">
        <ele>291</ele>
        <time>2021-08-13T10:16:20Z</time>
      </trkpt>
      <trkpt lat="43.81939" lon="5.85154">
        <ele>288</ele>
        <time>2021-08-13T10:16:45Z</time>
      </trkpt>
      <trkpt lat="43.81849" lon="5.85081">
        <ele>287.1</ele>
        <time>2021-08-13T10:17:05Z</time>
      </trkpt>
      <trkpt lat="43.81738" lon="5.85052">
        <ele>285</ele>
        <time>2021-08-13T10:17:25Z</time>
      </trkpt>
      <trkpt lat="43.81646" lon="5.8499">
        <ele>282</ele>
        <time>2021-08-13T10:17:45Z</time>
      </trkpt>
      <trkpt lat="43.81567" lon="5.84923">
        <ele>279.7</ele>
        <time>2021-08-13T10:18:00Z</time>
      </trkpt>
      <trkpt lat="43.81482" lon="5.84817">
        <ele>278.2</ele>
        <time>2021-08-13T10:18:15Z</time>
      </trkpt>
      <trkpt lat="43.81394" lon="5.84738">
        <ele>280</ele>
        <time>2021-08-13T10:18:30Z</time>
      </trkpt>
      <trkpt lat="43.81294" lon="5.84681">
        <ele>287.8</ele>
        <time>2021-08-13T10:18:45Z</time>
      </trkpt>
      <trkpt lat="43.81202" lon="5.84634">
        <ele>294.4</ele>
        <time>2021-08-13T10:19:57Z</time>
      </trkpt>
      <trkpt lat="43.81095" lon="5.84564">
        <ele>292.8</ele>
        <time>2021-08-13T10:20:17Z</time>
      </trkpt>
      <trkpt lat="43.81003" lon="5.84509">
        <ele>291.3</ele>
        <time>2021-08-13T10:20:32Z</time>
      </trkpt>
      <trkpt lat="43.80921" lon="5.84437">
        <ele>290.1</ele>
        <time>2021-08-13T10:20:47Z</time>
      </trkpt>
      <trkpt lat="43.80842" lon="5.84339">
        <ele>288.3</ele>
        <time>2021-08-13T10:21:02Z</time>
      </trkpt>
      <trkpt lat="43.80742" lon="5.84273">
        <ele>286.2</ele>
        <time>2021-08-13T10:21:17Z</time>
      </trkpt>
      <trkpt lat="43.80645" lon="5.84227">
        <ele>286.4</ele>
        <time>2021-08-13T10:21:32Z</time>
      </trkpt>
      <trkpt lat="43.80537" lon="5.84183">
        <ele>289.1</ele>
        <time>2021-08-13T10:21:52Z</time>
      </trkpt>
      <trkpt lat="43.80443" lon="5.84187">
        <ele>291.7</ele>
        <time>2021-08-13T10:22:12Z</time>
      </trkpt>
      <trkpt lat="43.80378" lon="5.8407">
        <ele>289.8</ele>
        <time>2021-08-13T10:22:27Z</time>
      </trkpt>
      <trkpt lat="43.80328" lon="5.83943">
        <ele>290.5</ele>
        <time>2021-08-13T10:22:42Z</time>
      </trkpt>
      <trkpt lat="43.8027" lon="5.83825">
        <ele>289.5</ele>
        <time>2021-08-13T10:22:57Z</time>
      </trkpt>
      <trkpt lat="43.80232" lon="5.83694">
        <ele>287.8</ele>
        <time>2021-08-13T10:23:12Z</time>
      </trkpt>
      <trkpt lat="43.80177" lon="5.83567">
        <ele>286.8</ele>
        <time>2021-08-13T10:23:27Z</time>
      </trkpt>
      <trkpt lat="43.80125" lon="5.83437">
        <ele>281.4</ele>
        <time>2021-08-13T10:23:42Z</time>
      </trkpt>
      <trkpt lat="43.80056" lon="5.83328">
        <ele>284.3</ele>
        <time>2021-08-13T10:24:02Z</time>
      </trkpt>
      <trkpt lat="43.80097" lon="5.83204">
        <ele>292</ele>
        <time>2021-08-13T10:28:40Z</time>
      </trkpt>
      <trkpt lat="43.80148" lon="5.83088">
        <ele>286.5</ele>
        <time>2021-08-13T10:29:00Z</time>
      </trkpt>
      <trkpt lat="43.80203" lon="5.82965">
        <ele>288.4</ele>
        <time>2021-08-13T10:29:20Z</time>
      </trkpt>
      <trkpt lat="43.8026" lon="5.82842">
        <ele>287.6</ele>
        <time>2021-08-13T10:29:40Z</time>
      </trkpt>
      <trkpt lat="43.80318" lon="5.82719">
        <ele>288.4</ele>
        <time>2021-08-13T10:30:00Z</time>
      </trkpt>
      <trkpt lat="43.80384" lon="5.82611">
        <ele>288.7</ele>
        <time>2021-08-13T10:30:25Z</time>
      </trkpt>
      <trkpt lat="43.80439" lon="5.82507">
        <ele>291.4</ele>
        <time>2021-08-13T10:30:50Z</time>
      </trkpt>
      <trkpt lat="43.80495" lon="5.82377">
        <ele>292.3</ele>
        <time>2021-08-13T10:31:15Z</time>
      </trkpt>
      <trkpt lat="43.80541" lon="5.82244">
        <ele>292.9</ele>
        <time>2021-08-13T10:31:35Z</time>
      </trkpt>
      <trkpt lat="43.80582" lon="5.82128">
        <ele>288.6</ele>
        <time>2021-08-13T10:31:50Z</time>
      </trkpt>
      <trkpt lat="43.80629" lon="5.81995">
        <ele>287.8</ele>
        <time>2021-08-13T10:32:10Z</time>
      </trkpt>
      <trkpt lat="43.80671" lon="5.81884">
        <ele>294.4</ele>
        <time>2021-08-13T10:32:45Z</time>
      </trkpt>
      <trkpt lat="43.80718" lon="5.81766">
        <ele>300.5</ele>
        <time>2021-08-13T10:33:10Z</time>
      </trkpt>
      <trkpt lat="43.80768" lon="5.81664">
        <ele>305.1</ele>
        <time>2021-08-13T10:33:30Z</time>
      </trkpt>
      <trkpt lat="43.80818" lon="5.81562">
        <ele>299.1</ele>
        <time>2021-08-13T10:33:50Z</time>
      </trkpt>
      <trkpt lat="43.80881" lon="5.81443">
        <ele>292.2</ele>
        <time>2021-08-13T10:34:10Z</time>
      </trkpt>
      <trkpt lat="43.80945" lon="5.8132">
        <ele>290.3</ele>
        <time>2021-08-13T10:34:35Z</time>
      </trkpt>
      <trkpt lat="43.80933" lon="5.81185">
        <ele>299.9</ele>
        <time>2021-08-13T10:35:11Z</time>
      </trkpt>
      <trkpt lat="43.81031" lon="5.81146">
        <ele>294.4</ele>
        <time>2021-08-13T10:36:13Z</time>
      </trkpt>
      <trkpt lat="43.81093" lon="5.81041">
        <ele>292.3</ele>
        <time>2021-08-13T10:36:33Z</time>
      </trkpt>
      <trkpt lat="43.81151" lon="5.80931">
        <ele>291</ele>
        <time>2021-08-13T10:36:53Z</time>
      </trkpt>
      <trkpt lat="43.81208" lon="5.80817">
        <ele>291.6</ele>
        <time>2021-08-13T10:37:13Z</time>
      </trkpt>
      <trkpt lat="43.81248" lon="5.80703">
        <ele>294.2</ele>
        <time>2021-08-13T10:37:33Z</time>
      </trkpt>
      <trkpt lat="43.8129" lon="5.80589">
        <ele>298.3</ele>
        <time>2021-08-13T10:37:53Z</time>
      </trkpt>
      <trkpt lat="43.81331" lon="5.80475">
        <ele>298.5</ele>
        <time>2021-08-13T10:38:13Z</time>
      </trkpt>
      <trkpt lat="43.81373" lon="5.80354">
        <ele>304.2</ele>
        <time>2021-08-13T10:38:38Z</time>
      </trkpt>
      <trkpt lat="43.8144" lon="5.80241">
        <ele>307.6</ele>
        <time>2021-08-13T10:39:03Z</time>
      </trkpt>
      <trkpt lat="43.81506" lon="5.80132">
        <ele>307.2</ele>
        <time>2021-08-13T10:39:28Z</time>
      </trkpt>
      <trkpt lat="43.81574" lon="5.80038">
        <ele>309.3</ele>
        <time>2021-08-13T10:39:58Z</time>
      </trkpt>
      <trkpt lat="43.81639" lon="5.79945">
        <ele>311.6</ele>
        <time>2021-08-13T10:40:36Z</time>
      </trkpt>
      <trkpt lat="43.81716" lon="5.79874">
        <ele>313.7</ele>
        <time>2021-08-13T10:41:21Z</time>
      </trkpt>
      <trkpt lat="43.81784" lon="5.79793">
        <ele>313</ele>
        <time>2021-08-13T10:42:31Z</time>
      </trkpt>
      <trkpt lat="43.81844" lon="5.79692">
        <ele>310.6</ele>
        <time>2021-08-13T10:43:15Z</time>
      </trkpt>
      <trkpt lat="43.81905" lon="5.79589">
        <ele>315.2</ele>
        <time>2021-08-13T10:43:40Z</time>
      </trkpt>
      <trkpt lat="43.81958" lon="5.79491">
        <ele>319.7</ele>
        <time>2021-08-13T10:44:00Z</time>
      </trkpt>
      <trkpt lat="43.82018" lon="5.79388">
        <ele>318.6</ele>
        <time>2021-08-13T10:44:30Z</time>
      </trkpt>
      <trkpt lat="43.82089" lon="5.79295">
        <ele>322.4</ele>
        <time>2021-08-13T10:45:01Z</time>
      </trkpt>
      <trkpt lat="43.82174" lon="5.79205">
        <ele>322.8</ele>
        <time>2021-08-13T10:45:26Z</time>
      </trkpt>
      <trkpt lat="43.82271" lon="5.79182">
        <ele>326.1</ele>
        <time>2021-08-13T10:46:01Z</time>
      </trkpt>
      <trkpt lat="43.82344" lon="5.79085">
        <ele>328.1</ele>
        <time>2021-08-13T10:51:13Z</time>
      </trkpt>
      <trkpt lat="43.82412" lon="5.78999">
        <ele>331.6</ele>
        <time>2021-08-13T10:51:43Z</time>
      </trkpt>
      <trkpt lat="43.82476" lon="5.78905">
        <ele>336.9</ele>
        <time>2021-08-13T10:52:18Z</time>
      </trkpt>
      <trkpt lat="43.82541" lon="5.78826">
        <ele>344.6</ele>
        <time>2021-08-13T10:52:53Z</time>
      </trkpt>
      <trkpt lat="43.82618" lon="5.78749">
        <ele>351.3</ele>
        <time>2021-08-13T10:53:38Z</time>
      </trkpt>
      <trkpt lat="43.82705" lon="5.78712">
        <ele>358.1</ele>
        <time>2021-08-13T10:54:18Z</time>
      </trkpt>
      <trkpt lat="43.82788" lon="5.78669">
        <ele>359.5</ele>
        <time>2021-08-13T10:55:35Z</time>
      </trkpt>
      <trkpt lat="43.82868" lon="5.78593">
        <ele>371.9</ele>
        <time>2021-08-13T10:56:15Z</time>
      </trkpt>
      <trkpt lat="43.8296" lon="5.78537">
        <ele>383.1</ele>
        <time>2021-08-13T10:56:55Z</time>
      </trkpt>
      <trkpt lat="43.82864" lon="5.785">
        <ele>367.6</ele>
        <time>2021-08-13T11:53:42Z</time>
      </trkpt>
      <trkpt lat="43.82858" lon="5.78372">
        <ele>342.2</ele>
        <time>2021-08-13T13:52:41Z</time>
      </trkpt>
      <trkpt lat="43.82795" lon="5.78275">
        <ele>344.4</ele>
        <time>2021-08-13T13:57:38Z</time>
      </trkpt>
      <trkpt lat="43.82891" lon="5.78268">
        <ele>347.2</ele>
        <time>2021-08-13T14:05:03Z</time>
      </trkpt>
      <trkpt lat="43.82984" lon="5.7827">
        <ele>347.1</ele>
        <time>2021-08-13T14:05:47Z</time>
      </trkpt>
      <trkpt lat="43.83064" lon="5.7819">
        <ele>360.4</ele>
        <time>2021-08-13T14:06:36Z</time>
      </trkpt>
      <trkpt lat="43.83077" lon="5.78043">
        <ele>359.9</ele>
        <time>2021-08-13T14:06:56Z</time>
      </trkpt>
      <trkpt lat="43.831" lon="5.77914">
        <ele>357.5</ele>
        <time>2021-08-13T14:07:16Z</time>
      </trkpt>
      <trkpt lat="43.83115" lon="5.77764">
        <ele>359.3</ele>
        <time>2021-08-13T14:08:12Z</time>
      </trkpt>
      <trkpt lat="43.83141" lon="5.77629">
        <ele>359.8</ele>
        <time>2021-08-13T14:08:37Z</time>
      </trkpt>
      <trkpt lat="43.83168" lon="5.77499">
        <ele>359.3</ele>
        <time>2021-08-13T14:09:07Z</time>
      </trkpt>
      <trkpt lat="43.8319" lon="5.7736">
        <ele>356.8</ele>
        <time>2021-08-13T14:09:37Z</time>
      </trkpt>
      <trkpt lat="43.83239" lon="5.77234">
        <ele>356.4</ele>
        <time>2021-08-13T14:10:07Z</time>
      </trkpt>
      <trkpt lat="43.83278" lon="5.77119">
        <ele>357.6</ele>
        <time>2021-08-13T14:10:37Z</time>
      </trkpt>
      <trkpt lat="43.83312" lon="5.76998">
        <ele>361.3</ele>
        <time>2021-08-13T14:11:07Z</time>
      </trkpt>
      <trkpt lat="43.8332" lon="5.76863">
        <ele>370.2</ele>
        <time>2021-08-13T14:12:23Z</time>
      </trkpt>
      <trkpt lat="43.83303" lon="5.76728">
        <ele>369.9</ele>
        <time>2021-08-13T14:12:53Z</time>
      </trkpt>
      <trkpt lat="43.83291" lon="5.76598">
        <ele>370.4</ele>
        <time>2021-08-13T14:13:28Z</time>
      </trkpt>
      <trkpt lat="43.83276" lon="5.76467">
        <ele>378.8</ele>
        <time>2021-08-13T14:14:03Z</time>
      </trkpt>
      <trkpt lat="43.83255" lon="5.76324">
        <ele>385.6</ele>
        <time>2021-08-13T14:14:43Z</time>
      </trkpt>
      <trkpt lat="43.83241" lon="5.76193">
        <ele>388.9</ele>
        <time>2021-08-13T14:15:18Z</time>
      </trkpt>
      <trkpt lat="43.83264" lon="5.7606">
        <ele>392.9</ele>
        <time>2021-08-13T14:16:04Z</time>
      </trkpt>
      <trkpt lat="43.83294" lon="5.75937">
        <ele>398.8</ele>
        <time>2021-08-13T14:16:52Z</time>
      </trkpt>
      <trkpt lat="43.83297" lon="5.75807">
        <ele>409</ele>
        <time>2021-08-13T14:17:40Z</time>
      </trkpt>
      <trkpt lat="43.83291" lon="5.75673">
        <ele>413.6</ele>
        <time>2021-08-13T14:18:15Z</time>
      </trkpt>
      <trkpt lat="43.83298" lon="5.75535">
        <ele>419.9</ele>
        <time>2021-08-13T14:18:55Z</time>
      </trkpt>
      <trkpt lat="43.83313" lon="5.75413">
        <ele>422.3</ele>
        <time>2021-08-13T14:19:35Z</time>
      </trkpt>
      <trkpt lat="43.83348" lon="5.75289">
        <ele>427.9</ele>
        <time>2021-08-13T14:20:25Z</time>
      </trkpt>
      <trkpt lat="43.83397" lon="5.7518">
        <ele>435.3</ele>
        <time>2021-08-13T14:21:14Z</time>
      </trkpt>
      <trkpt lat="43.83491" lon="5.75185">
        <ele>449.1</ele>
        <time>2021-08-13T14:22:25Z</time>
      </trkpt>
      <trkpt lat="43.83588" lon="5.75235">
        <ele>449.2</ele>
        <time>2021-08-13T14:24:41Z</time>
      </trkpt>
      <trkpt lat="43.83683" lon="5.7527">
        <ele>452.4</ele>
        <time>2021-08-13T14:25:21Z</time>
      </trkpt>
      <trkpt lat="43.83774" lon="5.75241">
        <ele>462.2</ele>
        <time>2021-08-13T14:26:01Z</time>
      </trkpt>
      <trkpt lat="43.83867" lon="5.75197">
        <ele>466.4</ele>
        <time>2021-08-13T14:26:41Z</time>
      </trkpt>
      <trkpt lat="43.8397" lon="5.75207">
        <ele>473.6</ele>
        <time>2021-08-13T14:27:26Z</time>
      </trkpt>
      <trkpt lat="43.84062" lon="5.75249">
        <ele>487</ele>
        <time>2021-08-13T14:28:13Z</time>
      </trkpt>
      <trkpt lat="43.84147" lon="5.75308">
        <ele>497.1</ele>
        <time>2021-08-13T14:28:53Z</time>
      </trkpt>
      <trkpt lat="43.84198" lon="5.75196">
        <ele>493.2</ele>
        <time>2021-08-13T14:29:38Z</time>
      </trkpt>
      <trkpt lat="43.84219" lon="5.75073">
        <ele>495.7</ele>
        <time>2021-08-13T14:30:23Z</time>
      </trkpt>
      <trkpt lat="43.84195" lon="5.74944">
        <ele>503.3</ele>
        <time>2021-08-13T14:31:08Z</time>
      </trkpt>
      <trkpt lat="43.8418" lon="5.74814">
        <ele>512</ele>
        <time>2021-08-13T14:31:54Z</time>
      </trkpt>
      <trkpt lat="43.84156" lon="5.74684">
        <ele>515.9</ele>
        <time>2021-08-13T14:32:44Z</time>
      </trkpt>
      <trkpt lat="43.84119" lon="5.74566">
        <ele>510.4</ele>
        <time>2021-08-13T14:55:21Z</time>
      </trkpt>
      <trkpt lat="43.84075" lon="5.74448">
        <ele>518.5</ele>
        <time>2021-08-13T14:55:56Z</time>
      </trkpt>
      <trkpt lat="43.84083" lon="5.74315">
        <ele>524.7</ele>
        <time>2021-08-13T14:56:31Z</time>
      </trkpt>
      <trkpt lat="43.84128" lon="5.74199">
        <ele>524.9</ele>
        <time>2021-08-13T14:56:56Z</time>
      </trkpt>
      <trkpt lat="43.84194" lon="5.74101">
        <ele>521</ele>
        <time>2021-08-13T14:57:11Z</time>
      </trkpt>
      <trkpt lat="43.8427" lon="5.73993">
        <ele>518.2</ele>
        <time>2021-08-13T14:57:26Z</time>
      </trkpt>
      <trkpt lat="43.84343" lon="5.73913">
        <ele>523.3</ele>
        <time>2021-08-13T14:58:04Z</time>
      </trkpt>
      <trkpt lat="43.84429" lon="5.73962">
        <ele>540.1</ele>
        <time>2021-08-13T14:58:49Z</time>
      </trkpt>
      <trkpt lat="43.84522" lon="5.73966">
        <ele>546.7</ele>
        <time>2021-08-13T14:59:35Z</time>
      </trkpt>
      <trkpt lat="43.84591" lon="5.73892">
        <ele>544.1</ele>
        <time>2021-08-13T15:00:22Z</time>
      </trkpt>
      <trkpt lat="43.84675" lon="5.73818">
        <ele>547.4</ele>
        <time>2021-08-13T15:01:02Z</time>
      </trkpt>
      <trkpt lat="43.84757" lon="5.73745">
        <ele>552.5</ele>
        <time>2021-08-13T15:01:27Z</time>
      </trkpt>
      <trkpt lat="43.84809" lon="5.73646">
        <ele>552.8</ele>
        <time>2021-08-13T15:01:42Z</time>
      </trkpt>
      <trkpt lat="43.84874" lon="5.7356">
        <ele>551.6</ele>
        <time>2021-08-13T15:02:12Z</time>
      </trkpt>
      <trkpt lat="43.84943" lon="5.73486">
        <ele>555.6</ele>
        <time>2021-08-13T15:02:52Z</time>
      </trkpt>
      <trkpt lat="43.85014" lon="5.73406">
        <ele>563.9</ele>
        <time>2021-08-13T15:03:39Z</time>
      </trkpt>
      <trkpt lat="43.85052" lon="5.73293">
        <ele>568.3</ele>
        <time>2021-08-13T15:04:19Z</time>
      </trkpt>
      <trkpt lat="43.851" lon="5.73184">
        <ele>577.6</ele>
        <time>2021-08-13T15:04:59Z</time>
      </trkpt>
      <trkpt lat="43.8515" lon="5.73075">
        <ele>578.1</ele>
        <time>2021-08-13T15:05:39Z</time>
      </trkpt>
      <trkpt lat="43.85203" lon="5.72976">
        <ele>572.6</ele>
        <time>2021-08-13T15:06:04Z</time>
      </trkpt>
      <trkpt lat="43.85264" lon="5.72875">
        <ele>571.5</ele>
        <time>2021-08-13T15:06:19Z</time>
      </trkpt>
      <trkpt lat="43.85361" lon="5.72853">
        <ele>577.2</ele>
        <time>2021-08-13T15:09:03Z</time>
      </trkpt>
      <trkpt lat="43.85468" lon="5.72834">
        <ele>578.1</ele>
        <time>2021-08-13T15:09:23Z</time>
      </trkpt>
      <trkpt lat="43.8558" lon="5.72811">
        <ele>573.9</ele>
        <time>2021-08-13T15:09:38Z</time>
      </trkpt>
      <trkpt lat="43.85669" lon="5.72795">
        <ele>569.6</ele>
        <time>2021-08-13T15:09:48Z</time>
      </trkpt>
      <trkpt lat="43.85762" lon="5.72798">
        <ele>564</ele>
        <time>2021-08-13T15:09:58Z</time>
      </trkpt>
      <trkpt lat="43.8586" lon="5.72806">
        <ele>557.1</ele>
        <time>2021-08-13T15:10:08Z</time>
      </trkpt>
      <trkpt lat="43.8596" lon="5.72789">
        <ele>550.8</ele>
        <time>2021-08-13T15:10:18Z</time>
      </trkpt>
      <trkpt lat="43.86067" lon="5.72774">
        <ele>546.4</ele>
        <time>2021-08-13T15:10:28Z</time>
      </trkpt>
      <trkpt lat="43.86172" lon="5.72753">
        <ele>538.2</ele>
        <time>2021-08-13T15:10:38Z</time>
      </trkpt>
      <trkpt lat="43.86269" lon="5.72805">
        <ele>530.8</ele>
        <time>2021-08-13T15:10:48Z</time>
      </trkpt>
      <trkpt lat="43.86364" lon="5.72894">
        <ele>523.2</ele>
        <time>2021-08-13T15:10:58Z</time>
      </trkpt>
      <trkpt lat="43.8646" lon="5.72902">
        <ele>518.6</ele>
        <time>2021-08-13T15:11:08Z</time>
      </trkpt>
      <trkpt lat="43.86577" lon="5.72891">
        <ele>515.5</ele>
        <time>2021-08-13T15:11:23Z</time>
      </trkpt>
      <trkpt lat="43.86679" lon="5.7295">
        <ele>512.5</ele>
        <time>2021-08-13T15:11:38Z</time>
      </trkpt>
      <trkpt lat="43.8667" lon="5.72797">
        <ele>503.3</ele>
        <time>2021-08-13T15:11:58Z</time>
      </trkpt>
      <trkpt lat="43.86761" lon="5.72794">
        <ele>497.5</ele>
        <time>2021-08-13T15:13:15Z</time>
      </trkpt>
      <trkpt lat="43.86856" lon="5.72813">
        <ele>498</ele>
        <time>2021-08-13T15:13:30Z</time>
      </trkpt>
      <trkpt lat="43.86985" lon="5.72829">
        <ele>494.9</ele>
        <time>2021-08-13T15:13:45Z</time>
      </trkpt>
      <trkpt lat="43.87085" lon="5.72859">
        <ele>491</ele>
        <time>2021-08-13T15:13:55Z</time>
      </trkpt>
      <trkpt lat="43.87162" lon="5.72968">
        <ele>483.1</ele>
        <time>2021-08-13T15:14:10Z</time>
      </trkpt>
      <trkpt lat="43.87211" lon="5.72865">
        <ele>474.1</ele>
        <time>2021-08-13T15:14:20Z</time>
      </trkpt>
      <trkpt lat="43.87273" lon="5.72781">
        <ele>465.3</ele>
        <time>2021-08-13T15:14:30Z</time>
      </trkpt>
      <trkpt lat="43.87348" lon="5.72713">
        <ele>458.1</ele>
        <time>2021-08-13T15:14:40Z</time>
      </trkpt>
      <trkpt lat="43.87432" lon="5.72642">
        <ele>450.6</ele>
        <time>2021-08-13T15:14:50Z</time>
      </trkpt>
      <trkpt lat="43.87524" lon="5.72645">
        <ele>444.9</ele>
        <time>2021-08-13T15:15:00Z</time>
      </trkpt>
      <trkpt lat="43.87646" lon="5.726">
        <ele>439.5</ele>
        <time>2021-08-13T15:15:15Z</time>
      </trkpt>
      <trkpt lat="43.8773" lon="5.72565">
        <ele>432.8</ele>
        <time>2021-08-13T15:15:25Z</time>
      </trkpt>
      <trkpt lat="43.87851" lon="5.72576">
        <ele>426</ele>
        <time>2021-08-13T15:15:40Z</time>
      </trkpt>
      <trkpt lat="43.87956" lon="5.72535">
        <ele>418.5</ele>
        <time>2021-08-13T15:15:55Z</time>
      </trkpt>
      <trkpt lat="43.88035" lon="5.72465">
        <ele>412.1</ele>
        <time>2021-08-13T15:16:10Z</time>
      </trkpt>
      <trkpt lat="43.88047" lon="5.72335">
        <ele>406.3</ele>
        <time>2021-08-13T15:16:25Z</time>
      </trkpt>
      <trkpt lat="43.88107" lon="5.72221">
        <ele>401.3</ele>
        <time>2021-08-13T15:16:45Z</time>
      </trkpt>
      <trkpt lat="43.88126" lon="5.7209">
        <ele>398.8</ele>
        <time>2021-08-13T15:17:15Z</time>
      </trkpt>
      <trkpt lat="43.88077" lon="5.71967">
        <ele>399.2</ele>
        <time>2021-08-13T15:18:11Z</time>
      </trkpt>
      <trkpt lat="43.8817" lon="5.7197">
        <ele>454.9</ele>
        <time>2021-08-13T15:20:16Z</time>
      </trkpt>
      <trkpt lat="43.88268" lon="5.71979">
        <ele>461.2</ele>
        <time>2021-08-13T15:21:02Z</time>
      </trkpt>
      <trkpt lat="43.88345" lon="5.72051">
        <ele>469.8</ele>
        <time>2021-08-13T15:21:51Z</time>
      </trkpt>
      <trkpt lat="43.88409" lon="5.71951">
        <ele>468.8</ele>
        <time>2021-08-13T15:22:41Z</time>
      </trkpt>
      <trkpt lat="43.88442" lon="5.71814">
        <ele>472.7</ele>
        <time>2021-08-13T15:23:23Z</time>
      </trkpt>
      <trkpt lat="43.88496" lon="5.71699">
        <ele>476.1</ele>
        <time>2021-08-13T15:23:48Z</time>
      </trkpt>
      <trkpt lat="43.88487" lon="5.71568">
        <ele>474.3</ele>
        <time>2021-08-13T15:27:08Z</time>
      </trkpt>
      <trkpt lat="43.88419" lon="5.71475">
        <ele>475.5</ele>
        <time>2021-08-13T15:27:28Z</time>
      </trkpt>
      <trkpt lat="43.88351" lon="5.71382">
        <ele>476</ele>
        <time>2021-08-13T15:27:48Z</time>
      </trkpt>
      <trkpt lat="43.88268" lon="5.71283">
        <ele>479.4</ele>
        <time>2021-08-13T15:28:08Z</time>
      </trkpt>
      <trkpt lat="43.88199" lon="5.71188">
        <ele>477.9</ele>
        <time>2021-08-13T15:28:23Z</time>
      </trkpt>
      <trkpt lat="43.88115" lon="5.71078">
        <ele>479.4</ele>
        <time>2021-08-13T15:28:38Z</time>
      </trkpt>
      <trkpt lat="43.88045" lon="5.70948">
        <ele>475.6</ele>
        <time>2021-08-13T15:28:53Z</time>
      </trkpt>
      <trkpt lat="43.88022" lon="5.70756">
        <ele>460.5</ele>
        <time>2021-08-13T15:29:08Z</time>
      </trkpt>
      <trkpt lat="43.88056" lon="5.70619">
        <ele>453.3</ele>
        <time>2021-08-13T15:29:18Z</time>
      </trkpt>
      <trkpt lat="43.88012" lon="5.70489">
        <ele>446.2</ele>
        <time>2021-08-13T15:29:28Z</time>
      </trkpt>
      <trkpt lat="43.87998" lon="5.70349">
        <ele>440.9</ele>
        <time>2021-08-13T15:29:38Z</time>
      </trkpt>
      <trkpt lat="43.8791" lon="5.70312">
        <ele>433.6</ele>
        <time>2021-08-13T15:29:53Z</time>
      </trkpt>
      <trkpt lat="43.87905" lon="5.7017">
        <ele>444.6</ele>
        <time>2021-08-13T15:31:46Z</time>
      </trkpt>
      <trkpt lat="43.8798" lon="5.70097">
        <ele>446.2</ele>
        <time>2021-08-13T15:32:06Z</time>
      </trkpt>
      <trkpt lat="43.88069" lon="5.70057">
        <ele>446.7</ele>
        <time>2021-08-13T15:32:41Z</time>
      </trkpt>
      <trkpt lat="43.87989" lon="5.70106">
        <ele>446.5</ele>
        <time>2021-08-13T15:41:07Z</time>
      </trkpt>
      <trkpt lat="43.87895" lon="5.70141">
        <ele>446.2</ele>
        <time>2021-08-13T15:41:39Z</time>
      </trkpt>
      <trkpt lat="43.87852" lon="5.70266">
        <ele>446.2</ele>
        <time>2021-08-13T15:42:04Z</time>
      </trkpt>
      <trkpt lat="43.87781" lon="5.70348">
        <ele>444.6</ele>
        <time>2021-08-13T15:42:34Z</time>
      </trkpt>
      <trkpt lat="43.87693" lon="5.70411">
        <ele>443.3</ele>
        <time>2021-08-13T15:43:09Z</time>
      </trkpt>
      <trkpt lat="43.87644" lon="5.70525">
        <ele>447.6</ele>
        <time>2021-08-13T15:43:44Z</time>
      </trkpt>
      <trkpt lat="43.87601" lon="5.70645">
        <ele>455.4</ele>
        <time>2021-08-13T15:44:24Z</time>
      </trkpt>
      <trkpt lat="43.87552" lon="5.70513">
        <ele>465.3</ele>
        <time>2021-08-13T15:44:59Z</time>
      </trkpt>
      <trkpt lat="43.87552" lon="5.70383">
        <ele>466.2</ele>
        <time>2021-08-13T15:45:24Z</time>
      </trkpt>
      <trkpt lat="43.8749" lon="5.70255">
        <ele>465.4</ele>
        <time>2021-08-13T15:45:49Z</time>
      </trkpt>
      <trkpt lat="43.87435" lon="5.70149">
        <ele>460.5</ele>
        <time>2021-08-13T15:46:09Z</time>
      </trkpt>
      <trkpt lat="43.87378" lon="5.70045">
        <ele>465.2</ele>
        <time>2021-08-13T15:46:29Z</time>
      </trkpt>
      <trkpt lat="43.87314" lon="5.69928">
        <ele>466.5</ele>
        <time>2021-08-13T15:46:49Z</time>
      </trkpt>
      <trkpt lat="43.8724" lon="5.6979">
        <ele>467.8</ele>
        <time>2021-08-13T15:47:09Z</time>
      </trkpt>
      <trkpt lat="43.87171" lon="5.6965">
        <ele>469.9</ele>
        <time>2021-08-13T15:47:29Z</time>
      </trkpt>
      <trkpt lat="43.87116" lon="5.69535">
        <ele>467.7</ele>
        <time>2021-08-13T15:47:49Z</time>
      </trkpt>
      <trkpt lat="43.87062" lon="5.69421">
        <ele>464.1</ele>
        <time>2021-08-13T15:48:14Z</time>
      </trkpt>
      <trkpt lat="43.87001" lon="5.69294">
        <ele>465.4</ele>
        <time>2021-08-13T15:48:44Z</time>
      </trkpt>
      <trkpt lat="43.86939" lon="5.69174">
        <ele>464.7</ele>
        <time>2021-08-13T15:49:14Z</time>
      </trkpt>
      <trkpt lat="43.86878" lon="5.69055">
        <ele>465.7</ele>
        <time>2021-08-13T15:49:44Z</time>
      </trkpt>
      <trkpt lat="43.86821" lon="5.68933">
        <ele>467.1</ele>
        <time>2021-08-13T15:50:14Z</time>
      </trkpt>
      <trkpt lat="43.8677" lon="5.68816">
        <ele>470.4</ele>
        <time>2021-08-13T15:50:44Z</time>
      </trkpt>
      <trkpt lat="43.86717" lon="5.6869">
        <ele>473.8</ele>
        <time>2021-08-13T15:51:14Z</time>
      </trkpt>
      <trkpt lat="43.86665" lon="5.68558">
        <ele>476.5</ele>
        <time>2021-08-13T15:51:44Z</time>
      </trkpt>
      <trkpt lat="43.86618" lon="5.68428">
        <ele>479.7</ele>
        <time>2021-08-13T15:52:19Z</time>
      </trkpt>
      <trkpt lat="43.86575" lon="5.68313">
        <ele>480.2</ele>
        <time>2021-08-13T15:52:49Z</time>
      </trkpt>
      <trkpt lat="43.86525" lon="5.68198">
        <ele>491.8</ele>
        <time>2021-08-13T15:53:19Z</time>
      </trkpt>
      <trkpt lat="43.86478" lon="5.68084">
        <ele>490</ele>
        <time>2021-08-13T15:53:49Z</time>
      </trkpt>
      <trkpt lat="43.8641" lon="5.67964">
        <ele>487.1</ele>
        <time>2021-08-13T15:56:22Z</time>
      </trkpt>
      <trkpt lat="43.86351" lon="5.67848">
        <ele>480.6</ele>
        <time>2021-08-13T15:56:37Z</time>
      </trkpt>
      <trkpt lat="43.8631" lon="5.67689">
        <ele>474.8</ele>
        <time>2021-08-13T15:56:52Z</time>
      </trkpt>
      <trkpt lat="43.86305" lon="5.67559">
        <ele>467.3</ele>
        <time>2021-08-13T15:57:02Z</time>
      </trkpt>
      <trkpt lat="43.86304" lon="5.67402">
        <ele>458.2</ele>
        <time>2021-08-13T15:57:12Z</time>
      </trkpt>
      <trkpt lat="43.86305" lon="5.67233">
        <ele>449.2</ele>
        <time>2021-08-13T15:57:22Z</time>
      </trkpt>
      <trkpt lat="43.86308" lon="5.67081">
        <ele>440.1</ele>
        <time>2021-08-13T15:57:32Z</time>
      </trkpt>
      <trkpt lat="43.86313" lon="5.6694">
        <ele>431.2</ele>
        <time>2021-08-13T15:57:42Z</time>
      </trkpt>
      <trkpt lat="43.86325" lon="5.66803">
        <ele>423.2</ele>
        <time>2021-08-13T15:57:52Z</time>
      </trkpt>
      <trkpt lat="43.86337" lon="5.66675">
        <ele>419.1</ele>
        <time>2021-08-13T15:58:02Z</time>
      </trkpt>
      <trkpt lat="43.86349" lon="5.66548">
        <ele>414.1</ele>
        <time>2021-08-13T15:58:12Z</time>
      </trkpt>
      <trkpt lat="43.86359" lon="5.66372">
        <ele>413.2</ele>
        <time>2021-08-13T15:58:27Z</time>
      </trkpt>
      <trkpt lat="43.86375" lon="5.66241">
        <ele>421.7</ele>
        <time>2021-08-13T15:59:18Z</time>
      </trkpt>
      <trkpt lat="43.86328" lon="5.66118">
        <ele>421</ele>
        <time>2021-08-13T15:59:33Z</time>
      </trkpt>
      <trkpt lat="43.86326" lon="5.65992">
        <ele>424.2</ele>
        <time>2021-08-13T16:02:42Z</time>
      </trkpt>
      <trkpt lat="43.86281" lon="5.65857">
        <ele>427.2</ele>
        <time>2021-08-13T16:15:10Z</time>
      </trkpt>
      <trkpt lat="43.86224" lon="5.65725">
        <ele>425.5</ele>
        <time>2021-08-13T16:15:30Z</time>
      </trkpt>
      <trkpt lat="43.86158" lon="5.65621">
        <ele>422.3</ele>
        <time>2021-08-13T16:15:50Z</time>
      </trkpt>
      <trkpt lat="43.86101" lon="5.65485">
        <ele>422.2</ele>
        <time>2021-08-13T16:16:15Z</time>
      </trkpt>
      <trkpt lat="43.86049" lon="5.65355">
        <ele>420.8</ele>
        <time>2021-08-13T16:16:40Z</time>
      </trkpt>
      <trkpt lat="43.85996" lon="5.65243">
        <ele>417.9</ele>
        <time>2021-08-13T16:17:00Z</time>
      </trkpt>
      <trkpt lat="43.85933" lon="5.65086">
        <ele>411</ele>
        <time>2021-08-13T16:17:20Z</time>
      </trkpt>
      <trkpt lat="43.85879" lon="5.64925">
        <ele>407.5</ele>
        <time>2021-08-13T16:17:35Z</time>
      </trkpt>
      <trkpt lat="43.85843" lon="5.64787">
        <ele>405.3</ele>
        <time>2021-08-13T16:17:45Z</time>
      </trkpt>
      <trkpt lat="43.85817" lon="5.64652">
        <ele>403.4</ele>
        <time>2021-08-13T16:17:55Z</time>
      </trkpt>
      <trkpt lat="43.85789" lon="5.64481">
        <ele>397.9</ele>
        <time>2021-08-13T16:18:10Z</time>
      </trkpt>
      <trkpt lat="43.8581" lon="5.64324">
        <ele>393.8</ele>
        <time>2021-08-13T16:18:25Z</time>
      </trkpt>
      <trkpt lat="43.85846" lon="5.64178">
        <ele>390.6</ele>
        <time>2021-08-13T16:18:40Z</time>
      </trkpt>
      <trkpt lat="43.85877" lon="5.64032">
        <ele>387.7</ele>
        <time>2021-08-13T16:19:00Z</time>
      </trkpt>
      <trkpt lat="43.85912" lon="5.63912">
        <ele>386.8</ele>
        <time>2021-08-13T16:19:15Z</time>
      </trkpt>
      <trkpt lat="43.85956" lon="5.63789">
        <ele>385.6</ele>
        <time>2021-08-13T16:19:30Z</time>
      </trkpt>
      <trkpt lat="43.85964" lon="5.63634">
        <ele>384.1</ele>
        <time>2021-08-13T16:19:50Z</time>
      </trkpt>
      <trkpt lat="43.85962" lon="5.63504">
        <ele>382.2</ele>
        <time>2021-08-13T16:20:05Z</time>
      </trkpt>
      <trkpt lat="43.85944" lon="5.63371">
        <ele>380.1</ele>
        <time>2021-08-13T16:20:20Z</time>
      </trkpt>
      <trkpt lat="43.85926" lon="5.63216">
        <ele>379.9</ele>
        <time>2021-08-13T16:20:40Z</time>
      </trkpt>
      <trkpt lat="43.85955" lon="5.63084">
        <ele>386.7</ele>
        <time>2021-08-13T16:21:15Z</time>
      </trkpt>
      <trkpt lat="43.85971" lon="5.62952">
        <ele>387.9</ele>
        <time>2021-08-13T16:21:45Z</time>
      </trkpt>
      <trkpt lat="43.85994" lon="5.62827">
        <ele>387.6</ele>
        <time>2021-08-13T16:22:10Z</time>
      </trkpt>
      <trkpt lat="43.86025" lon="5.62665">
        <ele>383.8</ele>
        <time>2021-08-13T16:22:30Z</time>
      </trkpt>
      <trkpt lat="43.86021" lon="5.62512">
        <ele>379.9</ele>
        <time>2021-08-13T16:22:45Z</time>
      </trkpt>
      <trkpt lat="43.86004" lon="5.62355">
        <ele>378.4</ele>
        <time>2021-08-13T16:23:05Z</time>
      </trkpt>
      <trkpt lat="43.85991" lon="5.62221">
        <ele>380.2</ele>
        <time>2021-08-13T16:23:30Z</time>
      </trkpt>
      <trkpt lat="43.85958" lon="5.6208">
        <ele>387.8</ele>
        <time>2021-08-13T16:23:55Z</time>
      </trkpt>
      <trkpt lat="43.8592" lon="5.61919">
        <ele>390</ele>
        <time>2021-08-13T16:24:15Z</time>
      </trkpt>
      <trkpt lat="43.85891" lon="5.6178">
        <ele>386.8</ele>
        <time>2021-08-13T16:24:30Z</time>
      </trkpt>
      <trkpt lat="43.85896" lon="5.61654">
        <ele>384.1</ele>
        <time>2021-08-13T16:26:57Z</time>
      </trkpt>
      <trkpt lat="43.85931" lon="5.61528">
        <ele>382.8</ele>
        <time>2021-08-13T16:27:17Z</time>
      </trkpt>
      <trkpt lat="43.85969" lon="5.61391">
        <ele>381.1</ele>
        <time>2021-08-13T16:27:37Z</time>
      </trkpt>
      <trkpt lat="43.86008" lon="5.61241">
        <ele>378.6</ele>
        <time>2021-08-13T16:28:02Z</time>
      </trkpt>
      <trkpt lat="43.86041" lon="5.61122">
        <ele>376.7</ele>
        <time>2021-08-13T16:28:17Z</time>
      </trkpt>
      <trkpt lat="43.86052" lon="5.60989">
        <ele>376.5</ele>
        <time>2021-08-13T16:28:32Z</time>
      </trkpt>
      <trkpt lat="43.86019" lon="5.6084">
        <ele>376</ele>
        <time>2021-08-13T16:28:47Z</time>
      </trkpt>
      <trkpt lat="43.8598" lon="5.60688">
        <ele>375.2</ele>
        <time>2021-08-13T16:29:02Z</time>
      </trkpt>
      <trkpt lat="43.8595" lon="5.60539">
        <ele>375.1</ele>
        <time>2021-08-13T16:29:17Z</time>
      </trkpt>
      <trkpt lat="43.85923" lon="5.60397">
        <ele>371.2</ele>
        <time>2021-08-13T16:29:32Z</time>
      </trkpt>
      <trkpt lat="43.85897" lon="5.60236">
        <ele>367.1</ele>
        <time>2021-08-13T16:29:57Z</time>
      </trkpt>
      <trkpt lat="43.85909" lon="5.60099">
        <ele>362.5</ele>
        <time>2021-08-13T16:30:12Z</time>
      </trkpt>
      <trkpt lat="43.85915" lon="5.59967">
        <ele>360.6</ele>
        <time>2021-08-13T16:30:27Z</time>
      </trkpt>
      <trkpt lat="43.85921" lon="5.59833">
        <ele>356.9</ele>
        <time>2021-08-13T16:30:52Z</time>
      </trkpt>
      <trkpt lat="43.85938" lon="5.59682">
        <ele>355</ele>
        <time>2021-08-13T16:31:07Z</time>
      </trkpt>
      <trkpt lat="43.85932" lon="5.59539">
        <ele>351.9</ele>
        <time>2021-08-13T16:31:27Z</time>
      </trkpt>
      <trkpt lat="43.85842" lon="5.59454">
        <ele>345.7</ele>
        <time>2021-08-13T16:32:02Z</time>
      </trkpt>
      <trkpt lat="43.85754" lon="5.5939">
        <ele>342</ele>
        <time>2021-08-13T16:32:47Z</time>
      </trkpt>
      <trkpt lat="43.85714" lon="5.59258">
        <ele>341.3</ele>
        <time>2021-08-13T16:33:27Z</time>
      </trkpt>
      <trkpt lat="43.8566" lon="5.59145">
        <ele>341.1</ele>
        <time>2021-08-13T16:33:57Z</time>
      </trkpt>
      <trkpt lat="43.85596" lon="5.59048">
        <ele>356.8</ele>
        <time>2021-08-13T16:36:03Z</time>
      </trkpt>
      <trkpt lat="43.85558" lon="5.59165">
        <ele>373</ele>
        <time>2021-08-13T16:39:22Z</time>
      </trkpt>
    </trkseg>
  </trk>
  <trk>
    <name><![CDATA[Jour02]]></name>
    <trkseg>
      <trkpt lat="43.85557" lon="5.59034">
        <ele>389</ele>
        <time>2021-08-14T05:53:05Z</time>
      </trkpt>
      <trkpt lat="43.85569" lon="5.58907">
        <ele>389.1</ele>
        <time>2021-08-14T05:53:52Z</time>
      </trkpt>
      <trkpt lat="43.85597" lon="5.58788">
        <ele>389.5</ele>
        <time>2021-08-14T05:54:32Z</time>
      </trkpt>
      <trkpt lat="43.85619" lon="5.58668">
        <ele>390.2</ele>
        <time>2021-08-14T05:55:12Z</time>
      </trkpt>
      <trkpt lat="43.85659" lon="5.58552">
        <ele>390.8</ele>
        <time>2021-08-14T05:55:37Z</time>
      </trkpt>
      <trkpt lat="43.85657" lon="5.58411">
        <ele>400.6</ele>
        <time>2021-08-14T05:56:17Z</time>
      </trkpt>
      <trkpt lat="43.85639" lon="5.58283">
        <ele>409.1</ele>
        <time>2021-08-14T05:56:57Z</time>
      </trkpt>
      <trkpt lat="43.85622" lon="5.58146">
        <ele>417.3</ele>
        <time>2021-08-14T05:57:46Z</time>
      </trkpt>
      <trkpt lat="43.85607" lon="5.58016">
        <ele>426.5</ele>
        <time>2021-08-14T05:58:31Z</time>
      </trkpt>
      <trkpt lat="43.8559" lon="5.57889">
        <ele>433.4</ele>
        <time>2021-08-14T05:59:18Z</time>
      </trkpt>
      <trkpt lat="43.85571" lon="5.57755">
        <ele>439.5</ele>
        <time>2021-08-14T06:00:09Z</time>
      </trkpt>
      <trkpt lat="43.85515" lon="5.57628">
        <ele>442</ele>
        <time>2021-08-14T06:00:44Z</time>
      </trkpt>
      <trkpt lat="43.85507" lon="5.5748">
        <ele>444.8</ele>
        <time>2021-08-14T06:01:14Z</time>
      </trkpt>
      <trkpt lat="43.85585" lon="5.57408">
        <ele>443.2</ele>
        <time>2021-08-14T06:01:24Z</time>
      </trkpt>
      <trkpt lat="43.85671" lon="5.57341">
        <ele>441.9</ele>
        <time>2021-08-14T06:01:34Z</time>
      </trkpt>
      <trkpt lat="43.85775" lon="5.57355">
        <ele>439.1</ele>
        <time>2021-08-14T06:01:44Z</time>
      </trkpt>
      <trkpt lat="43.85689" lon="5.57285">
        <ele>426.8</ele>
        <time>2021-08-14T06:02:04Z</time>
      </trkpt>
      <trkpt lat="43.85676" lon="5.57097">
        <ele>420.5</ele>
        <time>2021-08-14T06:02:19Z</time>
      </trkpt>
      <trkpt lat="43.85587" lon="5.57034">
        <ele>413.7</ele>
        <time>2021-08-14T06:02:29Z</time>
      </trkpt>
      <trkpt lat="43.85526" lon="5.56926">
        <ele>407.6</ele>
        <time>2021-08-14T06:02:39Z</time>
      </trkpt>
      <trkpt lat="43.85476" lon="5.56793">
        <ele>403.2</ele>
        <time>2021-08-14T06:02:49Z</time>
      </trkpt>
      <trkpt lat="43.85448" lon="5.56634">
        <ele>399.8</ele>
        <time>2021-08-14T06:02:59Z</time>
      </trkpt>
      <trkpt lat="43.85492" lon="5.565">
        <ele>391.6</ele>
        <time>2021-08-14T06:03:09Z</time>
      </trkpt>
      <trkpt lat="43.85559" lon="5.56409">
        <ele>384.2</ele>
        <time>2021-08-14T06:03:19Z</time>
      </trkpt>
      <trkpt lat="43.85641" lon="5.56292">
        <ele>362.5</ele>
        <time>2021-08-14T06:04:20Z</time>
      </trkpt>
      <trkpt lat="43.85706" lon="5.56197">
        <ele>354.3</ele>
        <time>2021-08-14T06:04:30Z</time>
      </trkpt>
      <trkpt lat="43.85769" lon="5.56106">
        <ele>349.6</ele>
        <time>2021-08-14T06:04:40Z</time>
      </trkpt>
      <trkpt lat="43.85796" lon="5.55941">
        <ele>343.6</ele>
        <time>2021-08-14T06:04:55Z</time>
      </trkpt>
      <trkpt lat="43.85811" lon="5.55812">
        <ele>335.9</ele>
        <time>2021-08-14T06:05:10Z</time>
      </trkpt>
      <trkpt lat="43.85791" lon="5.55676">
        <ele>328.3</ele>
        <time>2021-08-14T06:05:30Z</time>
      </trkpt>
      <trkpt lat="43.85745" lon="5.55527">
        <ele>321.7</ele>
        <time>2021-08-14T06:05:50Z</time>
      </trkpt>
      <trkpt lat="43.85694" lon="5.55382">
        <ele>315.8</ele>
        <time>2021-08-14T06:06:10Z</time>
      </trkpt>
      <trkpt lat="43.85614" lon="5.55253">
        <ele>309.5</ele>
        <time>2021-08-14T06:06:30Z</time>
      </trkpt>
      <trkpt lat="43.85565" lon="5.55136">
        <ele>308.2</ele>
        <time>2021-08-14T06:06:45Z</time>
      </trkpt>
      <trkpt lat="43.8553" lon="5.55007">
        <ele>308.9</ele>
        <time>2021-08-14T06:07:00Z</time>
      </trkpt>
      <trkpt lat="43.85495" lon="5.5487">
        <ele>311.5</ele>
        <time>2021-08-14T06:07:15Z</time>
      </trkpt>
      <trkpt lat="43.85452" lon="5.54744">
        <ele>313.3</ele>
        <time>2021-08-14T06:07:30Z</time>
      </trkpt>
      <trkpt lat="43.85409" lon="5.54624">
        <ele>314.6</ele>
        <time>2021-08-14T06:07:45Z</time>
      </trkpt>
      <trkpt lat="43.85382" lon="5.5446">
        <ele>314.8</ele>
        <time>2021-08-14T06:08:05Z</time>
      </trkpt>
      <trkpt lat="43.85372" lon="5.54317">
        <ele>315.1</ele>
        <time>2021-08-14T06:08:20Z</time>
      </trkpt>
      <trkpt lat="43.85344" lon="5.54174">
        <ele>314.8</ele>
        <time>2021-08-14T06:08:35Z</time>
      </trkpt>
      <trkpt lat="43.85294" lon="5.54043">
        <ele>314.3</ele>
        <time>2021-08-14T06:08:50Z</time>
      </trkpt>
      <trkpt lat="43.85249" lon="5.53926">
        <ele>312.2</ele>
        <time>2021-08-14T06:09:05Z</time>
      </trkpt>
      <trkpt lat="43.85207" lon="5.53778">
        <ele>310.6</ele>
        <time>2021-08-14T06:09:25Z</time>
      </trkpt>
      <trkpt lat="43.85179" lon="5.53656">
        <ele>310.9</ele>
        <time>2021-08-14T06:09:40Z</time>
      </trkpt>
      <trkpt lat="43.85176" lon="5.53517">
        <ele>311.6</ele>
        <time>2021-08-14T06:09:55Z</time>
      </trkpt>
      <trkpt lat="43.85171" lon="5.53376">
        <ele>310.7</ele>
        <time>2021-08-14T06:10:10Z</time>
      </trkpt>
      <trkpt lat="43.85171" lon="5.53235">
        <ele>309.6</ele>
        <time>2021-08-14T06:10:25Z</time>
      </trkpt>
      <trkpt lat="43.85198" lon="5.53111">
        <ele>309</ele>
        <time>2021-08-14T06:10:40Z</time>
      </trkpt>
      <trkpt lat="43.85202" lon="5.52968">
        <ele>308.9</ele>
        <time>2021-08-14T06:10:55Z</time>
      </trkpt>
      <trkpt lat="43.85175" lon="5.52817">
        <ele>307.1</ele>
        <time>2021-08-14T06:11:10Z</time>
      </trkpt>
      <trkpt lat="43.8514" lon="5.52664">
        <ele>305.5</ele>
        <time>2021-08-14T06:11:30Z</time>
      </trkpt>
      <trkpt lat="43.85159" lon="5.52497">
        <ele>304.2</ele>
        <time>2021-08-14T06:11:50Z</time>
      </trkpt>
      <trkpt lat="43.85167" lon="5.52328">
        <ele>303.2</ele>
        <time>2021-08-14T06:12:10Z</time>
      </trkpt>
      <trkpt lat="43.85171" lon="5.52184">
        <ele>302.6</ele>
        <time>2021-08-14T06:12:25Z</time>
      </trkpt>
      <trkpt lat="43.85196" lon="5.52059">
        <ele>302.2</ele>
        <time>2021-08-14T06:12:40Z</time>
      </trkpt>
      <trkpt lat="43.8523" lon="5.51912">
        <ele>302</ele>
        <time>2021-08-14T06:13:00Z</time>
      </trkpt>
      <trkpt lat="43.85261" lon="5.5179">
        <ele>302.4</ele>
        <time>2021-08-14T06:13:15Z</time>
      </trkpt>
      <trkpt lat="43.85316" lon="5.51673">
        <ele>303</ele>
        <time>2021-08-14T06:13:30Z</time>
      </trkpt>
      <trkpt lat="43.85363" lon="5.51566">
        <ele>303.8</ele>
        <time>2021-08-14T06:13:45Z</time>
      </trkpt>
      <trkpt lat="43.85369" lon="5.51426">
        <ele>304.4</ele>
        <time>2021-08-14T06:14:00Z</time>
      </trkpt>
      <trkpt lat="43.85361" lon="5.51288">
        <ele>304.7</ele>
        <time>2021-08-14T06:14:15Z</time>
      </trkpt>
      <trkpt lat="43.85347" lon="5.51145">
        <ele>305</ele>
        <time>2021-08-14T06:14:30Z</time>
      </trkpt>
      <trkpt lat="43.85279" lon="5.5099">
        <ele>304.7</ele>
        <time>2021-08-14T06:14:50Z</time>
      </trkpt>
      <trkpt lat="43.85212" lon="5.50867">
        <ele>304.1</ele>
        <time>2021-08-14T06:15:05Z</time>
      </trkpt>
      <trkpt lat="43.85155" lon="5.50751">
        <ele>304</ele>
        <time>2021-08-14T06:15:20Z</time>
      </trkpt>
      <trkpt lat="43.85101" lon="5.50638">
        <ele>303.4</ele>
        <time>2021-08-14T06:15:35Z</time>
      </trkpt>
      <trkpt lat="43.85069" lon="5.50484">
        <ele>304.2</ele>
        <time>2021-08-14T06:15:55Z</time>
      </trkpt>
      <trkpt lat="43.85051" lon="5.50342">
        <ele>304.4</ele>
        <time>2021-08-14T06:16:10Z</time>
      </trkpt>
      <trkpt lat="43.85055" lon="5.50188">
        <ele>304.7</ele>
        <time>2021-08-14T06:16:25Z</time>
      </trkpt>
      <trkpt lat="43.85065" lon="5.50039">
        <ele>304.5</ele>
        <time>2021-08-14T06:16:40Z</time>
      </trkpt>
      <trkpt lat="43.85075" lon="5.49881">
        <ele>305.5</ele>
        <time>2021-08-14T06:17:00Z</time>
      </trkpt>
      <trkpt lat="43.85067" lon="5.49719">
        <ele>306.2</ele>
        <time>2021-08-14T06:17:20Z</time>
      </trkpt>
      <trkpt lat="43.85048" lon="5.49567">
        <ele>307.1</ele>
        <time>2021-08-14T06:17:40Z</time>
      </trkpt>
      <trkpt lat="43.85002" lon="5.49445">
        <ele>303.3</ele>
        <time>2021-08-14T06:18:00Z</time>
      </trkpt>
      <trkpt lat="43.85029" lon="5.49308">
        <ele>301</ele>
        <time>2021-08-14T06:18:25Z</time>
      </trkpt>
      <trkpt lat="43.85009" lon="5.49165">
        <ele>299.6</ele>
        <time>2021-08-14T06:18:45Z</time>
      </trkpt>
      <trkpt lat="43.85014" lon="5.4902">
        <ele>298.2</ele>
        <time>2021-08-14T06:19:00Z</time>
      </trkpt>
      <trkpt lat="43.85047" lon="5.48852">
        <ele>297</ele>
        <time>2021-08-14T06:19:15Z</time>
      </trkpt>
      <trkpt lat="43.85076" lon="5.48689">
        <ele>295.5</ele>
        <time>2021-08-14T06:19:30Z</time>
      </trkpt>
      <trkpt lat="43.85062" lon="5.48537">
        <ele>294.2</ele>
        <time>2021-08-14T06:19:45Z</time>
      </trkpt>
      <trkpt lat="43.85039" lon="5.48374">
        <ele>292.9</ele>
        <time>2021-08-14T06:20:00Z</time>
      </trkpt>
      <trkpt lat="43.85009" lon="5.4825">
        <ele>289.5</ele>
        <time>2021-08-14T06:20:15Z</time>
      </trkpt>
      <trkpt lat="43.85009" lon="5.48086">
        <ele>287.4</ele>
        <time>2021-08-14T06:20:35Z</time>
      </trkpt>
      <trkpt lat="43.85059" lon="5.47974">
        <ele>284.9</ele>
        <time>2021-08-14T06:20:50Z</time>
      </trkpt>
      <trkpt lat="43.85133" lon="5.47887">
        <ele>282</ele>
        <time>2021-08-14T06:21:05Z</time>
      </trkpt>
      <trkpt lat="43.85211" lon="5.47819">
        <ele>278.6</ele>
        <time>2021-08-14T06:21:20Z</time>
      </trkpt>
      <trkpt lat="43.8529" lon="5.47755">
        <ele>275.4</ele>
        <time>2021-08-14T06:21:35Z</time>
      </trkpt>
      <trkpt lat="43.85383" lon="5.47711">
        <ele>272.1</ele>
        <time>2021-08-14T06:21:50Z</time>
      </trkpt>
      <trkpt lat="43.85482" lon="5.4768">
        <ele>268.3</ele>
        <time>2021-08-14T06:22:10Z</time>
      </trkpt>
      <trkpt lat="43.85568" lon="5.47652">
        <ele>265.3</ele>
        <time>2021-08-14T06:22:25Z</time>
      </trkpt>
      <trkpt lat="43.85656" lon="5.47604">
        <ele>263.3</ele>
        <time>2021-08-14T06:22:40Z</time>
      </trkpt>
      <trkpt lat="43.85767" lon="5.47526">
        <ele>261.1</ele>
        <time>2021-08-14T06:22:55Z</time>
      </trkpt>
      <trkpt lat="43.85859" lon="5.47449">
        <ele>261.4</ele>
        <time>2021-08-14T06:23:10Z</time>
      </trkpt>
      <trkpt lat="43.85923" lon="5.47358">
        <ele>260.4</ele>
        <time>2021-08-14T06:23:30Z</time>
      </trkpt>
      <trkpt lat="43.85961" lon="5.47225">
        <ele>259.7</ele>
        <time>2021-08-14T06:23:45Z</time>
      </trkpt>
      <trkpt lat="43.86003" lon="5.47116">
        <ele>258.7</ele>
        <time>2021-08-14T06:24:00Z</time>
      </trkpt>
      <trkpt lat="43.8606" lon="5.46983">
        <ele>258.4</ele>
        <time>2021-08-14T06:24:20Z</time>
      </trkpt>
      <trkpt lat="43.8611" lon="5.46872">
        <ele>258.9</ele>
        <time>2021-08-14T06:24:35Z</time>
      </trkpt>
      <trkpt lat="43.86169" lon="5.46743">
        <ele>259.5</ele>
        <time>2021-08-14T06:24:55Z</time>
      </trkpt>
      <trkpt lat="43.86234" lon="5.46635">
        <ele>261</ele>
        <time>2021-08-14T06:25:10Z</time>
      </trkpt>
      <trkpt lat="43.86315" lon="5.46521">
        <ele>263</ele>
        <time>2021-08-14T06:25:25Z</time>
      </trkpt>
      <trkpt lat="43.86392" lon="5.46414">
        <ele>261.7</ele>
        <time>2021-08-14T06:25:40Z</time>
      </trkpt>
      <trkpt lat="43.86474" lon="5.46311">
        <ele>259.3</ele>
        <time>2021-08-14T06:25:55Z</time>
      </trkpt>
      <trkpt lat="43.8656" lon="5.46206">
        <ele>258.8</ele>
        <time>2021-08-14T06:26:10Z</time>
      </trkpt>
      <trkpt lat="43.8665" lon="5.46095">
        <ele>258.5</ele>
        <time>2021-08-14T06:26:25Z</time>
      </trkpt>
      <trkpt lat="43.86688" lon="5.45978">
        <ele>260.9</ele>
        <time>2021-08-14T06:26:50Z</time>
      </trkpt>
      <trkpt lat="43.86689" lon="5.45823">
        <ele>261.6</ele>
        <time>2021-08-14T06:28:01Z</time>
      </trkpt>
      <trkpt lat="43.86757" lon="5.45694">
        <ele>258.8</ele>
        <time>2021-08-14T06:28:16Z</time>
      </trkpt>
      <trkpt lat="43.86847" lon="5.45571">
        <ele>258.7</ele>
        <time>2021-08-14T06:28:31Z</time>
      </trkpt>
      <trkpt lat="43.86908" lon="5.4547">
        <ele>260.8</ele>
        <time>2021-08-14T06:28:46Z</time>
      </trkpt>
      <trkpt lat="43.8696" lon="5.45371">
        <ele>262.2</ele>
        <time>2021-08-14T06:29:01Z</time>
      </trkpt>
      <trkpt lat="43.8704" lon="5.45266">
        <ele>260.9</ele>
        <time>2021-08-14T06:29:21Z</time>
      </trkpt>
      <trkpt lat="43.87111" lon="5.45156">
        <ele>263.8</ele>
        <time>2021-08-14T06:29:41Z</time>
      </trkpt>
      <trkpt lat="43.87175" lon="5.45054">
        <ele>264.1</ele>
        <time>2021-08-14T06:29:56Z</time>
      </trkpt>
      <trkpt lat="43.8726" lon="5.4495">
        <ele>264.2</ele>
        <time>2021-08-14T06:30:11Z</time>
      </trkpt>
      <trkpt lat="43.87363" lon="5.4487">
        <ele>263.1</ele>
        <time>2021-08-14T06:30:26Z</time>
      </trkpt>
      <trkpt lat="43.87461" lon="5.44817">
        <ele>257.5</ele>
        <time>2021-08-14T06:30:41Z</time>
      </trkpt>
      <trkpt lat="43.87556" lon="5.44767">
        <ele>253.5</ele>
        <time>2021-08-14T06:30:56Z</time>
      </trkpt>
      <trkpt lat="43.87642" lon="5.44717">
        <ele>251</ele>
        <time>2021-08-14T06:31:11Z</time>
      </trkpt>
      <trkpt lat="43.87754" lon="5.44646">
        <ele>249.7</ele>
        <time>2021-08-14T06:31:31Z</time>
      </trkpt>
      <trkpt lat="43.87848" lon="5.44591">
        <ele>248.7</ele>
        <time>2021-08-14T06:31:46Z</time>
      </trkpt>
      <trkpt lat="43.87937" lon="5.44503">
        <ele>248.6</ele>
        <time>2021-08-14T06:32:16Z</time>
      </trkpt>
      <trkpt lat="43.87997" lon="5.44387">
        <ele>247.3</ele>
        <time>2021-08-14T06:32:31Z</time>
      </trkpt>
      <trkpt lat="43.88016" lon="5.44228">
        <ele>246.3</ele>
        <time>2021-08-14T06:32:51Z</time>
      </trkpt>
      <trkpt lat="43.88009" lon="5.44087">
        <ele>246.8</ele>
        <time>2021-08-14T06:33:06Z</time>
      </trkpt>
      <trkpt lat="43.88001" lon="5.43951">
        <ele>246.1</ele>
        <time>2021-08-14T06:33:21Z</time>
      </trkpt>
      <trkpt lat="43.87998" lon="5.43805">
        <ele>245.3</ele>
        <time>2021-08-14T06:33:36Z</time>
      </trkpt>
      <trkpt lat="43.8799" lon="5.43653">
        <ele>244.2</ele>
        <time>2021-08-14T06:33:51Z</time>
      </trkpt>
      <trkpt lat="43.87993" lon="5.43481">
        <ele>242.7</ele>
        <time>2021-08-14T06:34:06Z</time>
      </trkpt>
      <trkpt lat="43.87987" lon="5.43323">
        <ele>241.8</ele>
        <time>2021-08-14T06:34:21Z</time>
      </trkpt>
      <trkpt lat="43.87985" lon="5.43169">
        <ele>242.8</ele>
        <time>2021-08-14T06:34:36Z</time>
      </trkpt>
      <trkpt lat="43.87975" lon="5.43025">
        <ele>243.1</ele>
        <time>2021-08-14T06:34:56Z</time>
      </trkpt>
      <trkpt lat="43.87956" lon="5.42869">
        <ele>242.1</ele>
        <time>2021-08-14T06:35:11Z</time>
      </trkpt>
      <trkpt lat="43.87914" lon="5.42736">
        <ele>240.2</ele>
        <time>2021-08-14T06:35:26Z</time>
      </trkpt>
      <trkpt lat="43.87868" lon="5.42621">
        <ele>238</ele>
        <time>2021-08-14T06:35:41Z</time>
      </trkpt>
      <trkpt lat="43.87852" lon="5.42487">
        <ele>237.5</ele>
        <time>2021-08-14T06:35:56Z</time>
      </trkpt>
      <trkpt lat="43.8786" lon="5.42359">
        <ele>236.6</ele>
        <time>2021-08-14T06:36:11Z</time>
      </trkpt>
      <trkpt lat="43.8786" lon="5.42206">
        <ele>236.1</ele>
        <time>2021-08-14T06:36:31Z</time>
      </trkpt>
      <trkpt lat="43.87829" lon="5.42051">
        <ele>236.1</ele>
        <time>2021-08-14T06:36:51Z</time>
      </trkpt>
      <trkpt lat="43.87806" lon="5.41894">
        <ele>236.8</ele>
        <time>2021-08-14T06:37:11Z</time>
      </trkpt>
      <trkpt lat="43.87804" lon="5.41741">
        <ele>237.8</ele>
        <time>2021-08-14T06:37:26Z</time>
      </trkpt>
      <trkpt lat="43.87796" lon="5.416">
        <ele>239.1</ele>
        <time>2021-08-14T06:37:41Z</time>
      </trkpt>
      <trkpt lat="43.8779" lon="5.41468">
        <ele>240.1</ele>
        <time>2021-08-14T06:37:56Z</time>
      </trkpt>
      <trkpt lat="43.87767" lon="5.41328">
        <ele>240.4</ele>
        <time>2021-08-14T06:38:16Z</time>
      </trkpt>
      <trkpt lat="43.87759" lon="5.41196">
        <ele>239.7</ele>
        <time>2021-08-14T06:38:31Z</time>
      </trkpt>
      <trkpt lat="43.87729" lon="5.41046">
        <ele>239.9</ele>
        <time>2021-08-14T06:38:51Z</time>
      </trkpt>
      <trkpt lat="43.87722" lon="5.40881">
        <ele>238.7</ele>
        <time>2021-08-14T06:39:06Z</time>
      </trkpt>
      <trkpt lat="43.87712" lon="5.40736">
        <ele>235.4</ele>
        <time>2021-08-14T06:39:21Z</time>
      </trkpt>
      <trkpt lat="43.87723" lon="5.40606">
        <ele>232.6</ele>
        <time>2021-08-14T06:39:51Z</time>
      </trkpt>
      <trkpt lat="43.87738" lon="5.40468">
        <ele>232.5</ele>
        <time>2021-08-14T06:40:16Z</time>
      </trkpt>
      <trkpt lat="43.8773" lon="5.40311">
        <ele>233.1</ele>
        <time>2021-08-14T06:40:41Z</time>
      </trkpt>
      <trkpt lat="43.87732" lon="5.4018">
        <ele>233.5</ele>
        <time>2021-08-14T06:41:01Z</time>
      </trkpt>
      <trkpt lat="43.87726" lon="5.40052">
        <ele>232.7</ele>
        <time>2021-08-14T06:41:21Z</time>
      </trkpt>
      <trkpt lat="43.87757" lon="5.39901">
        <ele>231.1</ele>
        <time>2021-08-14T06:41:41Z</time>
      </trkpt>
      <trkpt lat="43.87777" lon="5.39764">
        <ele>230.7</ele>
        <time>2021-08-14T06:42:01Z</time>
      </trkpt>
      <trkpt lat="43.87803" lon="5.39646">
        <ele>230.7</ele>
        <time>2021-08-14T06:42:21Z</time>
      </trkpt>
      <trkpt lat="43.87827" lon="5.39524">
        <ele>231.2</ele>
        <time>2021-08-14T06:42:46Z</time>
      </trkpt>
      <trkpt lat="43.87843" lon="5.39384">
        <ele>231.8</ele>
        <time>2021-08-14T06:43:11Z</time>
      </trkpt>
      <trkpt lat="43.87863" lon="5.39244">
        <ele>233.4</ele>
        <time>2021-08-14T06:43:36Z</time>
      </trkpt>
      <trkpt lat="43.87885" lon="5.3911">
        <ele>234.9</ele>
        <time>2021-08-14T06:43:56Z</time>
      </trkpt>
      <trkpt lat="43.87899" lon="5.38975">
        <ele>236.1</ele>
        <time>2021-08-14T06:44:16Z</time>
      </trkpt>
      <trkpt lat="43.87922" lon="5.38831">
        <ele>237.5</ele>
        <time>2021-08-14T06:44:36Z</time>
      </trkpt>
      <trkpt lat="43.87942" lon="5.387">
        <ele>238.9</ele>
        <time>2021-08-14T06:44:56Z</time>
      </trkpt>
      <trkpt lat="43.87997" lon="5.38596">
        <ele>238.1</ele>
        <time>2021-08-14T06:45:16Z</time>
      </trkpt>
      <trkpt lat="43.88078" lon="5.38527">
        <ele>235.7</ele>
        <time>2021-08-14T06:45:46Z</time>
      </trkpt>
      <trkpt lat="43.88156" lon="5.38465">
        <ele>234.3</ele>
        <time>2021-08-14T06:46:06Z</time>
      </trkpt>
      <trkpt lat="43.88232" lon="5.38387">
        <ele>232.9</ele>
        <time>2021-08-14T06:46:26Z</time>
      </trkpt>
      <trkpt lat="43.88311" lon="5.38324">
        <ele>232.1</ele>
        <time>2021-08-14T06:46:41Z</time>
      </trkpt>
      <trkpt lat="43.88388" lon="5.38258">
        <ele>232.8</ele>
        <time>2021-08-14T06:46:56Z</time>
      </trkpt>
      <trkpt lat="43.88485" lon="5.38175">
        <ele>231.7</ele>
        <time>2021-08-14T06:47:16Z</time>
      </trkpt>
      <trkpt lat="43.88547" lon="5.38087">
        <ele>233.7</ele>
        <time>2021-08-14T06:47:31Z</time>
      </trkpt>
      <trkpt lat="43.88594" lon="5.37983">
        <ele>229.3</ele>
        <time>2021-08-14T06:47:46Z</time>
      </trkpt>
      <trkpt lat="43.88638" lon="5.37871">
        <ele>225.9</ele>
        <time>2021-08-14T06:48:01Z</time>
      </trkpt>
      <trkpt lat="43.88669" lon="5.37739">
        <ele>223.1</ele>
        <time>2021-08-14T06:48:16Z</time>
      </trkpt>
      <trkpt lat="43.88685" lon="5.37618">
        <ele>220.7</ele>
        <time>2021-08-14T06:48:31Z</time>
      </trkpt>
      <trkpt lat="43.88687" lon="5.37484">
        <ele>217.6</ele>
        <time>2021-08-14T06:48:46Z</time>
      </trkpt>
      <trkpt lat="43.88669" lon="5.37357">
        <ele>213.5</ele>
        <time>2021-08-14T06:49:01Z</time>
      </trkpt>
      <trkpt lat="43.88642" lon="5.37226">
        <ele>211.7</ele>
        <time>2021-08-14T06:49:16Z</time>
      </trkpt>
      <trkpt lat="43.88618" lon="5.37093">
        <ele>212.6</ele>
        <time>2021-08-14T06:49:31Z</time>
      </trkpt>
      <trkpt lat="43.88596" lon="5.36956">
        <ele>212.2</ele>
        <time>2021-08-14T06:49:46Z</time>
      </trkpt>
      <trkpt lat="43.88568" lon="5.36813">
        <ele>210.5</ele>
        <time>2021-08-14T06:50:01Z</time>
      </trkpt>
      <trkpt lat="43.88542" lon="5.36674">
        <ele>209.5</ele>
        <time>2021-08-14T06:50:16Z</time>
      </trkpt>
      <trkpt lat="43.8852" lon="5.36545">
        <ele>209.3</ele>
        <time>2021-08-14T06:50:31Z</time>
      </trkpt>
      <trkpt lat="43.885" lon="5.3642">
        <ele>208.7</ele>
        <time>2021-08-14T06:50:46Z</time>
      </trkpt>
      <trkpt lat="43.88472" lon="5.36288">
        <ele>208.7</ele>
        <time>2021-08-14T06:51:11Z</time>
      </trkpt>
      <trkpt lat="43.8845" lon="5.3613">
        <ele>209.7</ele>
        <time>2021-08-14T06:51:36Z</time>
      </trkpt>
      <trkpt lat="43.88375" lon="5.36038">
        <ele>210.8</ele>
        <time>2021-08-14T06:52:25Z</time>
      </trkpt>
      <trkpt lat="43.88351" lon="5.35892">
        <ele>213.2</ele>
        <time>2021-08-14T06:52:50Z</time>
      </trkpt>
      <trkpt lat="43.88325" lon="5.35754">
        <ele>214.8</ele>
        <time>2021-08-14T06:53:10Z</time>
      </trkpt>
      <trkpt lat="43.88295" lon="5.35631">
        <ele>216.2</ele>
        <time>2021-08-14T06:53:30Z</time>
      </trkpt>
      <trkpt lat="43.8831" lon="5.35474">
        <ele>217.4</ele>
        <time>2021-08-14T06:53:50Z</time>
      </trkpt>
      <trkpt lat="43.88281" lon="5.35348">
        <ele>216.6</ele>
        <time>2021-08-14T06:54:05Z</time>
      </trkpt>
      <trkpt lat="43.88244" lon="5.35226">
        <ele>213.8</ele>
        <time>2021-08-14T06:54:20Z</time>
      </trkpt>
      <trkpt lat="43.882" lon="5.35083">
        <ele>210.9</ele>
        <time>2021-08-14T06:54:35Z</time>
      </trkpt>
      <trkpt lat="43.88146" lon="5.34919">
        <ele>207.5</ele>
        <time>2021-08-14T06:54:50Z</time>
      </trkpt>
      <trkpt lat="43.88094" lon="5.3476">
        <ele>204.4</ele>
        <time>2021-08-14T06:55:05Z</time>
      </trkpt>
      <trkpt lat="43.88039" lon="5.34621">
        <ele>200.7</ele>
        <time>2021-08-14T06:55:20Z</time>
      </trkpt>
      <trkpt lat="43.88116" lon="5.34546">
        <ele>203.6</ele>
        <time>2021-08-14T06:56:13Z</time>
      </trkpt>
      <trkpt lat="43.88089" lon="5.34378">
        <ele>202</ele>
        <time>2021-08-14T06:56:33Z</time>
      </trkpt>
      <trkpt lat="43.88066" lon="5.34233">
        <ele>201.4</ele>
        <time>2021-08-14T06:56:48Z</time>
      </trkpt>
      <trkpt lat="43.8803" lon="5.34078">
        <ele>200.5</ele>
        <time>2021-08-14T06:57:08Z</time>
      </trkpt>
      <trkpt lat="43.87935" lon="5.33989">
        <ele>200.2</ele>
        <time>2021-08-14T06:57:38Z</time>
      </trkpt>
      <trkpt lat="43.87927" lon="5.33844">
        <ele>200.3</ele>
        <time>2021-08-14T06:57:58Z</time>
      </trkpt>
      <trkpt lat="43.87896" lon="5.33698">
        <ele>202.6</ele>
        <time>2021-08-14T06:58:28Z</time>
      </trkpt>
      <trkpt lat="43.87823" lon="5.33597">
        <ele>207</ele>
        <time>2021-08-14T06:58:53Z</time>
      </trkpt>
      <trkpt lat="43.87728" lon="5.33528">
        <ele>206.5</ele>
        <time>2021-08-14T06:59:18Z</time>
      </trkpt>
      <trkpt lat="43.87627" lon="5.33475">
        <ele>204.9</ele>
        <time>2021-08-14T06:59:38Z</time>
      </trkpt>
      <trkpt lat="43.87525" lon="5.33426">
        <ele>204.2</ele>
        <time>2021-08-14T06:59:58Z</time>
      </trkpt>
      <trkpt lat="43.87415" lon="5.33353">
        <ele>204.6</ele>
        <time>2021-08-14T07:00:18Z</time>
      </trkpt>
      <trkpt lat="43.87329" lon="5.33257">
        <ele>206</ele>
        <time>2021-08-14T07:00:38Z</time>
      </trkpt>
      <trkpt lat="43.8726" lon="5.33126">
        <ele>204.6</ele>
        <time>2021-08-14T07:00:58Z</time>
      </trkpt>
      <trkpt lat="43.87214" lon="5.32972">
        <ele>205.8</ele>
        <time>2021-08-14T07:01:18Z</time>
      </trkpt>
      <trkpt lat="43.87192" lon="5.32817">
        <ele>203.6</ele>
        <time>2021-08-14T07:01:38Z</time>
      </trkpt>
      <trkpt lat="43.87176" lon="5.32684">
        <ele>201.5</ele>
        <time>2021-08-14T07:01:53Z</time>
      </trkpt>
      <trkpt lat="43.87151" lon="5.32553">
        <ele>198.9</ele>
        <time>2021-08-14T07:02:08Z</time>
      </trkpt>
      <trkpt lat="43.87105" lon="5.32441">
        <ele>194.3</ele>
        <time>2021-08-14T07:02:23Z</time>
      </trkpt>
      <trkpt lat="43.8701" lon="5.32339">
        <ele>190.6</ele>
        <time>2021-08-14T07:02:43Z</time>
      </trkpt>
      <trkpt lat="43.86915" lon="5.32286">
        <ele>189.2</ele>
        <time>2021-08-14T07:02:58Z</time>
      </trkpt>
      <trkpt lat="43.86815" lon="5.32232">
        <ele>186.7</ele>
        <time>2021-08-14T07:03:13Z</time>
      </trkpt>
      <trkpt lat="43.8672" lon="5.32143">
        <ele>184.1</ele>
        <time>2021-08-14T07:03:28Z</time>
      </trkpt>
      <trkpt lat="43.86642" lon="5.32048">
        <ele>181</ele>
        <time>2021-08-14T07:03:43Z</time>
      </trkpt>
      <trkpt lat="43.86571" lon="5.31932">
        <ele>180.2</ele>
        <time>2021-08-14T07:03:58Z</time>
      </trkpt>
      <trkpt lat="43.86525" lon="5.31815">
        <ele>178.8</ele>
        <time>2021-08-14T07:04:13Z</time>
      </trkpt>
      <trkpt lat="43.86504" lon="5.3166">
        <ele>176.7</ele>
        <time>2021-08-14T07:04:33Z</time>
      </trkpt>
      <trkpt lat="43.86524" lon="5.31503">
        <ele>175</ele>
        <time>2021-08-14T07:04:48Z</time>
      </trkpt>
      <trkpt lat="43.86545" lon="5.3136">
        <ele>173.6</ele>
        <time>2021-08-14T07:05:03Z</time>
      </trkpt>
      <trkpt lat="43.86542" lon="5.31212">
        <ele>172.4</ele>
        <time>2021-08-14T07:05:18Z</time>
      </trkpt>
      <trkpt lat="43.86512" lon="5.31062">
        <ele>174.3</ele>
        <time>2021-08-14T07:05:33Z</time>
      </trkpt>
      <trkpt lat="43.8646" lon="5.30945">
        <ele>176.8</ele>
        <time>2021-08-14T07:05:48Z</time>
      </trkpt>
      <trkpt lat="43.86384" lon="5.30858">
        <ele>178</ele>
        <time>2021-08-14T07:06:03Z</time>
      </trkpt>
      <trkpt lat="43.863" lon="5.3077">
        <ele>170.7</ele>
        <time>2021-08-14T07:06:18Z</time>
      </trkpt>
      <trkpt lat="43.86354" lon="5.30653">
        <ele>165.4</ele>
        <time>2021-08-14T07:06:58Z</time>
      </trkpt>
      <trkpt lat="43.86251" lon="5.30645">
        <ele>170.8</ele>
        <time>2021-08-14T07:08:18Z</time>
      </trkpt>
      <trkpt lat="43.86162" lon="5.30607">
        <ele>175.5</ele>
        <time>2021-08-14T07:08:49Z</time>
      </trkpt>
      <trkpt lat="43.8607" lon="5.30599">
        <ele>182.4</ele>
        <time>2021-08-14T07:10:33Z</time>
      </trkpt>
      <trkpt lat="43.86014" lon="5.30472">
        <ele>181.7</ele>
        <time>2021-08-14T07:10:53Z</time>
      </trkpt>
      <trkpt lat="43.85974" lon="5.3033">
        <ele>180.1</ele>
        <time>2021-08-14T07:11:08Z</time>
      </trkpt>
      <trkpt lat="43.85932" lon="5.30182">
        <ele>180.2</ele>
        <time>2021-08-14T07:11:23Z</time>
      </trkpt>
      <trkpt lat="43.85898" lon="5.30055">
        <ele>181</ele>
        <time>2021-08-14T07:11:38Z</time>
      </trkpt>
      <trkpt lat="43.85862" lon="5.29919">
        <ele>181.9</ele>
        <time>2021-08-14T07:11:53Z</time>
      </trkpt>
      <trkpt lat="43.85832" lon="5.29797">
        <ele>182.5</ele>
        <time>2021-08-14T07:12:08Z</time>
      </trkpt>
      <trkpt lat="43.85805" lon="5.29631">
        <ele>179.9</ele>
        <time>2021-08-14T07:12:28Z</time>
      </trkpt>
      <trkpt lat="43.85785" lon="5.29499">
        <ele>178.7</ele>
        <time>2021-08-14T07:12:43Z</time>
      </trkpt>
      <trkpt lat="43.85758" lon="5.29346">
        <ele>178.3</ele>
        <time>2021-08-14T07:12:58Z</time>
      </trkpt>
      <trkpt lat="43.85736" lon="5.29199">
        <ele>174.7</ele>
        <time>2021-08-14T07:13:13Z</time>
      </trkpt>
      <trkpt lat="43.85715" lon="5.29049">
        <ele>172.9</ele>
        <time>2021-08-14T07:13:28Z</time>
      </trkpt>
      <trkpt lat="43.85692" lon="5.28909">
        <ele>168.7</ele>
        <time>2021-08-14T07:13:43Z</time>
      </trkpt>
      <trkpt lat="43.85665" lon="5.28746">
        <ele>158.4</ele>
        <time>2021-08-14T07:14:08Z</time>
      </trkpt>
      <trkpt lat="43.85647" lon="5.28608">
        <ele>152.6</ele>
        <time>2021-08-14T07:14:23Z</time>
      </trkpt>
      <trkpt lat="43.85621" lon="5.28449">
        <ele>147.3</ele>
        <time>2021-08-14T07:14:43Z</time>
      </trkpt>
      <trkpt lat="43.85596" lon="5.28294">
        <ele>148.8</ele>
        <time>2021-08-14T07:15:03Z</time>
      </trkpt>
      <trkpt lat="43.85572" lon="5.2817">
        <ele>149.7</ele>
        <time>2021-08-14T07:15:18Z</time>
      </trkpt>
      <trkpt lat="43.85551" lon="5.28043">
        <ele>149.3</ele>
        <time>2021-08-14T07:15:33Z</time>
      </trkpt>
      <trkpt lat="43.85527" lon="5.27911">
        <ele>149.1</ele>
        <time>2021-08-14T07:15:48Z</time>
      </trkpt>
      <trkpt lat="43.85507" lon="5.27777">
        <ele>148.7</ele>
        <time>2021-08-14T07:16:03Z</time>
      </trkpt>
      <trkpt lat="43.85488" lon="5.27644">
        <ele>148</ele>
        <time>2021-08-14T07:16:18Z</time>
      </trkpt>
      <trkpt lat="43.85466" lon="5.27521">
        <ele>148.3</ele>
        <time>2021-08-14T07:16:33Z</time>
      </trkpt>
      <trkpt lat="43.85427" lon="5.27399">
        <ele>151.2</ele>
        <time>2021-08-14T07:16:58Z</time>
      </trkpt>
      <trkpt lat="43.8539" lon="5.27278">
        <ele>151.5</ele>
        <time>2021-08-14T07:33:23Z</time>
      </trkpt>
      <trkpt lat="43.85396" lon="5.27139">
        <ele>151.6</ele>
        <time>2021-08-14T07:33:53Z</time>
      </trkpt>
      <trkpt lat="43.85376" lon="5.27004">
        <ele>152</ele>
        <time>2021-08-14T07:34:18Z</time>
      </trkpt>
      <trkpt lat="43.8535" lon="5.26859">
        <ele>154.2</ele>
        <time>2021-08-14T07:34:43Z</time>
      </trkpt>
      <trkpt lat="43.85336" lon="5.26729">
        <ele>156.1</ele>
        <time>2021-08-14T07:35:03Z</time>
      </trkpt>
      <trkpt lat="43.85319" lon="5.26599">
        <ele>157.9</ele>
        <time>2021-08-14T07:35:18Z</time>
      </trkpt>
      <trkpt lat="43.85297" lon="5.26462">
        <ele>160</ele>
        <time>2021-08-14T07:35:33Z</time>
      </trkpt>
      <trkpt lat="43.85269" lon="5.26322">
        <ele>160.8</ele>
        <time>2021-08-14T07:35:48Z</time>
      </trkpt>
      <trkpt lat="43.85242" lon="5.26185">
        <ele>162.3</ele>
        <time>2021-08-14T07:36:03Z</time>
      </trkpt>
      <trkpt lat="43.85219" lon="5.26062">
        <ele>164.6</ele>
        <time>2021-08-14T07:36:18Z</time>
      </trkpt>
      <trkpt lat="43.85195" lon="5.25927">
        <ele>167.8</ele>
        <time>2021-08-14T07:36:33Z</time>
      </trkpt>
      <trkpt lat="43.85174" lon="5.25794">
        <ele>170.9</ele>
        <time>2021-08-14T07:36:48Z</time>
      </trkpt>
      <trkpt lat="43.85165" lon="5.25652">
        <ele>173.5</ele>
        <time>2021-08-14T07:37:13Z</time>
      </trkpt>
      <trkpt lat="43.85164" lon="5.25494">
        <ele>174.9</ele>
        <time>2021-08-14T07:37:33Z</time>
      </trkpt>
      <trkpt lat="43.85182" lon="5.25369">
        <ele>177.1</ele>
        <time>2021-08-14T07:37:48Z</time>
      </trkpt>
      <trkpt lat="43.85203" lon="5.25239">
        <ele>179.3</ele>
        <time>2021-08-14T07:38:03Z</time>
      </trkpt>
      <trkpt lat="43.85227" lon="5.25113">
        <ele>181.1</ele>
        <time>2021-08-14T07:38:18Z</time>
      </trkpt>
      <trkpt lat="43.85261" lon="5.24998">
        <ele>181.8</ele>
        <time>2021-08-14T07:38:33Z</time>
      </trkpt>
      <trkpt lat="43.85284" lon="5.24869">
        <ele>183.4</ele>
        <time>2021-08-14T07:38:48Z</time>
      </trkpt>
      <trkpt lat="43.85309" lon="5.24733">
        <ele>185.3</ele>
        <time>2021-08-14T07:39:03Z</time>
      </trkpt>
      <trkpt lat="43.85334" lon="5.24601">
        <ele>187.2</ele>
        <time>2021-08-14T07:39:18Z</time>
      </trkpt>
      <trkpt lat="43.85353" lon="5.2447">
        <ele>189.8</ele>
        <time>2021-08-14T07:39:33Z</time>
      </trkpt>
      <trkpt lat="43.85374" lon="5.24317">
        <ele>190.2</ele>
        <time>2021-08-14T07:39:48Z</time>
      </trkpt>
      <trkpt lat="43.85393" lon="5.24186">
        <ele>190.2</ele>
        <time>2021-08-14T07:40:03Z</time>
      </trkpt>
      <trkpt lat="43.85418" lon="5.24054">
        <ele>190.8</ele>
        <time>2021-08-14T07:40:18Z</time>
      </trkpt>
      <trkpt lat="43.8545" lon="5.23905">
        <ele>185.9</ele>
        <time>2021-08-14T07:40:43Z</time>
      </trkpt>
      <trkpt lat="43.8548" lon="5.23778">
        <ele>184.6</ele>
        <time>2021-08-14T07:40:58Z</time>
      </trkpt>
      <trkpt lat="43.85501" lon="5.2364">
        <ele>182.1</ele>
        <time>2021-08-14T07:41:13Z</time>
      </trkpt>
      <trkpt lat="43.85528" lon="5.23502">
        <ele>177.9</ele>
        <time>2021-08-14T07:41:28Z</time>
      </trkpt>
      <trkpt lat="43.85572" lon="5.23366">
        <ele>171.9</ele>
        <time>2021-08-14T07:41:43Z</time>
      </trkpt>
      <trkpt lat="43.85622" lon="5.23237">
        <ele>162.1</ele>
        <time>2021-08-14T07:41:58Z</time>
      </trkpt>
      <trkpt lat="43.85683" lon="5.23122">
        <ele>152.9</ele>
        <time>2021-08-14T07:42:13Z</time>
      </trkpt>
      <trkpt lat="43.85733" lon="5.23018">
        <ele>147</ele>
        <time>2021-08-14T07:42:28Z</time>
      </trkpt>
      <trkpt lat="43.85784" lon="5.22901">
        <ele>140.3</ele>
        <time>2021-08-14T07:42:43Z</time>
      </trkpt>
      <trkpt lat="43.85839" lon="5.22796">
        <ele>137.3</ele>
        <time>2021-08-14T07:42:58Z</time>
      </trkpt>
      <trkpt lat="43.85892" lon="5.22688">
        <ele>143.5</ele>
        <time>2021-08-14T07:45:40Z</time>
      </trkpt>
      <trkpt lat="43.85954" lon="5.22555">
        <ele>142.1</ele>
        <time>2021-08-14T07:46:00Z</time>
      </trkpt>
      <trkpt lat="43.86006" lon="5.22431">
        <ele>141.5</ele>
        <time>2021-08-14T07:46:15Z</time>
      </trkpt>
      <trkpt lat="43.86048" lon="5.22309">
        <ele>141.2</ele>
        <time>2021-08-14T07:46:30Z</time>
      </trkpt>
      <trkpt lat="43.86097" lon="5.22157">
        <ele>143.4</ele>
        <time>2021-08-14T07:46:45Z</time>
      </trkpt>
      <trkpt lat="43.86114" lon="5.2202">
        <ele>145.5</ele>
        <time>2021-08-14T07:47:00Z</time>
      </trkpt>
      <trkpt lat="43.86097" lon="5.21859">
        <ele>146.5</ele>
        <time>2021-08-14T07:47:15Z</time>
      </trkpt>
      <trkpt lat="43.86062" lon="5.21712">
        <ele>146.7</ele>
        <time>2021-08-14T07:47:30Z</time>
      </trkpt>
      <trkpt lat="43.86017" lon="5.2157">
        <ele>146</ele>
        <time>2021-08-14T07:47:45Z</time>
      </trkpt>
      <trkpt lat="43.85979" lon="5.21436">
        <ele>147.1</ele>
        <time>2021-08-14T07:48:00Z</time>
      </trkpt>
      <trkpt lat="43.85943" lon="5.21308">
        <ele>148.9</ele>
        <time>2021-08-14T07:48:15Z</time>
      </trkpt>
      <trkpt lat="43.85895" lon="5.21184">
        <ele>149.3</ele>
        <time>2021-08-14T07:48:35Z</time>
      </trkpt>
      <trkpt lat="43.85846" lon="5.21041">
        <ele>150.4</ele>
        <time>2021-08-14T07:48:50Z</time>
      </trkpt>
      <trkpt lat="43.85804" lon="5.20881">
        <ele>152.2</ele>
        <time>2021-08-14T07:49:05Z</time>
      </trkpt>
      <trkpt lat="43.85789" lon="5.2074">
        <ele>154.7</ele>
        <time>2021-08-14T07:49:20Z</time>
      </trkpt>
      <trkpt lat="43.85789" lon="5.2061">
        <ele>158</ele>
        <time>2021-08-14T07:49:40Z</time>
      </trkpt>
      <trkpt lat="43.85788" lon="5.2046">
        <ele>155.4</ele>
        <time>2021-08-14T07:50:20Z</time>
      </trkpt>
      <trkpt lat="43.85773" lon="5.20329">
        <ele>152.2</ele>
        <time>2021-08-14T07:50:35Z</time>
      </trkpt>
      <trkpt lat="43.85829" lon="5.20229">
        <ele>140.5</ele>
        <time>2021-08-14T07:51:52Z</time>
      </trkpt>
      <trkpt lat="43.85868" lon="5.20109">
        <ele>141.6</ele>
        <time>2021-08-14T07:52:12Z</time>
      </trkpt>
      <trkpt lat="43.85912" lon="5.19974">
        <ele>139.5</ele>
        <time>2021-08-14T07:52:32Z</time>
      </trkpt>
      <trkpt lat="43.85956" lon="5.19859">
        <ele>139.3</ele>
        <time>2021-08-14T07:52:47Z</time>
      </trkpt>
      <trkpt lat="43.85997" lon="5.19735">
        <ele>134.4</ele>
        <time>2021-08-14T07:53:07Z</time>
      </trkpt>
      <trkpt lat="43.85989" lon="5.19595">
        <ele>136.3</ele>
        <time>2021-08-14T07:53:27Z</time>
      </trkpt>
      <trkpt lat="43.85952" lon="5.19453">
        <ele>136.7</ele>
        <time>2021-08-14T07:53:47Z</time>
      </trkpt>
      <trkpt lat="43.85888" lon="5.19352">
        <ele>134.1</ele>
        <time>2021-08-14T07:54:12Z</time>
      </trkpt>
      <trkpt lat="43.85901" lon="5.19221">
        <ele>133.7</ele>
        <time>2021-08-14T07:54:43Z</time>
      </trkpt>
      <trkpt lat="43.85923" lon="5.19081">
        <ele>133.9</ele>
        <time>2021-08-14T07:54:58Z</time>
      </trkpt>
      <trkpt lat="43.85942" lon="5.18951">
        <ele>134.1</ele>
        <time>2021-08-14T07:55:13Z</time>
      </trkpt>
      <trkpt lat="43.85969" lon="5.1882">
        <ele>133</ele>
        <time>2021-08-14T07:55:28Z</time>
      </trkpt>
      <trkpt lat="43.85993" lon="5.18684">
        <ele>132.5</ele>
        <time>2021-08-14T07:55:43Z</time>
      </trkpt>
      <trkpt lat="43.86022" lon="5.18537">
        <ele>132.9</ele>
        <time>2021-08-14T07:55:58Z</time>
      </trkpt>
      <trkpt lat="43.86047" lon="5.18403">
        <ele>131.6</ele>
        <time>2021-08-14T07:56:13Z</time>
      </trkpt>
      <trkpt lat="43.86072" lon="5.18271">
        <ele>128.9</ele>
        <time>2021-08-14T07:56:28Z</time>
      </trkpt>
      <trkpt lat="43.86099" lon="5.18134">
        <ele>126.4</ele>
        <time>2021-08-14T07:56:43Z</time>
      </trkpt>
      <trkpt lat="43.86123" lon="5.18009">
        <ele>124.3</ele>
        <time>2021-08-14T07:56:58Z</time>
      </trkpt>
      <trkpt lat="43.86141" lon="5.17883">
        <ele>121.4</ele>
        <time>2021-08-14T07:57:13Z</time>
      </trkpt>
      <trkpt lat="43.86163" lon="5.17758">
        <ele>119.1</ele>
        <time>2021-08-14T07:57:28Z</time>
      </trkpt>
      <trkpt lat="43.86191" lon="5.17605">
        <ele>116.3</ele>
        <time>2021-08-14T07:57:48Z</time>
      </trkpt>
      <trkpt lat="43.86218" lon="5.17479">
        <ele>115</ele>
        <time>2021-08-14T07:58:03Z</time>
      </trkpt>
      <trkpt lat="43.8624" lon="5.17356">
        <ele>114.9</ele>
        <time>2021-08-14T07:58:18Z</time>
      </trkpt>
      <trkpt lat="43.86269" lon="5.17221">
        <ele>115.3</ele>
        <time>2021-08-14T07:58:33Z</time>
      </trkpt>
      <trkpt lat="43.86298" lon="5.17093">
        <ele>115.6</ele>
        <time>2021-08-14T07:58:48Z</time>
      </trkpt>
      <trkpt lat="43.86321" lon="5.16972">
        <ele>117</ele>
        <time>2021-08-14T07:59:03Z</time>
      </trkpt>
      <trkpt lat="43.86343" lon="5.16846">
        <ele>118.1</ele>
        <time>2021-08-14T07:59:18Z</time>
      </trkpt>
      <trkpt lat="43.8637" lon="5.1672">
        <ele>122.7</ele>
        <time>2021-08-14T07:59:33Z</time>
      </trkpt>
      <trkpt lat="43.86393" lon="5.16592">
        <ele>121.9</ele>
        <time>2021-08-14T07:59:48Z</time>
      </trkpt>
      <trkpt lat="43.86419" lon="5.16468">
        <ele>122.9</ele>
        <time>2021-08-14T08:00:03Z</time>
      </trkpt>
      <trkpt lat="43.86444" lon="5.16341">
        <ele>125.8</ele>
        <time>2021-08-14T08:00:18Z</time>
      </trkpt>
      <trkpt lat="43.8647" lon="5.16215">
        <ele>126.5</ele>
        <time>2021-08-14T08:00:33Z</time>
      </trkpt>
      <trkpt lat="43.86492" lon="5.16086">
        <ele>127.5</ele>
        <time>2021-08-14T08:00:48Z</time>
      </trkpt>
      <trkpt lat="43.8652" lon="5.15948">
        <ele>120.9</ele>
        <time>2021-08-14T08:01:03Z</time>
      </trkpt>
      <trkpt lat="43.8655" lon="5.15813">
        <ele>123.8</ele>
        <time>2021-08-14T08:01:18Z</time>
      </trkpt>
      <trkpt lat="43.86574" lon="5.15677">
        <ele>126.6</ele>
        <time>2021-08-14T08:01:33Z</time>
      </trkpt>
      <trkpt lat="43.86602" lon="5.15527">
        <ele>126.8</ele>
        <time>2021-08-14T08:01:48Z</time>
      </trkpt>
      <trkpt lat="43.86629" lon="5.15384">
        <ele>128.5</ele>
        <time>2021-08-14T08:02:03Z</time>
      </trkpt>
      <trkpt lat="43.86655" lon="5.15249">
        <ele>125.3</ele>
        <time>2021-08-14T08:02:18Z</time>
      </trkpt>
      <trkpt lat="43.86678" lon="5.1512">
        <ele>126.4</ele>
        <time>2021-08-14T08:02:33Z</time>
      </trkpt>
      <trkpt lat="43.86692" lon="5.14974">
        <ele>125.2</ele>
        <time>2021-08-14T08:02:53Z</time>
      </trkpt>
      <trkpt lat="43.86704" lon="5.14831">
        <ele>124.2</ele>
        <time>2021-08-14T08:03:13Z</time>
      </trkpt>
      <trkpt lat="43.86706" lon="5.14685">
        <ele>122.8</ele>
        <time>2021-08-14T08:03:33Z</time>
      </trkpt>
      <trkpt lat="43.86722" lon="5.14523">
        <ele>121.5</ele>
        <time>2021-08-14T08:03:58Z</time>
      </trkpt>
      <trkpt lat="43.86728" lon="5.14376">
        <ele>119.9</ele>
        <time>2021-08-14T08:04:18Z</time>
      </trkpt>
      <trkpt lat="43.86738" lon="5.14248">
        <ele>124.8</ele>
        <time>2021-08-14T08:04:43Z</time>
      </trkpt>
      <trkpt lat="43.86736" lon="5.1412">
        <ele>133.9</ele>
        <time>2021-08-14T08:05:30Z</time>
      </trkpt>
      <trkpt lat="43.8674" lon="5.13987">
        <ele>132.8</ele>
        <time>2021-08-14T08:05:55Z</time>
      </trkpt>
      <trkpt lat="43.86735" lon="5.13835">
        <ele>131.2</ele>
        <time>2021-08-14T08:06:20Z</time>
      </trkpt>
      <trkpt lat="43.86734" lon="5.13702">
        <ele>121.1</ele>
        <time>2021-08-14T08:12:06Z</time>
      </trkpt>
      <trkpt lat="43.86713" lon="5.13545">
        <ele>120.3</ele>
        <time>2021-08-14T08:12:31Z</time>
      </trkpt>
      <trkpt lat="43.86695" lon="5.13417">
        <ele>118.5</ele>
        <time>2021-08-14T08:12:46Z</time>
      </trkpt>
      <trkpt lat="43.8667" lon="5.13292">
        <ele>116.4</ele>
        <time>2021-08-14T08:13:01Z</time>
      </trkpt>
      <trkpt lat="43.86641" lon="5.13153">
        <ele>112.4</ele>
        <time>2021-08-14T08:13:16Z</time>
      </trkpt>
      <trkpt lat="43.86608" lon="5.12991">
        <ele>110.4</ele>
        <time>2021-08-14T08:13:36Z</time>
      </trkpt>
      <trkpt lat="43.86583" lon="5.12865">
        <ele>107.3</ele>
        <time>2021-08-14T08:13:51Z</time>
      </trkpt>
      <trkpt lat="43.86552" lon="5.12729">
        <ele>102.1</ele>
        <time>2021-08-14T08:14:06Z</time>
      </trkpt>
      <trkpt lat="43.86523" lon="5.12598">
        <ele>96.5</ele>
        <time>2021-08-14T08:14:21Z</time>
      </trkpt>
      <trkpt lat="43.86488" lon="5.12439">
        <ele>92.8</ele>
        <time>2021-08-14T08:14:41Z</time>
      </trkpt>
      <trkpt lat="43.86455" lon="5.12289">
        <ele>96.3</ele>
        <time>2021-08-14T08:15:06Z</time>
      </trkpt>
      <trkpt lat="43.86424" lon="5.12135">
        <ele>96.9</ele>
        <time>2021-08-14T08:15:26Z</time>
      </trkpt>
      <trkpt lat="43.86396" lon="5.12002">
        <ele>97.9</ele>
        <time>2021-08-14T08:15:41Z</time>
      </trkpt>
      <trkpt lat="43.86368" lon="5.11875">
        <ele>99.1</ele>
        <time>2021-08-14T08:15:56Z</time>
      </trkpt>
      <trkpt lat="43.86308" lon="5.11728">
        <ele>96.4</ele>
        <time>2021-08-14T08:16:16Z</time>
      </trkpt>
      <trkpt lat="43.86249" lon="5.11619">
        <ele>93.1</ele>
        <time>2021-08-14T08:16:31Z</time>
      </trkpt>
      <trkpt lat="43.86172" lon="5.11543">
        <ele>91.6</ele>
        <time>2021-08-14T08:16:46Z</time>
      </trkpt>
      <trkpt lat="43.86065" lon="5.1148">
        <ele>91.5</ele>
        <time>2021-08-14T08:17:06Z</time>
      </trkpt>
      <trkpt lat="43.85952" lon="5.11427">
        <ele>90.2</ele>
        <time>2021-08-14T08:17:26Z</time>
      </trkpt>
      <trkpt lat="43.85845" lon="5.11361">
        <ele>95</ele>
        <time>2021-08-14T08:17:46Z</time>
      </trkpt>
      <trkpt lat="43.8576" lon="5.11257">
        <ele>98.6</ele>
        <time>2021-08-14T08:18:06Z</time>
      </trkpt>
      <trkpt lat="43.857" lon="5.11126">
        <ele>103.3</ele>
        <time>2021-08-14T08:18:26Z</time>
      </trkpt>
      <trkpt lat="43.85647" lon="5.10988">
        <ele>102.2</ele>
        <time>2021-08-14T08:18:51Z</time>
      </trkpt>
      <trkpt lat="43.85597" lon="5.10855">
        <ele>101.3</ele>
        <time>2021-08-14T08:19:16Z</time>
      </trkpt>
      <trkpt lat="43.85543" lon="5.10717">
        <ele>101.5</ele>
        <time>2021-08-14T08:19:36Z</time>
      </trkpt>
      <trkpt lat="43.85488" lon="5.10579">
        <ele>96.5</ele>
        <time>2021-08-14T08:19:56Z</time>
      </trkpt>
      <trkpt lat="43.8543" lon="5.10429">
        <ele>99.2</ele>
        <time>2021-08-14T08:20:16Z</time>
      </trkpt>
      <trkpt lat="43.85381" lon="5.10299">
        <ele>97.5</ele>
        <time>2021-08-14T08:20:36Z</time>
      </trkpt>
      <trkpt lat="43.85334" lon="5.10166">
        <ele>99.4</ele>
        <time>2021-08-14T08:21:06Z</time>
      </trkpt>
      <trkpt lat="43.85267" lon="5.10037">
        <ele>98.6</ele>
        <time>2021-08-14T08:21:26Z</time>
      </trkpt>
      <trkpt lat="43.85197" lon="5.09943">
        <ele>98.6</ele>
        <time>2021-08-14T08:21:41Z</time>
      </trkpt>
      <trkpt lat="43.85121" lon="5.09844">
        <ele>94.3</ele>
        <time>2021-08-14T08:21:56Z</time>
      </trkpt>
      <trkpt lat="43.85055" lon="5.09751">
        <ele>100.7</ele>
        <time>2021-08-14T08:22:11Z</time>
      </trkpt>
      <trkpt lat="43.84996" lon="5.09638">
        <ele>100</ele>
        <time>2021-08-14T08:22:36Z</time>
      </trkpt>
      <trkpt lat="43.84957" lon="5.09499">
        <ele>100.9</ele>
        <time>2021-08-14T08:22:56Z</time>
      </trkpt>
      <trkpt lat="43.84948" lon="5.09372">
        <ele>101.4</ele>
        <time>2021-08-14T08:23:11Z</time>
      </trkpt>
      <trkpt lat="43.84951" lon="5.09218">
        <ele>101.9</ele>
        <time>2021-08-14T08:23:26Z</time>
      </trkpt>
      <trkpt lat="43.84962" lon="5.09054">
        <ele>103.3</ele>
        <time>2021-08-14T08:23:41Z</time>
      </trkpt>
      <trkpt lat="43.84981" lon="5.08903">
        <ele>103.7</ele>
        <time>2021-08-14T08:23:56Z</time>
      </trkpt>
      <trkpt lat="43.84999" lon="5.08754">
        <ele>102</ele>
        <time>2021-08-14T08:24:11Z</time>
      </trkpt>
      <trkpt lat="43.84997" lon="5.08616">
        <ele>99.2</ele>
        <time>2021-08-14T08:24:26Z</time>
      </trkpt>
      <trkpt lat="43.84976" lon="5.0849">
        <ele>97.3</ele>
        <time>2021-08-14T08:24:41Z</time>
      </trkpt>
      <trkpt lat="43.84925" lon="5.08331">
        <ele>91.8</ele>
        <time>2021-08-14T08:24:56Z</time>
      </trkpt>
      <trkpt lat="43.84859" lon="5.08198">
        <ele>92.7</ele>
        <time>2021-08-14T08:25:11Z</time>
      </trkpt>
      <trkpt lat="43.84779" lon="5.08094">
        <ele>91.1</ele>
        <time>2021-08-14T08:25:26Z</time>
      </trkpt>
      <trkpt lat="43.84702" lon="5.07996">
        <ele>91.7</ele>
        <time>2021-08-14T08:25:41Z</time>
      </trkpt>
      <trkpt lat="43.84625" lon="5.07891">
        <ele>90.1</ele>
        <time>2021-08-14T08:25:56Z</time>
      </trkpt>
      <trkpt lat="43.84555" lon="5.07799">
        <ele>87.2</ele>
        <time>2021-08-14T08:26:11Z</time>
      </trkpt>
      <trkpt lat="43.8448" lon="5.07708">
        <ele>84.7</ele>
        <time>2021-08-14T08:26:26Z</time>
      </trkpt>
      <trkpt lat="43.8439" lon="5.07595">
        <ele>84.5</ele>
        <time>2021-08-14T08:26:46Z</time>
      </trkpt>
      <trkpt lat="43.84308" lon="5.07512">
        <ele>80.6</ele>
        <time>2021-08-14T08:27:01Z</time>
      </trkpt>
      <trkpt lat="43.84234" lon="5.07402">
        <ele>79.4</ele>
        <time>2021-08-14T08:27:16Z</time>
      </trkpt>
      <trkpt lat="43.8416" lon="5.07304">
        <ele>79</ele>
        <time>2021-08-14T08:27:31Z</time>
      </trkpt>
      <trkpt lat="43.84087" lon="5.0721">
        <ele>77.2</ele>
        <time>2021-08-14T08:27:46Z</time>
      </trkpt>
      <trkpt lat="43.84002" lon="5.07113">
        <ele>75.8</ele>
        <time>2021-08-14T08:28:01Z</time>
      </trkpt>
      <trkpt lat="43.83916" lon="5.07001">
        <ele>76.5</ele>
        <time>2021-08-14T08:28:16Z</time>
      </trkpt>
      <trkpt lat="43.8384" lon="5.06901">
        <ele>79.3</ele>
        <time>2021-08-14T08:28:31Z</time>
      </trkpt>
      <trkpt lat="43.83761" lon="5.06804">
        <ele>82</ele>
        <time>2021-08-14T08:28:51Z</time>
      </trkpt>
      <trkpt lat="43.83687" lon="5.06712">
        <ele>81.9</ele>
        <time>2021-08-14T08:29:16Z</time>
      </trkpt>
      <trkpt lat="43.83612" lon="5.06611">
        <ele>81.7</ele>
        <time>2021-08-14T08:30:47Z</time>
      </trkpt>
      <trkpt lat="43.83534" lon="5.06511">
        <ele>81</ele>
        <time>2021-08-14T08:31:07Z</time>
      </trkpt>
      <trkpt lat="43.83455" lon="5.06404">
        <ele>76.9</ele>
        <time>2021-08-14T08:31:27Z</time>
      </trkpt>
      <trkpt lat="43.83379" lon="5.06282">
        <ele>76.7</ele>
        <time>2021-08-14T08:31:47Z</time>
      </trkpt>
      <trkpt lat="43.83326" lon="5.06175">
        <ele>76.7</ele>
        <time>2021-08-14T08:32:02Z</time>
      </trkpt>
      <trkpt lat="43.83263" lon="5.06049">
        <ele>81</ele>
        <time>2021-08-14T08:32:22Z</time>
      </trkpt>
      <trkpt lat="43.83211" lon="5.0594">
        <ele>81.3</ele>
        <time>2021-08-14T08:32:37Z</time>
      </trkpt>
      <trkpt lat="43.8316" lon="5.05831">
        <ele>83.4</ele>
        <time>2021-08-14T08:32:52Z</time>
      </trkpt>
      <trkpt lat="43.83095" lon="5.05692">
        <ele>79.8</ele>
        <time>2021-08-14T08:33:12Z</time>
      </trkpt>
      <trkpt lat="43.83036" lon="5.05567">
        <ele>81.7</ele>
        <time>2021-08-14T08:33:32Z</time>
      </trkpt>
      <trkpt lat="43.83097" lon="5.05469">
        <ele>77.4</ele>
        <time>2021-08-14T08:36:16Z</time>
      </trkpt>
      <trkpt lat="43.83181" lon="5.05399">
        <ele>76.7</ele>
        <time>2021-08-14T08:36:36Z</time>
      </trkpt>
      <trkpt lat="43.83245" lon="5.05294">
        <ele>77.1</ele>
        <time>2021-08-14T08:37:01Z</time>
      </trkpt>
      <trkpt lat="43.83216" lon="5.05154">
        <ele>77.3</ele>
        <time>2021-08-14T08:37:31Z</time>
      </trkpt>
      <trkpt lat="43.83235" lon="5.05004">
        <ele>79.7</ele>
        <time>2021-08-14T08:37:56Z</time>
      </trkpt>
      <trkpt lat="43.83275" lon="5.04891">
        <ele>80.2</ele>
        <time>2021-08-14T08:38:11Z</time>
      </trkpt>
      <trkpt lat="43.83329" lon="5.04781">
        <ele>80.4</ele>
        <time>2021-08-14T08:38:26Z</time>
      </trkpt>
      <trkpt lat="43.83391" lon="5.04679">
        <ele>80.7</ele>
        <time>2021-08-14T08:38:41Z</time>
      </trkpt>
      <trkpt lat="43.83451" lon="5.04578">
        <ele>80.2</ele>
        <time>2021-08-14T08:38:56Z</time>
      </trkpt>
      <trkpt lat="43.83507" lon="5.04461">
        <ele>79.7</ele>
        <time>2021-08-14T08:39:16Z</time>
      </trkpt>
      <trkpt lat="43.83587" lon="5.04405">
        <ele>79.1</ele>
        <time>2021-08-14T08:39:41Z</time>
      </trkpt>
      <trkpt lat="43.83678" lon="5.04387">
        <ele>78.5</ele>
        <time>2021-08-14T08:40:01Z</time>
      </trkpt>
      <trkpt lat="43.83768" lon="5.04336">
        <ele>75.9</ele>
        <time>2021-08-14T09:05:50Z</time>
      </trkpt>
      <trkpt lat="43.83722" lon="5.04222">
        <ele>75.3</ele>
        <time>2021-08-14T09:06:57Z</time>
      </trkpt>
      <trkpt lat="43.83666" lon="5.04099">
        <ele>74.7</ele>
        <time>2021-08-14T09:07:22Z</time>
      </trkpt>
      <trkpt lat="43.83563" lon="5.04064">
        <ele>73.3</ele>
        <time>2021-08-14T09:07:52Z</time>
      </trkpt>
      <trkpt lat="43.83471" lon="5.04079">
        <ele>73.3</ele>
        <time>2021-08-14T09:08:47Z</time>
      </trkpt>
      <trkpt lat="43.83374" lon="5.04107">
        <ele>73.5</ele>
        <time>2021-08-14T09:09:12Z</time>
      </trkpt>
      <trkpt lat="43.83279" lon="5.04031">
        <ele>70</ele>
        <time>2021-08-14T09:10:40Z</time>
      </trkpt>
      <trkpt lat="43.8319" lon="5.03973">
        <ele>68.9</ele>
        <time>2021-08-14T09:11:00Z</time>
      </trkpt>
      <trkpt lat="43.83115" lon="5.03867">
        <ele>68.8</ele>
        <time>2021-08-14T09:11:25Z</time>
      </trkpt>
      <trkpt lat="43.83047" lon="5.03741">
        <ele>70.2</ele>
        <time>2021-08-14T09:11:45Z</time>
      </trkpt>
      <trkpt lat="43.82975" lon="5.03611">
        <ele>74</ele>
        <time>2021-08-14T09:12:05Z</time>
      </trkpt>
      <trkpt lat="43.82906" lon="5.03496">
        <ele>74.5</ele>
        <time>2021-08-14T09:12:25Z</time>
      </trkpt>
      <trkpt lat="43.82825" lon="5.03397">
        <ele>76.4</ele>
        <time>2021-08-14T09:12:50Z</time>
      </trkpt>
      <trkpt lat="43.8277" lon="5.03275">
        <ele>73.1</ele>
        <time>2021-08-14T09:13:30Z</time>
      </trkpt>
      <trkpt lat="43.8272" lon="5.03165">
        <ele>76</ele>
        <time>2021-08-14T09:13:55Z</time>
      </trkpt>
      <trkpt lat="43.82664" lon="5.03062">
        <ele>76</ele>
        <time>2021-08-14T09:14:15Z</time>
      </trkpt>
      <trkpt lat="43.82595" lon="5.02948">
        <ele>85.2</ele>
        <time>2021-08-14T09:14:35Z</time>
      </trkpt>
      <trkpt lat="43.82534" lon="5.02838">
        <ele>87.7</ele>
        <time>2021-08-14T09:15:12Z</time>
      </trkpt>
      <trkpt lat="43.82476" lon="5.02733">
        <ele>88.1</ele>
        <time>2021-08-14T09:15:37Z</time>
      </trkpt>
      <trkpt lat="43.82408" lon="5.02629">
        <ele>90.5</ele>
        <time>2021-08-14T09:16:02Z</time>
      </trkpt>
      <trkpt lat="43.82329" lon="5.025">
        <ele>88.7</ele>
        <time>2021-08-14T09:16:22Z</time>
      </trkpt>
      <trkpt lat="43.82249" lon="5.02361">
        <ele>87.9</ele>
        <time>2021-08-14T09:16:37Z</time>
      </trkpt>
      <trkpt lat="43.82187" lon="5.02226">
        <ele>87</ele>
        <time>2021-08-14T09:16:52Z</time>
      </trkpt>
      <trkpt lat="43.8213" lon="5.02107">
        <ele>79</ele>
        <time>2021-08-14T09:17:22Z</time>
      </trkpt>
      <trkpt lat="43.82064" lon="5.0197">
        <ele>76.6</ele>
        <time>2021-08-14T09:18:01Z</time>
      </trkpt>
      <trkpt lat="43.81999" lon="5.0185">
        <ele>77.1</ele>
        <time>2021-08-14T09:18:16Z</time>
      </trkpt>
      <trkpt lat="43.81933" lon="5.01721">
        <ele>75.4</ele>
        <time>2021-08-14T09:18:36Z</time>
      </trkpt>
      <trkpt lat="43.81871" lon="5.01609">
        <ele>70.4</ele>
        <time>2021-08-14T09:18:56Z</time>
      </trkpt>
      <trkpt lat="43.81823" lon="5.01479">
        <ele>68.2</ele>
        <time>2021-08-14T09:19:16Z</time>
      </trkpt>
      <trkpt lat="43.81764" lon="5.0134">
        <ele>65.5</ele>
        <time>2021-08-14T09:19:36Z</time>
      </trkpt>
      <trkpt lat="43.81695" lon="5.01249">
        <ele>61.7</ele>
        <time>2021-08-14T09:20:09Z</time>
      </trkpt>
      <trkpt lat="43.81634" lon="5.01142">
        <ele>58.2</ele>
        <time>2021-08-14T09:20:29Z</time>
      </trkpt>
      <trkpt lat="43.8155" lon="5.01019">
        <ele>54.8</ele>
        <time>2021-08-14T09:20:49Z</time>
      </trkpt>
      <trkpt lat="43.81488" lon="5.00899">
        <ele>51.4</ele>
        <time>2021-08-14T09:21:04Z</time>
      </trkpt>
      <trkpt lat="43.81426" lon="5.00772">
        <ele>46.9</ele>
        <time>2021-08-14T09:21:24Z</time>
      </trkpt>
      <trkpt lat="43.8137" lon="5.00661">
        <ele>43.4</ele>
        <time>2021-08-14T09:21:39Z</time>
      </trkpt>
      <trkpt lat="43.81309" lon="5.00549">
        <ele>40</ele>
        <time>2021-08-14T09:21:54Z</time>
      </trkpt>
      <trkpt lat="43.81252" lon="5.00447">
        <ele>37.8</ele>
        <time>2021-08-14T09:22:09Z</time>
      </trkpt>
      <trkpt lat="43.81181" lon="5.00312">
        <ele>37</ele>
        <time>2021-08-14T09:22:34Z</time>
      </trkpt>
      <trkpt lat="43.81119" lon="5.00196">
        <ele>36.6</ele>
        <time>2021-08-14T09:22:49Z</time>
      </trkpt>
      <trkpt lat="43.81055" lon="5.00085">
        <ele>35.7</ele>
        <time>2021-08-14T09:23:04Z</time>
      </trkpt>
      <trkpt lat="43.80996" lon="4.99975">
        <ele>37</ele>
        <time>2021-08-14T09:23:19Z</time>
      </trkpt>
      <trkpt lat="43.80935" lon="4.99866">
        <ele>36.4</ele>
        <time>2021-08-14T09:23:34Z</time>
      </trkpt>
      <trkpt lat="43.80874" lon="4.99754">
        <ele>41.5</ele>
        <time>2021-08-14T09:23:49Z</time>
      </trkpt>
      <trkpt lat="43.80804" lon="4.99645">
        <ele>41.5</ele>
        <time>2021-08-14T09:24:14Z</time>
      </trkpt>
      <trkpt lat="43.80747" lon="4.99524">
        <ele>45.5</ele>
        <time>2021-08-14T09:25:11Z</time>
      </trkpt>
      <trkpt lat="43.80672" lon="4.99396">
        <ele>46.6</ele>
        <time>2021-08-14T09:25:31Z</time>
      </trkpt>
      <trkpt lat="43.80613" lon="4.99288">
        <ele>48.6</ele>
        <time>2021-08-14T09:25:46Z</time>
      </trkpt>
      <trkpt lat="43.80538" lon="4.99168">
        <ele>50.5</ele>
        <time>2021-08-14T09:26:06Z</time>
      </trkpt>
      <trkpt lat="43.80483" lon="4.99064">
        <ele>50.6</ele>
        <time>2021-08-14T09:26:21Z</time>
      </trkpt>
      <trkpt lat="43.80422" lon="4.9895">
        <ele>50</ele>
        <time>2021-08-14T09:26:36Z</time>
      </trkpt>
      <trkpt lat="43.80364" lon="4.98834">
        <ele>49.5</ele>
        <time>2021-08-14T09:26:57Z</time>
      </trkpt>
      <trkpt lat="43.80367" lon="4.9869">
        <ele>53.1</ele>
        <time>2021-08-14T09:27:27Z</time>
      </trkpt>
      <trkpt lat="43.80388" lon="4.98536">
        <ele>52.5</ele>
        <time>2021-08-14T09:27:47Z</time>
      </trkpt>
      <trkpt lat="43.80409" lon="4.98414">
        <ele>54</ele>
        <time>2021-08-14T09:28:02Z</time>
      </trkpt>
      <trkpt lat="43.80423" lon="4.98263">
        <ele>55.3</ele>
        <time>2021-08-14T09:28:22Z</time>
      </trkpt>
      <trkpt lat="43.80439" lon="4.98103">
        <ele>54.3</ele>
        <time>2021-08-14T09:28:42Z</time>
      </trkpt>
      <trkpt lat="43.80473" lon="4.97984">
        <ele>53.8</ele>
        <time>2021-08-14T09:28:57Z</time>
      </trkpt>
      <trkpt lat="43.80512" lon="4.97868">
        <ele>55.6</ele>
        <time>2021-08-14T09:29:12Z</time>
      </trkpt>
      <trkpt lat="43.80556" lon="4.97726">
        <ele>53.4</ele>
        <time>2021-08-14T09:29:32Z</time>
      </trkpt>
      <trkpt lat="43.80589" lon="4.97573">
        <ele>53.2</ele>
        <time>2021-08-14T09:29:52Z</time>
      </trkpt>
      <trkpt lat="43.80593" lon="4.97418">
        <ele>53.9</ele>
        <time>2021-08-14T09:30:12Z</time>
      </trkpt>
      <trkpt lat="43.80603" lon="4.97255">
        <ele>57</ele>
        <time>2021-08-14T09:30:32Z</time>
      </trkpt>
      <trkpt lat="43.80599" lon="4.97108">
        <ele>55.4</ele>
        <time>2021-08-14T09:30:52Z</time>
      </trkpt>
      <trkpt lat="43.80602" lon="4.96956">
        <ele>52.1</ele>
        <time>2021-08-14T09:31:12Z</time>
      </trkpt>
      <trkpt lat="43.80599" lon="4.9683">
        <ele>52.9</ele>
        <time>2021-08-14T09:31:27Z</time>
      </trkpt>
      <trkpt lat="43.80592" lon="4.96662">
        <ele>56.3</ele>
        <time>2021-08-14T09:31:47Z</time>
      </trkpt>
      <trkpt lat="43.80601" lon="4.96538">
        <ele>57.5</ele>
        <time>2021-08-14T09:32:02Z</time>
      </trkpt>
      <trkpt lat="43.80608" lon="4.96379">
        <ele>55.1</ele>
        <time>2021-08-14T09:32:22Z</time>
      </trkpt>
      <trkpt lat="43.80616" lon="4.96249">
        <ele>52.8</ele>
        <time>2021-08-14T09:32:37Z</time>
      </trkpt>
      <trkpt lat="43.80628" lon="4.96123">
        <ele>50.2</ele>
        <time>2021-08-14T09:32:52Z</time>
      </trkpt>
      <trkpt lat="43.80637" lon="4.95993">
        <ele>49.4</ele>
        <time>2021-08-14T09:33:07Z</time>
      </trkpt>
      <trkpt lat="43.80636" lon="4.95866">
        <ele>48.5</ele>
        <time>2021-08-14T09:33:22Z</time>
      </trkpt>
      <trkpt lat="43.80628" lon="4.95733">
        <ele>48.9</ele>
        <time>2021-08-14T09:33:37Z</time>
      </trkpt>
      <trkpt lat="43.80649" lon="4.95609">
        <ele>49.4</ele>
        <time>2021-08-14T09:33:52Z</time>
      </trkpt>
      <trkpt lat="43.80691" lon="4.9548">
        <ele>51.6</ele>
        <time>2021-08-14T09:34:17Z</time>
      </trkpt>
      <trkpt lat="43.80686" lon="4.95343">
        <ele>50.5</ele>
        <time>2021-08-14T09:34:37Z</time>
      </trkpt>
      <trkpt lat="43.80676" lon="4.95214">
        <ele>48.9</ele>
        <time>2021-08-14T09:34:57Z</time>
      </trkpt>
      <trkpt lat="43.80666" lon="4.95075">
        <ele>48.9</ele>
        <time>2021-08-14T09:35:17Z</time>
      </trkpt>
      <trkpt lat="43.80642" lon="4.94935">
        <ele>50.2</ele>
        <time>2021-08-14T09:35:59Z</time>
      </trkpt>
      <trkpt lat="43.80641" lon="4.948">
        <ele>49.4</ele>
        <time>2021-08-14T09:36:19Z</time>
      </trkpt>
      <trkpt lat="43.80641" lon="4.94642">
        <ele>49.4</ele>
        <time>2021-08-14T09:36:39Z</time>
      </trkpt>
      <trkpt lat="43.80634" lon="4.94486">
        <ele>44.9</ele>
        <time>2021-08-14T09:36:59Z</time>
      </trkpt>
      <trkpt lat="43.80622" lon="4.94356">
        <ele>43.6</ele>
        <time>2021-08-14T09:37:19Z</time>
      </trkpt>
      <trkpt lat="43.80619" lon="4.94203">
        <ele>40.9</ele>
        <time>2021-08-14T09:37:39Z</time>
      </trkpt>
      <trkpt lat="43.80623" lon="4.94038">
        <ele>39.6</ele>
        <time>2021-08-14T09:37:59Z</time>
      </trkpt>
      <trkpt lat="43.80623" lon="4.93884">
        <ele>39</ele>
        <time>2021-08-14T09:38:19Z</time>
      </trkpt>
      <trkpt lat="43.80571" lon="4.93759">
        <ele>37.1</ele>
        <time>2021-08-14T09:38:39Z</time>
      </trkpt>
      <trkpt lat="43.80565" lon="4.93604">
        <ele>35.8</ele>
        <time>2021-08-14T09:38:59Z</time>
      </trkpt>
      <trkpt lat="43.80538" lon="4.93439">
        <ele>35</ele>
        <time>2021-08-14T09:39:19Z</time>
      </trkpt>
      <trkpt lat="43.8054" lon="4.933">
        <ele>34.8</ele>
        <time>2021-08-14T09:39:34Z</time>
      </trkpt>
      <trkpt lat="43.80556" lon="4.93176">
        <ele>34.3</ele>
        <time>2021-08-14T09:39:49Z</time>
      </trkpt>
      <trkpt lat="43.80562" lon="4.93039">
        <ele>35.6</ele>
        <time>2021-08-14T09:40:04Z</time>
      </trkpt>
      <trkpt lat="43.80492" lon="4.92905">
        <ele>35.6</ele>
        <time>2021-08-14T09:40:24Z</time>
      </trkpt>
      <trkpt lat="43.80476" lon="4.92772">
        <ele>36.3</ele>
        <time>2021-08-14T09:40:39Z</time>
      </trkpt>
      <trkpt lat="43.80461" lon="4.92641">
        <ele>35.8</ele>
        <time>2021-08-14T09:40:54Z</time>
      </trkpt>
      <trkpt lat="43.80445" lon="4.9251">
        <ele>37.1</ele>
        <time>2021-08-14T09:41:09Z</time>
      </trkpt>
      <trkpt lat="43.80432" lon="4.92382">
        <ele>39.5</ele>
        <time>2021-08-14T09:41:24Z</time>
      </trkpt>
      <trkpt lat="43.80416" lon="4.92227">
        <ele>41.9</ele>
        <time>2021-08-14T09:41:44Z</time>
      </trkpt>
      <trkpt lat="43.80402" lon="4.9208">
        <ele>46</ele>
        <time>2021-08-14T09:42:04Z</time>
      </trkpt>
      <trkpt lat="43.80393" lon="4.91948">
        <ele>49.5</ele>
        <time>2021-08-14T09:42:19Z</time>
      </trkpt>
      <trkpt lat="43.80379" lon="4.91818">
        <ele>49.4</ele>
        <time>2021-08-14T09:42:34Z</time>
      </trkpt>
      <trkpt lat="43.80364" lon="4.91654">
        <ele>49.6</ele>
        <time>2021-08-14T09:42:54Z</time>
      </trkpt>
      <trkpt lat="43.80348" lon="4.91488">
        <ele>49.3</ele>
        <time>2021-08-14T09:43:14Z</time>
      </trkpt>
      <trkpt lat="43.8034" lon="4.91356">
        <ele>47.2</ele>
        <time>2021-08-14T09:43:29Z</time>
      </trkpt>
      <trkpt lat="43.80301" lon="4.91211">
        <ele>47.5</ele>
        <time>2021-08-14T09:43:49Z</time>
      </trkpt>
      <trkpt lat="43.80303" lon="4.91069">
        <ele>39.8</ele>
        <time>2021-08-14T09:46:43Z</time>
      </trkpt>
      <trkpt lat="43.80323" lon="4.90922">
        <ele>40.3</ele>
        <time>2021-08-14T09:47:03Z</time>
      </trkpt>
      <trkpt lat="43.80366" lon="4.90777">
        <ele>44.4</ele>
        <time>2021-08-14T09:47:23Z</time>
      </trkpt>
      <trkpt lat="43.80404" lon="4.90634">
        <ele>46.8</ele>
        <time>2021-08-14T09:47:43Z</time>
      </trkpt>
      <trkpt lat="43.80404" lon="4.90465">
        <ele>49.4</ele>
        <time>2021-08-14T09:48:03Z</time>
      </trkpt>
      <trkpt lat="43.80397" lon="4.90335">
        <ele>48</ele>
        <time>2021-08-14T09:48:18Z</time>
      </trkpt>
      <trkpt lat="43.80402" lon="4.90208">
        <ele>47.6</ele>
        <time>2021-08-14T09:48:33Z</time>
      </trkpt>
      <trkpt lat="43.80417" lon="4.90085">
        <ele>49</ele>
        <time>2021-08-14T09:48:48Z</time>
      </trkpt>
      <trkpt lat="43.8044" lon="4.89964">
        <ele>49.4</ele>
        <time>2021-08-14T09:49:03Z</time>
      </trkpt>
      <trkpt lat="43.80471" lon="4.89837">
        <ele>50</ele>
        <time>2021-08-14T09:49:18Z</time>
      </trkpt>
      <trkpt lat="43.80503" lon="4.89681">
        <ele>51</ele>
        <time>2021-08-14T09:49:38Z</time>
      </trkpt>
      <trkpt lat="43.80523" lon="4.89557">
        <ele>51.2</ele>
        <time>2021-08-14T09:49:53Z</time>
      </trkpt>
      <trkpt lat="43.80524" lon="4.89424">
        <ele>52.2</ele>
        <time>2021-08-14T09:50:08Z</time>
      </trkpt>
      <trkpt lat="43.80521" lon="4.89276">
        <ele>49.2</ele>
        <time>2021-08-14T09:50:28Z</time>
      </trkpt>
      <trkpt lat="43.80515" lon="4.89123">
        <ele>45.1</ele>
        <time>2021-08-14T09:50:48Z</time>
      </trkpt>
      <trkpt lat="43.8051" lon="4.88961">
        <ele>43.5</ele>
        <time>2021-08-14T09:51:08Z</time>
      </trkpt>
      <trkpt lat="43.80504" lon="4.88798">
        <ele>40.5</ele>
        <time>2021-08-14T09:51:28Z</time>
      </trkpt>
      <trkpt lat="43.805" lon="4.88642">
        <ele>40.9</ele>
        <time>2021-08-14T09:51:48Z</time>
      </trkpt>
      <trkpt lat="43.80491" lon="4.8848">
        <ele>37.8</ele>
        <time>2021-08-14T09:52:08Z</time>
      </trkpt>
      <trkpt lat="43.80489" lon="4.88352">
        <ele>38.5</ele>
        <time>2021-08-14T09:52:28Z</time>
      </trkpt>
      <trkpt lat="43.80391" lon="4.88317">
        <ele>40</ele>
        <time>2021-08-14T09:52:53Z</time>
      </trkpt>
      <trkpt lat="43.80289" lon="4.88282">
        <ele>40.5</ele>
        <time>2021-08-14T09:54:28Z</time>
      </trkpt>
      <trkpt lat="43.80184" lon="4.88255">
        <ele>42.6</ele>
        <time>2021-08-14T09:54:48Z</time>
      </trkpt>
      <trkpt lat="43.80069" lon="4.88227">
        <ele>43.7</ele>
        <time>2021-08-14T09:55:08Z</time>
      </trkpt>
      <trkpt lat="43.79953" lon="4.88196">
        <ele>43.2</ele>
        <time>2021-08-14T09:55:28Z</time>
      </trkpt>
      <trkpt lat="43.79852" lon="4.88166">
        <ele>41.9</ele>
        <time>2021-08-14T09:55:48Z</time>
      </trkpt>
      <trkpt lat="43.7976" lon="4.88138">
        <ele>37</ele>
        <time>2021-08-14T09:56:08Z</time>
      </trkpt>
      <trkpt lat="43.79644" lon="4.88095">
        <ele>31.8</ele>
        <time>2021-08-14T09:56:28Z</time>
      </trkpt>
      <trkpt lat="43.7953" lon="4.88056">
        <ele>30.5</ele>
        <time>2021-08-14T09:56:48Z</time>
      </trkpt>
      <trkpt lat="43.79416" lon="4.8802">
        <ele>30.3</ele>
        <time>2021-08-14T09:57:08Z</time>
      </trkpt>
      <trkpt lat="43.79354" lon="4.87924">
        <ele>31.5</ele>
        <time>2021-08-14T09:57:28Z</time>
      </trkpt>
      <trkpt lat="43.79266" lon="4.87848">
        <ele>32</ele>
        <time>2021-08-14T09:57:58Z</time>
      </trkpt>
      <trkpt lat="43.79162" lon="4.87795">
        <ele>32.5</ele>
        <time>2021-08-14T09:58:18Z</time>
      </trkpt>
      <trkpt lat="43.79078" lon="4.87693">
        <ele>38.8</ele>
        <time>2021-08-14T09:58:38Z</time>
      </trkpt>
      <trkpt lat="43.79013" lon="4.87592">
        <ele>48.7</ele>
        <time>2021-08-14T09:59:08Z</time>
      </trkpt>
      <trkpt lat="43.79037" lon="4.87468">
        <ele>51</ele>
        <time>2021-08-14T09:59:28Z</time>
      </trkpt>
      <trkpt lat="43.79069" lon="4.87322">
        <ele>51.1</ele>
        <time>2021-08-14T09:59:53Z</time>
      </trkpt>
      <trkpt lat="43.79002" lon="4.87229">
        <ele>49.6</ele>
        <time>2021-08-14T10:00:28Z</time>
      </trkpt>
      <trkpt lat="43.78892" lon="4.87191">
        <ele>51.1</ele>
        <time>2021-08-14T10:00:53Z</time>
      </trkpt>
      <trkpt lat="43.78794" lon="4.87159">
        <ele>52</ele>
        <time>2021-08-14T10:01:18Z</time>
      </trkpt>
      <trkpt lat="43.78698" lon="4.87118">
        <ele>56.6</ele>
        <time>2021-08-14T10:01:43Z</time>
      </trkpt>
      <trkpt lat="43.78611" lon="4.87075">
        <ele>58.9</ele>
        <time>2021-08-14T10:02:08Z</time>
      </trkpt>
      <trkpt lat="43.7855" lon="4.86973">
        <ele>64.4</ele>
        <time>2021-08-14T10:03:01Z</time>
      </trkpt>
      <trkpt lat="43.78597" lon="4.86862">
        <ele>65.5</ele>
        <time>2021-08-14T10:03:21Z</time>
      </trkpt>
      <trkpt lat="43.78666" lon="4.86741">
        <ele>64.8</ele>
        <time>2021-08-14T10:03:41Z</time>
      </trkpt>
      <trkpt lat="43.78734" lon="4.86626">
        <ele>59.1</ele>
        <time>2021-08-14T10:04:01Z</time>
      </trkpt>
      <trkpt lat="43.78785" lon="4.86503">
        <ele>57.8</ele>
        <time>2021-08-14T10:04:21Z</time>
      </trkpt>
      <trkpt lat="43.78834" lon="4.864">
        <ele>56.9</ele>
        <time>2021-08-14T10:04:36Z</time>
      </trkpt>
      <trkpt lat="43.78885" lon="4.86291">
        <ele>55.3</ele>
        <time>2021-08-14T10:04:51Z</time>
      </trkpt>
      <trkpt lat="43.78929" lon="4.86185">
        <ele>55.6</ele>
        <time>2021-08-14T10:05:06Z</time>
      </trkpt>
      <trkpt lat="43.78938" lon="4.86026">
        <ele>55.5</ele>
        <time>2021-08-14T10:05:26Z</time>
      </trkpt>
      <trkpt lat="43.78952" lon="4.85875">
        <ele>54.3</ele>
        <time>2021-08-14T10:05:46Z</time>
      </trkpt>
      <trkpt lat="43.78976" lon="4.85735">
        <ele>54.7</ele>
        <time>2021-08-14T10:06:06Z</time>
      </trkpt>
      <trkpt lat="43.78992" lon="4.85575">
        <ele>53.9</ele>
        <time>2021-08-14T10:06:31Z</time>
      </trkpt>
      <trkpt lat="43.79001" lon="4.85412">
        <ele>49.9</ele>
        <time>2021-08-14T10:06:51Z</time>
      </trkpt>
      <trkpt lat="43.78989" lon="4.8528">
        <ele>49.9</ele>
        <time>2021-08-14T10:07:06Z</time>
      </trkpt>
      <trkpt lat="43.78998" lon="4.85137">
        <ele>49.1</ele>
        <time>2021-08-14T10:07:26Z</time>
      </trkpt>
      <trkpt lat="43.79031" lon="4.85011">
        <ele>51.1</ele>
        <time>2021-08-14T10:07:51Z</time>
      </trkpt>
      <trkpt lat="43.79064" lon="4.84884">
        <ele>49.8</ele>
        <time>2021-08-14T10:09:17Z</time>
      </trkpt>
      <trkpt lat="43.79062" lon="4.84736">
        <ele>47.8</ele>
        <time>2021-08-14T10:09:37Z</time>
      </trkpt>
      <trkpt lat="43.79082" lon="4.84591">
        <ele>47.8</ele>
        <time>2021-08-14T10:09:57Z</time>
      </trkpt>
      <trkpt lat="43.7903" lon="4.84478">
        <ele>44.9</ele>
        <time>2021-08-14T10:10:27Z</time>
      </trkpt>
      <trkpt lat="43.7897" lon="4.84367">
        <ele>42.9</ele>
        <time>2021-08-14T10:10:47Z</time>
      </trkpt>
      <trkpt lat="43.78908" lon="4.84261">
        <ele>49.5</ele>
        <time>2021-08-14T10:11:07Z</time>
      </trkpt>
      <trkpt lat="43.78828" lon="4.84151">
        <ele>50.1</ele>
        <time>2021-08-14T10:11:32Z</time>
      </trkpt>
      <trkpt lat="43.78837" lon="4.84005">
        <ele>50.3</ele>
        <time>2021-08-14T10:11:57Z</time>
      </trkpt>
      <trkpt lat="43.7885" lon="4.83859">
        <ele>52.3</ele>
        <time>2021-08-14T10:12:22Z</time>
      </trkpt>
      <trkpt lat="43.78844" lon="4.8372">
        <ele>59.2</ele>
        <time>2021-08-14T10:12:52Z</time>
      </trkpt>
      <trkpt lat="43.78866" lon="4.83586">
        <ele>57.9</ele>
        <time>2021-08-14T10:13:12Z</time>
      </trkpt>
      <trkpt lat="43.7888" lon="4.83454">
        <ele>54.6</ele>
        <time>2021-08-14T10:13:32Z</time>
      </trkpt>
      <trkpt lat="43.78879" lon="4.83328">
        <ele>50.1</ele>
        <time>2021-08-14T10:15:51Z</time>
      </trkpt>
      <trkpt lat="43.78982" lon="4.83342">
        <ele>60.3</ele>
        <time>2021-08-14T10:45:44Z</time>
      </trkpt>
      <trkpt lat="43.79091" lon="4.83341">
        <ele>54.2</ele>
        <time>2021-08-14T10:46:09Z</time>
      </trkpt>
      <trkpt lat="43.79206" lon="4.83345">
        <ele>50.3</ele>
        <time>2021-08-14T10:46:29Z</time>
      </trkpt>
      <trkpt lat="43.79316" lon="4.83346">
        <ele>59.8</ele>
        <time>2021-08-14T10:47:01Z</time>
      </trkpt>
      <trkpt lat="43.79426" lon="4.83348">
        <ele>66.9</ele>
        <time>2021-08-14T10:47:21Z</time>
      </trkpt>
      <trkpt lat="43.79538" lon="4.8335">
        <ele>62.9</ele>
        <time>2021-08-14T10:47:41Z</time>
      </trkpt>
      <trkpt lat="43.79639" lon="4.83342">
        <ele>56.7</ele>
        <time>2021-08-14T10:48:01Z</time>
      </trkpt>
      <trkpt lat="43.79735" lon="4.83342">
        <ele>36</ele>
        <time>2021-08-14T10:49:31Z</time>
      </trkpt>
      <trkpt lat="43.79821" lon="4.83393">
        <ele>38.6</ele>
        <time>2021-08-14T10:49:56Z</time>
      </trkpt>
      <trkpt lat="43.79727" lon="4.83347">
        <ele>39.4</ele>
        <time>2021-08-14T10:51:55Z</time>
      </trkpt>
      <trkpt lat="43.79634" lon="4.83337">
        <ele>31.9</ele>
        <time>2021-08-14T11:00:42Z</time>
      </trkpt>
      <trkpt lat="43.79538" lon="4.83336">
        <ele>32.8</ele>
        <time>2021-08-14T11:01:07Z</time>
      </trkpt>
      <trkpt lat="43.79442" lon="4.83338">
        <ele>33.2</ele>
        <time>2021-08-14T11:01:32Z</time>
      </trkpt>
      <trkpt lat="43.79346" lon="4.83333">
        <ele>33.3</ele>
        <time>2021-08-14T11:01:57Z</time>
      </trkpt>
      <trkpt lat="43.79289" lon="4.83217">
        <ele>47.5</ele>
        <time>2021-08-14T11:02:54Z</time>
      </trkpt>
      <trkpt lat="43.79323" lon="4.83083">
        <ele>50.6</ele>
        <time>2021-08-14T11:03:14Z</time>
      </trkpt>
      <trkpt lat="43.79327" lon="4.82942">
        <ele>51.2</ele>
        <time>2021-08-14T11:03:34Z</time>
      </trkpt>
      <trkpt lat="43.79314" lon="4.82794">
        <ele>49.7</ele>
        <time>2021-08-14T11:03:59Z</time>
      </trkpt>
      <trkpt lat="43.79302" lon="4.82664">
        <ele>47.7</ele>
        <time>2021-08-14T11:04:19Z</time>
      </trkpt>
      <trkpt lat="43.79308" lon="4.82539">
        <ele>45.3</ele>
        <time>2021-08-14T11:04:39Z</time>
      </trkpt>
      <trkpt lat="43.79332" lon="4.82396">
        <ele>45.9</ele>
        <time>2021-08-14T11:04:59Z</time>
      </trkpt>
      <trkpt lat="43.79361" lon="4.82255">
        <ele>46.6</ele>
        <time>2021-08-14T11:05:19Z</time>
      </trkpt>
      <trkpt lat="43.79388" lon="4.82137">
        <ele>45.8</ele>
        <time>2021-08-14T11:05:34Z</time>
      </trkpt>
      <trkpt lat="43.79419" lon="4.82002">
        <ele>42.4</ele>
        <time>2021-08-14T11:05:54Z</time>
      </trkpt>
      <trkpt lat="43.79458" lon="4.81854">
        <ele>38.3</ele>
        <time>2021-08-14T11:06:14Z</time>
      </trkpt>
      <trkpt lat="43.79483" lon="4.81735">
        <ele>36.2</ele>
        <time>2021-08-14T11:06:29Z</time>
      </trkpt>
      <trkpt lat="43.79535" lon="4.8161">
        <ele>35.7</ele>
        <time>2021-08-14T11:06:54Z</time>
      </trkpt>
      <trkpt lat="43.79597" lon="4.81486">
        <ele>37.5</ele>
        <time>2021-08-14T11:07:14Z</time>
      </trkpt>
      <trkpt lat="43.79647" lon="4.81387">
        <ele>35.7</ele>
        <time>2021-08-14T11:07:29Z</time>
      </trkpt>
      <trkpt lat="43.797" lon="4.81273">
        <ele>36.8</ele>
        <time>2021-08-14T11:07:49Z</time>
      </trkpt>
      <trkpt lat="43.79741" lon="4.81156">
        <ele>37.4</ele>
        <time>2021-08-14T11:08:04Z</time>
      </trkpt>
      <trkpt lat="43.7978" lon="4.80996">
        <ele>36</ele>
        <time>2021-08-14T11:08:24Z</time>
      </trkpt>
      <trkpt lat="43.79797" lon="4.8085">
        <ele>30.4</ele>
        <time>2021-08-14T11:08:39Z</time>
      </trkpt>
      <trkpt lat="43.798" lon="4.80714">
        <ele>24.7</ele>
        <time>2021-08-14T11:08:54Z</time>
      </trkpt>
      <trkpt lat="43.79793" lon="4.80574">
        <ele>19.7</ele>
        <time>2021-08-14T11:09:14Z</time>
      </trkpt>
      <trkpt lat="43.79794" lon="4.80419">
        <ele>15.7</ele>
        <time>2021-08-14T11:09:39Z</time>
      </trkpt>
      <trkpt lat="43.79789" lon="4.80292">
        <ele>16.6</ele>
        <time>2021-08-14T11:09:54Z</time>
      </trkpt>
      <trkpt lat="43.79793" lon="4.80162">
        <ele>19.7</ele>
        <time>2021-08-14T11:10:14Z</time>
      </trkpt>
      <trkpt lat="43.7979" lon="4.80017">
        <ele>22.9</ele>
        <time>2021-08-14T11:10:39Z</time>
      </trkpt>
      <trkpt lat="43.79794" lon="4.79876">
        <ele>22.6</ele>
        <time>2021-08-14T11:10:59Z</time>
      </trkpt>
      <trkpt lat="43.79795" lon="4.79721">
        <ele>17.1</ele>
        <time>2021-08-14T11:11:19Z</time>
      </trkpt>
      <trkpt lat="43.79796" lon="4.79585">
        <ele>17.1</ele>
        <time>2021-08-14T11:11:44Z</time>
      </trkpt>
      <trkpt lat="43.79804" lon="4.79458">
        <ele>12.1</ele>
        <time>2021-08-14T14:02:26Z</time>
      </trkpt>
      <trkpt lat="43.79804" lon="4.79319">
        <ele>12.8</ele>
        <time>2021-08-14T14:02:46Z</time>
      </trkpt>
      <trkpt lat="43.79805" lon="4.79169">
        <ele>11.8</ele>
        <time>2021-08-14T14:03:06Z</time>
      </trkpt>
      <trkpt lat="43.79806" lon="4.79031">
        <ele>12</ele>
        <time>2021-08-14T14:03:26Z</time>
      </trkpt>
      <trkpt lat="43.79798" lon="4.78896">
        <ele>14</ele>
        <time>2021-08-14T14:03:46Z</time>
      </trkpt>
      <trkpt lat="43.79772" lon="4.7876">
        <ele>17.6</ele>
        <time>2021-08-14T14:04:06Z</time>
      </trkpt>
      <trkpt lat="43.79739" lon="4.78624">
        <ele>15.9</ele>
        <time>2021-08-14T14:04:26Z</time>
      </trkpt>
      <trkpt lat="43.79709" lon="4.78487">
        <ele>16</ele>
        <time>2021-08-14T14:04:46Z</time>
      </trkpt>
      <trkpt lat="43.79675" lon="4.78348">
        <ele>15.9</ele>
        <time>2021-08-14T14:05:06Z</time>
      </trkpt>
      <trkpt lat="43.7965" lon="4.78212">
        <ele>14.5</ele>
        <time>2021-08-14T14:05:26Z</time>
      </trkpt>
      <trkpt lat="43.79629" lon="4.7807">
        <ele>16</ele>
        <time>2021-08-14T14:05:46Z</time>
      </trkpt>
      <trkpt lat="43.79614" lon="4.77937">
        <ele>14.6</ele>
        <time>2021-08-14T14:06:06Z</time>
      </trkpt>
      <trkpt lat="43.79599" lon="4.77783">
        <ele>8.9</ele>
        <time>2021-08-14T14:06:26Z</time>
      </trkpt>
      <trkpt lat="43.79587" lon="4.77645">
        <ele>6</ele>
        <time>2021-08-14T14:06:41Z</time>
      </trkpt>
      <trkpt lat="43.79565" lon="4.77505">
        <ele>7</ele>
        <time>2021-08-14T14:06:56Z</time>
      </trkpt>
      <trkpt lat="43.79549" lon="4.77366">
        <ele>7.2</ele>
        <time>2021-08-14T14:07:11Z</time>
      </trkpt>
      <trkpt lat="43.79533" lon="4.77223">
        <ele>8.7</ele>
        <time>2021-08-14T14:07:31Z</time>
      </trkpt>
      <trkpt lat="43.79515" lon="4.77081">
        <ele>4.8</ele>
        <time>2021-08-14T14:07:46Z</time>
      </trkpt>
      <trkpt lat="43.79499" lon="4.76951">
        <ele>5.9</ele>
        <time>2021-08-14T14:08:01Z</time>
      </trkpt>
      <trkpt lat="43.79485" lon="4.76799">
        <ele>11.6</ele>
        <time>2021-08-14T14:08:21Z</time>
      </trkpt>
      <trkpt lat="43.7946" lon="4.76638">
        <ele>10.1</ele>
        <time>2021-08-14T14:08:41Z</time>
      </trkpt>
      <trkpt lat="43.79423" lon="4.7648">
        <ele>6.1</ele>
        <time>2021-08-14T14:09:01Z</time>
      </trkpt>
      <trkpt lat="43.79395" lon="4.76353">
        <ele>3.2</ele>
        <time>2021-08-14T14:09:16Z</time>
      </trkpt>
      <trkpt lat="43.79362" lon="4.7623">
        <ele>1.1</ele>
        <time>2021-08-14T14:09:31Z</time>
      </trkpt>
      <trkpt lat="43.79322" lon="4.76091">
        <ele>3.6</ele>
        <time>2021-08-14T14:09:51Z</time>
      </trkpt>
      <trkpt lat="43.79268" lon="4.75959">
        <ele>9.8</ele>
        <time>2021-08-14T14:10:11Z</time>
      </trkpt>
      <trkpt lat="43.79202" lon="4.75849">
        <ele>7.5</ele>
        <time>2021-08-14T14:10:31Z</time>
      </trkpt>
      <trkpt lat="43.79145" lon="4.75739">
        <ele>10.4</ele>
        <time>2021-08-14T14:10:56Z</time>
      </trkpt>
      <trkpt lat="43.79087" lon="4.75633">
        <ele>5.3</ele>
        <time>2021-08-14T14:11:16Z</time>
      </trkpt>
      <trkpt lat="43.79021" lon="4.75508">
        <ele>5.2</ele>
        <time>2021-08-14T14:11:41Z</time>
      </trkpt>
      <trkpt lat="43.78957" lon="4.75387">
        <ele>1.4</ele>
        <time>2021-08-14T14:12:06Z</time>
      </trkpt>
      <trkpt lat="43.78884" lon="4.75261">
        <ele>1.4</ele>
        <time>2021-08-14T14:12:26Z</time>
      </trkpt>
      <trkpt lat="43.7882" lon="4.75142">
        <ele>2.4</ele>
        <time>2021-08-14T14:12:46Z</time>
      </trkpt>
      <trkpt lat="43.7877" lon="4.75007">
        <ele>2.8</ele>
        <time>2021-08-14T14:13:06Z</time>
      </trkpt>
      <trkpt lat="43.78745" lon="4.74868">
        <ele>4</ele>
        <time>2021-08-14T14:13:26Z</time>
      </trkpt>
      <trkpt lat="43.78736" lon="4.74718">
        <ele>5.2</ele>
        <time>2021-08-14T14:13:46Z</time>
      </trkpt>
      <trkpt lat="43.78722" lon="4.74575">
        <ele>2.6</ele>
        <time>2021-08-14T14:14:11Z</time>
      </trkpt>
      <trkpt lat="43.78686" lon="4.74435">
        <ele>-2.2</ele>
        <time>2021-08-14T14:14:31Z</time>
      </trkpt>
      <trkpt lat="43.78624" lon="4.74297">
        <ele>-3.7</ele>
        <time>2021-08-14T14:14:51Z</time>
      </trkpt>
      <trkpt lat="43.78565" lon="4.74182">
        <ele>-0.4</ele>
        <time>2021-08-14T14:15:11Z</time>
      </trkpt>
      <trkpt lat="43.78511" lon="4.74057">
        <ele>2.6</ele>
        <time>2021-08-14T14:15:31Z</time>
      </trkpt>
      <trkpt lat="43.78413" lon="4.74002">
        <ele>4.4</ele>
        <time>2021-08-14T14:16:01Z</time>
      </trkpt>
      <trkpt lat="43.78368" lon="4.73888">
        <ele>7.6</ele>
        <time>2021-08-14T14:16:21Z</time>
      </trkpt>
      <trkpt lat="43.78337" lon="4.7376">
        <ele>7.6</ele>
        <time>2021-08-14T14:16:46Z</time>
      </trkpt>
      <trkpt lat="43.78308" lon="4.73634">
        <ele>7.3</ele>
        <time>2021-08-14T14:17:11Z</time>
      </trkpt>
      <trkpt lat="43.78256" lon="4.73522">
        <ele>8.3</ele>
        <time>2021-08-14T14:19:06Z</time>
      </trkpt>
      <trkpt lat="43.78199" lon="4.7342">
        <ele>7.5</ele>
        <time>2021-08-14T14:19:26Z</time>
      </trkpt>
      <trkpt lat="43.78173" lon="4.73278">
        <ele>7</ele>
        <time>2021-08-14T14:19:51Z</time>
      </trkpt>
      <trkpt lat="43.78167" lon="4.73126">
        <ele>9.2</ele>
        <time>2021-08-14T14:20:16Z</time>
      </trkpt>
      <trkpt lat="43.78185" lon="4.72995">
        <ele>11.5</ele>
        <time>2021-08-14T14:20:36Z</time>
      </trkpt>
      <trkpt lat="43.78238" lon="4.72856">
        <ele>12.2</ele>
        <time>2021-08-14T14:20:56Z</time>
      </trkpt>
      <trkpt lat="43.78287" lon="4.72722">
        <ele>10.8</ele>
        <time>2021-08-14T14:21:16Z</time>
      </trkpt>
      <trkpt lat="43.78336" lon="4.72591">
        <ele>7.5</ele>
        <time>2021-08-14T14:21:36Z</time>
      </trkpt>
      <trkpt lat="43.78379" lon="4.72464">
        <ele>8.1</ele>
        <time>2021-08-14T14:21:56Z</time>
      </trkpt>
      <trkpt lat="43.78437" lon="4.72333">
        <ele>8.5</ele>
        <time>2021-08-14T14:22:16Z</time>
      </trkpt>
      <trkpt lat="43.78485" lon="4.72198">
        <ele>9.3</ele>
        <time>2021-08-14T14:22:36Z</time>
      </trkpt>
      <trkpt lat="43.78525" lon="4.72073">
        <ele>10.5</ele>
        <time>2021-08-14T14:22:56Z</time>
      </trkpt>
      <trkpt lat="43.78588" lon="4.71951">
        <ele>11.1</ele>
        <time>2021-08-14T14:23:16Z</time>
      </trkpt>
      <trkpt lat="43.78686" lon="4.71877">
        <ele>11.3</ele>
        <time>2021-08-14T14:23:36Z</time>
      </trkpt>
      <trkpt lat="43.78769" lon="4.71802">
        <ele>9.3</ele>
        <time>2021-08-14T14:23:56Z</time>
      </trkpt>
      <trkpt lat="43.78863" lon="4.71725">
        <ele>6.1</ele>
        <time>2021-08-14T14:24:16Z</time>
      </trkpt>
      <trkpt lat="43.78941" lon="4.7166">
        <ele>5.1</ele>
        <time>2021-08-14T14:24:31Z</time>
      </trkpt>
      <trkpt lat="43.79024" lon="4.71573">
        <ele>6.5</ele>
        <time>2021-08-14T14:24:51Z</time>
      </trkpt>
      <trkpt lat="43.79085" lon="4.71458">
        <ele>4.5</ele>
        <time>2021-08-14T14:25:11Z</time>
      </trkpt>
      <trkpt lat="43.79142" lon="4.71359">
        <ele>5.8</ele>
        <time>2021-08-14T14:26:51Z</time>
      </trkpt>
      <trkpt lat="43.79204" lon="4.71244">
        <ele>5.5</ele>
        <time>2021-08-14T14:27:11Z</time>
      </trkpt>
      <trkpt lat="43.79271" lon="4.71127">
        <ele>2.7</ele>
        <time>2021-08-14T14:27:31Z</time>
      </trkpt>
      <trkpt lat="43.79311" lon="4.70983">
        <ele>-0.3</ele>
        <time>2021-08-14T14:27:51Z</time>
      </trkpt>
      <trkpt lat="43.79331" lon="4.70829">
        <ele>2.3</ele>
        <time>2021-08-14T14:28:11Z</time>
      </trkpt>
      <trkpt lat="43.79368" lon="4.70678">
        <ele>1.4</ele>
        <time>2021-08-14T14:28:31Z</time>
      </trkpt>
      <trkpt lat="43.79433" lon="4.70554">
        <ele>4.2</ele>
        <time>2021-08-14T14:28:51Z</time>
      </trkpt>
      <trkpt lat="43.79501" lon="4.7044">
        <ele>8.9</ele>
        <time>2021-08-14T14:29:11Z</time>
      </trkpt>
      <trkpt lat="43.79548" lon="4.70311">
        <ele>11.2</ele>
        <time>2021-08-14T14:29:31Z</time>
      </trkpt>
      <trkpt lat="43.79565" lon="4.70177">
        <ele>3.7</ele>
        <time>2021-08-14T14:29:51Z</time>
      </trkpt>
      <trkpt lat="43.79567" lon="4.70035">
        <ele>4</ele>
        <time>2021-08-14T14:30:11Z</time>
      </trkpt>
      <trkpt lat="43.79565" lon="4.69894">
        <ele>3.1</ele>
        <time>2021-08-14T14:30:31Z</time>
      </trkpt>
      <trkpt lat="43.79557" lon="4.69766">
        <ele>9.2</ele>
        <time>2021-08-14T14:30:51Z</time>
      </trkpt>
      <trkpt lat="43.79554" lon="4.69618">
        <ele>5.8</ele>
        <time>2021-08-14T14:31:16Z</time>
      </trkpt>
      <trkpt lat="43.79585" lon="4.695">
        <ele>1.1</ele>
        <time>2021-08-14T14:31:50Z</time>
      </trkpt>
      <trkpt lat="43.79612" lon="4.69367">
        <ele>-0.5</ele>
        <time>2021-08-14T14:32:10Z</time>
      </trkpt>
      <trkpt lat="43.79638" lon="4.69222">
        <ele>-0.8</ele>
        <time>2021-08-14T14:32:30Z</time>
      </trkpt>
      <trkpt lat="43.79675" lon="4.69068">
        <ele>4.3</ele>
        <time>2021-08-14T14:32:50Z</time>
      </trkpt>
      <trkpt lat="43.79722" lon="4.68926">
        <ele>6</ele>
        <time>2021-08-14T14:33:10Z</time>
      </trkpt>
      <trkpt lat="43.79763" lon="4.68782">
        <ele>5.2</ele>
        <time>2021-08-14T14:33:30Z</time>
      </trkpt>
      <trkpt lat="43.79794" lon="4.68636">
        <ele>5.8</ele>
        <time>2021-08-14T14:33:50Z</time>
      </trkpt>
      <trkpt lat="43.79819" lon="4.68481">
        <ele>6.5</ele>
        <time>2021-08-14T14:34:10Z</time>
      </trkpt>
      <trkpt lat="43.79838" lon="4.68358">
        <ele>8.2</ele>
        <time>2021-08-14T14:34:25Z</time>
      </trkpt>
      <trkpt lat="43.79857" lon="4.68208">
        <ele>8.1</ele>
        <time>2021-08-14T14:34:45Z</time>
      </trkpt>
      <trkpt lat="43.79883" lon="4.68057">
        <ele>5.1</ele>
        <time>2021-08-14T14:35:05Z</time>
      </trkpt>
      <trkpt lat="43.79934" lon="4.6792">
        <ele>2.4</ele>
        <time>2021-08-14T14:35:25Z</time>
      </trkpt>
      <trkpt lat="43.79993" lon="4.67796">
        <ele>-0.4</ele>
        <time>2021-08-14T14:35:45Z</time>
      </trkpt>
      <trkpt lat="43.80037" lon="4.67659">
        <ele>-1.3</ele>
        <time>2021-08-14T14:36:05Z</time>
      </trkpt>
      <trkpt lat="43.80057" lon="4.67512">
        <ele>1.6</ele>
        <time>2021-08-14T14:36:25Z</time>
      </trkpt>
      <trkpt lat="43.80057" lon="4.67355">
        <ele>1.9</ele>
        <time>2021-08-14T14:36:45Z</time>
      </trkpt>
      <trkpt lat="43.80064" lon="4.67203">
        <ele>4.1</ele>
        <time>2021-08-14T14:37:05Z</time>
      </trkpt>
      <trkpt lat="43.80111" lon="4.67063">
        <ele>3.5</ele>
        <time>2021-08-14T14:37:25Z</time>
      </trkpt>
      <trkpt lat="43.80159" lon="4.66942">
        <ele>1.4</ele>
        <time>2021-08-14T14:37:45Z</time>
      </trkpt>
      <trkpt lat="43.80188" lon="4.66808">
        <ele>-1.1</ele>
        <time>2021-08-14T14:38:05Z</time>
      </trkpt>
      <trkpt lat="43.80204" lon="4.66665">
        <ele>-0.5</ele>
        <time>2021-08-14T14:38:25Z</time>
      </trkpt>
      <trkpt lat="43.80187" lon="4.66522">
        <ele>4.2</ele>
        <time>2021-08-14T14:39:31Z</time>
      </trkpt>
      <trkpt lat="43.8021" lon="4.66396">
        <ele>2.3</ele>
        <time>2021-08-14T14:39:51Z</time>
      </trkpt>
      <trkpt lat="43.80265" lon="4.6629">
        <ele>-2</ele>
        <time>2021-08-14T14:45:26Z</time>
      </trkpt>
      <trkpt lat="43.80293" lon="4.66166">
        <ele>-5.6</ele>
        <time>2021-08-14T14:45:51Z</time>
      </trkpt>
      <trkpt lat="43.80326" lon="4.66032">
        <ele>-6.9</ele>
        <time>2021-08-14T14:46:21Z</time>
      </trkpt>
      <trkpt lat="43.80312" lon="4.65885">
        <ele>-2.7</ele>
        <time>2021-08-14T14:54:21Z</time>
      </trkpt>
      <trkpt lat="43.80292" lon="4.65754">
        <ele>-3.5</ele>
        <time>2021-08-14T14:55:18Z</time>
      </trkpt>
      <trkpt lat="43.80365" lon="4.65659">
        <ele>-2.6</ele>
        <time>2021-08-14T14:55:43Z</time>
      </trkpt>
      <trkpt lat="43.80446" lon="4.65567">
        <ele>-0.1</ele>
        <time>2021-08-14T14:56:26Z</time>
      </trkpt>
      <trkpt lat="43.80534" lon="4.65524">
        <ele>7.6</ele>
        <time>2021-08-14T14:56:51Z</time>
      </trkpt>
      <trkpt lat="43.80628" lon="4.65542">
        <ele>10.4</ele>
        <time>2021-08-14T14:59:36Z</time>
      </trkpt>
      <trkpt lat="43.80717" lon="4.65606">
        <ele>13.1</ele>
        <time>2021-08-14T15:00:19Z</time>
      </trkpt>
      <trkpt lat="43.80822" lon="4.65589">
        <ele>14.9</ele>
        <time>2021-08-14T15:00:44Z</time>
      </trkpt>
      <trkpt lat="43.80715" lon="4.65577">
        <ele>6.6</ele>
        <time>2021-08-14T15:15:04Z</time>
      </trkpt>
      <trkpt lat="43.8067" lon="4.65687">
        <ele>5.8</ele>
        <time>2021-08-14T15:15:39Z</time>
      </trkpt>
      <trkpt lat="43.8065" lon="4.65827">
        <ele>5</ele>
        <time>2021-08-14T15:16:21Z</time>
      </trkpt>
      <trkpt lat="43.80659" lon="4.65962">
        <ele>2.6</ele>
        <time>2021-08-14T15:16:51Z</time>
      </trkpt>
      <trkpt lat="43.80639" lon="4.65826">
        <ele>-0.9</ele>
        <time>2021-08-14T15:17:39Z</time>
      </trkpt>
      <trkpt lat="43.80674" lon="4.65708">
        <ele>-0.3</ele>
        <time>2021-08-14T15:17:59Z</time>
      </trkpt>
      <trkpt lat="43.80697" lon="4.65588">
        <ele>0.9</ele>
        <time>2021-08-14T15:18:19Z</time>
      </trkpt>
      <trkpt lat="43.80611" lon="4.65518">
        <ele>0.7</ele>
        <time>2021-08-14T15:18:49Z</time>
      </trkpt>
      <trkpt lat="43.80524" lon="4.65466">
        <ele>2.4</ele>
        <time>2021-08-14T15:19:24Z</time>
      </trkpt>
      <trkpt lat="43.80472" lon="4.6535">
        <ele>11.6</ele>
        <time>2021-08-14T15:20:04Z</time>
      </trkpt>
      <trkpt lat="43.80473" lon="4.65209">
        <ele>10.9</ele>
        <time>2021-08-14T15:20:34Z</time>
      </trkpt>
      <trkpt lat="43.8047" lon="4.6506">
        <ele>12.9</ele>
        <time>2021-08-14T15:20:59Z</time>
      </trkpt>
      <trkpt lat="43.80473" lon="4.6492">
        <ele>13.4</ele>
        <time>2021-08-14T15:21:19Z</time>
      </trkpt>
      <trkpt lat="43.80489" lon="4.64793">
        <ele>5</ele>
        <time>2021-08-14T15:21:49Z</time>
      </trkpt>
      <trkpt lat="43.80534" lon="4.64686">
        <ele>-4.5</ele>
        <time>2021-08-14T15:22:20Z</time>
      </trkpt>
      <trkpt lat="43.8055" lon="4.64547">
        <ele>-3.1</ele>
        <time>2021-08-14T15:50:05Z</time>
      </trkpt>
      <trkpt lat="43.80574" lon="4.64424">
        <ele>-2</ele>
        <time>2021-08-14T15:50:30Z</time>
      </trkpt>
      <trkpt lat="43.80595" lon="4.64298">
        <ele>-2.7</ele>
        <time>2021-08-14T15:50:55Z</time>
      </trkpt>
      <trkpt lat="43.80608" lon="4.64162">
        <ele>-2.3</ele>
        <time>2021-08-14T15:51:15Z</time>
      </trkpt>
      <trkpt lat="43.80633" lon="4.64011">
        <ele>-2</ele>
        <time>2021-08-14T15:51:40Z</time>
      </trkpt>
      <trkpt lat="43.80654" lon="4.63883">
        <ele>-6.5</ele>
        <time>2021-08-14T15:52:00Z</time>
      </trkpt>
      <trkpt lat="43.80755" lon="4.6384">
        <ele>-8.4</ele>
        <time>2021-08-14T15:52:25Z</time>
      </trkpt>
      <trkpt lat="43.80856" lon="4.63858">
        <ele>-6.2</ele>
        <time>2021-08-14T15:52:55Z</time>
      </trkpt>
      <trkpt lat="43.80947" lon="4.63868">
        <ele>-3.1</ele>
        <time>2021-08-14T15:53:31Z</time>
      </trkpt>
      <trkpt lat="43.81005" lon="4.63758">
        <ele>3.7</ele>
        <time>2021-08-14T15:54:17Z</time>
      </trkpt>
      <trkpt lat="43.8107" lon="4.63659">
        <ele>8</ele>
        <time>2021-08-14T15:54:42Z</time>
      </trkpt>
      <trkpt lat="43.81137" lon="4.63552">
        <ele>12.2</ele>
        <time>2021-08-14T15:55:12Z</time>
      </trkpt>
      <trkpt lat="43.81193" lon="4.63454">
        <ele>14.6</ele>
        <time>2021-08-14T15:55:37Z</time>
      </trkpt>
      <trkpt lat="43.81248" lon="4.63345">
        <ele>19.7</ele>
        <time>2021-08-14T15:56:07Z</time>
      </trkpt>
      <trkpt lat="43.81314" lon="4.63255">
        <ele>22.5</ele>
        <time>2021-08-14T15:56:27Z</time>
      </trkpt>
      <trkpt lat="43.81407" lon="4.6317">
        <ele>21.6</ele>
        <time>2021-08-14T15:56:47Z</time>
      </trkpt>
      <trkpt lat="43.81518" lon="4.6309">
        <ele>16</ele>
        <time>2021-08-14T15:57:02Z</time>
      </trkpt>
      <trkpt lat="43.81636" lon="4.63034">
        <ele>7.4</ele>
        <time>2021-08-14T15:57:17Z</time>
      </trkpt>
      <trkpt lat="43.81725" lon="4.62974">
        <ele>1</ele>
        <time>2021-08-14T15:57:32Z</time>
      </trkpt>
      <trkpt lat="43.81827" lon="4.62946">
        <ele>-3.4</ele>
        <time>2021-08-14T15:57:47Z</time>
      </trkpt>
      <trkpt lat="43.81943" lon="4.62924">
        <ele>-0.5</ele>
        <time>2021-08-14T15:58:02Z</time>
      </trkpt>
      <trkpt lat="43.82044" lon="4.62905">
        <ele>5.9</ele>
        <time>2021-08-14T15:58:22Z</time>
      </trkpt>
      <trkpt lat="43.82126" lon="4.62831">
        <ele>3.5</ele>
        <time>2021-08-14T15:59:18Z</time>
      </trkpt>
      <trkpt lat="43.8222" lon="4.62794">
        <ele>4.4</ele>
        <time>2021-08-14T15:59:38Z</time>
      </trkpt>
      <trkpt lat="43.82319" lon="4.62743">
        <ele>4.5</ele>
        <time>2021-08-14T15:59:58Z</time>
      </trkpt>
      <trkpt lat="43.82407" lon="4.62703">
        <ele>5.2</ele>
        <time>2021-08-14T16:00:13Z</time>
      </trkpt>
      <trkpt lat="43.82494" lon="4.62662">
        <ele>3.7</ele>
        <time>2021-08-14T16:00:28Z</time>
      </trkpt>
      <trkpt lat="43.82588" lon="4.62635">
        <ele>2.2</ele>
        <time>2021-08-14T16:00:48Z</time>
      </trkpt>
      <trkpt lat="43.82557" lon="4.62763">
        <ele>1</ele>
        <time>2021-08-14T16:02:26Z</time>
      </trkpt>
      <trkpt lat="43.82513" lon="4.62882">
        <ele>-1.3</ele>
        <time>2021-08-14T16:03:10Z</time>
      </trkpt>
      <trkpt lat="43.82452" lon="4.62984">
        <ele>-3.1</ele>
        <time>2021-08-14T16:03:40Z</time>
      </trkpt>
      <trkpt lat="43.82413" lon="4.631">
        <ele>-5.7</ele>
        <time>2021-08-14T16:04:16Z</time>
      </trkpt>
      <trkpt lat="43.82377" lon="4.63216">
        <ele>-7.7</ele>
        <time>2021-08-14T16:04:41Z</time>
      </trkpt>
      <trkpt lat="43.82344" lon="4.63344">
        <ele>-11.7</ele>
        <time>2021-08-14T16:05:11Z</time>
      </trkpt>
      <trkpt lat="43.82288" lon="4.63445">
        <ele>-13.7</ele>
        <time>2021-08-14T16:06:27Z</time>
      </trkpt>
      <trkpt lat="43.82225" lon="4.63555">
        <ele>-12.8</ele>
        <time>2021-08-14T16:07:07Z</time>
      </trkpt>
      <trkpt lat="43.82172" lon="4.63656">
        <ele>-15.1</ele>
        <time>2021-08-14T16:07:37Z</time>
      </trkpt>
      <trkpt lat="43.82114" lon="4.63752">
        <ele>-19.1</ele>
        <time>2021-08-14T16:08:07Z</time>
      </trkpt>
    </trkseg>
  </trk>
  <trk>
    <name><![CDATA[Jour03]]></name>
    <trkseg>
      <trkpt lat="43.82155" lon="4.63642">
        <ele>12.1</ele>
        <time>2021-08-15T06:12:44Z</time>
      </trkpt>
      <trkpt lat="43.82222" lon="4.63527">
        <ele>12.1</ele>
        <time>2021-08-15T06:13:09Z</time>
      </trkpt>
      <trkpt lat="43.82277" lon="4.63432">
        <ele>9.9</ele>
        <time>2021-08-15T06:13:34Z</time>
      </trkpt>
      <trkpt lat="43.82326" lon="4.63317">
        <ele>6.3</ele>
        <time>2021-08-15T06:13:59Z</time>
      </trkpt>
      <trkpt lat="43.82358" lon="4.63198">
        <ele>1.3</ele>
        <time>2021-08-15T06:14:24Z</time>
      </trkpt>
      <trkpt lat="43.82395" lon="4.63064">
        <ele>2.5</ele>
        <time>2021-08-15T06:14:54Z</time>
      </trkpt>
      <trkpt lat="43.82454" lon="4.62936">
        <ele>3.1</ele>
        <time>2021-08-15T06:15:24Z</time>
      </trkpt>
      <trkpt lat="43.82504" lon="4.62823">
        <ele>-2.5</ele>
        <time>2021-08-15T06:15:54Z</time>
      </trkpt>
      <trkpt lat="43.82549" lon="4.62713">
        <ele>-1</ele>
        <time>2021-08-15T06:16:19Z</time>
      </trkpt>
      <trkpt lat="43.82625" lon="4.62638">
        <ele>7.6</ele>
        <time>2021-08-15T06:16:44Z</time>
      </trkpt>
      <trkpt lat="43.8263" lon="4.62505">
        <ele>11.7</ele>
        <time>2021-08-15T06:19:02Z</time>
      </trkpt>
      <trkpt lat="43.82675" lon="4.62383">
        <ele>9.5</ele>
        <time>2021-08-15T06:19:55Z</time>
      </trkpt>
      <trkpt lat="43.82713" lon="4.62256">
        <ele>15.7</ele>
        <time>2021-08-15T06:21:58Z</time>
      </trkpt>
      <trkpt lat="43.82764" lon="4.62144">
        <ele>17.3</ele>
        <time>2021-08-15T06:22:18Z</time>
      </trkpt>
      <trkpt lat="43.82856" lon="4.62055">
        <ele>20.6</ele>
        <time>2021-08-15T06:22:43Z</time>
      </trkpt>
      <trkpt lat="43.82934" lon="4.61971">
        <ele>22.1</ele>
        <time>2021-08-15T06:23:03Z</time>
      </trkpt>
      <trkpt lat="43.83011" lon="4.61872">
        <ele>20.7</ele>
        <time>2021-08-15T06:23:28Z</time>
      </trkpt>
      <trkpt lat="43.83083" lon="4.61788">
        <ele>20.1</ele>
        <time>2021-08-15T06:23:53Z</time>
      </trkpt>
      <trkpt lat="43.83169" lon="4.61738">
        <ele>21.4</ele>
        <time>2021-08-15T06:24:13Z</time>
      </trkpt>
      <trkpt lat="43.8327" lon="4.61735">
        <ele>20.4</ele>
        <time>2021-08-15T06:24:33Z</time>
      </trkpt>
      <trkpt lat="43.83377" lon="4.61755">
        <ele>14</ele>
        <time>2021-08-15T06:24:53Z</time>
      </trkpt>
      <trkpt lat="43.83478" lon="4.6178">
        <ele>18.6</ele>
        <time>2021-08-15T06:25:13Z</time>
      </trkpt>
      <trkpt lat="43.83574" lon="4.61797">
        <ele>19.6</ele>
        <time>2021-08-15T06:25:33Z</time>
      </trkpt>
      <trkpt lat="43.83679" lon="4.61873">
        <ele>14.4</ele>
        <time>2021-08-15T06:25:53Z</time>
      </trkpt>
      <trkpt lat="43.83778" lon="4.61942">
        <ele>14.8</ele>
        <time>2021-08-15T06:26:13Z</time>
      </trkpt>
      <trkpt lat="43.83876" lon="4.61954">
        <ele>17</ele>
        <time>2021-08-15T06:26:33Z</time>
      </trkpt>
      <trkpt lat="43.83964" lon="4.61915">
        <ele>14.8</ele>
        <time>2021-08-15T06:27:13Z</time>
      </trkpt>
      <trkpt lat="43.84243" lon="4.61612">
        <ele>19.6</ele>
        <time>2021-08-15T06:28:21Z</time>
      </trkpt>
      <trkpt lat="43.84268" lon="4.61489">
        <ele>16.1</ele>
        <time>2021-08-15T06:28:36Z</time>
      </trkpt>
      <trkpt lat="43.84311" lon="4.61372">
        <ele>14.5</ele>
        <time>2021-08-15T06:28:51Z</time>
      </trkpt>
      <trkpt lat="43.84351" lon="4.61259">
        <ele>13.3</ele>
        <time>2021-08-15T06:29:06Z</time>
      </trkpt>
      <trkpt lat="43.84395" lon="4.61148">
        <ele>11.4</ele>
        <time>2021-08-15T06:29:21Z</time>
      </trkpt>
      <trkpt lat="43.8443" lon="4.61027">
        <ele>10.2</ele>
        <time>2021-08-15T06:29:36Z</time>
      </trkpt>
      <trkpt lat="43.84464" lon="4.60872">
        <ele>9.2</ele>
        <time>2021-08-15T06:29:56Z</time>
      </trkpt>
      <trkpt lat="43.84512" lon="4.6077">
        <ele>5.9</ele>
        <time>2021-08-15T06:30:11Z</time>
      </trkpt>
      <trkpt lat="43.84583" lon="4.60696">
        <ele>10.6</ele>
        <time>2021-08-15T06:30:31Z</time>
      </trkpt>
      <trkpt lat="43.84673" lon="4.60617">
        <ele>9.9</ele>
        <time>2021-08-15T06:30:56Z</time>
      </trkpt>
      <trkpt lat="43.84748" lon="4.60547">
        <ele>10.7</ele>
        <time>2021-08-15T06:31:11Z</time>
      </trkpt>
      <trkpt lat="43.84832" lon="4.60446">
        <ele>14.3</ele>
        <time>2021-08-15T06:31:31Z</time>
      </trkpt>
      <trkpt lat="43.84886" lon="4.60324">
        <ele>13.6</ele>
        <time>2021-08-15T06:31:51Z</time>
      </trkpt>
      <trkpt lat="43.84908" lon="4.60196">
        <ele>13.5</ele>
        <time>2021-08-15T06:32:11Z</time>
      </trkpt>
      <trkpt lat="43.84923" lon="4.60044">
        <ele>14.3</ele>
        <time>2021-08-15T06:32:31Z</time>
      </trkpt>
      <trkpt lat="43.84947" lon="4.59909">
        <ele>18.1</ele>
        <time>2021-08-15T06:32:46Z</time>
      </trkpt>
      <trkpt lat="43.84962" lon="4.59772">
        <ele>13.7</ele>
        <time>2021-08-15T06:34:50Z</time>
      </trkpt>
      <trkpt lat="43.84998" lon="4.5962">
        <ele>12.2</ele>
        <time>2021-08-15T06:35:10Z</time>
      </trkpt>
      <trkpt lat="43.85042" lon="4.59514">
        <ele>12.2</ele>
        <time>2021-08-15T06:35:25Z</time>
      </trkpt>
      <trkpt lat="43.85112" lon="4.59393">
        <ele>13.2</ele>
        <time>2021-08-15T06:35:45Z</time>
      </trkpt>
      <trkpt lat="43.85195" lon="4.59296">
        <ele>15.9</ele>
        <time>2021-08-15T06:36:10Z</time>
      </trkpt>
      <trkpt lat="43.85269" lon="4.5923">
        <ele>16.1</ele>
        <time>2021-08-15T06:36:25Z</time>
      </trkpt>
      <trkpt lat="43.85352" lon="4.59161">
        <ele>18.2</ele>
        <time>2021-08-15T06:36:40Z</time>
      </trkpt>
      <trkpt lat="43.85433" lon="4.59078">
        <ele>17.7</ele>
        <time>2021-08-15T06:37:00Z</time>
      </trkpt>
      <trkpt lat="43.85515" lon="4.59003">
        <ele>16.9</ele>
        <time>2021-08-15T06:37:15Z</time>
      </trkpt>
      <trkpt lat="43.85606" lon="4.58909">
        <ele>18.9</ele>
        <time>2021-08-15T06:37:35Z</time>
      </trkpt>
      <trkpt lat="43.857" lon="4.58826">
        <ele>19.9</ele>
        <time>2021-08-15T06:37:55Z</time>
      </trkpt>
      <trkpt lat="43.85784" lon="4.58748">
        <ele>19.7</ele>
        <time>2021-08-15T06:38:15Z</time>
      </trkpt>
      <trkpt lat="43.85884" lon="4.58751">
        <ele>17.5</ele>
        <time>2021-08-15T06:38:35Z</time>
      </trkpt>
      <trkpt lat="43.85904" lon="4.58629">
        <ele>16</ele>
        <time>2021-08-15T06:39:00Z</time>
      </trkpt>
      <trkpt lat="43.85984" lon="4.58555">
        <ele>17.8</ele>
        <time>2021-08-15T06:39:20Z</time>
      </trkpt>
      <trkpt lat="43.86066" lon="4.58477">
        <ele>18.3</ele>
        <time>2021-08-15T06:39:40Z</time>
      </trkpt>
      <trkpt lat="43.86157" lon="4.58393">
        <ele>18.8</ele>
        <time>2021-08-15T06:40:00Z</time>
      </trkpt>
      <trkpt lat="43.86239" lon="4.58311">
        <ele>18.1</ele>
        <time>2021-08-15T06:40:20Z</time>
      </trkpt>
      <trkpt lat="43.86311" lon="4.58241">
        <ele>17</ele>
        <time>2021-08-15T06:40:40Z</time>
      </trkpt>
      <trkpt lat="43.86399" lon="4.58157">
        <ele>22.1</ele>
        <time>2021-08-15T06:41:00Z</time>
      </trkpt>
      <trkpt lat="43.86484" lon="4.5809">
        <ele>23.9</ele>
        <time>2021-08-15T06:42:13Z</time>
      </trkpt>
      <trkpt lat="43.86567" lon="4.57999">
        <ele>23.6</ele>
        <time>2021-08-15T06:42:38Z</time>
      </trkpt>
      <trkpt lat="43.86661" lon="4.57914">
        <ele>26.3</ele>
        <time>2021-08-15T06:42:58Z</time>
      </trkpt>
      <trkpt lat="43.86749" lon="4.57827">
        <ele>24.4</ele>
        <time>2021-08-15T06:43:18Z</time>
      </trkpt>
      <trkpt lat="43.86824" lon="4.57759">
        <ele>22.4</ele>
        <time>2021-08-15T06:43:33Z</time>
      </trkpt>
      <trkpt lat="43.86918" lon="4.57697">
        <ele>22.3</ele>
        <time>2021-08-15T06:43:53Z</time>
      </trkpt>
      <trkpt lat="43.87012" lon="4.57664">
        <ele>18.8</ele>
        <time>2021-08-15T06:44:08Z</time>
      </trkpt>
      <trkpt lat="43.87106" lon="4.57649">
        <ele>17.5</ele>
        <time>2021-08-15T06:44:23Z</time>
      </trkpt>
      <trkpt lat="43.872" lon="4.57626">
        <ele>18</ele>
        <time>2021-08-15T06:44:38Z</time>
      </trkpt>
      <trkpt lat="43.87313" lon="4.57613">
        <ele>25.4</ele>
        <time>2021-08-15T06:44:58Z</time>
      </trkpt>
      <trkpt lat="43.87427" lon="4.57598">
        <ele>22.8</ele>
        <time>2021-08-15T06:45:23Z</time>
      </trkpt>
      <trkpt lat="43.87545" lon="4.57577">
        <ele>20.7</ele>
        <time>2021-08-15T06:45:43Z</time>
      </trkpt>
      <trkpt lat="43.8766" lon="4.57539">
        <ele>21.2</ele>
        <time>2021-08-15T06:46:03Z</time>
      </trkpt>
      <trkpt lat="43.87765" lon="4.57498">
        <ele>23.4</ele>
        <time>2021-08-15T06:46:23Z</time>
      </trkpt>
      <trkpt lat="43.87868" lon="4.57435">
        <ele>23.3</ele>
        <time>2021-08-15T06:46:43Z</time>
      </trkpt>
      <trkpt lat="43.87963" lon="4.57359">
        <ele>23.5</ele>
        <time>2021-08-15T06:47:03Z</time>
      </trkpt>
      <trkpt lat="43.88051" lon="4.57295">
        <ele>24.7</ele>
        <time>2021-08-15T06:47:23Z</time>
      </trkpt>
      <trkpt lat="43.88141" lon="4.57214">
        <ele>25.1</ele>
        <time>2021-08-15T06:47:43Z</time>
      </trkpt>
      <trkpt lat="43.8824" lon="4.57132">
        <ele>26.1</ele>
        <time>2021-08-15T06:48:03Z</time>
      </trkpt>
      <trkpt lat="43.88335" lon="4.57051">
        <ele>26.1</ele>
        <time>2021-08-15T06:48:23Z</time>
      </trkpt>
      <trkpt lat="43.88418" lon="4.56982">
        <ele>20.7</ele>
        <time>2021-08-15T06:48:43Z</time>
      </trkpt>
      <trkpt lat="43.88505" lon="4.56899">
        <ele>17.4</ele>
        <time>2021-08-15T06:49:03Z</time>
      </trkpt>
      <trkpt lat="43.88593" lon="4.56833">
        <ele>16.4</ele>
        <time>2021-08-15T06:49:18Z</time>
      </trkpt>
      <trkpt lat="43.88688" lon="4.56745">
        <ele>17.9</ele>
        <time>2021-08-15T06:49:38Z</time>
      </trkpt>
      <trkpt lat="43.88785" lon="4.56664">
        <ele>20</ele>
        <time>2021-08-15T06:49:58Z</time>
      </trkpt>
      <trkpt lat="43.88869" lon="4.5659">
        <ele>22.4</ele>
        <time>2021-08-15T06:50:18Z</time>
      </trkpt>
      <trkpt lat="43.88961" lon="4.56506">
        <ele>21.8</ele>
        <time>2021-08-15T06:50:38Z</time>
      </trkpt>
      <trkpt lat="43.89059" lon="4.56437">
        <ele>22.5</ele>
        <time>2021-08-15T06:50:58Z</time>
      </trkpt>
      <trkpt lat="43.89154" lon="4.5639">
        <ele>24.2</ele>
        <time>2021-08-15T06:51:18Z</time>
      </trkpt>
      <trkpt lat="43.89256" lon="4.56357">
        <ele>23.8</ele>
        <time>2021-08-15T06:51:38Z</time>
      </trkpt>
      <trkpt lat="43.89369" lon="4.56329">
        <ele>22.1</ele>
        <time>2021-08-15T06:51:58Z</time>
      </trkpt>
      <trkpt lat="43.89463" lon="4.56308">
        <ele>22</ele>
        <time>2021-08-15T06:52:13Z</time>
      </trkpt>
      <trkpt lat="43.89577" lon="4.56283">
        <ele>25.1</ele>
        <time>2021-08-15T06:52:33Z</time>
      </trkpt>
      <trkpt lat="43.89677" lon="4.56251">
        <ele>27</ele>
        <time>2021-08-15T06:52:53Z</time>
      </trkpt>
      <trkpt lat="43.89785" lon="4.56232">
        <ele>31</ele>
        <time>2021-08-15T06:53:13Z</time>
      </trkpt>
      <trkpt lat="43.89872" lon="4.56209">
        <ele>31.1</ele>
        <time>2021-08-15T06:53:28Z</time>
      </trkpt>
      <trkpt lat="43.89987" lon="4.56185">
        <ele>25.2</ele>
        <time>2021-08-15T06:53:48Z</time>
      </trkpt>
      <trkpt lat="43.90095" lon="4.56156">
        <ele>26.9</ele>
        <time>2021-08-15T06:54:08Z</time>
      </trkpt>
      <trkpt lat="43.90199" lon="4.56132">
        <ele>28.1</ele>
        <time>2021-08-15T06:54:28Z</time>
      </trkpt>
      <trkpt lat="43.90306" lon="4.56108">
        <ele>27.2</ele>
        <time>2021-08-15T06:54:48Z</time>
      </trkpt>
      <trkpt lat="43.90418" lon="4.56082">
        <ele>28.1</ele>
        <time>2021-08-15T06:55:08Z</time>
      </trkpt>
      <trkpt lat="43.90526" lon="4.56056">
        <ele>28.4</ele>
        <time>2021-08-15T06:55:28Z</time>
      </trkpt>
      <trkpt lat="43.90617" lon="4.56034">
        <ele>32.6</ele>
        <time>2021-08-15T06:55:48Z</time>
      </trkpt>
      <trkpt lat="43.90715" lon="4.56011">
        <ele>33.9</ele>
        <time>2021-08-15T06:56:08Z</time>
      </trkpt>
      <trkpt lat="43.90816" lon="4.55991">
        <ele>33.7</ele>
        <time>2021-08-15T06:56:23Z</time>
      </trkpt>
      <trkpt lat="43.90916" lon="4.55965">
        <ele>29.9</ele>
        <time>2021-08-15T06:56:38Z</time>
      </trkpt>
      <trkpt lat="43.91008" lon="4.5594">
        <ele>28.3</ele>
        <time>2021-08-15T06:56:53Z</time>
      </trkpt>
      <trkpt lat="43.91101" lon="4.55918">
        <ele>27.4</ele>
        <time>2021-08-15T06:57:08Z</time>
      </trkpt>
      <trkpt lat="43.91217" lon="4.55893">
        <ele>28.3</ele>
        <time>2021-08-15T06:57:28Z</time>
      </trkpt>
      <trkpt lat="43.91315" lon="4.55887">
        <ele>28.9</ele>
        <time>2021-08-15T06:57:48Z</time>
      </trkpt>
      <trkpt lat="43.91422" lon="4.55883">
        <ele>33.6</ele>
        <time>2021-08-15T06:58:08Z</time>
      </trkpt>
      <trkpt lat="43.91539" lon="4.55887">
        <ele>31.9</ele>
        <time>2021-08-15T06:58:28Z</time>
      </trkpt>
      <trkpt lat="43.91631" lon="4.55889">
        <ele>29.8</ele>
        <time>2021-08-15T06:58:43Z</time>
      </trkpt>
      <trkpt lat="43.91721" lon="4.55889">
        <ele>28.4</ele>
        <time>2021-08-15T06:58:58Z</time>
      </trkpt>
      <trkpt lat="43.91826" lon="4.55889">
        <ele>29.5</ele>
        <time>2021-08-15T06:59:18Z</time>
      </trkpt>
      <trkpt lat="43.91944" lon="4.5589">
        <ele>28.4</ele>
        <time>2021-08-15T06:59:38Z</time>
      </trkpt>
      <trkpt lat="43.92059" lon="4.55892">
        <ele>29.4</ele>
        <time>2021-08-15T06:59:58Z</time>
      </trkpt>
      <trkpt lat="43.92169" lon="4.55892">
        <ele>26.8</ele>
        <time>2021-08-15T07:00:18Z</time>
      </trkpt>
      <trkpt lat="43.92277" lon="4.55893">
        <ele>33</ele>
        <time>2021-08-15T07:00:38Z</time>
      </trkpt>
      <trkpt lat="43.92371" lon="4.55894">
        <ele>34.8</ele>
        <time>2021-08-15T07:00:58Z</time>
      </trkpt>
      <trkpt lat="43.92485" lon="4.55898">
        <ele>33.1</ele>
        <time>2021-08-15T07:01:18Z</time>
      </trkpt>
      <trkpt lat="43.92598" lon="4.55898">
        <ele>40.9</ele>
        <time>2021-08-15T07:01:38Z</time>
      </trkpt>
      <trkpt lat="43.9271" lon="4.55893">
        <ele>40.8</ele>
        <time>2021-08-15T07:01:58Z</time>
      </trkpt>
      <trkpt lat="43.92821" lon="4.559">
        <ele>43.9</ele>
        <time>2021-08-15T07:02:18Z</time>
      </trkpt>
      <trkpt lat="43.92921" lon="4.55898">
        <ele>45.7</ele>
        <time>2021-08-15T07:02:33Z</time>
      </trkpt>
      <trkpt lat="43.93015" lon="4.55905">
        <ele>35.5</ele>
        <time>2021-08-15T07:02:48Z</time>
      </trkpt>
      <trkpt lat="43.9312" lon="4.55948">
        <ele>34.4</ele>
        <time>2021-08-15T07:03:08Z</time>
      </trkpt>
      <trkpt lat="43.93217" lon="4.55977">
        <ele>31.6</ele>
        <time>2021-08-15T07:03:33Z</time>
      </trkpt>
      <trkpt lat="43.93306" lon="4.55945">
        <ele>29.6</ele>
        <time>2021-08-15T07:04:05Z</time>
      </trkpt>
      <trkpt lat="43.93384" lon="4.55852">
        <ele>26.8</ele>
        <time>2021-08-15T07:04:30Z</time>
      </trkpt>
      <trkpt lat="43.93424" lon="4.5574">
        <ele>25.6</ele>
        <time>2021-08-15T07:04:50Z</time>
      </trkpt>
      <trkpt lat="43.9352" lon="4.55712">
        <ele>29.7</ele>
        <time>2021-08-15T07:05:50Z</time>
      </trkpt>
      <trkpt lat="43.93609" lon="4.55673">
        <ele>29.8</ele>
        <time>2021-08-15T07:06:10Z</time>
      </trkpt>
      <trkpt lat="43.93699" lon="4.55612">
        <ele>31.6</ele>
        <time>2021-08-15T07:06:35Z</time>
      </trkpt>
      <trkpt lat="43.93768" lon="4.5552">
        <ele>31.8</ele>
        <time>2021-08-15T07:07:00Z</time>
      </trkpt>
      <trkpt lat="43.93689" lon="4.55585">
        <ele>27.8</ele>
        <time>2021-08-15T07:14:45Z</time>
      </trkpt>
      <trkpt lat="43.93754" lon="4.55716">
        <ele>33.4</ele>
        <time>2021-08-15T07:15:15Z</time>
      </trkpt>
      <trkpt lat="43.93816" lon="4.55831">
        <ele>34.6</ele>
        <time>2021-08-15T07:15:35Z</time>
      </trkpt>
      <trkpt lat="43.93869" lon="4.55939">
        <ele>37.4</ele>
        <time>2021-08-15T07:15:55Z</time>
      </trkpt>
      <trkpt lat="43.9382" lon="4.55828">
        <ele>37.5</ele>
        <time>2021-08-15T07:32:21Z</time>
      </trkpt>
      <trkpt lat="43.93763" lon="4.55723">
        <ele>40.7</ele>
        <time>2021-08-15T07:32:53Z</time>
      </trkpt>
      <trkpt lat="43.93714" lon="4.55604">
        <ele>43</ele>
        <time>2021-08-15T07:33:18Z</time>
      </trkpt>
      <trkpt lat="43.93779" lon="4.5551">
        <ele>42.3</ele>
        <time>2021-08-15T07:33:38Z</time>
      </trkpt>
      <trkpt lat="43.93874" lon="4.55434">
        <ele>39.1</ele>
        <time>2021-08-15T07:34:03Z</time>
      </trkpt>
      <trkpt lat="43.93966" lon="4.55365">
        <ele>33</ele>
        <time>2021-08-15T07:34:28Z</time>
      </trkpt>
      <trkpt lat="43.94049" lon="4.55292">
        <ele>28.3</ele>
        <time>2021-08-15T07:34:48Z</time>
      </trkpt>
      <trkpt lat="43.94137" lon="4.55227">
        <ele>24.7</ele>
        <time>2021-08-15T07:35:08Z</time>
      </trkpt>
      <trkpt lat="43.94216" lon="4.55169">
        <ele>21.4</ele>
        <time>2021-08-15T07:35:28Z</time>
      </trkpt>
      <trkpt lat="43.94298" lon="4.55111">
        <ele>19.8</ele>
        <time>2021-08-15T07:35:48Z</time>
      </trkpt>
      <trkpt lat="43.94389" lon="4.55034">
        <ele>18.6</ele>
        <time>2021-08-15T07:36:18Z</time>
      </trkpt>
      <trkpt lat="43.94465" lon="4.5497">
        <ele>27.2</ele>
        <time>2021-08-15T07:36:38Z</time>
      </trkpt>
      <trkpt lat="43.94546" lon="4.54894">
        <ele>32.4</ele>
        <time>2021-08-15T07:36:58Z</time>
      </trkpt>
      <trkpt lat="43.94629" lon="4.54818">
        <ele>33.3</ele>
        <time>2021-08-15T07:37:18Z</time>
      </trkpt>
      <trkpt lat="43.94713" lon="4.54715">
        <ele>33.4</ele>
        <time>2021-08-15T07:37:43Z</time>
      </trkpt>
      <trkpt lat="43.94773" lon="4.5462">
        <ele>34.3</ele>
        <time>2021-08-15T07:37:58Z</time>
      </trkpt>
      <trkpt lat="43.94841" lon="4.54505">
        <ele>32.3</ele>
        <time>2021-08-15T07:38:23Z</time>
      </trkpt>
      <trkpt lat="43.94892" lon="4.54399">
        <ele>29.5</ele>
        <time>2021-08-15T07:38:48Z</time>
      </trkpt>
      <trkpt lat="43.94981" lon="4.54343">
        <ele>30.1</ele>
        <time>2021-08-15T07:39:33Z</time>
      </trkpt>
      <trkpt lat="43.95077" lon="4.54283">
        <ele>31.1</ele>
        <time>2021-08-15T07:39:58Z</time>
      </trkpt>
      <trkpt lat="43.95056" lon="4.54144">
        <ele>34.7</ele>
        <time>2021-08-15T07:40:28Z</time>
      </trkpt>
      <trkpt lat="43.94986" lon="4.54039">
        <ele>36.2</ele>
        <time>2021-08-15T07:41:04Z</time>
      </trkpt>
      <trkpt lat="43.949" lon="4.53983">
        <ele>33.4</ele>
        <time>2021-08-15T07:41:39Z</time>
      </trkpt>
      <trkpt lat="43.94856" lon="4.53856">
        <ele>37.2</ele>
        <time>2021-08-15T07:42:14Z</time>
      </trkpt>
      <trkpt lat="43.94777" lon="4.53765">
        <ele>35.4</ele>
        <time>2021-08-15T07:45:00Z</time>
      </trkpt>
      <trkpt lat="43.94705" lon="4.53669">
        <ele>36.8</ele>
        <time>2021-08-15T07:45:35Z</time>
      </trkpt>
      <trkpt lat="43.94726" lon="4.53541">
        <ele>39.9</ele>
        <time>2021-08-15T07:47:20Z</time>
      </trkpt>
      <trkpt lat="43.94816" lon="4.53496">
        <ele>45.1</ele>
        <time>2021-08-15T07:47:55Z</time>
      </trkpt>
      <trkpt lat="43.94905" lon="4.53556">
        <ele>46.6</ele>
        <time>2021-08-15T07:48:25Z</time>
      </trkpt>
      <trkpt lat="43.95009" lon="4.53556">
        <ele>52.9</ele>
        <time>2021-08-15T07:50:29Z</time>
      </trkpt>
      <trkpt lat="43.95104" lon="4.53562">
        <ele>50.9</ele>
        <time>2021-08-15T07:50:59Z</time>
      </trkpt>
      <trkpt lat="43.95192" lon="4.53506">
        <ele>47.9</ele>
        <time>2021-08-15T07:51:56Z</time>
      </trkpt>
      <trkpt lat="43.95268" lon="4.53442">
        <ele>47.9</ele>
        <time>2021-08-15T07:52:52Z</time>
      </trkpt>
      <trkpt lat="43.95363" lon="4.53436">
        <ele>44</ele>
        <time>2021-08-15T07:53:22Z</time>
      </trkpt>
      <trkpt lat="43.95428" lon="4.53534">
        <ele>46.6</ele>
        <time>2021-08-15T07:54:52Z</time>
      </trkpt>
      <trkpt lat="43.95342" lon="4.53575">
        <ele>50</ele>
        <time>2021-08-15T07:55:32Z</time>
      </trkpt>
      <trkpt lat="43.95247" lon="4.53625">
        <ele>53</ele>
        <time>2021-08-15T07:56:02Z</time>
      </trkpt>
      <trkpt lat="43.95309" lon="4.53761">
        <ele>48.1</ele>
        <time>2021-08-15T07:56:42Z</time>
      </trkpt>
      <trkpt lat="43.95407" lon="4.53861">
        <ele>45.9</ele>
        <time>2021-08-15T07:57:02Z</time>
      </trkpt>
      <trkpt lat="43.95487" lon="4.53954">
        <ele>42.4</ele>
        <time>2021-08-15T07:57:27Z</time>
      </trkpt>
      <trkpt lat="43.95494" lon="4.53829">
        <ele>42.7</ele>
        <time>2021-08-15T07:57:52Z</time>
      </trkpt>
      <trkpt lat="43.95485" lon="4.53683">
        <ele>46.1</ele>
        <time>2021-08-15T07:58:17Z</time>
      </trkpt>
      <trkpt lat="43.95493" lon="4.53545">
        <ele>50.9</ele>
        <time>2021-08-15T07:58:42Z</time>
      </trkpt>
      <trkpt lat="43.95543" lon="4.53418">
        <ele>56.4</ele>
        <time>2021-08-15T07:59:07Z</time>
      </trkpt>
      <trkpt lat="43.95593" lon="4.533">
        <ele>57.7</ele>
        <time>2021-08-15T07:59:32Z</time>
      </trkpt>
      <trkpt lat="43.9564" lon="4.53177">
        <ele>55.7</ele>
        <time>2021-08-15T08:00:02Z</time>
      </trkpt>
      <trkpt lat="43.95714" lon="4.53079">
        <ele>55.6</ele>
        <time>2021-08-15T08:00:55Z</time>
      </trkpt>
      <trkpt lat="43.95789" lon="4.53004">
        <ele>52.5</ele>
        <time>2021-08-15T08:01:15Z</time>
      </trkpt>
      <trkpt lat="43.95893" lon="4.52969">
        <ele>45.7</ele>
        <time>2021-08-15T08:02:00Z</time>
      </trkpt>
      <trkpt lat="43.96001" lon="4.52928">
        <ele>44.9</ele>
        <time>2021-08-15T08:02:20Z</time>
      </trkpt>
      <trkpt lat="43.96112" lon="4.52869">
        <ele>44</ele>
        <time>2021-08-15T08:02:40Z</time>
      </trkpt>
      <trkpt lat="43.96204" lon="4.52766">
        <ele>43.1</ele>
        <time>2021-08-15T08:03:00Z</time>
      </trkpt>
      <trkpt lat="43.96257" lon="4.5266">
        <ele>43.6</ele>
        <time>2021-08-15T08:03:15Z</time>
      </trkpt>
      <trkpt lat="43.96307" lon="4.52538">
        <ele>43.8</ele>
        <time>2021-08-15T08:03:35Z</time>
      </trkpt>
      <trkpt lat="43.9636" lon="4.52416">
        <ele>42.8</ele>
        <time>2021-08-15T08:03:55Z</time>
      </trkpt>
      <trkpt lat="43.96406" lon="4.52297">
        <ele>41.5</ele>
        <time>2021-08-15T08:04:15Z</time>
      </trkpt>
      <trkpt lat="43.96456" lon="4.52189">
        <ele>42.9</ele>
        <time>2021-08-15T08:04:40Z</time>
      </trkpt>
      <trkpt lat="43.96506" lon="4.52066">
        <ele>47.6</ele>
        <time>2021-08-15T08:05:05Z</time>
      </trkpt>
      <trkpt lat="43.96553" lon="4.51953">
        <ele>48.3</ele>
        <time>2021-08-15T08:05:25Z</time>
      </trkpt>
      <trkpt lat="43.96593" lon="4.51829">
        <ele>52.5</ele>
        <time>2021-08-15T08:05:45Z</time>
      </trkpt>
      <trkpt lat="43.96624" lon="4.51702">
        <ele>54.4</ele>
        <time>2021-08-15T08:06:05Z</time>
      </trkpt>
      <trkpt lat="43.96642" lon="4.51569">
        <ele>61</ele>
        <time>2021-08-15T08:06:25Z</time>
      </trkpt>
      <trkpt lat="43.96652" lon="4.51443">
        <ele>71.5</ele>
        <time>2021-08-15T08:06:45Z</time>
      </trkpt>
      <trkpt lat="43.96654" lon="4.51311">
        <ele>80.7</ele>
        <time>2021-08-15T08:07:05Z</time>
      </trkpt>
      <trkpt lat="43.96641" lon="4.51168">
        <ele>82</ele>
        <time>2021-08-15T08:07:25Z</time>
      </trkpt>
      <trkpt lat="43.96614" lon="4.51012">
        <ele>72.9</ele>
        <time>2021-08-15T08:07:45Z</time>
      </trkpt>
      <trkpt lat="43.96594" lon="4.50871">
        <ele>70.9</ele>
        <time>2021-08-15T08:08:05Z</time>
      </trkpt>
      <trkpt lat="43.96593" lon="4.50734">
        <ele>66.8</ele>
        <time>2021-08-15T08:08:30Z</time>
      </trkpt>
      <trkpt lat="43.96609" lon="4.50603">
        <ele>64.2</ele>
        <time>2021-08-15T08:08:50Z</time>
      </trkpt>
      <trkpt lat="43.96643" lon="4.50474">
        <ele>60</ele>
        <time>2021-08-15T08:09:10Z</time>
      </trkpt>
      <trkpt lat="43.96689" lon="4.50354">
        <ele>57.1</ele>
        <time>2021-08-15T08:09:30Z</time>
      </trkpt>
      <trkpt lat="43.96754" lon="4.50248">
        <ele>54.1</ele>
        <time>2021-08-15T08:09:50Z</time>
      </trkpt>
      <trkpt lat="43.96824" lon="4.5012">
        <ele>55.1</ele>
        <time>2021-08-15T08:10:10Z</time>
      </trkpt>
      <trkpt lat="43.96878" lon="4.50012">
        <ele>56.8</ele>
        <time>2021-08-15T08:10:25Z</time>
      </trkpt>
      <trkpt lat="43.96935" lon="4.49916">
        <ele>58.4</ele>
        <time>2021-08-15T08:10:40Z</time>
      </trkpt>
      <trkpt lat="43.96999" lon="4.49816">
        <ele>58.6</ele>
        <time>2021-08-15T08:10:55Z</time>
      </trkpt>
      <trkpt lat="43.97052" lon="4.49715">
        <ele>59.9</ele>
        <time>2021-08-15T08:11:10Z</time>
      </trkpt>
      <trkpt lat="43.97107" lon="4.49615">
        <ele>61.2</ele>
        <time>2021-08-15T08:11:30Z</time>
      </trkpt>
      <trkpt lat="43.97162" lon="4.49515">
        <ele>58.9</ele>
        <time>2021-08-15T08:11:45Z</time>
      </trkpt>
      <trkpt lat="43.97217" lon="4.49418">
        <ele>56.5</ele>
        <time>2021-08-15T08:12:00Z</time>
      </trkpt>
      <trkpt lat="43.97276" lon="4.49313">
        <ele>54.5</ele>
        <time>2021-08-15T08:12:15Z</time>
      </trkpt>
      <trkpt lat="43.97327" lon="4.49207">
        <ele>50.6</ele>
        <time>2021-08-15T08:12:30Z</time>
      </trkpt>
      <trkpt lat="43.97368" lon="4.49076">
        <ele>54.4</ele>
        <time>2021-08-15T08:12:45Z</time>
      </trkpt>
      <trkpt lat="43.97404" lon="4.48953">
        <ele>51.1</ele>
        <time>2021-08-15T08:13:00Z</time>
      </trkpt>
      <trkpt lat="43.97439" lon="4.4884">
        <ele>50.4</ele>
        <time>2021-08-15T08:13:15Z</time>
      </trkpt>
      <trkpt lat="43.97482" lon="4.48699">
        <ele>48.8</ele>
        <time>2021-08-15T08:13:35Z</time>
      </trkpt>
      <trkpt lat="43.97525" lon="4.48561">
        <ele>50</ele>
        <time>2021-08-15T08:13:55Z</time>
      </trkpt>
      <trkpt lat="43.97566" lon="4.48426">
        <ele>53.4</ele>
        <time>2021-08-15T08:14:15Z</time>
      </trkpt>
      <trkpt lat="43.97611" lon="4.48286">
        <ele>53.6</ele>
        <time>2021-08-15T08:14:35Z</time>
      </trkpt>
      <trkpt lat="43.97651" lon="4.48149">
        <ele>53.2</ele>
        <time>2021-08-15T08:14:55Z</time>
      </trkpt>
      <trkpt lat="43.97679" lon="4.48018">
        <ele>53.2</ele>
        <time>2021-08-15T08:15:15Z</time>
      </trkpt>
      <trkpt lat="43.97702" lon="4.47881">
        <ele>54.3</ele>
        <time>2021-08-15T08:15:35Z</time>
      </trkpt>
      <trkpt lat="43.97723" lon="4.4776">
        <ele>53.7</ele>
        <time>2021-08-15T08:16:04Z</time>
      </trkpt>
      <trkpt lat="43.97749" lon="4.47619">
        <ele>53.7</ele>
        <time>2021-08-15T08:16:24Z</time>
      </trkpt>
      <trkpt lat="43.97792" lon="4.47473">
        <ele>52.5</ele>
        <time>2021-08-15T08:16:44Z</time>
      </trkpt>
      <trkpt lat="43.9783" lon="4.47362">
        <ele>54.7</ele>
        <time>2021-08-15T08:16:59Z</time>
      </trkpt>
      <trkpt lat="43.9787" lon="4.47243">
        <ele>53.6</ele>
        <time>2021-08-15T08:17:14Z</time>
      </trkpt>
      <trkpt lat="43.97911" lon="4.4712">
        <ele>55.5</ele>
        <time>2021-08-15T08:17:29Z</time>
      </trkpt>
      <trkpt lat="43.97953" lon="4.47003">
        <ele>54.4</ele>
        <time>2021-08-15T08:17:44Z</time>
      </trkpt>
      <trkpt lat="43.97992" lon="4.46889">
        <ele>53.4</ele>
        <time>2021-08-15T08:17:59Z</time>
      </trkpt>
      <trkpt lat="43.9803" lon="4.46777">
        <ele>55</ele>
        <time>2021-08-15T08:18:14Z</time>
      </trkpt>
      <trkpt lat="43.98067" lon="4.46661">
        <ele>54.9</ele>
        <time>2021-08-15T08:18:29Z</time>
      </trkpt>
      <trkpt lat="43.981" lon="4.46518">
        <ele>55.8</ele>
        <time>2021-08-15T08:18:49Z</time>
      </trkpt>
      <trkpt lat="43.98125" lon="4.46368">
        <ele>58.9</ele>
        <time>2021-08-15T08:19:09Z</time>
      </trkpt>
      <trkpt lat="43.98146" lon="4.46221">
        <ele>57.9</ele>
        <time>2021-08-15T08:19:29Z</time>
      </trkpt>
      <trkpt lat="43.98169" lon="4.4607">
        <ele>61</ele>
        <time>2021-08-15T08:19:49Z</time>
      </trkpt>
      <trkpt lat="43.9819" lon="4.45924">
        <ele>60.3</ele>
        <time>2021-08-15T08:20:09Z</time>
      </trkpt>
      <trkpt lat="43.98211" lon="4.4578">
        <ele>60.3</ele>
        <time>2021-08-15T08:20:29Z</time>
      </trkpt>
      <trkpt lat="43.98232" lon="4.4563">
        <ele>59.7</ele>
        <time>2021-08-15T08:20:49Z</time>
      </trkpt>
      <trkpt lat="43.98249" lon="4.45501">
        <ele>59.4</ele>
        <time>2021-08-15T08:21:09Z</time>
      </trkpt>
      <trkpt lat="43.98269" lon="4.45368">
        <ele>60.8</ele>
        <time>2021-08-15T08:21:29Z</time>
      </trkpt>
      <trkpt lat="43.98292" lon="4.45216">
        <ele>60.7</ele>
        <time>2021-08-15T08:21:49Z</time>
      </trkpt>
      <trkpt lat="43.98313" lon="4.45094">
        <ele>57.6</ele>
        <time>2021-08-15T08:22:04Z</time>
      </trkpt>
      <trkpt lat="43.98352" lon="4.44947">
        <ele>58.6</ele>
        <time>2021-08-15T08:22:24Z</time>
      </trkpt>
      <trkpt lat="43.98398" lon="4.44826">
        <ele>62</ele>
        <time>2021-08-15T08:22:44Z</time>
      </trkpt>
      <trkpt lat="43.98446" lon="4.44709">
        <ele>62</ele>
        <time>2021-08-15T08:22:59Z</time>
      </trkpt>
      <trkpt lat="43.98493" lon="4.44591">
        <ele>62.9</ele>
        <time>2021-08-15T08:23:14Z</time>
      </trkpt>
      <trkpt lat="43.98542" lon="4.44473">
        <ele>60.4</ele>
        <time>2021-08-15T08:23:29Z</time>
      </trkpt>
      <trkpt lat="43.98589" lon="4.44357">
        <ele>60.2</ele>
        <time>2021-08-15T08:23:44Z</time>
      </trkpt>
      <trkpt lat="43.98636" lon="4.44248">
        <ele>60.9</ele>
        <time>2021-08-15T08:23:59Z</time>
      </trkpt>
      <trkpt lat="43.98681" lon="4.44133">
        <ele>58.7</ele>
        <time>2021-08-15T08:24:14Z</time>
      </trkpt>
      <trkpt lat="43.98737" lon="4.43996">
        <ele>58.4</ele>
        <time>2021-08-15T08:24:34Z</time>
      </trkpt>
      <trkpt lat="43.98792" lon="4.43862">
        <ele>56.8</ele>
        <time>2021-08-15T08:24:54Z</time>
      </trkpt>
      <trkpt lat="43.98847" lon="4.43723">
        <ele>60.1</ele>
        <time>2021-08-15T08:25:14Z</time>
      </trkpt>
      <trkpt lat="43.98902" lon="4.43587">
        <ele>61.6</ele>
        <time>2021-08-15T08:25:34Z</time>
      </trkpt>
      <trkpt lat="43.98954" lon="4.43455">
        <ele>60.2</ele>
        <time>2021-08-15T08:25:54Z</time>
      </trkpt>
      <trkpt lat="43.99002" lon="4.43351">
        <ele>58.9</ele>
        <time>2021-08-15T08:26:14Z</time>
      </trkpt>
      <trkpt lat="43.99053" lon="4.43217">
        <ele>60.2</ele>
        <time>2021-08-15T08:26:34Z</time>
      </trkpt>
      <trkpt lat="43.99093" lon="4.43076">
        <ele>63</ele>
        <time>2021-08-15T08:26:54Z</time>
      </trkpt>
      <trkpt lat="43.99123" lon="4.42937">
        <ele>66.7</ele>
        <time>2021-08-15T08:27:19Z</time>
      </trkpt>
      <trkpt lat="43.9915" lon="4.42803">
        <ele>62.6</ele>
        <time>2021-08-15T08:27:49Z</time>
      </trkpt>
      <trkpt lat="43.99168" lon="4.42653">
        <ele>59.9</ele>
        <time>2021-08-15T08:28:14Z</time>
      </trkpt>
      <trkpt lat="43.99179" lon="4.42517">
        <ele>58.7</ele>
        <time>2021-08-15T08:28:34Z</time>
      </trkpt>
      <trkpt lat="43.99191" lon="4.42368">
        <ele>61.1</ele>
        <time>2021-08-15T08:28:59Z</time>
      </trkpt>
      <trkpt lat="43.99199" lon="4.42238">
        <ele>65.5</ele>
        <time>2021-08-15T08:29:19Z</time>
      </trkpt>
      <trkpt lat="43.99208" lon="4.42108">
        <ele>69.5</ele>
        <time>2021-08-15T08:29:39Z</time>
      </trkpt>
      <trkpt lat="43.99197" lon="4.41979">
        <ele>72</ele>
        <time>2021-08-15T08:30:04Z</time>
      </trkpt>
      <trkpt lat="43.99282" lon="4.42055">
        <ele>68.7</ele>
        <time>2021-08-15T08:31:42Z</time>
      </trkpt>
      <trkpt lat="43.99341" lon="4.41942">
        <ele>61.3</ele>
        <time>2021-08-15T08:32:07Z</time>
      </trkpt>
      <trkpt lat="43.99426" lon="4.41904">
        <ele>65.3</ele>
        <time>2021-08-15T08:32:42Z</time>
      </trkpt>
      <trkpt lat="43.99503" lon="4.41839">
        <ele>78</ele>
        <time>2021-08-15T08:33:12Z</time>
      </trkpt>
      <trkpt lat="43.99583" lon="4.41761">
        <ele>81.8</ele>
        <time>2021-08-15T08:33:47Z</time>
      </trkpt>
      <trkpt lat="43.99669" lon="4.41683">
        <ele>83.2</ele>
        <time>2021-08-15T08:34:22Z</time>
      </trkpt>
      <trkpt lat="43.99744" lon="4.41605">
        <ele>87</ele>
        <time>2021-08-15T08:34:52Z</time>
      </trkpt>
      <trkpt lat="43.99836" lon="4.41527">
        <ele>91.4</ele>
        <time>2021-08-15T08:57:14Z</time>
      </trkpt>
      <trkpt lat="43.99929" lon="4.41477">
        <ele>89.5</ele>
        <time>2021-08-15T08:57:49Z</time>
      </trkpt>
      <trkpt lat="44.00023" lon="4.41513">
        <ele>92.2</ele>
        <time>2021-08-15T08:58:14Z</time>
      </trkpt>
      <trkpt lat="44.00119" lon="4.41549">
        <ele>96.2</ele>
        <time>2021-08-15T08:58:39Z</time>
      </trkpt>
      <trkpt lat="44.00222" lon="4.41585">
        <ele>103</ele>
        <time>2021-08-15T08:59:09Z</time>
      </trkpt>
      <trkpt lat="44.00321" lon="4.4161">
        <ele>105.3</ele>
        <time>2021-08-15T08:59:44Z</time>
      </trkpt>
      <trkpt lat="44.00422" lon="4.4164">
        <ele>105.9</ele>
        <time>2021-08-15T09:00:14Z</time>
      </trkpt>
      <trkpt lat="44.00524" lon="4.41672">
        <ele>108</ele>
        <time>2021-08-15T09:00:44Z</time>
      </trkpt>
      <trkpt lat="44.00624" lon="4.41695">
        <ele>107</ele>
        <time>2021-08-15T09:01:14Z</time>
      </trkpt>
      <trkpt lat="44.00716" lon="4.41746">
        <ele>118.3</ele>
        <time>2021-08-15T09:02:55Z</time>
      </trkpt>
      <trkpt lat="44.00808" lon="4.41813">
        <ele>125.5</ele>
        <time>2021-08-15T09:03:30Z</time>
      </trkpt>
      <trkpt lat="44.00904" lon="4.41884">
        <ele>131.8</ele>
        <time>2021-08-15T09:04:00Z</time>
      </trkpt>
      <trkpt lat="44.00994" lon="4.4195">
        <ele>136.9</ele>
        <time>2021-08-15T09:04:25Z</time>
      </trkpt>
      <trkpt lat="44.01084" lon="4.42007">
        <ele>136.8</ele>
        <time>2021-08-15T09:05:16Z</time>
      </trkpt>
      <trkpt lat="44.01153" lon="4.41925">
        <ele>131.4</ele>
        <time>2021-08-15T09:06:15Z</time>
      </trkpt>
      <trkpt lat="44.01228" lon="4.4185">
        <ele>120.8</ele>
        <time>2021-08-15T09:13:24Z</time>
      </trkpt>
      <trkpt lat="44.01316" lon="4.41808">
        <ele>121.5</ele>
        <time>2021-08-15T09:14:53Z</time>
      </trkpt>
      <trkpt lat="44.01219" lon="4.41791">
        <ele>122.5</ele>
        <time>2021-08-15T09:15:50Z</time>
      </trkpt>
      <trkpt lat="44.01172" lon="4.41665">
        <ele>122.6</ele>
        <time>2021-08-15T09:16:43Z</time>
      </trkpt>
      <trkpt lat="44.01156" lon="4.41529">
        <ele>122.8</ele>
        <time>2021-08-15T09:17:08Z</time>
      </trkpt>
      <trkpt lat="44.0113" lon="4.41398">
        <ele>123.3</ele>
        <time>2021-08-15T09:18:54Z</time>
      </trkpt>
      <trkpt lat="44.01116" lon="4.41255">
        <ele>122.6</ele>
        <time>2021-08-15T09:19:24Z</time>
      </trkpt>
      <trkpt lat="44.01099" lon="4.41128">
        <ele>122</ele>
        <time>2021-08-15T09:19:49Z</time>
      </trkpt>
      <trkpt lat="44.01074" lon="4.41005">
        <ele>121.9</ele>
        <time>2021-08-15T09:20:09Z</time>
      </trkpt>
      <trkpt lat="44.01051" lon="4.40879">
        <ele>121.1</ele>
        <time>2021-08-15T09:20:29Z</time>
      </trkpt>
      <trkpt lat="44.01035" lon="4.40751">
        <ele>126.1</ele>
        <time>2021-08-15T09:21:06Z</time>
      </trkpt>
      <trkpt lat="44.0101" lon="4.40609">
        <ele>123.3</ele>
        <time>2021-08-15T09:21:31Z</time>
      </trkpt>
      <trkpt lat="44.00907" lon="4.40544">
        <ele>123.1</ele>
        <time>2021-08-15T09:21:51Z</time>
      </trkpt>
      <trkpt lat="44.00782" lon="4.40469">
        <ele>121.6</ele>
        <time>2021-08-15T09:22:06Z</time>
      </trkpt>
      <trkpt lat="44.0065" lon="4.40478">
        <ele>117.6</ele>
        <time>2021-08-15T09:22:21Z</time>
      </trkpt>
      <trkpt lat="44.0056" lon="4.40428">
        <ele>115.4</ele>
        <time>2021-08-15T09:22:31Z</time>
      </trkpt>
      <trkpt lat="44.00436" lon="4.40369">
        <ele>110.8</ele>
        <time>2021-08-15T09:22:46Z</time>
      </trkpt>
      <trkpt lat="44.00373" lon="4.40228">
        <ele>105.4</ele>
        <time>2021-08-15T09:23:01Z</time>
      </trkpt>
      <trkpt lat="44.00362" lon="4.40075">
        <ele>98.6</ele>
        <time>2021-08-15T09:23:16Z</time>
      </trkpt>
      <trkpt lat="44.00349" lon="4.39908">
        <ele>93.8</ele>
        <time>2021-08-15T09:23:31Z</time>
      </trkpt>
      <trkpt lat="44.00348" lon="4.39765">
        <ele>90.9</ele>
        <time>2021-08-15T09:23:46Z</time>
      </trkpt>
      <trkpt lat="44.00301" lon="4.39641">
        <ele>87.7</ele>
        <time>2021-08-15T09:24:06Z</time>
      </trkpt>
      <trkpt lat="44.00254" lon="4.3953">
        <ele>83.5</ele>
        <time>2021-08-15T09:24:21Z</time>
      </trkpt>
      <trkpt lat="44.00231" lon="4.39406">
        <ele>76</ele>
        <time>2021-08-15T09:25:18Z</time>
      </trkpt>
      <trkpt lat="44.00228" lon="4.39267">
        <ele>79</ele>
        <time>2021-08-15T09:25:43Z</time>
      </trkpt>
      <trkpt lat="44.0024" lon="4.3941">
        <ele>70.4</ele>
        <time>2021-08-15T09:30:41Z</time>
      </trkpt>
      <trkpt lat="44.00273" lon="4.3957">
        <ele>68.1</ele>
        <time>2021-08-15T09:31:01Z</time>
      </trkpt>
      <trkpt lat="44.00345" lon="4.39688">
        <ele>66.2</ele>
        <time>2021-08-15T09:31:21Z</time>
      </trkpt>
      <trkpt lat="44.00363" lon="4.3983">
        <ele>64.6</ele>
        <time>2021-08-15T09:31:41Z</time>
      </trkpt>
      <trkpt lat="44.00356" lon="4.39982">
        <ele>63.5</ele>
        <time>2021-08-15T09:31:56Z</time>
      </trkpt>
      <trkpt lat="44.0036" lon="4.40112">
        <ele>66.1</ele>
        <time>2021-08-15T09:32:16Z</time>
      </trkpt>
      <trkpt lat="44.0024" lon="4.40105">
        <ele>65</ele>
        <time>2021-08-15T09:32:41Z</time>
      </trkpt>
      <trkpt lat="44.00149" lon="4.40041">
        <ele>65.9</ele>
        <time>2021-08-15T09:32:56Z</time>
      </trkpt>
      <trkpt lat="44.00057" lon="4.39967">
        <ele>65.7</ele>
        <time>2021-08-15T09:33:11Z</time>
      </trkpt>
      <trkpt lat="43.99986" lon="4.3986">
        <ele>66</ele>
        <time>2021-08-15T09:33:26Z</time>
      </trkpt>
      <trkpt lat="43.99941" lon="4.39722">
        <ele>67.8</ele>
        <time>2021-08-15T09:33:46Z</time>
      </trkpt>
      <trkpt lat="43.99867" lon="4.3958">
        <ele>69.7</ele>
        <time>2021-08-15T09:34:06Z</time>
      </trkpt>
      <trkpt lat="43.99799" lon="4.39473">
        <ele>70.5</ele>
        <time>2021-08-15T09:34:21Z</time>
      </trkpt>
      <trkpt lat="43.99714" lon="4.39376">
        <ele>72.6</ele>
        <time>2021-08-15T09:34:45Z</time>
      </trkpt>
      <trkpt lat="43.99607" lon="4.39309">
        <ele>73.5</ele>
        <time>2021-08-15T09:35:05Z</time>
      </trkpt>
      <trkpt lat="43.99497" lon="4.39274">
        <ele>71.7</ele>
        <time>2021-08-15T09:35:25Z</time>
      </trkpt>
      <trkpt lat="43.99403" lon="4.39219">
        <ele>72.5</ele>
        <time>2021-08-15T09:35:45Z</time>
      </trkpt>
      <trkpt lat="43.99337" lon="4.39121">
        <ele>72.1</ele>
        <time>2021-08-15T09:36:05Z</time>
      </trkpt>
      <trkpt lat="43.99285" lon="4.39013">
        <ele>75.1</ele>
        <time>2021-08-15T09:36:25Z</time>
      </trkpt>
      <trkpt lat="43.99231" lon="4.38903">
        <ele>75.5</ele>
        <time>2021-08-15T09:36:50Z</time>
      </trkpt>
      <trkpt lat="43.99178" lon="4.38789">
        <ele>76.2</ele>
        <time>2021-08-15T09:37:15Z</time>
      </trkpt>
      <trkpt lat="43.99124" lon="4.3868">
        <ele>78.9</ele>
        <time>2021-08-15T09:37:40Z</time>
      </trkpt>
      <trkpt lat="43.99061" lon="4.38569">
        <ele>81</ele>
        <time>2021-08-15T09:38:10Z</time>
      </trkpt>
      <trkpt lat="43.98979" lon="4.38489">
        <ele>83.6</ele>
        <time>2021-08-15T09:39:21Z</time>
      </trkpt>
      <trkpt lat="43.9889" lon="4.38431">
        <ele>83.6</ele>
        <time>2021-08-15T09:39:51Z</time>
      </trkpt>
      <trkpt lat="43.98827" lon="4.38331">
        <ele>84.2</ele>
        <time>2021-08-15T09:40:16Z</time>
      </trkpt>
      <trkpt lat="43.98801" lon="4.38193">
        <ele>87.7</ele>
        <time>2021-08-15T09:40:46Z</time>
      </trkpt>
      <trkpt lat="43.9879" lon="4.3806">
        <ele>98.6</ele>
        <time>2021-08-15T09:41:21Z</time>
      </trkpt>
      <trkpt lat="43.98762" lon="4.37936">
        <ele>100.2</ele>
        <time>2021-08-15T09:42:21Z</time>
      </trkpt>
      <trkpt lat="43.98711" lon="4.37817">
        <ele>102</ele>
        <time>2021-08-15T09:42:51Z</time>
      </trkpt>
      <trkpt lat="43.98638" lon="4.37704">
        <ele>103.6</ele>
        <time>2021-08-15T09:43:21Z</time>
      </trkpt>
      <trkpt lat="43.98569" lon="4.37612">
        <ele>107</ele>
        <time>2021-08-15T09:43:46Z</time>
      </trkpt>
      <trkpt lat="43.98505" lon="4.37514">
        <ele>110</ele>
        <time>2021-08-15T09:44:11Z</time>
      </trkpt>
      <trkpt lat="43.98437" lon="4.37424">
        <ele>113.1</ele>
        <time>2021-08-15T09:44:36Z</time>
      </trkpt>
      <trkpt lat="43.98372" lon="4.37313">
        <ele>109</ele>
        <time>2021-08-15T09:45:06Z</time>
      </trkpt>
      <trkpt lat="43.98327" lon="4.3719">
        <ele>120.2</ele>
        <time>2021-08-15T09:45:36Z</time>
      </trkpt>
      <trkpt lat="43.98305" lon="4.37066">
        <ele>120.9</ele>
        <time>2021-08-15T09:48:35Z</time>
      </trkpt>
      <trkpt lat="43.9825" lon="4.36939">
        <ele>121.3</ele>
        <time>2021-08-15T09:49:00Z</time>
      </trkpt>
      <trkpt lat="43.98205" lon="4.36825">
        <ele>124.3</ele>
        <time>2021-08-15T09:49:15Z</time>
      </trkpt>
      <trkpt lat="43.98137" lon="4.36687">
        <ele>120.2</ele>
        <time>2021-08-15T09:49:30Z</time>
      </trkpt>
      <trkpt lat="43.98058" lon="4.36549">
        <ele>114.2</ele>
        <time>2021-08-15T09:49:45Z</time>
      </trkpt>
      <trkpt lat="43.97977" lon="4.36403">
        <ele>110.4</ele>
        <time>2021-08-15T09:50:00Z</time>
      </trkpt>
      <trkpt lat="43.97894" lon="4.3625">
        <ele>104.3</ele>
        <time>2021-08-15T09:50:15Z</time>
      </trkpt>
      <trkpt lat="43.97817" lon="4.36106">
        <ele>97.2</ele>
        <time>2021-08-15T09:50:30Z</time>
      </trkpt>
      <trkpt lat="43.97744" lon="4.35963">
        <ele>91.5</ele>
        <time>2021-08-15T09:50:45Z</time>
      </trkpt>
      <trkpt lat="43.9768" lon="4.35828">
        <ele>85.3</ele>
        <time>2021-08-15T09:51:00Z</time>
      </trkpt>
      <trkpt lat="43.97618" lon="4.35691">
        <ele>79</ele>
        <time>2021-08-15T09:51:15Z</time>
      </trkpt>
      <trkpt lat="43.9756" lon="4.3554">
        <ele>72.7</ele>
        <time>2021-08-15T09:51:30Z</time>
      </trkpt>
      <trkpt lat="43.97504" lon="4.35395">
        <ele>68.1</ele>
        <time>2021-08-15T09:51:45Z</time>
      </trkpt>
      <trkpt lat="43.97445" lon="4.35277">
        <ele>66.4</ele>
        <time>2021-08-15T09:52:34Z</time>
      </trkpt>
      <trkpt lat="43.97381" lon="4.35147">
        <ele>66.4</ele>
        <time>2021-08-15T09:52:59Z</time>
      </trkpt>
      <trkpt lat="43.9734" lon="4.35019">
        <ele>65.6</ele>
        <time>2021-08-15T09:53:19Z</time>
      </trkpt>
      <trkpt lat="43.97306" lon="4.34862">
        <ele>64.1</ele>
        <time>2021-08-15T09:53:39Z</time>
      </trkpt>
      <trkpt lat="43.97259" lon="4.34706">
        <ele>64.9</ele>
        <time>2021-08-15T09:53:59Z</time>
      </trkpt>
      <trkpt lat="43.97219" lon="4.34577">
        <ele>66.9</ele>
        <time>2021-08-15T09:54:19Z</time>
      </trkpt>
      <trkpt lat="43.97172" lon="4.34437">
        <ele>70.6</ele>
        <time>2021-08-15T09:54:44Z</time>
      </trkpt>
      <trkpt lat="43.97129" lon="4.34289">
        <ele>69.9</ele>
        <time>2021-08-15T09:56:41Z</time>
      </trkpt>
      <trkpt lat="43.97081" lon="4.34139">
        <ele>67.9</ele>
        <time>2021-08-15T09:57:01Z</time>
      </trkpt>
      <trkpt lat="43.97046" lon="4.34021">
        <ele>67.6</ele>
        <time>2021-08-15T09:57:16Z</time>
      </trkpt>
      <trkpt lat="43.97008" lon="4.33904">
        <ele>68.4</ele>
        <time>2021-08-15T09:57:36Z</time>
      </trkpt>
      <trkpt lat="43.96973" lon="4.33756">
        <ele>67</ele>
        <time>2021-08-15T09:58:01Z</time>
      </trkpt>
      <trkpt lat="43.96946" lon="4.33599">
        <ele>68.8</ele>
        <time>2021-08-15T09:58:26Z</time>
      </trkpt>
      <trkpt lat="43.96931" lon="4.33462">
        <ele>68</ele>
        <time>2021-08-15T09:58:46Z</time>
      </trkpt>
      <trkpt lat="43.97003" lon="4.33383">
        <ele>68</ele>
        <time>2021-08-15T09:59:11Z</time>
      </trkpt>
      <trkpt lat="43.97113" lon="4.33368">
        <ele>73.5</ele>
        <time>2021-08-15T09:59:31Z</time>
      </trkpt>
      <trkpt lat="43.97204" lon="4.33351">
        <ele>77.3</ele>
        <time>2021-08-15T09:59:46Z</time>
      </trkpt>
      <trkpt lat="43.97312" lon="4.33323">
        <ele>80.7</ele>
        <time>2021-08-15T10:00:06Z</time>
      </trkpt>
      <trkpt lat="43.97422" lon="4.33301">
        <ele>79.7</ele>
        <time>2021-08-15T10:00:26Z</time>
      </trkpt>
      <trkpt lat="43.97536" lon="4.33316">
        <ele>73.2</ele>
        <time>2021-08-15T10:00:46Z</time>
      </trkpt>
      <trkpt lat="43.97637" lon="4.33319">
        <ele>74</ele>
        <time>2021-08-15T10:01:06Z</time>
      </trkpt>
      <trkpt lat="43.9773" lon="4.33337">
        <ele>71.5</ele>
        <time>2021-08-15T10:01:26Z</time>
      </trkpt>
      <trkpt lat="43.97823" lon="4.33305">
        <ele>77.7</ele>
        <time>2021-08-15T10:01:46Z</time>
      </trkpt>
      <trkpt lat="43.97907" lon="4.33251">
        <ele>77.2</ele>
        <time>2021-08-15T10:02:06Z</time>
      </trkpt>
      <trkpt lat="43.98009" lon="4.33239">
        <ele>76.6</ele>
        <time>2021-08-15T10:02:58Z</time>
      </trkpt>
      <trkpt lat="43.98107" lon="4.33242">
        <ele>72.9</ele>
        <time>2021-08-15T10:03:18Z</time>
      </trkpt>
      <trkpt lat="43.98217" lon="4.33249">
        <ele>76</ele>
        <time>2021-08-15T10:03:43Z</time>
      </trkpt>
      <trkpt lat="43.98298" lon="4.33324">
        <ele>73.8</ele>
        <time>2021-08-15T10:04:29Z</time>
      </trkpt>
      <trkpt lat="43.98388" lon="4.3329">
        <ele>81.8</ele>
        <time>2021-08-15T12:51:41Z</time>
      </trkpt>
      <trkpt lat="43.98489" lon="4.33328">
        <ele>80</ele>
        <time>2021-08-15T12:52:06Z</time>
      </trkpt>
      <trkpt lat="43.98585" lon="4.33357">
        <ele>84.4</ele>
        <time>2021-08-15T12:52:26Z</time>
      </trkpt>
      <trkpt lat="43.98692" lon="4.33399">
        <ele>85</ele>
        <time>2021-08-15T12:52:51Z</time>
      </trkpt>
      <trkpt lat="43.98797" lon="4.33425">
        <ele>85.8</ele>
        <time>2021-08-15T12:53:16Z</time>
      </trkpt>
      <trkpt lat="43.98899" lon="4.33418">
        <ele>84.1</ele>
        <time>2021-08-15T12:53:36Z</time>
      </trkpt>
      <trkpt lat="43.99004" lon="4.33423">
        <ele>84.8</ele>
        <time>2021-08-15T12:53:56Z</time>
      </trkpt>
      <trkpt lat="43.99096" lon="4.33421">
        <ele>89.3</ele>
        <time>2021-08-15T12:54:16Z</time>
      </trkpt>
      <trkpt lat="43.9919" lon="4.33427">
        <ele>86.7</ele>
        <time>2021-08-15T12:54:36Z</time>
      </trkpt>
      <trkpt lat="43.99209" lon="4.3328">
        <ele>89.8</ele>
        <time>2021-08-15T12:55:01Z</time>
      </trkpt>
      <trkpt lat="43.99232" lon="4.33125">
        <ele>88.5</ele>
        <time>2021-08-15T12:55:21Z</time>
      </trkpt>
      <trkpt lat="43.99235" lon="4.32967">
        <ele>83.9</ele>
        <time>2021-08-15T12:55:41Z</time>
      </trkpt>
      <trkpt lat="43.99228" lon="4.32819">
        <ele>83.3</ele>
        <time>2021-08-15T12:56:06Z</time>
      </trkpt>
      <trkpt lat="43.9922" lon="4.32674">
        <ele>85.4</ele>
        <time>2021-08-15T12:56:31Z</time>
      </trkpt>
      <trkpt lat="43.99221" lon="4.32548">
        <ele>88.1</ele>
        <time>2021-08-15T12:56:51Z</time>
      </trkpt>
      <trkpt lat="43.99219" lon="4.32398">
        <ele>94.3</ele>
        <time>2021-08-15T12:57:16Z</time>
      </trkpt>
      <trkpt lat="43.99218" lon="4.32241">
        <ele>97.2</ele>
        <time>2021-08-15T12:57:41Z</time>
      </trkpt>
      <trkpt lat="43.99221" lon="4.32108">
        <ele>99.7</ele>
        <time>2021-08-15T12:58:06Z</time>
      </trkpt>
      <trkpt lat="43.99207" lon="4.31955">
        <ele>97.6</ele>
        <time>2021-08-15T12:58:31Z</time>
      </trkpt>
      <trkpt lat="43.99182" lon="4.31817">
        <ele>100.3</ele>
        <time>2021-08-15T12:59:01Z</time>
      </trkpt>
      <trkpt lat="43.99161" lon="4.31678">
        <ele>100.7</ele>
        <time>2021-08-15T12:59:31Z</time>
      </trkpt>
      <trkpt lat="43.99154" lon="4.31544">
        <ele>102.2</ele>
        <time>2021-08-15T12:59:56Z</time>
      </trkpt>
      <trkpt lat="43.9914" lon="4.31399">
        <ele>100.8</ele>
        <time>2021-08-15T13:00:21Z</time>
      </trkpt>
      <trkpt lat="43.99133" lon="4.31265">
        <ele>99</ele>
        <time>2021-08-15T13:00:36Z</time>
      </trkpt>
      <trkpt lat="43.9912" lon="4.31134">
        <ele>98.6</ele>
        <time>2021-08-15T13:00:51Z</time>
      </trkpt>
      <trkpt lat="43.99118" lon="4.30993">
        <ele>99</ele>
        <time>2021-08-15T13:01:11Z</time>
      </trkpt>
      <trkpt lat="43.99111" lon="4.30852">
        <ele>97.4</ele>
        <time>2021-08-15T13:01:31Z</time>
      </trkpt>
      <trkpt lat="43.99106" lon="4.30699">
        <ele>101.2</ele>
        <time>2021-08-15T13:01:51Z</time>
      </trkpt>
      <trkpt lat="43.99099" lon="4.30573">
        <ele>102.1</ele>
        <time>2021-08-15T13:02:11Z</time>
      </trkpt>
      <trkpt lat="43.9909" lon="4.30434">
        <ele>101.9</ele>
        <time>2021-08-15T13:02:31Z</time>
      </trkpt>
      <trkpt lat="43.99081" lon="4.30296">
        <ele>101.2</ele>
        <time>2021-08-15T13:02:51Z</time>
      </trkpt>
      <trkpt lat="43.99069" lon="4.30157">
        <ele>101.6</ele>
        <time>2021-08-15T13:03:11Z</time>
      </trkpt>
      <trkpt lat="43.99063" lon="4.30004">
        <ele>100</ele>
        <time>2021-08-15T13:04:30Z</time>
      </trkpt>
      <trkpt lat="43.99055" lon="4.29854">
        <ele>99.4</ele>
        <time>2021-08-15T13:04:50Z</time>
      </trkpt>
      <trkpt lat="43.99042" lon="4.29718">
        <ele>103.9</ele>
        <time>2021-08-15T13:05:10Z</time>
      </trkpt>
      <trkpt lat="43.99028" lon="4.29557">
        <ele>102</ele>
        <time>2021-08-15T13:05:30Z</time>
      </trkpt>
      <trkpt lat="43.99016" lon="4.29406">
        <ele>98</ele>
        <time>2021-08-15T13:05:50Z</time>
      </trkpt>
      <trkpt lat="43.99006" lon="4.29253">
        <ele>96.7</ele>
        <time>2021-08-15T13:06:10Z</time>
      </trkpt>
      <trkpt lat="43.98992" lon="4.29095">
        <ele>100.8</ele>
        <time>2021-08-15T13:06:30Z</time>
      </trkpt>
      <trkpt lat="43.98965" lon="4.28938">
        <ele>99.4</ele>
        <time>2021-08-15T13:06:50Z</time>
      </trkpt>
      <trkpt lat="43.98926" lon="4.28797">
        <ele>96</ele>
        <time>2021-08-15T13:07:05Z</time>
      </trkpt>
      <trkpt lat="43.98882" lon="4.28635">
        <ele>95.4</ele>
        <time>2021-08-15T13:07:20Z</time>
      </trkpt>
      <trkpt lat="43.98849" lon="4.28507">
        <ele>94.7</ele>
        <time>2021-08-15T13:07:35Z</time>
      </trkpt>
      <trkpt lat="43.98818" lon="4.28372">
        <ele>93</ele>
        <time>2021-08-15T13:07:50Z</time>
      </trkpt>
      <trkpt lat="43.98785" lon="4.2822">
        <ele>92.4</ele>
        <time>2021-08-15T13:08:05Z</time>
      </trkpt>
      <trkpt lat="43.98756" lon="4.28082">
        <ele>93.5</ele>
        <time>2021-08-15T13:08:20Z</time>
      </trkpt>
      <trkpt lat="43.98723" lon="4.27923">
        <ele>96.4</ele>
        <time>2021-08-15T13:08:40Z</time>
      </trkpt>
      <trkpt lat="43.98689" lon="4.27771">
        <ele>98</ele>
        <time>2021-08-15T13:09:00Z</time>
      </trkpt>
      <trkpt lat="43.9866" lon="4.27639">
        <ele>95.4</ele>
        <time>2021-08-15T13:09:20Z</time>
      </trkpt>
      <trkpt lat="43.98631" lon="4.27494">
        <ele>91.8</ele>
        <time>2021-08-15T13:09:45Z</time>
      </trkpt>
      <trkpt lat="43.98599" lon="4.27338">
        <ele>93.3</ele>
        <time>2021-08-15T13:10:10Z</time>
      </trkpt>
      <trkpt lat="43.98571" lon="4.27211">
        <ele>93.4</ele>
        <time>2021-08-15T13:10:25Z</time>
      </trkpt>
      <trkpt lat="43.98532" lon="4.27069">
        <ele>90.8</ele>
        <time>2021-08-15T13:10:40Z</time>
      </trkpt>
      <trkpt lat="43.9848" lon="4.26929">
        <ele>86.2</ele>
        <time>2021-08-15T13:10:55Z</time>
      </trkpt>
      <trkpt lat="43.98433" lon="4.268">
        <ele>84.8</ele>
        <time>2021-08-15T13:11:10Z</time>
      </trkpt>
      <trkpt lat="43.98398" lon="4.26654">
        <ele>87.2</ele>
        <time>2021-08-15T13:11:30Z</time>
      </trkpt>
      <trkpt lat="43.98366" lon="4.26511">
        <ele>88.2</ele>
        <time>2021-08-15T13:11:50Z</time>
      </trkpt>
      <trkpt lat="43.98339" lon="4.26367">
        <ele>88</ele>
        <time>2021-08-15T13:12:10Z</time>
      </trkpt>
      <trkpt lat="43.98309" lon="4.26235">
        <ele>85.4</ele>
        <time>2021-08-15T13:12:30Z</time>
      </trkpt>
      <trkpt lat="43.98272" lon="4.26092">
        <ele>84.2</ele>
        <time>2021-08-15T13:12:50Z</time>
      </trkpt>
      <trkpt lat="43.98253" lon="4.25932">
        <ele>79.8</ele>
        <time>2021-08-15T13:13:10Z</time>
      </trkpt>
      <trkpt lat="43.98242" lon="4.258">
        <ele>77.6</ele>
        <time>2021-08-15T13:13:25Z</time>
      </trkpt>
      <trkpt lat="43.98232" lon="4.25635">
        <ele>79.4</ele>
        <time>2021-08-15T13:13:45Z</time>
      </trkpt>
      <trkpt lat="43.98221" lon="4.25478">
        <ele>79.9</ele>
        <time>2021-08-15T13:14:05Z</time>
      </trkpt>
      <trkpt lat="43.98226" lon="4.25333">
        <ele>81.8</ele>
        <time>2021-08-15T13:14:25Z</time>
      </trkpt>
      <trkpt lat="43.98264" lon="4.25191">
        <ele>81</ele>
        <time>2021-08-15T13:14:45Z</time>
      </trkpt>
      <trkpt lat="43.98307" lon="4.25057">
        <ele>83.2</ele>
        <time>2021-08-15T13:15:05Z</time>
      </trkpt>
      <trkpt lat="43.9834" lon="4.24916">
        <ele>83.7</ele>
        <time>2021-08-15T13:15:30Z</time>
      </trkpt>
      <trkpt lat="43.98361" lon="4.24771">
        <ele>85.1</ele>
        <time>2021-08-15T13:15:55Z</time>
      </trkpt>
      <trkpt lat="43.98381" lon="4.24619">
        <ele>86.3</ele>
        <time>2021-08-15T13:16:20Z</time>
      </trkpt>
      <trkpt lat="43.98381" lon="4.24484">
        <ele>87.4</ele>
        <time>2021-08-15T13:16:45Z</time>
      </trkpt>
      <trkpt lat="43.98369" lon="4.24352">
        <ele>92.6</ele>
        <time>2021-08-15T13:17:05Z</time>
      </trkpt>
      <trkpt lat="43.98355" lon="4.24212">
        <ele>89.6</ele>
        <time>2021-08-15T13:17:25Z</time>
      </trkpt>
      <trkpt lat="43.98321" lon="4.24059">
        <ele>85.6</ele>
        <time>2021-08-15T13:17:45Z</time>
      </trkpt>
      <trkpt lat="43.98282" lon="4.23899">
        <ele>82.8</ele>
        <time>2021-08-15T13:18:05Z</time>
      </trkpt>
      <trkpt lat="43.98265" lon="4.2377">
        <ele>83.5</ele>
        <time>2021-08-15T13:18:20Z</time>
      </trkpt>
      <trkpt lat="43.98231" lon="4.23616">
        <ele>87.7</ele>
        <time>2021-08-15T13:18:40Z</time>
      </trkpt>
      <trkpt lat="43.98187" lon="4.23484">
        <ele>88</ele>
        <time>2021-08-15T13:19:00Z</time>
      </trkpt>
      <trkpt lat="43.9814" lon="4.23349">
        <ele>93.3</ele>
        <time>2021-08-15T13:19:20Z</time>
      </trkpt>
      <trkpt lat="43.98098" lon="4.23212">
        <ele>97.4</ele>
        <time>2021-08-15T13:19:40Z</time>
      </trkpt>
      <trkpt lat="43.98048" lon="4.23064">
        <ele>98.3</ele>
        <time>2021-08-15T13:20:00Z</time>
      </trkpt>
      <trkpt lat="43.98003" lon="4.22927">
        <ele>98.5</ele>
        <time>2021-08-15T13:20:20Z</time>
      </trkpt>
      <trkpt lat="43.97994" lon="4.22796">
        <ele>99.1</ele>
        <time>2021-08-15T13:20:40Z</time>
      </trkpt>
      <trkpt lat="43.97968" lon="4.22661">
        <ele>88.8</ele>
        <time>2021-08-15T13:22:04Z</time>
      </trkpt>
      <trkpt lat="43.97895" lon="4.22565">
        <ele>83</ele>
        <time>2021-08-15T13:22:39Z</time>
      </trkpt>
      <trkpt lat="43.97808" lon="4.22511">
        <ele>82.5</ele>
        <time>2021-08-15T13:23:04Z</time>
      </trkpt>
      <trkpt lat="43.97708" lon="4.2245">
        <ele>79.4</ele>
        <time>2021-08-15T13:23:29Z</time>
      </trkpt>
      <trkpt lat="43.97601" lon="4.22385">
        <ele>73.7</ele>
        <time>2021-08-15T13:23:49Z</time>
      </trkpt>
      <trkpt lat="43.97524" lon="4.22307">
        <ele>72.8</ele>
        <time>2021-08-15T13:24:09Z</time>
      </trkpt>
      <trkpt lat="43.97542" lon="4.2218">
        <ele>72.3</ele>
        <time>2021-08-15T13:24:39Z</time>
      </trkpt>
      <trkpt lat="43.97549" lon="4.22046">
        <ele>72</ele>
        <time>2021-08-15T13:24:59Z</time>
      </trkpt>
      <trkpt lat="43.97528" lon="4.2192">
        <ele>74.1</ele>
        <time>2021-08-15T13:25:19Z</time>
      </trkpt>
      <trkpt lat="43.97531" lon="4.21779">
        <ele>73</ele>
        <time>2021-08-15T13:25:39Z</time>
      </trkpt>
      <trkpt lat="43.97565" lon="4.21649">
        <ele>73.1</ele>
        <time>2021-08-15T13:25:59Z</time>
      </trkpt>
      <trkpt lat="43.97629" lon="4.21557">
        <ele>72.8</ele>
        <time>2021-08-15T13:26:19Z</time>
      </trkpt>
      <trkpt lat="43.97644" lon="4.21428">
        <ele>69.3</ele>
        <time>2021-08-15T13:26:44Z</time>
      </trkpt>
      <trkpt lat="43.97645" lon="4.21301">
        <ele>69</ele>
        <time>2021-08-15T13:27:04Z</time>
      </trkpt>
      <trkpt lat="43.97657" lon="4.21165">
        <ele>70.5</ele>
        <time>2021-08-15T13:27:24Z</time>
      </trkpt>
      <trkpt lat="43.97695" lon="4.21045">
        <ele>73.2</ele>
        <time>2021-08-15T13:27:49Z</time>
      </trkpt>
      <trkpt lat="43.97762" lon="4.20936">
        <ele>73.1</ele>
        <time>2021-08-15T13:28:14Z</time>
      </trkpt>
      <trkpt lat="43.97819" lon="4.2083">
        <ele>68</ele>
        <time>2021-08-15T13:36:30Z</time>
      </trkpt>
      <trkpt lat="43.97889" lon="4.2071">
        <ele>71</ele>
        <time>2021-08-15T13:36:50Z</time>
      </trkpt>
      <trkpt lat="43.9795" lon="4.20604">
        <ele>73.2</ele>
        <time>2021-08-15T13:37:05Z</time>
      </trkpt>
      <trkpt lat="43.98011" lon="4.20496">
        <ele>73</ele>
        <time>2021-08-15T13:37:20Z</time>
      </trkpt>
      <trkpt lat="43.98068" lon="4.20396">
        <ele>75.3</ele>
        <time>2021-08-15T13:37:35Z</time>
      </trkpt>
      <trkpt lat="43.98126" lon="4.20295">
        <ele>74.6</ele>
        <time>2021-08-15T13:37:50Z</time>
      </trkpt>
      <trkpt lat="43.98182" lon="4.20192">
        <ele>75.8</ele>
        <time>2021-08-15T13:38:05Z</time>
      </trkpt>
      <trkpt lat="43.98239" lon="4.20091">
        <ele>76</ele>
        <time>2021-08-15T13:38:20Z</time>
      </trkpt>
      <trkpt lat="43.98297" lon="4.1999">
        <ele>74.9</ele>
        <time>2021-08-15T13:38:35Z</time>
      </trkpt>
      <trkpt lat="43.98359" lon="4.19875">
        <ele>74.7</ele>
        <time>2021-08-15T13:38:55Z</time>
      </trkpt>
      <trkpt lat="43.98422" lon="4.19781">
        <ele>76</ele>
        <time>2021-08-15T13:39:10Z</time>
      </trkpt>
      <trkpt lat="43.98491" lon="4.19649">
        <ele>78.9</ele>
        <time>2021-08-15T13:39:30Z</time>
      </trkpt>
      <trkpt lat="43.98564" lon="4.1952">
        <ele>81.4</ele>
        <time>2021-08-15T13:39:50Z</time>
      </trkpt>
      <trkpt lat="43.98621" lon="4.19419">
        <ele>82.6</ele>
        <time>2021-08-15T13:40:05Z</time>
      </trkpt>
      <trkpt lat="43.98676" lon="4.19314">
        <ele>83.5</ele>
        <time>2021-08-15T13:40:20Z</time>
      </trkpt>
      <trkpt lat="43.98735" lon="4.19214">
        <ele>84.8</ele>
        <time>2021-08-15T13:40:35Z</time>
      </trkpt>
      <trkpt lat="43.9882" lon="4.19113">
        <ele>84.6</ele>
        <time>2021-08-15T13:40:55Z</time>
      </trkpt>
      <trkpt lat="43.98901" lon="4.19053">
        <ele>86.3</ele>
        <time>2021-08-15T13:41:10Z</time>
      </trkpt>
      <trkpt lat="43.99002" lon="4.18975">
        <ele>84.5</ele>
        <time>2021-08-15T13:41:30Z</time>
      </trkpt>
      <trkpt lat="43.99097" lon="4.18906">
        <ele>82.2</ele>
        <time>2021-08-15T13:41:50Z</time>
      </trkpt>
      <trkpt lat="43.99204" lon="4.18846">
        <ele>85.5</ele>
        <time>2021-08-15T13:42:10Z</time>
      </trkpt>
      <trkpt lat="43.99286" lon="4.18797">
        <ele>86.1</ele>
        <time>2021-08-15T13:42:25Z</time>
      </trkpt>
      <trkpt lat="43.99389" lon="4.18733">
        <ele>87.8</ele>
        <time>2021-08-15T13:42:45Z</time>
      </trkpt>
      <trkpt lat="43.9949" lon="4.18687">
        <ele>88.2</ele>
        <time>2021-08-15T13:43:05Z</time>
      </trkpt>
      <trkpt lat="43.99578" lon="4.18627">
        <ele>88.6</ele>
        <time>2021-08-15T13:43:25Z</time>
      </trkpt>
      <trkpt lat="43.99663" lon="4.18542">
        <ele>86</ele>
        <time>2021-08-15T13:44:37Z</time>
      </trkpt>
      <trkpt lat="43.9975" lon="4.18441">
        <ele>83</ele>
        <time>2021-08-15T13:44:57Z</time>
      </trkpt>
      <trkpt lat="43.99818" lon="4.18321">
        <ele>77.8</ele>
        <time>2021-08-15T13:45:17Z</time>
      </trkpt>
      <trkpt lat="43.99879" lon="4.18195">
        <ele>75.9</ele>
        <time>2021-08-15T13:45:37Z</time>
      </trkpt>
      <trkpt lat="43.99942" lon="4.18077">
        <ele>76.1</ele>
        <time>2021-08-15T13:45:57Z</time>
      </trkpt>
      <trkpt lat="44.00019" lon="4.18">
        <ele>78.7</ele>
        <time>2021-08-15T13:46:17Z</time>
      </trkpt>
      <trkpt lat="44.00109" lon="4.17927">
        <ele>80</ele>
        <time>2021-08-15T13:46:37Z</time>
      </trkpt>
      <trkpt lat="44.00198" lon="4.17849">
        <ele>81</ele>
        <time>2021-08-15T13:46:57Z</time>
      </trkpt>
      <trkpt lat="44.00271" lon="4.17779">
        <ele>82.9</ele>
        <time>2021-08-15T13:47:12Z</time>
      </trkpt>
      <trkpt lat="44.00348" lon="4.1771">
        <ele>85</ele>
        <time>2021-08-15T13:47:27Z</time>
      </trkpt>
      <trkpt lat="44.00445" lon="4.17637">
        <ele>84.2</ele>
        <time>2021-08-15T13:47:47Z</time>
      </trkpt>
      <trkpt lat="44.00542" lon="4.17565">
        <ele>79.8</ele>
        <time>2021-08-15T13:48:07Z</time>
      </trkpt>
      <trkpt lat="44.00623" lon="4.17502">
        <ele>79.6</ele>
        <time>2021-08-15T13:48:22Z</time>
      </trkpt>
      <trkpt lat="44.00698" lon="4.17435">
        <ele>77.7</ele>
        <time>2021-08-15T13:48:37Z</time>
      </trkpt>
      <trkpt lat="44.00776" lon="4.17368">
        <ele>76.1</ele>
        <time>2021-08-15T13:48:52Z</time>
      </trkpt>
      <trkpt lat="44.00873" lon="4.17286">
        <ele>76.1</ele>
        <time>2021-08-15T13:49:12Z</time>
      </trkpt>
      <trkpt lat="44.00962" lon="4.17201">
        <ele>77.7</ele>
        <time>2021-08-15T13:49:32Z</time>
      </trkpt>
      <trkpt lat="44.0104" lon="4.17091">
        <ele>78.6</ele>
        <time>2021-08-15T13:49:52Z</time>
      </trkpt>
      <trkpt lat="44.01094" lon="4.16973">
        <ele>82.4</ele>
        <time>2021-08-15T13:50:12Z</time>
      </trkpt>
      <trkpt lat="44.01124" lon="4.16843">
        <ele>87.6</ele>
        <time>2021-08-15T13:50:42Z</time>
      </trkpt>
      <trkpt lat="44.01131" lon="4.16709">
        <ele>94.3</ele>
        <time>2021-08-15T13:51:12Z</time>
      </trkpt>
      <trkpt lat="44.01125" lon="4.16573">
        <ele>99.3</ele>
        <time>2021-08-15T13:51:42Z</time>
      </trkpt>
      <trkpt lat="44.01119" lon="4.16434">
        <ele>98.8</ele>
        <time>2021-08-15T13:52:12Z</time>
      </trkpt>
      <trkpt lat="44.01141" lon="4.16313">
        <ele>97.9</ele>
        <time>2021-08-15T13:52:37Z</time>
      </trkpt>
      <trkpt lat="44.01192" lon="4.16201">
        <ele>97.5</ele>
        <time>2021-08-15T13:52:57Z</time>
      </trkpt>
      <trkpt lat="44.01282" lon="4.16104">
        <ele>96.2</ele>
        <time>2021-08-15T13:53:17Z</time>
      </trkpt>
      <trkpt lat="44.0136" lon="4.16023">
        <ele>95.3</ele>
        <time>2021-08-15T13:53:37Z</time>
      </trkpt>
      <trkpt lat="44.01441" lon="4.1593">
        <ele>93.1</ele>
        <time>2021-08-15T13:53:57Z</time>
      </trkpt>
      <trkpt lat="44.01529" lon="4.1585">
        <ele>88.5</ele>
        <time>2021-08-15T13:54:17Z</time>
      </trkpt>
      <trkpt lat="44.01615" lon="4.15775">
        <ele>85.8</ele>
        <time>2021-08-15T13:54:37Z</time>
      </trkpt>
      <trkpt lat="44.01674" lon="4.15684">
        <ele>95.7</ele>
        <time>2021-08-15T14:11:37Z</time>
      </trkpt>
      <trkpt lat="44.01612" lon="4.15562">
        <ele>96.2</ele>
        <time>2021-08-15T14:12:07Z</time>
      </trkpt>
      <trkpt lat="44.01533" lon="4.15477">
        <ele>96.5</ele>
        <time>2021-08-15T14:12:59Z</time>
      </trkpt>
      <trkpt lat="44.01473" lon="4.15379">
        <ele>93.5</ele>
        <time>2021-08-15T14:13:19Z</time>
      </trkpt>
      <trkpt lat="44.01413" lon="4.15268">
        <ele>88.8</ele>
        <time>2021-08-15T14:13:44Z</time>
      </trkpt>
      <trkpt lat="44.01353" lon="4.15164">
        <ele>93.5</ele>
        <time>2021-08-15T14:14:04Z</time>
      </trkpt>
      <trkpt lat="44.01277" lon="4.15079">
        <ele>93.8</ele>
        <time>2021-08-15T14:14:24Z</time>
      </trkpt>
      <trkpt lat="44.01209" lon="4.14975">
        <ele>95.7</ele>
        <time>2021-08-15T14:14:44Z</time>
      </trkpt>
      <trkpt lat="44.01156" lon="4.14865">
        <ele>95.4</ele>
        <time>2021-08-15T14:15:04Z</time>
      </trkpt>
      <trkpt lat="44.01108" lon="4.14743">
        <ele>96.7</ele>
        <time>2021-08-15T14:15:24Z</time>
      </trkpt>
      <trkpt lat="44.01068" lon="4.14606">
        <ele>96.8</ele>
        <time>2021-08-15T14:15:49Z</time>
      </trkpt>
      <trkpt lat="44.01041" lon="4.14484">
        <ele>96.7</ele>
        <time>2021-08-15T14:16:09Z</time>
      </trkpt>
      <trkpt lat="44.00996" lon="4.14373">
        <ele>94.2</ele>
        <time>2021-08-15T14:16:29Z</time>
      </trkpt>
      <trkpt lat="44.0094" lon="4.14263">
        <ele>92.7</ele>
        <time>2021-08-15T14:16:49Z</time>
      </trkpt>
      <trkpt lat="44.00878" lon="4.14155">
        <ele>91.9</ele>
        <time>2021-08-15T14:17:09Z</time>
      </trkpt>
      <trkpt lat="44.00818" lon="4.14056">
        <ele>93.4</ele>
        <time>2021-08-15T14:17:29Z</time>
      </trkpt>
      <trkpt lat="44.00769" lon="4.13915">
        <ele>94.1</ele>
        <time>2021-08-15T14:17:54Z</time>
      </trkpt>
      <trkpt lat="44.00702" lon="4.13786">
        <ele>97.7</ele>
        <time>2021-08-15T14:18:19Z</time>
      </trkpt>
      <trkpt lat="44.0064" lon="4.13684">
        <ele>99</ele>
        <time>2021-08-15T14:18:44Z</time>
      </trkpt>
      <trkpt lat="44.00612" lon="4.13557">
        <ele>103.4</ele>
        <time>2021-08-15T14:19:04Z</time>
      </trkpt>
      <trkpt lat="44.00583" lon="4.1343">
        <ele>104.6</ele>
        <time>2021-08-15T14:19:24Z</time>
      </trkpt>
      <trkpt lat="44.0058" lon="4.13295">
        <ele>103.4</ele>
        <time>2021-08-15T14:19:44Z</time>
      </trkpt>
      <trkpt lat="44.00584" lon="4.13161">
        <ele>103</ele>
        <time>2021-08-15T14:20:09Z</time>
      </trkpt>
      <trkpt lat="44.00604" lon="4.1304">
        <ele>101.5</ele>
        <time>2021-08-15T14:32:00Z</time>
      </trkpt>
      <trkpt lat="44.00515" lon="4.12976">
        <ele>104.6</ele>
        <time>2021-08-15T14:36:01Z</time>
      </trkpt>
      <trkpt lat="44.00416" lon="4.12939">
        <ele>108.7</ele>
        <time>2021-08-15T14:36:36Z</time>
      </trkpt>
      <trkpt lat="44.00338" lon="4.12865">
        <ele>112.8</ele>
        <time>2021-08-15T14:37:01Z</time>
      </trkpt>
      <trkpt lat="44.00249" lon="4.12805">
        <ele>111.1</ele>
        <time>2021-08-15T14:37:26Z</time>
      </trkpt>
      <trkpt lat="44.0015" lon="4.12749">
        <ele>114.3</ele>
        <time>2021-08-15T14:37:56Z</time>
      </trkpt>
      <trkpt lat="44.0006" lon="4.12704">
        <ele>112.6</ele>
        <time>2021-08-15T14:38:21Z</time>
      </trkpt>
      <trkpt lat="43.99975" lon="4.12633">
        <ele>114.3</ele>
        <time>2021-08-15T14:38:46Z</time>
      </trkpt>
      <trkpt lat="43.99889" lon="4.12557">
        <ele>118</ele>
        <time>2021-08-15T14:39:16Z</time>
      </trkpt>
      <trkpt lat="43.99828" lon="4.12451">
        <ele>121.9</ele>
        <time>2021-08-15T14:39:46Z</time>
      </trkpt>
      <trkpt lat="43.99811" lon="4.12313">
        <ele>121.9</ele>
        <time>2021-08-15T14:40:06Z</time>
      </trkpt>
      <trkpt lat="43.99786" lon="4.12153">
        <ele>117.7</ele>
        <time>2021-08-15T14:40:26Z</time>
      </trkpt>
      <trkpt lat="43.99753" lon="4.12028">
        <ele>114.4</ele>
        <time>2021-08-15T14:40:46Z</time>
      </trkpt>
      <trkpt lat="43.99733" lon="4.11905">
        <ele>111.7</ele>
        <time>2021-08-15T14:41:11Z</time>
      </trkpt>
      <trkpt lat="43.9968" lon="4.11792">
        <ele>117.3</ele>
        <time>2021-08-15T14:41:51Z</time>
      </trkpt>
      <trkpt lat="43.99575" lon="4.11748">
        <ele>116.7</ele>
        <time>2021-08-15T14:42:21Z</time>
      </trkpt>
      <trkpt lat="43.99483" lon="4.11659">
        <ele>115.9</ele>
        <time>2021-08-15T14:42:46Z</time>
      </trkpt>
      <trkpt lat="43.99407" lon="4.11543">
        <ele>115.3</ele>
        <time>2021-08-15T14:43:11Z</time>
      </trkpt>
      <trkpt lat="43.9934" lon="4.11452">
        <ele>119.5</ele>
        <time>2021-08-15T14:43:36Z</time>
      </trkpt>
      <trkpt lat="43.99251" lon="4.11378">
        <ele>119.5</ele>
        <time>2021-08-15T14:43:56Z</time>
      </trkpt>
      <trkpt lat="43.99171" lon="4.11276">
        <ele>119.5</ele>
        <time>2021-08-15T14:44:21Z</time>
      </trkpt>
      <trkpt lat="43.99106" lon="4.11172">
        <ele>119.9</ele>
        <time>2021-08-15T14:44:51Z</time>
      </trkpt>
      <trkpt lat="43.99052" lon="4.11055">
        <ele>124.7</ele>
        <time>2021-08-15T14:45:31Z</time>
      </trkpt>
      <trkpt lat="43.99028" lon="4.1093">
        <ele>131.3</ele>
        <time>2021-08-15T14:46:16Z</time>
      </trkpt>
      <trkpt lat="43.99024" lon="4.10802">
        <ele>134</ele>
        <time>2021-08-15T14:47:01Z</time>
      </trkpt>
      <trkpt lat="43.99005" lon="4.10659">
        <ele>135.9</ele>
        <time>2021-08-15T14:49:11Z</time>
      </trkpt>
      <trkpt lat="43.98972" lon="4.10538">
        <ele>135.3</ele>
        <time>2021-08-15T14:49:46Z</time>
      </trkpt>
      <trkpt lat="43.98922" lon="4.10429">
        <ele>133.3</ele>
        <time>2021-08-15T14:50:32Z</time>
      </trkpt>
      <trkpt lat="43.98899" lon="4.10298">
        <ele>140.6</ele>
        <time>2021-08-15T14:51:26Z</time>
      </trkpt>
      <trkpt lat="43.98868" lon="4.10171">
        <ele>149.8</ele>
        <time>2021-08-15T14:54:37Z</time>
      </trkpt>
      <trkpt lat="43.98901" lon="4.10046">
        <ele>147.5</ele>
        <time>2021-08-15T14:54:57Z</time>
      </trkpt>
      <trkpt lat="43.98939" lon="4.09931">
        <ele>143.6</ele>
        <time>2021-08-15T14:55:17Z</time>
      </trkpt>
      <trkpt lat="43.98981" lon="4.09803">
        <ele>148.2</ele>
        <time>2021-08-15T14:55:47Z</time>
      </trkpt>
      <trkpt lat="43.99012" lon="4.09647">
        <ele>147.4</ele>
        <time>2021-08-15T14:56:12Z</time>
      </trkpt>
      <trkpt lat="43.99046" lon="4.09497">
        <ele>145.2</ele>
        <time>2021-08-15T14:56:27Z</time>
      </trkpt>
      <trkpt lat="43.99083" lon="4.09332">
        <ele>137.5</ele>
        <time>2021-08-15T14:56:42Z</time>
      </trkpt>
      <trkpt lat="43.99116" lon="4.09179">
        <ele>134.1</ele>
        <time>2021-08-15T14:56:57Z</time>
      </trkpt>
      <trkpt lat="43.99122" lon="4.09015">
        <ele>136.4</ele>
        <time>2021-08-15T14:57:17Z</time>
      </trkpt>
      <trkpt lat="43.99137" lon="4.08858">
        <ele>134.2</ele>
        <time>2021-08-15T14:57:32Z</time>
      </trkpt>
      <trkpt lat="43.99136" lon="4.08669">
        <ele>129.2</ele>
        <time>2021-08-15T14:57:47Z</time>
      </trkpt>
      <trkpt lat="43.99137" lon="4.08539">
        <ele>124</ele>
        <time>2021-08-15T14:57:57Z</time>
      </trkpt>
      <trkpt lat="43.99134" lon="4.08405">
        <ele>118.3</ele>
        <time>2021-08-15T14:58:12Z</time>
      </trkpt>
      <trkpt lat="43.99161" lon="4.08272">
        <ele>118</ele>
        <time>2021-08-15T14:58:27Z</time>
      </trkpt>
      <trkpt lat="43.9918" lon="4.08124">
        <ele>118</ele>
        <time>2021-08-15T14:58:42Z</time>
      </trkpt>
      <trkpt lat="43.99182" lon="4.07991">
        <ele>117.2</ele>
        <time>2021-08-15T14:58:57Z</time>
      </trkpt>
      <trkpt lat="43.99187" lon="4.07842">
        <ele>119.1</ele>
        <time>2021-08-15T14:59:17Z</time>
      </trkpt>
      <trkpt lat="43.99223" lon="4.07683">
        <ele>117.6</ele>
        <time>2021-08-15T14:59:37Z</time>
      </trkpt>
      <trkpt lat="43.99265" lon="4.0755">
        <ele>117</ele>
        <time>2021-08-15T14:59:57Z</time>
      </trkpt>
      <trkpt lat="43.99315" lon="4.07429">
        <ele>113.7</ele>
        <time>2021-08-15T15:00:27Z</time>
      </trkpt>
      <trkpt lat="43.99358" lon="4.07321">
        <ele>110.8</ele>
        <time>2021-08-15T15:00:47Z</time>
      </trkpt>
      <trkpt lat="43.99377" lon="4.07175">
        <ele>107.2</ele>
        <time>2021-08-15T15:01:07Z</time>
      </trkpt>
      <trkpt lat="43.99333" lon="4.07056">
        <ele>112.3</ele>
        <time>2021-08-15T15:08:33Z</time>
      </trkpt>
      <trkpt lat="43.99378" lon="4.07176">
        <ele>121.5</ele>
        <time>2021-08-15T16:23:33Z</time>
      </trkpt>
      <trkpt lat="43.9937" lon="4.0705">
        <ele>121.1</ele>
        <time>2021-08-15T16:24:34Z</time>
      </trkpt>
      <trkpt lat="43.99426" lon="4.06945">
        <ele>122.8</ele>
        <time>2021-08-15T16:25:04Z</time>
      </trkpt>
      <trkpt lat="43.99502" lon="4.0688">
        <ele>122</ele>
        <time>2021-08-15T16:25:29Z</time>
      </trkpt>
      <trkpt lat="43.99586" lon="4.06796">
        <ele>124.2</ele>
        <time>2021-08-15T16:28:51Z</time>
      </trkpt>
      <trkpt lat="43.99669" lon="4.0672">
        <ele>123.6</ele>
        <time>2021-08-15T16:29:16Z</time>
      </trkpt>
      <trkpt lat="43.99761" lon="4.06677">
        <ele>126.5</ele>
        <time>2021-08-15T16:29:36Z</time>
      </trkpt>
      <trkpt lat="43.99855" lon="4.06629">
        <ele>129.4</ele>
        <time>2021-08-15T16:29:56Z</time>
      </trkpt>
      <trkpt lat="43.99922" lon="4.06534">
        <ele>132.4</ele>
        <time>2021-08-15T16:30:16Z</time>
      </trkpt>
      <trkpt lat="43.99989" lon="4.0642">
        <ele>133.7</ele>
        <time>2021-08-15T16:30:41Z</time>
      </trkpt>
      <trkpt lat="44.00074" lon="4.06315">
        <ele>132.4</ele>
        <time>2021-08-15T16:31:06Z</time>
      </trkpt>
      <trkpt lat="44.00148" lon="4.06249">
        <ele>132.6</ele>
        <time>2021-08-15T16:31:21Z</time>
      </trkpt>
      <trkpt lat="44.00202" lon="4.06136">
        <ele>136</ele>
        <time>2021-08-15T16:35:03Z</time>
      </trkpt>
      <trkpt lat="44.00247" lon="4.06026">
        <ele>135.5</ele>
        <time>2021-08-15T16:35:18Z</time>
      </trkpt>
      <trkpt lat="44.00276" lon="4.05893">
        <ele>133</ele>
        <time>2021-08-15T16:35:33Z</time>
      </trkpt>
      <trkpt lat="44.0037" lon="4.0582">
        <ele>134.1</ele>
        <time>2021-08-15T16:35:53Z</time>
      </trkpt>
      <trkpt lat="44.00443" lon="4.05717">
        <ele>136.1</ele>
        <time>2021-08-15T16:36:13Z</time>
      </trkpt>
      <trkpt lat="44.0051" lon="4.05623">
        <ele>140.6</ele>
        <time>2021-08-15T16:36:33Z</time>
      </trkpt>
      <trkpt lat="44.00572" lon="4.05528">
        <ele>143.5</ele>
        <time>2021-08-15T16:36:58Z</time>
      </trkpt>
      <trkpt lat="44.00655" lon="4.05458">
        <ele>147</ele>
        <time>2021-08-15T16:37:28Z</time>
      </trkpt>
      <trkpt lat="44.00747" lon="4.05427">
        <ele>145.2</ele>
        <time>2021-08-15T16:37:43Z</time>
      </trkpt>
      <trkpt lat="44.00867" lon="4.05349">
        <ele>139.1</ele>
        <time>2021-08-15T16:37:58Z</time>
      </trkpt>
      <trkpt lat="44.00945" lon="4.05287">
        <ele>134.6</ele>
        <time>2021-08-15T16:38:22Z</time>
      </trkpt>
      <trkpt lat="44.0104" lon="4.05191">
        <ele>132.4</ele>
        <time>2021-08-15T16:38:42Z</time>
      </trkpt>
      <trkpt lat="44.01137" lon="4.0518">
        <ele>129.2</ele>
        <time>2021-08-15T16:38:57Z</time>
      </trkpt>
      <trkpt lat="44.01255" lon="4.05154">
        <ele>127.8</ele>
        <time>2021-08-15T16:39:12Z</time>
      </trkpt>
      <trkpt lat="44.01365" lon="4.05166">
        <ele>127.4</ele>
        <time>2021-08-15T16:39:27Z</time>
      </trkpt>
      <trkpt lat="44.01439" lon="4.05077">
        <ele>126.7</ele>
        <time>2021-08-15T16:39:52Z</time>
      </trkpt>
      <trkpt lat="44.0155" lon="4.05088">
        <ele>123.5</ele>
        <time>2021-08-15T16:40:40Z</time>
      </trkpt>
      <trkpt lat="44.01666" lon="4.05123">
        <ele>121.9</ele>
        <time>2021-08-15T16:41:00Z</time>
      </trkpt>
      <trkpt lat="44.01763" lon="4.0515">
        <ele>122.9</ele>
        <time>2021-08-15T16:41:15Z</time>
      </trkpt>
      <trkpt lat="44.01864" lon="4.05156">
        <ele>120.8</ele>
        <time>2021-08-15T16:41:30Z</time>
      </trkpt>
      <trkpt lat="44.01972" lon="4.05183">
        <ele>115</ele>
        <time>2021-08-15T16:41:50Z</time>
      </trkpt>
      <trkpt lat="44.01973" lon="4.05318">
        <ele>112.7</ele>
        <time>2021-08-15T16:42:05Z</time>
      </trkpt>
      <trkpt lat="44.01969" lon="4.05463">
        <ele>108.8</ele>
        <time>2021-08-15T16:42:20Z</time>
      </trkpt>
      <trkpt lat="44.0202" lon="4.05583">
        <ele>107.4</ele>
        <time>2021-08-15T16:42:35Z</time>
      </trkpt>
      <trkpt lat="44.02113" lon="4.05654">
        <ele>108.9</ele>
        <time>2021-08-15T16:42:50Z</time>
      </trkpt>
      <trkpt lat="44.02204" lon="4.05757">
        <ele>110.6</ele>
        <time>2021-08-15T16:43:05Z</time>
      </trkpt>
      <trkpt lat="44.02249" lon="4.05899">
        <ele>110.5</ele>
        <time>2021-08-15T16:43:20Z</time>
      </trkpt>
      <trkpt lat="44.02278" lon="4.06041">
        <ele>108</ele>
        <time>2021-08-15T16:43:35Z</time>
      </trkpt>
      <trkpt lat="44.02309" lon="4.0617">
        <ele>108.5</ele>
        <time>2021-08-15T16:43:50Z</time>
      </trkpt>
      <trkpt lat="44.02339" lon="4.06301">
        <ele>109.2</ele>
        <time>2021-08-15T16:44:05Z</time>
      </trkpt>
      <trkpt lat="44.02369" lon="4.06441">
        <ele>111.8</ele>
        <time>2021-08-15T16:44:20Z</time>
      </trkpt>
      <trkpt lat="44.024" lon="4.06584">
        <ele>111.3</ele>
        <time>2021-08-15T16:44:35Z</time>
      </trkpt>
      <trkpt lat="44.02428" lon="4.06721">
        <ele>111</ele>
        <time>2021-08-15T16:44:50Z</time>
      </trkpt>
      <trkpt lat="44.02448" lon="4.06859">
        <ele>109</ele>
        <time>2021-08-15T16:45:05Z</time>
      </trkpt>
      <trkpt lat="44.02469" lon="4.07002">
        <ele>108.6</ele>
        <time>2021-08-15T16:45:20Z</time>
      </trkpt>
      <trkpt lat="44.02464" lon="4.07132">
        <ele>105.9</ele>
        <time>2021-08-15T16:45:35Z</time>
      </trkpt>
      <trkpt lat="44.02456" lon="4.0729">
        <ele>105.1</ele>
        <time>2021-08-15T16:45:55Z</time>
      </trkpt>
      <trkpt lat="44.02438" lon="4.07437">
        <ele>103.1</ele>
        <time>2021-08-15T16:46:20Z</time>
      </trkpt>
      <trkpt lat="44.02407" lon="4.07574">
        <ele>101.8</ele>
        <time>2021-08-15T16:46:40Z</time>
      </trkpt>
      <trkpt lat="44.02395" lon="4.07723">
        <ele>98.1</ele>
        <time>2021-08-15T16:47:00Z</time>
      </trkpt>
      <trkpt lat="44.02407" lon="4.07861">
        <ele>100.8</ele>
        <time>2021-08-15T16:47:15Z</time>
      </trkpt>
      <trkpt lat="44.0243" lon="4.08008">
        <ele>102.2</ele>
        <time>2021-08-15T16:47:35Z</time>
      </trkpt>
      <trkpt lat="44.02538" lon="4.08043">
        <ele>105.9</ele>
        <time>2021-08-15T16:48:42Z</time>
      </trkpt>
      <trkpt lat="44.02626" lon="4.08005">
        <ele>107.5</ele>
        <time>2021-08-15T16:49:12Z</time>
      </trkpt>
      <trkpt lat="44.0268" lon="4.08131">
        <ele>109.6</ele>
        <time>2021-08-15T16:50:44Z</time>
      </trkpt>
      <trkpt lat="44.02698" lon="4.08265">
        <ele>108.7</ele>
        <time>2021-08-15T16:51:09Z</time>
      </trkpt>
      <trkpt lat="44.02727" lon="4.08386">
        <ele>107.9</ele>
        <time>2021-08-15T16:51:24Z</time>
      </trkpt>
      <trkpt lat="44.02778" lon="4.08533">
        <ele>107.4</ele>
        <time>2021-08-15T16:51:44Z</time>
      </trkpt>
      <trkpt lat="44.02867" lon="4.08651">
        <ele>102.7</ele>
        <time>2021-08-15T16:52:04Z</time>
      </trkpt>
      <trkpt lat="44.0295" lon="4.08714">
        <ele>99.6</ele>
        <time>2021-08-15T16:52:34Z</time>
      </trkpt>
    </trkseg>
  </trk>
  <trk>
    <name><![CDATA[Jour04]]></name>
    <trkseg>
      <trkpt lat="44.03061" lon="4.08635">
        <ele>56.9</ele>
        <time>2021-08-16T06:05:34Z</time>
      </trkpt>
      <trkpt lat="44.02979" lon="4.08706">
        <ele>90.3</ele>
        <time>2021-08-16T06:09:20Z</time>
      </trkpt>
      <trkpt lat="44.02885" lon="4.08693">
        <ele>99.5</ele>
        <time>2021-08-16T06:11:22Z</time>
      </trkpt>
      <trkpt lat="44.02809" lon="4.08574">
        <ele>98.5</ele>
        <time>2021-08-16T06:11:47Z</time>
      </trkpt>
      <trkpt lat="44.02746" lon="4.08463">
        <ele>98.5</ele>
        <time>2021-08-16T06:12:07Z</time>
      </trkpt>
      <trkpt lat="44.02715" lon="4.0834">
        <ele>96.9</ele>
        <time>2021-08-16T06:12:27Z</time>
      </trkpt>
      <trkpt lat="44.02689" lon="4.08214">
        <ele>96.5</ele>
        <time>2021-08-16T06:12:47Z</time>
      </trkpt>
      <trkpt lat="44.02597" lon="4.08163">
        <ele>99.6</ele>
        <time>2021-08-16T06:13:22Z</time>
      </trkpt>
      <trkpt lat="44.02554" lon="4.08044">
        <ele>101.3</ele>
        <time>2021-08-16T06:14:04Z</time>
      </trkpt>
      <trkpt lat="44.02461" lon="4.08013">
        <ele>103.8</ele>
        <time>2021-08-16T06:14:29Z</time>
      </trkpt>
      <trkpt lat="44.0236" lon="4.07984">
        <ele>106.8</ele>
        <time>2021-08-16T06:15:03Z</time>
      </trkpt>
      <trkpt lat="44.0226" lon="4.07978">
        <ele>110.1</ele>
        <time>2021-08-16T06:15:23Z</time>
      </trkpt>
      <trkpt lat="44.02362" lon="4.07986">
        <ele>105.2</ele>
        <time>2021-08-16T06:19:35Z</time>
      </trkpt>
      <trkpt lat="44.02405" lon="4.0786">
        <ele>108.1</ele>
        <time>2021-08-16T06:20:15Z</time>
      </trkpt>
      <trkpt lat="44.02382" lon="4.0773">
        <ele>108.3</ele>
        <time>2021-08-16T06:20:35Z</time>
      </trkpt>
      <trkpt lat="44.02405" lon="4.0756">
        <ele>106.3</ele>
        <time>2021-08-16T06:21:00Z</time>
      </trkpt>
      <trkpt lat="44.02442" lon="4.07411">
        <ele>104.5</ele>
        <time>2021-08-16T06:21:20Z</time>
      </trkpt>
      <trkpt lat="44.02455" lon="4.07269">
        <ele>104</ele>
        <time>2021-08-16T06:21:40Z</time>
      </trkpt>
      <trkpt lat="44.02469" lon="4.07112">
        <ele>104.6</ele>
        <time>2021-08-16T06:22:00Z</time>
      </trkpt>
      <trkpt lat="44.02464" lon="4.0696">
        <ele>107.3</ele>
        <time>2021-08-16T06:22:20Z</time>
      </trkpt>
      <trkpt lat="44.02446" lon="4.06827">
        <ele>104.7</ele>
        <time>2021-08-16T06:22:40Z</time>
      </trkpt>
      <trkpt lat="44.02427" lon="4.06698">
        <ele>104.4</ele>
        <time>2021-08-16T06:23:00Z</time>
      </trkpt>
      <trkpt lat="44.02399" lon="4.06568">
        <ele>102.8</ele>
        <time>2021-08-16T06:23:20Z</time>
      </trkpt>
      <trkpt lat="44.02369" lon="4.06418">
        <ele>101</ele>
        <time>2021-08-16T06:23:40Z</time>
      </trkpt>
      <trkpt lat="44.02336" lon="4.06277">
        <ele>101.2</ele>
        <time>2021-08-16T06:24:00Z</time>
      </trkpt>
      <trkpt lat="44.02302" lon="4.06142">
        <ele>101.3</ele>
        <time>2021-08-16T06:24:20Z</time>
      </trkpt>
      <trkpt lat="44.0227" lon="4.06001">
        <ele>104.8</ele>
        <time>2021-08-16T06:24:40Z</time>
      </trkpt>
      <trkpt lat="44.02238" lon="4.05861">
        <ele>106.8</ele>
        <time>2021-08-16T06:25:00Z</time>
      </trkpt>
      <trkpt lat="44.0219" lon="4.05729">
        <ele>108</ele>
        <time>2021-08-16T06:25:20Z</time>
      </trkpt>
      <trkpt lat="44.021" lon="4.05644">
        <ele>106.7</ele>
        <time>2021-08-16T06:25:40Z</time>
      </trkpt>
      <trkpt lat="44.02004" lon="4.05562">
        <ele>106.2</ele>
        <time>2021-08-16T06:26:00Z</time>
      </trkpt>
      <trkpt lat="44.01966" lon="4.05427">
        <ele>107.7</ele>
        <time>2021-08-16T06:26:20Z</time>
      </trkpt>
      <trkpt lat="44.01978" lon="4.05282">
        <ele>105.4</ele>
        <time>2021-08-16T06:26:40Z</time>
      </trkpt>
      <trkpt lat="44.0199" lon="4.05138">
        <ele>105.6</ele>
        <time>2021-08-16T06:27:05Z</time>
      </trkpt>
      <trkpt lat="44.02004" lon="4.05009">
        <ele>105.4</ele>
        <time>2021-08-16T06:27:25Z</time>
      </trkpt>
      <trkpt lat="44.02051" lon="4.04891">
        <ele>107.9</ele>
        <time>2021-08-16T06:27:45Z</time>
      </trkpt>
      <trkpt lat="44.02117" lon="4.04778">
        <ele>108.2</ele>
        <time>2021-08-16T06:28:05Z</time>
      </trkpt>
      <trkpt lat="44.0216" lon="4.04658">
        <ele>108.1</ele>
        <time>2021-08-16T06:28:25Z</time>
      </trkpt>
      <trkpt lat="44.02171" lon="4.04523">
        <ele>107.9</ele>
        <time>2021-08-16T06:28:45Z</time>
      </trkpt>
      <trkpt lat="44.02178" lon="4.04385">
        <ele>108.7</ele>
        <time>2021-08-16T06:29:05Z</time>
      </trkpt>
      <trkpt lat="44.02188" lon="4.04247">
        <ele>110</ele>
        <time>2021-08-16T06:29:25Z</time>
      </trkpt>
      <trkpt lat="44.02202" lon="4.04099">
        <ele>109.7</ele>
        <time>2021-08-16T06:29:50Z</time>
      </trkpt>
      <trkpt lat="44.02241" lon="4.03963">
        <ele>115.2</ele>
        <time>2021-08-16T06:30:15Z</time>
      </trkpt>
      <trkpt lat="44.02289" lon="4.03858">
        <ele>113.6</ele>
        <time>2021-08-16T06:30:45Z</time>
      </trkpt>
      <trkpt lat="44.02338" lon="4.03737">
        <ele>113.9</ele>
        <time>2021-08-16T06:31:15Z</time>
      </trkpt>
      <trkpt lat="44.02379" lon="4.03626">
        <ele>112.9</ele>
        <time>2021-08-16T06:31:40Z</time>
      </trkpt>
      <trkpt lat="44.02422" lon="4.03488">
        <ele>114.1</ele>
        <time>2021-08-16T06:32:05Z</time>
      </trkpt>
      <trkpt lat="44.02452" lon="4.03345">
        <ele>114.4</ele>
        <time>2021-08-16T06:32:30Z</time>
      </trkpt>
      <trkpt lat="44.02465" lon="4.03205">
        <ele>111.5</ele>
        <time>2021-08-16T06:32:55Z</time>
      </trkpt>
      <trkpt lat="44.02468" lon="4.03058">
        <ele>112.2</ele>
        <time>2021-08-16T06:33:20Z</time>
      </trkpt>
      <trkpt lat="44.02476" lon="4.02915">
        <ele>113.3</ele>
        <time>2021-08-16T06:33:45Z</time>
      </trkpt>
      <trkpt lat="44.02482" lon="4.02762">
        <ele>113.1</ele>
        <time>2021-08-16T06:34:15Z</time>
      </trkpt>
      <trkpt lat="44.02456" lon="4.02627">
        <ele>112.8</ele>
        <time>2021-08-16T06:34:40Z</time>
      </trkpt>
      <trkpt lat="44.02481" lon="4.0248">
        <ele>120.4</ele>
        <time>2021-08-16T06:37:48Z</time>
      </trkpt>
      <trkpt lat="44.02529" lon="4.0236">
        <ele>122.9</ele>
        <time>2021-08-16T06:38:08Z</time>
      </trkpt>
      <trkpt lat="44.02617" lon="4.0227">
        <ele>122.9</ele>
        <time>2021-08-16T06:38:33Z</time>
      </trkpt>
      <trkpt lat="44.02685" lon="4.02176">
        <ele>124.9</ele>
        <time>2021-08-16T06:38:58Z</time>
      </trkpt>
      <trkpt lat="44.02733" lon="4.02052">
        <ele>123.4</ele>
        <time>2021-08-16T06:39:23Z</time>
      </trkpt>
      <trkpt lat="44.0277" lon="4.01935">
        <ele>121.1</ele>
        <time>2021-08-16T06:39:43Z</time>
      </trkpt>
      <trkpt lat="44.02817" lon="4.0182">
        <ele>121.2</ele>
        <time>2021-08-16T06:40:03Z</time>
      </trkpt>
      <trkpt lat="44.02876" lon="4.01724">
        <ele>123.4</ele>
        <time>2021-08-16T06:40:23Z</time>
      </trkpt>
      <trkpt lat="44.02939" lon="4.01602">
        <ele>124.1</ele>
        <time>2021-08-16T06:40:48Z</time>
      </trkpt>
      <trkpt lat="44.02989" lon="4.01474">
        <ele>123.9</ele>
        <time>2021-08-16T06:41:13Z</time>
      </trkpt>
      <trkpt lat="44.03035" lon="4.01368">
        <ele>125</ele>
        <time>2021-08-16T06:41:33Z</time>
      </trkpt>
      <trkpt lat="44.0299" lon="4.01239">
        <ele>130.1</ele>
        <time>2021-08-16T06:42:17Z</time>
      </trkpt>
      <trkpt lat="44.02936" lon="4.0113">
        <ele>126.1</ele>
        <time>2021-08-16T06:42:42Z</time>
      </trkpt>
      <trkpt lat="44.02874" lon="4.01031">
        <ele>124.5</ele>
        <time>2021-08-16T06:43:07Z</time>
      </trkpt>
      <trkpt lat="44.02814" lon="4.00909">
        <ele>127.2</ele>
        <time>2021-08-16T06:43:37Z</time>
      </trkpt>
      <trkpt lat="44.0275" lon="4.00817">
        <ele>129.3</ele>
        <time>2021-08-16T06:44:02Z</time>
      </trkpt>
      <trkpt lat="44.02682" lon="4.00726">
        <ele>130.6</ele>
        <time>2021-08-16T06:44:22Z</time>
      </trkpt>
      <trkpt lat="44.02601" lon="4.00637">
        <ele>128.7</ele>
        <time>2021-08-16T06:45:53Z</time>
      </trkpt>
      <trkpt lat="44.02545" lon="4.00531">
        <ele>137.6</ele>
        <time>2021-08-16T06:46:38Z</time>
      </trkpt>
      <trkpt lat="44.02514" lon="4.00406">
        <ele>139</ele>
        <time>2021-08-16T06:46:58Z</time>
      </trkpt>
      <trkpt lat="44.02454" lon="4.003">
        <ele>132</ele>
        <time>2021-08-16T06:47:23Z</time>
      </trkpt>
      <trkpt lat="44.02442" lon="4.00169">
        <ele>124.6</ele>
        <time>2021-08-16T06:47:48Z</time>
      </trkpt>
      <trkpt lat="44.02472" lon="4.00033">
        <ele>136.9</ele>
        <time>2021-08-16T06:48:23Z</time>
      </trkpt>
      <trkpt lat="44.02494" lon="3.99899">
        <ele>135.6</ele>
        <time>2021-08-16T06:48:53Z</time>
      </trkpt>
      <trkpt lat="44.02499" lon="3.99768">
        <ele>137.3</ele>
        <time>2021-08-16T06:49:23Z</time>
      </trkpt>
      <trkpt lat="44.02411" lon="3.99731">
        <ele>142.5</ele>
        <time>2021-08-16T06:49:58Z</time>
      </trkpt>
      <trkpt lat="44.02311" lon="3.99708">
        <ele>143.1</ele>
        <time>2021-08-16T06:50:18Z</time>
      </trkpt>
      <trkpt lat="44.02224" lon="3.99661">
        <ele>144.2</ele>
        <time>2021-08-16T06:50:38Z</time>
      </trkpt>
      <trkpt lat="44.02143" lon="3.99591">
        <ele>144.2</ele>
        <time>2021-08-16T06:50:58Z</time>
      </trkpt>
      <trkpt lat="44.02062" lon="3.99516">
        <ele>143.1</ele>
        <time>2021-08-16T06:51:23Z</time>
      </trkpt>
      <trkpt lat="44.0197" lon="3.99467">
        <ele>143.3</ele>
        <time>2021-08-16T06:51:43Z</time>
      </trkpt>
      <trkpt lat="44.01877" lon="3.99438">
        <ele>141.7</ele>
        <time>2021-08-16T06:51:58Z</time>
      </trkpt>
      <trkpt lat="44.01788" lon="3.9937">
        <ele>139.7</ele>
        <time>2021-08-16T06:52:13Z</time>
      </trkpt>
      <trkpt lat="44.01713" lon="3.99292">
        <ele>137.4</ele>
        <time>2021-08-16T06:52:33Z</time>
      </trkpt>
      <trkpt lat="44.01623" lon="3.99208">
        <ele>140.6</ele>
        <time>2021-08-16T06:52:58Z</time>
      </trkpt>
      <trkpt lat="44.01602" lon="3.99346">
        <ele>153.7</ele>
        <time>2021-08-16T06:53:48Z</time>
      </trkpt>
      <trkpt lat="44.01537" lon="3.99431">
        <ele>162.6</ele>
        <time>2021-08-16T06:54:33Z</time>
      </trkpt>
      <trkpt lat="44.01441" lon="3.99387">
        <ele>162.8</ele>
        <time>2021-08-16T06:55:20Z</time>
      </trkpt>
      <trkpt lat="44.01347" lon="3.99358">
        <ele>163.3</ele>
        <time>2021-08-16T06:55:55Z</time>
      </trkpt>
      <trkpt lat="44.0125" lon="3.9934">
        <ele>167.9</ele>
        <time>2021-08-16T06:56:35Z</time>
      </trkpt>
      <trkpt lat="44.0117" lon="3.99249">
        <ele>170.2</ele>
        <time>2021-08-16T06:57:20Z</time>
      </trkpt>
      <trkpt lat="44.01126" lon="3.99124">
        <ele>178.4</ele>
        <time>2021-08-16T06:58:05Z</time>
      </trkpt>
      <trkpt lat="44.01107" lon="3.98997">
        <ele>179.7</ele>
        <time>2021-08-16T06:58:46Z</time>
      </trkpt>
      <trkpt lat="44.01055" lon="3.9887">
        <ele>180.7</ele>
        <time>2021-08-16T06:59:06Z</time>
      </trkpt>
      <trkpt lat="44.01033" lon="3.98742">
        <ele>181</ele>
        <time>2021-08-16T06:59:21Z</time>
      </trkpt>
      <trkpt lat="44.01037" lon="3.98612">
        <ele>182.2</ele>
        <time>2021-08-16T06:59:36Z</time>
      </trkpt>
      <trkpt lat="44.00977" lon="3.98503">
        <ele>182.9</ele>
        <time>2021-08-16T06:59:51Z</time>
      </trkpt>
      <trkpt lat="44.00876" lon="3.98427">
        <ele>181.9</ele>
        <time>2021-08-16T07:00:11Z</time>
      </trkpt>
      <trkpt lat="44.00772" lon="3.98378">
        <ele>181.7</ele>
        <time>2021-08-16T07:00:26Z</time>
      </trkpt>
      <trkpt lat="44.00668" lon="3.98322">
        <ele>175.9</ele>
        <time>2021-08-16T07:00:41Z</time>
      </trkpt>
      <trkpt lat="44.00571" lon="3.98263">
        <ele>170.1</ele>
        <time>2021-08-16T07:01:01Z</time>
      </trkpt>
      <trkpt lat="44.00502" lon="3.98168">
        <ele>166.1</ele>
        <time>2021-08-16T07:01:16Z</time>
      </trkpt>
      <trkpt lat="44.00422" lon="3.98075">
        <ele>165.5</ele>
        <time>2021-08-16T07:01:36Z</time>
      </trkpt>
      <trkpt lat="44.00331" lon="3.98015">
        <ele>162.1</ele>
        <time>2021-08-16T07:01:56Z</time>
      </trkpt>
      <trkpt lat="44.00239" lon="3.9793">
        <ele>156.7</ele>
        <time>2021-08-16T07:02:16Z</time>
      </trkpt>
      <trkpt lat="44.00152" lon="3.97834">
        <ele>154.6</ele>
        <time>2021-08-16T07:02:31Z</time>
      </trkpt>
      <trkpt lat="44.0007" lon="3.9774">
        <ele>153.2</ele>
        <time>2021-08-16T07:02:46Z</time>
      </trkpt>
      <trkpt lat="43.99986" lon="3.97639">
        <ele>154.8</ele>
        <time>2021-08-16T07:03:01Z</time>
      </trkpt>
      <trkpt lat="43.9991" lon="3.97551">
        <ele>157.4</ele>
        <time>2021-08-16T07:03:16Z</time>
      </trkpt>
      <trkpt lat="43.99824" lon="3.97478">
        <ele>160</ele>
        <time>2021-08-16T07:03:41Z</time>
      </trkpt>
      <trkpt lat="43.9974" lon="3.97414">
        <ele>172.2</ele>
        <time>2021-08-16T07:04:16Z</time>
      </trkpt>
      <trkpt lat="43.99664" lon="3.97309">
        <ele>173.3</ele>
        <time>2021-08-16T07:04:36Z</time>
      </trkpt>
      <trkpt lat="43.99592" lon="3.97201">
        <ele>174.9</ele>
        <time>2021-08-16T07:04:51Z</time>
      </trkpt>
      <trkpt lat="43.99522" lon="3.97087">
        <ele>175.6</ele>
        <time>2021-08-16T07:05:06Z</time>
      </trkpt>
      <trkpt lat="43.99463" lon="3.96983">
        <ele>175</ele>
        <time>2021-08-16T07:05:16Z</time>
      </trkpt>
      <trkpt lat="43.99394" lon="3.96839">
        <ele>170</ele>
        <time>2021-08-16T07:05:31Z</time>
      </trkpt>
      <trkpt lat="43.99347" lon="3.96708">
        <ele>166</ele>
        <time>2021-08-16T07:05:51Z</time>
      </trkpt>
      <trkpt lat="43.99331" lon="3.96577">
        <ele>165.4</ele>
        <time>2021-08-16T07:06:21Z</time>
      </trkpt>
      <trkpt lat="43.99311" lon="3.9645">
        <ele>163.8</ele>
        <time>2021-08-16T07:06:46Z</time>
      </trkpt>
      <trkpt lat="43.9929" lon="3.96315">
        <ele>158.1</ele>
        <time>2021-08-16T07:07:11Z</time>
      </trkpt>
      <trkpt lat="43.99256" lon="3.96171">
        <ele>154.7</ele>
        <time>2021-08-16T07:07:36Z</time>
      </trkpt>
      <trkpt lat="43.99234" lon="3.96037">
        <ele>150.8</ele>
        <time>2021-08-16T07:07:56Z</time>
      </trkpt>
      <trkpt lat="43.9915" lon="3.95943">
        <ele>150.1</ele>
        <time>2021-08-16T07:08:16Z</time>
      </trkpt>
      <trkpt lat="43.99101" lon="3.95827">
        <ele>149.4</ele>
        <time>2021-08-16T07:08:46Z</time>
      </trkpt>
      <trkpt lat="43.99048" lon="3.95706">
        <ele>156.5</ele>
        <time>2021-08-16T07:09:21Z</time>
      </trkpt>
      <trkpt lat="43.98991" lon="3.95593">
        <ele>167.1</ele>
        <time>2021-08-16T07:09:56Z</time>
      </trkpt>
      <trkpt lat="43.9893" lon="3.95494">
        <ele>175.8</ele>
        <time>2021-08-16T07:10:47Z</time>
      </trkpt>
      <trkpt lat="43.98933" lon="3.95364">
        <ele>174.1</ele>
        <time>2021-08-16T07:14:16Z</time>
      </trkpt>
      <trkpt lat="43.98922" lon="3.95221">
        <ele>177.2</ele>
        <time>2021-08-16T07:14:46Z</time>
      </trkpt>
      <trkpt lat="43.98903" lon="3.95071">
        <ele>173.4</ele>
        <time>2021-08-16T07:15:11Z</time>
      </trkpt>
      <trkpt lat="43.98888" lon="3.94933">
        <ele>171.6</ele>
        <time>2021-08-16T07:15:36Z</time>
      </trkpt>
      <trkpt lat="43.98884" lon="3.94801">
        <ele>172.2</ele>
        <time>2021-08-16T07:16:01Z</time>
      </trkpt>
      <trkpt lat="43.98872" lon="3.94672">
        <ele>174.4</ele>
        <time>2021-08-16T07:16:26Z</time>
      </trkpt>
      <trkpt lat="43.98852" lon="3.9453">
        <ele>177.8</ele>
        <time>2021-08-16T07:17:01Z</time>
      </trkpt>
      <trkpt lat="43.98822" lon="3.9439">
        <ele>187.2</ele>
        <time>2021-08-16T07:17:36Z</time>
      </trkpt>
      <trkpt lat="43.98781" lon="3.94253">
        <ele>194.5</ele>
        <time>2021-08-16T07:18:06Z</time>
      </trkpt>
      <trkpt lat="43.98754" lon="3.94122">
        <ele>204.5</ele>
        <time>2021-08-16T07:18:47Z</time>
      </trkpt>
      <trkpt lat="43.98719" lon="3.93988">
        <ele>217</ele>
        <time>2021-08-16T07:19:32Z</time>
      </trkpt>
      <trkpt lat="43.98657" lon="3.93857">
        <ele>212.4</ele>
        <time>2021-08-16T07:21:29Z</time>
      </trkpt>
      <trkpt lat="43.98597" lon="3.93727">
        <ele>208.2</ele>
        <time>2021-08-16T07:21:49Z</time>
      </trkpt>
      <trkpt lat="43.98516" lon="3.93609">
        <ele>205.8</ele>
        <time>2021-08-16T07:22:04Z</time>
      </trkpt>
      <trkpt lat="43.98435" lon="3.93496">
        <ele>201.8</ele>
        <time>2021-08-16T07:22:19Z</time>
      </trkpt>
      <trkpt lat="43.9837" lon="3.9337">
        <ele>198.7</ele>
        <time>2021-08-16T07:22:34Z</time>
      </trkpt>
      <trkpt lat="43.98314" lon="3.93239">
        <ele>197.3</ele>
        <time>2021-08-16T07:22:49Z</time>
      </trkpt>
      <trkpt lat="43.98253" lon="3.93133">
        <ele>196.3</ele>
        <time>2021-08-16T07:23:09Z</time>
      </trkpt>
      <trkpt lat="43.98177" lon="3.93052">
        <ele>196.2</ele>
        <time>2021-08-16T07:23:29Z</time>
      </trkpt>
      <trkpt lat="43.98069" lon="3.92953">
        <ele>194.1</ele>
        <time>2021-08-16T07:23:49Z</time>
      </trkpt>
      <trkpt lat="43.97967" lon="3.92826">
        <ele>190.2</ele>
        <time>2021-08-16T07:24:04Z</time>
      </trkpt>
      <trkpt lat="43.97894" lon="3.92738">
        <ele>186.5</ele>
        <time>2021-08-16T07:24:14Z</time>
      </trkpt>
      <trkpt lat="43.97819" lon="3.92646">
        <ele>181.6</ele>
        <time>2021-08-16T07:24:24Z</time>
      </trkpt>
      <trkpt lat="43.97746" lon="3.92565">
        <ele>177.9</ele>
        <time>2021-08-16T07:24:34Z</time>
      </trkpt>
      <trkpt lat="43.97634" lon="3.92486">
        <ele>173.8</ele>
        <time>2021-08-16T07:24:49Z</time>
      </trkpt>
      <trkpt lat="43.97539" lon="3.92464">
        <ele>167.9</ele>
        <time>2021-08-16T07:25:04Z</time>
      </trkpt>
      <trkpt lat="43.97434" lon="3.92473">
        <ele>162.3</ele>
        <time>2021-08-16T07:25:24Z</time>
      </trkpt>
      <trkpt lat="43.97318" lon="3.92489">
        <ele>156.9</ele>
        <time>2021-08-16T07:25:44Z</time>
      </trkpt>
      <trkpt lat="43.97219" lon="3.92465">
        <ele>155.1</ele>
        <time>2021-08-16T07:25:59Z</time>
      </trkpt>
      <trkpt lat="43.97127" lon="3.92441">
        <ele>155.5</ele>
        <time>2021-08-16T07:26:14Z</time>
      </trkpt>
      <trkpt lat="43.97019" lon="3.92411">
        <ele>160.5</ele>
        <time>2021-08-16T07:26:29Z</time>
      </trkpt>
      <trkpt lat="43.96904" lon="3.92318">
        <ele>165.5</ele>
        <time>2021-08-16T07:26:44Z</time>
      </trkpt>
      <trkpt lat="43.9683" lon="3.92207">
        <ele>168</ele>
        <time>2021-08-16T07:26:59Z</time>
      </trkpt>
      <trkpt lat="43.9675" lon="3.9209">
        <ele>171.1</ele>
        <time>2021-08-16T07:27:19Z</time>
      </trkpt>
      <trkpt lat="43.96666" lon="3.91962">
        <ele>171.8</ele>
        <time>2021-08-16T07:27:39Z</time>
      </trkpt>
      <trkpt lat="43.966" lon="3.91845">
        <ele>171.6</ele>
        <time>2021-08-16T07:27:54Z</time>
      </trkpt>
      <trkpt lat="43.96492" lon="3.91803">
        <ele>171.8</ele>
        <time>2021-08-16T07:29:39Z</time>
      </trkpt>
      <trkpt lat="43.96404" lon="3.91846">
        <ele>170.5</ele>
        <time>2021-08-16T07:29:49Z</time>
      </trkpt>
      <trkpt lat="43.96303" lon="3.91875">
        <ele>166</ele>
        <time>2021-08-16T07:29:59Z</time>
      </trkpt>
      <trkpt lat="43.96214" lon="3.91807">
        <ele>163.8</ele>
        <time>2021-08-16T07:30:09Z</time>
      </trkpt>
      <trkpt lat="43.96135" lon="3.91735">
        <ele>161.4</ele>
        <time>2021-08-16T07:30:19Z</time>
      </trkpt>
      <trkpt lat="43.96054" lon="3.9165">
        <ele>159.5</ele>
        <time>2021-08-16T07:30:29Z</time>
      </trkpt>
      <trkpt lat="43.96031" lon="3.91512">
        <ele>150.3</ele>
        <time>2021-08-16T07:30:54Z</time>
      </trkpt>
      <trkpt lat="43.96016" lon="3.91367">
        <ele>138.9</ele>
        <time>2021-08-16T07:31:29Z</time>
      </trkpt>
      <trkpt lat="43.9601" lon="3.91214">
        <ele>130.8</ele>
        <time>2021-08-16T07:31:59Z</time>
      </trkpt>
      <trkpt lat="43.95994" lon="3.91068">
        <ele>126.3</ele>
        <time>2021-08-16T07:32:24Z</time>
      </trkpt>
      <trkpt lat="43.95963" lon="3.90915">
        <ele>122.4</ele>
        <time>2021-08-16T07:32:49Z</time>
      </trkpt>
      <trkpt lat="43.95937" lon="3.90787">
        <ele>119.3</ele>
        <time>2021-08-16T07:33:09Z</time>
      </trkpt>
      <trkpt lat="43.95909" lon="3.90636">
        <ele>118.8</ele>
        <time>2021-08-16T07:33:29Z</time>
      </trkpt>
      <trkpt lat="43.95884" lon="3.90508">
        <ele>120</ele>
        <time>2021-08-16T07:33:49Z</time>
      </trkpt>
      <trkpt lat="43.95865" lon="3.90372">
        <ele>120.5</ele>
        <time>2021-08-16T07:34:14Z</time>
      </trkpt>
      <trkpt lat="43.95881" lon="3.90231">
        <ele>121</ele>
        <time>2021-08-16T07:34:34Z</time>
      </trkpt>
      <trkpt lat="43.95897" lon="3.90091">
        <ele>122.5</ele>
        <time>2021-08-16T07:34:54Z</time>
      </trkpt>
      <trkpt lat="43.95912" lon="3.89953">
        <ele>122.2</ele>
        <time>2021-08-16T07:35:14Z</time>
      </trkpt>
      <trkpt lat="43.95953" lon="3.89824">
        <ele>122.3</ele>
        <time>2021-08-16T07:35:39Z</time>
      </trkpt>
      <trkpt lat="43.95993" lon="3.89687">
        <ele>124.2</ele>
        <time>2021-08-16T07:36:04Z</time>
      </trkpt>
      <trkpt lat="43.96043" lon="3.89556">
        <ele>125</ele>
        <time>2021-08-16T07:36:29Z</time>
      </trkpt>
      <trkpt lat="43.96082" lon="3.89438">
        <ele>127.2</ele>
        <time>2021-08-16T07:36:49Z</time>
      </trkpt>
      <trkpt lat="43.96103" lon="3.89314">
        <ele>129</ele>
        <time>2021-08-16T07:37:09Z</time>
      </trkpt>
      <trkpt lat="43.96127" lon="3.89172">
        <ele>131.3</ele>
        <time>2021-08-16T07:37:34Z</time>
      </trkpt>
      <trkpt lat="43.96154" lon="3.8903">
        <ele>131.7</ele>
        <time>2021-08-16T07:37:59Z</time>
      </trkpt>
      <trkpt lat="43.96164" lon="3.8887">
        <ele>135.2</ele>
        <time>2021-08-16T07:38:24Z</time>
      </trkpt>
      <trkpt lat="43.96169" lon="3.88723">
        <ele>136.1</ele>
        <time>2021-08-16T07:38:44Z</time>
      </trkpt>
      <trkpt lat="43.96188" lon="3.88584">
        <ele>155</ele>
        <time>2021-08-16T07:40:58Z</time>
      </trkpt>
      <trkpt lat="43.96203" lon="3.88443">
        <ele>158.9</ele>
        <time>2021-08-16T07:41:28Z</time>
      </trkpt>
      <trkpt lat="43.96221" lon="3.88311">
        <ele>166.2</ele>
        <time>2021-08-16T07:41:58Z</time>
      </trkpt>
      <trkpt lat="43.9625" lon="3.88183">
        <ele>171.2</ele>
        <time>2021-08-16T07:42:23Z</time>
      </trkpt>
      <trkpt lat="43.96294" lon="3.88045">
        <ele>173.3</ele>
        <time>2021-08-16T07:42:48Z</time>
      </trkpt>
      <trkpt lat="43.96337" lon="3.87905">
        <ele>174.7</ele>
        <time>2021-08-16T07:43:13Z</time>
      </trkpt>
      <trkpt lat="43.96369" lon="3.87763">
        <ele>176.8</ele>
        <time>2021-08-16T07:43:38Z</time>
      </trkpt>
      <trkpt lat="43.96384" lon="3.87608">
        <ele>183.8</ele>
        <time>2021-08-16T07:44:03Z</time>
      </trkpt>
      <trkpt lat="43.96377" lon="3.87461">
        <ele>191.2</ele>
        <time>2021-08-16T07:44:28Z</time>
      </trkpt>
      <trkpt lat="43.96371" lon="3.8733">
        <ele>195.3</ele>
        <time>2021-08-16T07:44:48Z</time>
      </trkpt>
      <trkpt lat="43.9639" lon="3.87198">
        <ele>199.1</ele>
        <time>2021-08-16T07:45:08Z</time>
      </trkpt>
      <trkpt lat="43.96437" lon="3.87073">
        <ele>189.9</ele>
        <time>2021-08-16T07:45:28Z</time>
      </trkpt>
      <trkpt lat="43.96506" lon="3.86983">
        <ele>185.7</ele>
        <time>2021-08-16T07:45:48Z</time>
      </trkpt>
      <trkpt lat="43.96583" lon="3.86896">
        <ele>179.7</ele>
        <time>2021-08-16T07:46:08Z</time>
      </trkpt>
      <trkpt lat="43.96662" lon="3.86785">
        <ele>173</ele>
        <time>2021-08-16T07:46:28Z</time>
      </trkpt>
      <trkpt lat="43.9671" lon="3.86674">
        <ele>173.6</ele>
        <time>2021-08-16T07:46:43Z</time>
      </trkpt>
      <trkpt lat="43.96722" lon="3.86527">
        <ele>173.2</ele>
        <time>2021-08-16T07:47:03Z</time>
      </trkpt>
      <trkpt lat="43.96709" lon="3.86386">
        <ele>170.3</ele>
        <time>2021-08-16T07:47:23Z</time>
      </trkpt>
      <trkpt lat="43.96698" lon="3.86257">
        <ele>173.6</ele>
        <time>2021-08-16T07:47:43Z</time>
      </trkpt>
      <trkpt lat="43.96627" lon="3.86136">
        <ele>179.6</ele>
        <time>2021-08-16T07:48:23Z</time>
      </trkpt>
      <trkpt lat="43.96604" lon="3.86">
        <ele>181.3</ele>
        <time>2021-08-16T07:48:43Z</time>
      </trkpt>
      <trkpt lat="43.96607" lon="3.85871">
        <ele>182.4</ele>
        <time>2021-08-16T07:48:58Z</time>
      </trkpt>
      <trkpt lat="43.96581" lon="3.85749">
        <ele>183.9</ele>
        <time>2021-08-16T07:49:18Z</time>
      </trkpt>
      <trkpt lat="43.9657" lon="3.85621">
        <ele>188</ele>
        <time>2021-08-16T07:49:48Z</time>
      </trkpt>
      <trkpt lat="43.96551" lon="3.85493">
        <ele>166.9</ele>
        <time>2021-08-16T08:14:02Z</time>
      </trkpt>
      <trkpt lat="43.96512" lon="3.85368">
        <ele>179.4</ele>
        <time>2021-08-16T08:15:00Z</time>
      </trkpt>
      <trkpt lat="43.96414" lon="3.85332">
        <ele>186.3</ele>
        <time>2021-08-16T08:15:42Z</time>
      </trkpt>
      <trkpt lat="43.9635" lon="3.85234">
        <ele>190.4</ele>
        <time>2021-08-16T08:16:02Z</time>
      </trkpt>
      <trkpt lat="43.96281" lon="3.85096">
        <ele>195.4</ele>
        <time>2021-08-16T08:16:22Z</time>
      </trkpt>
      <trkpt lat="43.96222" lon="3.84965">
        <ele>199.3</ele>
        <time>2021-08-16T08:16:42Z</time>
      </trkpt>
      <trkpt lat="43.96168" lon="3.84842">
        <ele>202.1</ele>
        <time>2021-08-16T08:17:02Z</time>
      </trkpt>
      <trkpt lat="43.96092" lon="3.84749">
        <ele>205.3</ele>
        <time>2021-08-16T08:17:22Z</time>
      </trkpt>
      <trkpt lat="43.9602" lon="3.84664">
        <ele>207.9</ele>
        <time>2021-08-16T08:17:37Z</time>
      </trkpt>
      <trkpt lat="43.95954" lon="3.84528">
        <ele>211.2</ele>
        <time>2021-08-16T08:17:57Z</time>
      </trkpt>
      <trkpt lat="43.95916" lon="3.84398">
        <ele>212.9</ele>
        <time>2021-08-16T08:18:17Z</time>
      </trkpt>
      <trkpt lat="43.95894" lon="3.84272">
        <ele>215.1</ele>
        <time>2021-08-16T08:18:37Z</time>
      </trkpt>
      <trkpt lat="43.95945" lon="3.84158">
        <ele>194.5</ele>
        <time>2021-08-16T08:21:57Z</time>
      </trkpt>
      <trkpt lat="43.96032" lon="3.84098">
        <ele>185.7</ele>
        <time>2021-08-16T08:22:34Z</time>
      </trkpt>
      <trkpt lat="43.95928" lon="3.8416">
        <ele>182.8</ele>
        <time>2021-08-16T08:24:19Z</time>
      </trkpt>
      <trkpt lat="43.95875" lon="3.84045">
        <ele>188.1</ele>
        <time>2021-08-16T08:25:14Z</time>
      </trkpt>
      <trkpt lat="43.95862" lon="3.83909">
        <ele>193.9</ele>
        <time>2021-08-16T08:25:39Z</time>
      </trkpt>
      <trkpt lat="43.95847" lon="3.83778">
        <ele>198.6</ele>
        <time>2021-08-16T08:25:59Z</time>
      </trkpt>
      <trkpt lat="43.9583" lon="3.83627">
        <ele>201.8</ele>
        <time>2021-08-16T08:26:19Z</time>
      </trkpt>
      <trkpt lat="43.95822" lon="3.83488">
        <ele>199.8</ele>
        <time>2021-08-16T08:26:39Z</time>
      </trkpt>
      <trkpt lat="43.95827" lon="3.83343">
        <ele>194.1</ele>
        <time>2021-08-16T08:26:59Z</time>
      </trkpt>
      <trkpt lat="43.95852" lon="3.83207">
        <ele>187.9</ele>
        <time>2021-08-16T08:27:19Z</time>
      </trkpt>
      <trkpt lat="43.95901" lon="3.83076">
        <ele>186.6</ele>
        <time>2021-08-16T08:27:39Z</time>
      </trkpt>
      <trkpt lat="43.95904" lon="3.82951">
        <ele>189.8</ele>
        <time>2021-08-16T08:28:04Z</time>
      </trkpt>
      <trkpt lat="43.95892" lon="3.8282">
        <ele>195.8</ele>
        <time>2021-08-16T08:28:34Z</time>
      </trkpt>
      <trkpt lat="43.95867" lon="3.8269">
        <ele>207.5</ele>
        <time>2021-08-16T08:29:09Z</time>
      </trkpt>
      <trkpt lat="43.95836" lon="3.82564">
        <ele>209.7</ele>
        <time>2021-08-16T08:29:39Z</time>
      </trkpt>
      <trkpt lat="43.95807" lon="3.82444">
        <ele>209.1</ele>
        <time>2021-08-16T08:32:46Z</time>
      </trkpt>
      <trkpt lat="43.95773" lon="3.82298">
        <ele>211.6</ele>
        <time>2021-08-16T08:33:16Z</time>
      </trkpt>
      <trkpt lat="43.95739" lon="3.82164">
        <ele>218.6</ele>
        <time>2021-08-16T08:33:46Z</time>
      </trkpt>
      <trkpt lat="43.95705" lon="3.82032">
        <ele>222.1</ele>
        <time>2021-08-16T08:34:11Z</time>
      </trkpt>
      <trkpt lat="43.95671" lon="3.8189">
        <ele>220.6</ele>
        <time>2021-08-16T08:34:41Z</time>
      </trkpt>
      <trkpt lat="43.95638" lon="3.81754">
        <ele>225</ele>
        <time>2021-08-16T08:35:11Z</time>
      </trkpt>
      <trkpt lat="43.95606" lon="3.81605">
        <ele>228.7</ele>
        <time>2021-08-16T08:35:36Z</time>
      </trkpt>
      <trkpt lat="43.9558" lon="3.81475">
        <ele>229.8</ele>
        <time>2021-08-16T08:35:56Z</time>
      </trkpt>
      <trkpt lat="43.9555" lon="3.8133">
        <ele>227.8</ele>
        <time>2021-08-16T08:36:21Z</time>
      </trkpt>
      <trkpt lat="43.9552" lon="3.81196">
        <ele>231.4</ele>
        <time>2021-08-16T08:36:46Z</time>
      </trkpt>
      <trkpt lat="43.95494" lon="3.81057">
        <ele>233</ele>
        <time>2021-08-16T08:37:16Z</time>
      </trkpt>
      <trkpt lat="43.9547" lon="3.80924">
        <ele>233.7</ele>
        <time>2021-08-16T08:37:36Z</time>
      </trkpt>
      <trkpt lat="43.95436" lon="3.80798">
        <ele>230.3</ele>
        <time>2021-08-16T08:41:15Z</time>
      </trkpt>
      <trkpt lat="43.95396" lon="3.80645">
        <ele>228.6</ele>
        <time>2021-08-16T08:41:35Z</time>
      </trkpt>
      <trkpt lat="43.95358" lon="3.80484">
        <ele>224.4</ele>
        <time>2021-08-16T08:41:50Z</time>
      </trkpt>
      <trkpt lat="43.95328" lon="3.80353">
        <ele>220.9</ele>
        <time>2021-08-16T08:42:00Z</time>
      </trkpt>
      <trkpt lat="43.953" lon="3.80232">
        <ele>219.5</ele>
        <time>2021-08-16T08:42:10Z</time>
      </trkpt>
      <trkpt lat="43.95267" lon="3.80077">
        <ele>215.2</ele>
        <time>2021-08-16T08:42:25Z</time>
      </trkpt>
      <trkpt lat="43.95234" lon="3.79942">
        <ele>212.1</ele>
        <time>2021-08-16T08:42:40Z</time>
      </trkpt>
      <trkpt lat="43.95197" lon="3.79795">
        <ele>206.9</ele>
        <time>2021-08-16T08:42:55Z</time>
      </trkpt>
      <trkpt lat="43.95165" lon="3.79654">
        <ele>206.9</ele>
        <time>2021-08-16T08:43:10Z</time>
      </trkpt>
      <trkpt lat="43.95133" lon="3.79517">
        <ele>206.7</ele>
        <time>2021-08-16T08:43:25Z</time>
      </trkpt>
      <trkpt lat="43.95097" lon="3.79367">
        <ele>209.9</ele>
        <time>2021-08-16T08:43:45Z</time>
      </trkpt>
      <trkpt lat="43.95064" lon="3.79232">
        <ele>210.5</ele>
        <time>2021-08-16T08:44:05Z</time>
      </trkpt>
      <trkpt lat="43.95025" lon="3.79074">
        <ele>212.4</ele>
        <time>2021-08-16T08:44:30Z</time>
      </trkpt>
      <trkpt lat="43.95008" lon="3.78936">
        <ele>205.7</ele>
        <time>2021-08-16T08:44:45Z</time>
      </trkpt>
      <trkpt lat="43.94995" lon="3.78792">
        <ele>201</ele>
        <time>2021-08-16T08:45:00Z</time>
      </trkpt>
      <trkpt lat="43.94986" lon="3.7866">
        <ele>198.8</ele>
        <time>2021-08-16T08:45:15Z</time>
      </trkpt>
      <trkpt lat="43.94976" lon="3.7853">
        <ele>199.9</ele>
        <time>2021-08-16T08:45:30Z</time>
      </trkpt>
      <trkpt lat="43.94962" lon="3.78387">
        <ele>203.6</ele>
        <time>2021-08-16T08:45:50Z</time>
      </trkpt>
      <trkpt lat="43.94951" lon="3.78255">
        <ele>203.1</ele>
        <time>2021-08-16T08:46:10Z</time>
      </trkpt>
      <trkpt lat="43.94939" lon="3.78123">
        <ele>199.7</ele>
        <time>2021-08-16T08:46:30Z</time>
      </trkpt>
      <trkpt lat="43.94927" lon="3.7799">
        <ele>205</ele>
        <time>2021-08-16T08:46:55Z</time>
      </trkpt>
      <trkpt lat="43.94912" lon="3.77827">
        <ele>205.1</ele>
        <time>2021-08-16T08:47:20Z</time>
      </trkpt>
      <trkpt lat="43.94899" lon="3.77681">
        <ele>202.9</ele>
        <time>2021-08-16T08:47:40Z</time>
      </trkpt>
      <trkpt lat="43.94884" lon="3.77535">
        <ele>208.8</ele>
        <time>2021-08-16T08:48:10Z</time>
      </trkpt>
      <trkpt lat="43.94872" lon="3.77397">
        <ele>211.6</ele>
        <time>2021-08-16T08:48:35Z</time>
      </trkpt>
      <trkpt lat="43.9486" lon="3.77269">
        <ele>210.9</ele>
        <time>2021-08-16T08:48:55Z</time>
      </trkpt>
      <trkpt lat="43.94847" lon="3.77142">
        <ele>211.9</ele>
        <time>2021-08-16T08:49:15Z</time>
      </trkpt>
      <trkpt lat="43.94834" lon="3.76985">
        <ele>210.7</ele>
        <time>2021-08-16T08:49:35Z</time>
      </trkpt>
      <trkpt lat="43.94821" lon="3.76845">
        <ele>209.6</ele>
        <time>2021-08-16T08:49:55Z</time>
      </trkpt>
      <trkpt lat="43.94808" lon="3.767">
        <ele>205.1</ele>
        <time>2021-08-16T08:50:20Z</time>
      </trkpt>
      <trkpt lat="43.94796" lon="3.76554">
        <ele>204.7</ele>
        <time>2021-08-16T08:50:45Z</time>
      </trkpt>
      <trkpt lat="43.94782" lon="3.76414">
        <ele>212.2</ele>
        <time>2021-08-16T08:51:15Z</time>
      </trkpt>
      <trkpt lat="43.94768" lon="3.7629">
        <ele>223</ele>
        <time>2021-08-16T08:51:45Z</time>
      </trkpt>
      <trkpt lat="43.94755" lon="3.76139">
        <ele>224.4</ele>
        <time>2021-08-16T08:52:15Z</time>
      </trkpt>
      <trkpt lat="43.94701" lon="3.7603">
        <ele>226.7</ele>
        <time>2021-08-16T08:52:40Z</time>
      </trkpt>
      <trkpt lat="43.94649" lon="3.75901">
        <ele>233.1</ele>
        <time>2021-08-16T08:53:15Z</time>
      </trkpt>
      <trkpt lat="43.94633" lon="3.75749">
        <ele>227.7</ele>
        <time>2021-08-16T08:53:30Z</time>
      </trkpt>
      <trkpt lat="43.94636" lon="3.7558">
        <ele>217.8</ele>
        <time>2021-08-16T08:53:45Z</time>
      </trkpt>
      <trkpt lat="43.94637" lon="3.75411">
        <ele>204.9</ele>
        <time>2021-08-16T08:54:00Z</time>
      </trkpt>
      <trkpt lat="43.94641" lon="3.75262">
        <ele>201.1</ele>
        <time>2021-08-16T08:54:15Z</time>
      </trkpt>
      <trkpt lat="43.94644" lon="3.75129">
        <ele>198.6</ele>
        <time>2021-08-16T08:54:30Z</time>
      </trkpt>
      <trkpt lat="43.94645" lon="3.74997">
        <ele>199</ele>
        <time>2021-08-16T08:54:50Z</time>
      </trkpt>
      <trkpt lat="43.94645" lon="3.74852">
        <ele>203.1</ele>
        <time>2021-08-16T08:55:20Z</time>
      </trkpt>
      <trkpt lat="43.94646" lon="3.74708">
        <ele>203.8</ele>
        <time>2021-08-16T08:55:50Z</time>
      </trkpt>
      <trkpt lat="43.94646" lon="3.7455">
        <ele>201.1</ele>
        <time>2021-08-16T08:56:10Z</time>
      </trkpt>
      <trkpt lat="43.94649" lon="3.74391">
        <ele>201.5</ele>
        <time>2021-08-16T08:56:30Z</time>
      </trkpt>
      <trkpt lat="43.94651" lon="3.74237">
        <ele>199.3</ele>
        <time>2021-08-16T08:56:50Z</time>
      </trkpt>
      <trkpt lat="43.94631" lon="3.7411">
        <ele>195.1</ele>
        <time>2021-08-16T08:57:05Z</time>
      </trkpt>
      <trkpt lat="43.94598" lon="3.73961">
        <ele>194.4</ele>
        <time>2021-08-16T08:57:20Z</time>
      </trkpt>
      <trkpt lat="43.94559" lon="3.73779">
        <ele>193.5</ele>
        <time>2021-08-16T08:57:35Z</time>
      </trkpt>
      <trkpt lat="43.94523" lon="3.73602">
        <ele>184.7</ele>
        <time>2021-08-16T08:57:50Z</time>
      </trkpt>
      <trkpt lat="43.94487" lon="3.73435">
        <ele>178.1</ele>
        <time>2021-08-16T08:58:05Z</time>
      </trkpt>
      <trkpt lat="43.94454" lon="3.73252">
        <ele>174.1</ele>
        <time>2021-08-16T08:58:20Z</time>
      </trkpt>
      <trkpt lat="43.94423" lon="3.73119">
        <ele>168.6</ele>
        <time>2021-08-16T08:58:30Z</time>
      </trkpt>
      <trkpt lat="43.94392" lon="3.72985">
        <ele>165.8</ele>
        <time>2021-08-16T08:58:40Z</time>
      </trkpt>
      <trkpt lat="43.94359" lon="3.72823">
        <ele>168.4</ele>
        <time>2021-08-16T08:58:55Z</time>
      </trkpt>
      <trkpt lat="43.94344" lon="3.72672">
        <ele>168.5</ele>
        <time>2021-08-16T08:59:15Z</time>
      </trkpt>
      <trkpt lat="43.94355" lon="3.72532">
        <ele>166.4</ele>
        <time>2021-08-16T08:59:40Z</time>
      </trkpt>
      <trkpt lat="43.94371" lon="3.7241">
        <ele>172.3</ele>
        <time>2021-08-16T09:00:00Z</time>
      </trkpt>
      <trkpt lat="43.94391" lon="3.72258">
        <ele>169.8</ele>
        <time>2021-08-16T09:00:20Z</time>
      </trkpt>
      <trkpt lat="43.94413" lon="3.72108">
        <ele>169.2</ele>
        <time>2021-08-16T09:00:45Z</time>
      </trkpt>
      <trkpt lat="43.9443" lon="3.71981">
        <ele>176</ele>
        <time>2021-08-16T09:01:15Z</time>
      </trkpt>
      <trkpt lat="43.94435" lon="3.71845">
        <ele>178.5</ele>
        <time>2021-08-16T09:01:50Z</time>
      </trkpt>
      <trkpt lat="43.94433" lon="3.71701">
        <ele>181</ele>
        <time>2021-08-16T09:02:25Z</time>
      </trkpt>
      <trkpt lat="43.94355" lon="3.71623">
        <ele>189.9</ele>
        <time>2021-08-16T09:06:04Z</time>
      </trkpt>
      <trkpt lat="43.94332" lon="3.71459">
        <ele>187.4</ele>
        <time>2021-08-16T09:06:24Z</time>
      </trkpt>
      <trkpt lat="43.94287" lon="3.71326">
        <ele>185.8</ele>
        <time>2021-08-16T09:06:39Z</time>
      </trkpt>
      <trkpt lat="43.94174" lon="3.7133">
        <ele>182.2</ele>
        <time>2021-08-16T09:06:54Z</time>
      </trkpt>
      <trkpt lat="43.94052" lon="3.71323">
        <ele>178.1</ele>
        <time>2021-08-16T09:07:09Z</time>
      </trkpt>
      <trkpt lat="43.93966" lon="3.71382">
        <ele>173</ele>
        <time>2021-08-16T09:07:24Z</time>
      </trkpt>
      <trkpt lat="43.93861" lon="3.71392">
        <ele>169.5</ele>
        <time>2021-08-16T09:07:39Z</time>
      </trkpt>
      <trkpt lat="43.93758" lon="3.71303">
        <ele>166.6</ele>
        <time>2021-08-16T09:07:54Z</time>
      </trkpt>
      <trkpt lat="43.93693" lon="3.71199">
        <ele>164</ele>
        <time>2021-08-16T09:08:09Z</time>
      </trkpt>
      <trkpt lat="43.93634" lon="3.71081">
        <ele>154.3</ele>
        <time>2021-08-16T09:09:54Z</time>
      </trkpt>
      <trkpt lat="43.9361" lon="3.70957">
        <ele>150.8</ele>
        <time>2021-08-16T09:10:29Z</time>
      </trkpt>
      <trkpt lat="43.93553" lon="3.70855">
        <ele>148.6</ele>
        <time>2021-08-16T09:11:58Z</time>
      </trkpt>
      <trkpt lat="43.93459" lon="3.70802">
        <ele>147.5</ele>
        <time>2021-08-16T09:12:28Z</time>
      </trkpt>
      <trkpt lat="43.93385" lon="3.70704">
        <ele>141</ele>
        <time>2021-08-16T09:13:15Z</time>
      </trkpt>
      <trkpt lat="43.93392" lon="3.7085">
        <ele>148.5</ele>
        <time>2021-08-16T09:17:28Z</time>
      </trkpt>
      <trkpt lat="43.93368" lon="3.70978">
        <ele>148.3</ele>
        <time>2021-08-16T09:17:48Z</time>
      </trkpt>
      <trkpt lat="43.93281" lon="3.71055">
        <ele>148.8</ele>
        <time>2021-08-16T09:18:03Z</time>
      </trkpt>
      <trkpt lat="43.93197" lon="3.71123">
        <ele>148.9</ele>
        <time>2021-08-16T09:18:33Z</time>
      </trkpt>
      <trkpt lat="43.931" lon="3.71204">
        <ele>149.2</ele>
        <time>2021-08-16T09:18:53Z</time>
      </trkpt>
      <trkpt lat="43.93012" lon="3.71272">
        <ele>149.5</ele>
        <time>2021-08-16T09:19:13Z</time>
      </trkpt>
      <trkpt lat="43.92932" lon="3.71335">
        <ele>149.2</ele>
        <time>2021-08-16T09:19:28Z</time>
      </trkpt>
      <trkpt lat="43.92855" lon="3.71399">
        <ele>148.8</ele>
        <time>2021-08-16T09:19:43Z</time>
      </trkpt>
      <trkpt lat="43.92772" lon="3.71462">
        <ele>148.4</ele>
        <time>2021-08-16T09:19:58Z</time>
      </trkpt>
      <trkpt lat="43.92693" lon="3.7153">
        <ele>148.1</ele>
        <time>2021-08-16T09:20:13Z</time>
      </trkpt>
      <trkpt lat="43.92609" lon="3.71625">
        <ele>145.7</ele>
        <time>2021-08-16T09:20:38Z</time>
      </trkpt>
      <trkpt lat="43.92553" lon="3.71767">
        <ele>144.7</ele>
        <time>2021-08-16T09:20:58Z</time>
      </trkpt>
      <trkpt lat="43.92518" lon="3.71903">
        <ele>145.6</ele>
        <time>2021-08-16T09:21:18Z</time>
      </trkpt>
      <trkpt lat="43.92465" lon="3.72043">
        <ele>144.5</ele>
        <time>2021-08-16T09:21:33Z</time>
      </trkpt>
      <trkpt lat="43.92528" lon="3.72138">
        <ele>142.6</ele>
        <time>2021-08-16T09:22:44Z</time>
      </trkpt>
      <trkpt lat="43.92643" lon="3.72127">
        <ele>143.1</ele>
        <time>2021-08-16T09:23:04Z</time>
      </trkpt>
      <trkpt lat="43.92693" lon="3.7201">
        <ele>147.1</ele>
        <time>2021-08-16T09:28:11Z</time>
      </trkpt>
      <trkpt lat="43.92652" lon="3.72121">
        <ele>138.7</ele>
        <time>2021-08-16T09:45:46Z</time>
      </trkpt>
      <trkpt lat="43.92735" lon="3.72054">
        <ele>141.3</ele>
        <time>2021-08-16T09:46:16Z</time>
      </trkpt>
      <trkpt lat="43.9279" lon="3.71936">
        <ele>140.4</ele>
        <time>2021-08-16T09:46:46Z</time>
      </trkpt>
      <trkpt lat="43.92864" lon="3.7202">
        <ele>137.9</ele>
        <time>2021-08-16T09:47:21Z</time>
      </trkpt>
      <trkpt lat="43.92956" lon="3.71987">
        <ele>156.3</ele>
        <time>2021-08-16T09:48:17Z</time>
      </trkpt>
      <trkpt lat="43.93027" lon="3.71913">
        <ele>161.6</ele>
        <time>2021-08-16T09:48:52Z</time>
      </trkpt>
      <trkpt lat="43.93078" lon="3.7178">
        <ele>160.7</ele>
        <time>2021-08-16T09:50:03Z</time>
      </trkpt>
      <trkpt lat="43.931" lon="3.71646">
        <ele>155</ele>
        <time>2021-08-16T09:50:23Z</time>
      </trkpt>
      <trkpt lat="43.9312" lon="3.71511">
        <ele>150.9</ele>
        <time>2021-08-16T09:50:43Z</time>
      </trkpt>
      <trkpt lat="43.93125" lon="3.71369">
        <ele>147.4</ele>
        <time>2021-08-16T09:51:03Z</time>
      </trkpt>
      <trkpt lat="43.9312" lon="3.71228">
        <ele>144.6</ele>
        <time>2021-08-16T09:51:23Z</time>
      </trkpt>
      <trkpt lat="43.93196" lon="3.71127">
        <ele>148.6</ele>
        <time>2021-08-16T09:52:06Z</time>
      </trkpt>
      <trkpt lat="43.93189" lon="3.70989">
        <ele>142.9</ele>
        <time>2021-08-16T09:52:51Z</time>
      </trkpt>
      <trkpt lat="43.93126" lon="3.70892">
        <ele>140.3</ele>
        <time>2021-08-16T09:53:06Z</time>
      </trkpt>
      <trkpt lat="43.93058" lon="3.70772">
        <ele>136.4</ele>
        <time>2021-08-16T09:53:26Z</time>
      </trkpt>
      <trkpt lat="43.93036" lon="3.70642">
        <ele>144</ele>
        <time>2021-08-16T09:53:46Z</time>
      </trkpt>
      <trkpt lat="43.93041" lon="3.70514">
        <ele>145.7</ele>
        <time>2021-08-16T09:54:16Z</time>
      </trkpt>
      <trkpt lat="43.93139" lon="3.70456">
        <ele>152.5</ele>
        <time>2021-08-16T09:55:29Z</time>
      </trkpt>
      <trkpt lat="43.93097" lon="3.70327">
        <ele>141</ele>
        <time>2021-08-16T09:56:04Z</time>
      </trkpt>
      <trkpt lat="43.93083" lon="3.702">
        <ele>143.5</ele>
        <time>2021-08-16T09:56:29Z</time>
      </trkpt>
      <trkpt lat="43.93153" lon="3.70124">
        <ele>143.5</ele>
        <time>2021-08-16T09:56:44Z</time>
      </trkpt>
      <trkpt lat="43.93219" lon="3.70025">
        <ele>144.4</ele>
        <time>2021-08-16T09:57:04Z</time>
      </trkpt>
      <trkpt lat="43.93307" lon="3.69936">
        <ele>142.4</ele>
        <time>2021-08-16T09:57:24Z</time>
      </trkpt>
      <trkpt lat="43.93391" lon="3.69837">
        <ele>139.2</ele>
        <time>2021-08-16T09:57:44Z</time>
      </trkpt>
      <trkpt lat="43.93455" lon="3.69749">
        <ele>133.9</ele>
        <time>2021-08-16T09:57:59Z</time>
      </trkpt>
      <trkpt lat="43.93539" lon="3.69647">
        <ele>127.4</ele>
        <time>2021-08-16T09:58:19Z</time>
      </trkpt>
      <trkpt lat="43.93609" lon="3.69541">
        <ele>120</ele>
        <time>2021-08-16T09:58:39Z</time>
      </trkpt>
      <trkpt lat="43.93675" lon="3.6943">
        <ele>112.3</ele>
        <time>2021-08-16T09:59:04Z</time>
      </trkpt>
      <trkpt lat="43.9373" lon="3.69332">
        <ele>116</ele>
        <time>2021-08-16T09:59:29Z</time>
      </trkpt>
      <trkpt lat="43.93744" lon="3.692">
        <ele>127.4</ele>
        <time>2021-08-16T09:59:49Z</time>
      </trkpt>
      <trkpt lat="43.93762" lon="3.69065">
        <ele>133.6</ele>
        <time>2021-08-16T10:00:09Z</time>
      </trkpt>
      <trkpt lat="43.93815" lon="3.68967">
        <ele>134.2</ele>
        <time>2021-08-16T10:00:24Z</time>
      </trkpt>
      <trkpt lat="43.93902" lon="3.68892">
        <ele>135.8</ele>
        <time>2021-08-16T10:00:44Z</time>
      </trkpt>
      <trkpt lat="43.93918" lon="3.68763">
        <ele>136.9</ele>
        <time>2021-08-16T10:01:09Z</time>
      </trkpt>
      <trkpt lat="43.93923" lon="3.68612">
        <ele>136.9</ele>
        <time>2021-08-16T10:01:39Z</time>
      </trkpt>
      <trkpt lat="43.93947" lon="3.68481">
        <ele>138.1</ele>
        <time>2021-08-16T10:02:09Z</time>
      </trkpt>
      <trkpt lat="43.93982" lon="3.68361">
        <ele>144.3</ele>
        <time>2021-08-16T10:02:39Z</time>
      </trkpt>
      <trkpt lat="43.93949" lon="3.68195">
        <ele>143.4</ele>
        <time>2021-08-16T10:02:59Z</time>
      </trkpt>
      <trkpt lat="43.93906" lon="3.68059">
        <ele>144</ele>
        <time>2021-08-16T10:03:14Z</time>
      </trkpt>
      <trkpt lat="43.93852" lon="3.67936">
        <ele>143.5</ele>
        <time>2021-08-16T10:03:39Z</time>
      </trkpt>
      <trkpt lat="43.9378" lon="3.67831">
        <ele>144.2</ele>
        <time>2021-08-16T10:03:59Z</time>
      </trkpt>
      <trkpt lat="43.93774" lon="3.67704">
        <ele>146.5</ele>
        <time>2021-08-16T10:04:29Z</time>
      </trkpt>
      <trkpt lat="43.93743" lon="3.67564">
        <ele>151.1</ele>
        <time>2021-08-16T10:05:14Z</time>
      </trkpt>
      <trkpt lat="43.93697" lon="3.67428">
        <ele>161.5</ele>
        <time>2021-08-16T10:05:54Z</time>
      </trkpt>
      <trkpt lat="43.93638" lon="3.67304">
        <ele>163.1</ele>
        <time>2021-08-16T10:06:14Z</time>
      </trkpt>
      <trkpt lat="43.93548" lon="3.67205">
        <ele>165.9</ele>
        <time>2021-08-16T10:06:34Z</time>
      </trkpt>
      <trkpt lat="43.93463" lon="3.67108">
        <ele>164.4</ele>
        <time>2021-08-16T10:06:54Z</time>
      </trkpt>
      <trkpt lat="43.93386" lon="3.67003">
        <ele>159.2</ele>
        <time>2021-08-16T10:07:14Z</time>
      </trkpt>
      <trkpt lat="43.93322" lon="3.66898">
        <ele>156.4</ele>
        <time>2021-08-16T10:07:34Z</time>
      </trkpt>
      <trkpt lat="43.93238" lon="3.66825">
        <ele>154.7</ele>
        <time>2021-08-16T10:07:59Z</time>
      </trkpt>
      <trkpt lat="43.93156" lon="3.66765">
        <ele>154.9</ele>
        <time>2021-08-16T10:08:19Z</time>
      </trkpt>
      <trkpt lat="43.93059" lon="3.66694">
        <ele>158.3</ele>
        <time>2021-08-16T10:08:44Z</time>
      </trkpt>
      <trkpt lat="43.92979" lon="3.6662">
        <ele>158.2</ele>
        <time>2021-08-16T10:09:04Z</time>
      </trkpt>
      <trkpt lat="43.92875" lon="3.66608">
        <ele>173.6</ele>
        <time>2021-08-16T10:14:04Z</time>
      </trkpt>
      <trkpt lat="43.92755" lon="3.66623">
        <ele>172.2</ele>
        <time>2021-08-16T10:14:29Z</time>
      </trkpt>
      <trkpt lat="43.92651" lon="3.66606">
        <ele>169.7</ele>
        <time>2021-08-16T10:14:49Z</time>
      </trkpt>
      <trkpt lat="43.92573" lon="3.66517">
        <ele>166</ele>
        <time>2021-08-16T10:15:04Z</time>
      </trkpt>
      <trkpt lat="43.92523" lon="3.66404">
        <ele>160.8</ele>
        <time>2021-08-16T10:15:24Z</time>
      </trkpt>
      <trkpt lat="43.92447" lon="3.663">
        <ele>159.1</ele>
        <time>2021-08-16T10:15:54Z</time>
      </trkpt>
      <trkpt lat="43.92368" lon="3.66225">
        <ele>156</ele>
        <time>2021-08-16T10:16:19Z</time>
      </trkpt>
      <trkpt lat="43.92276" lon="3.66158">
        <ele>157.3</ele>
        <time>2021-08-16T10:16:44Z</time>
      </trkpt>
      <trkpt lat="43.92169" lon="3.66103">
        <ele>160.3</ele>
        <time>2021-08-16T10:17:04Z</time>
      </trkpt>
      <trkpt lat="43.92073" lon="3.66076">
        <ele>161.8</ele>
        <time>2021-08-16T10:17:29Z</time>
      </trkpt>
      <trkpt lat="43.91987" lon="3.66031">
        <ele>166.5</ele>
        <time>2021-08-16T10:17:49Z</time>
      </trkpt>
      <trkpt lat="43.91898" lon="3.65984">
        <ele>169.7</ele>
        <time>2021-08-16T10:18:09Z</time>
      </trkpt>
      <trkpt lat="43.91798" lon="3.65925">
        <ele>174.5</ele>
        <time>2021-08-16T10:18:34Z</time>
      </trkpt>
      <trkpt lat="43.91704" lon="3.6587">
        <ele>180.6</ele>
        <time>2021-08-16T10:18:59Z</time>
      </trkpt>
      <trkpt lat="43.91595" lon="3.65841">
        <ele>186.1</ele>
        <time>2021-08-16T10:19:24Z</time>
      </trkpt>
      <trkpt lat="43.91487" lon="3.65797">
        <ele>188</ele>
        <time>2021-08-16T10:19:49Z</time>
      </trkpt>
      <trkpt lat="43.91376" lon="3.65719">
        <ele>186.7</ele>
        <time>2021-08-16T10:20:09Z</time>
      </trkpt>
      <trkpt lat="43.91264" lon="3.65635">
        <ele>183.9</ele>
        <time>2021-08-16T10:20:24Z</time>
      </trkpt>
      <trkpt lat="43.91153" lon="3.65613">
        <ele>182.2</ele>
        <time>2021-08-16T10:20:39Z</time>
      </trkpt>
      <trkpt lat="43.91037" lon="3.65577">
        <ele>181.9</ele>
        <time>2021-08-16T10:21:04Z</time>
      </trkpt>
      <trkpt lat="43.90933" lon="3.6556">
        <ele>183.8</ele>
        <time>2021-08-16T10:21:24Z</time>
      </trkpt>
      <trkpt lat="43.90833" lon="3.65559">
        <ele>184.9</ele>
        <time>2021-08-16T10:21:44Z</time>
      </trkpt>
      <trkpt lat="43.90729" lon="3.65549">
        <ele>182.8</ele>
        <time>2021-08-16T10:22:04Z</time>
      </trkpt>
      <trkpt lat="43.90643" lon="3.65588">
        <ele>180.7</ele>
        <time>2021-08-16T10:22:24Z</time>
      </trkpt>
      <trkpt lat="43.90548" lon="3.65654">
        <ele>178.4</ele>
        <time>2021-08-16T10:22:49Z</time>
      </trkpt>
      <trkpt lat="43.90477" lon="3.65736">
        <ele>177.2</ele>
        <time>2021-08-16T10:23:14Z</time>
      </trkpt>
      <trkpt lat="43.90396" lon="3.65808">
        <ele>175.3</ele>
        <time>2021-08-16T10:23:44Z</time>
      </trkpt>
      <trkpt lat="43.90293" lon="3.65774">
        <ele>174.8</ele>
        <time>2021-08-16T10:24:14Z</time>
      </trkpt>
      <trkpt lat="43.90222" lon="3.65689">
        <ele>176.2</ele>
        <time>2021-08-16T10:24:39Z</time>
      </trkpt>
      <trkpt lat="43.90172" lon="3.65576">
        <ele>176.3</ele>
        <time>2021-08-16T10:25:09Z</time>
      </trkpt>
      <trkpt lat="43.90129" lon="3.65457">
        <ele>181</ele>
        <time>2021-08-16T10:25:44Z</time>
      </trkpt>
      <trkpt lat="43.90046" lon="3.654">
        <ele>192.9</ele>
        <time>2021-08-16T10:26:19Z</time>
      </trkpt>
      <trkpt lat="43.89964" lon="3.65457">
        <ele>200.3</ele>
        <time>2021-08-16T10:26:55Z</time>
      </trkpt>
      <trkpt lat="43.89879" lon="3.65513">
        <ele>206.2</ele>
        <time>2021-08-16T10:27:25Z</time>
      </trkpt>
      <trkpt lat="43.89785" lon="3.65503">
        <ele>199.4</ele>
        <time>2021-08-16T10:27:50Z</time>
      </trkpt>
      <trkpt lat="43.89711" lon="3.65381">
        <ele>189.5</ele>
        <time>2021-08-16T10:28:15Z</time>
      </trkpt>
      <trkpt lat="43.89691" lon="3.65248">
        <ele>182.7</ele>
        <time>2021-08-16T10:28:35Z</time>
      </trkpt>
      <trkpt lat="43.89688" lon="3.65118">
        <ele>183.3</ele>
        <time>2021-08-16T10:28:55Z</time>
      </trkpt>
      <trkpt lat="43.89654" lon="3.64992">
        <ele>184.9</ele>
        <time>2021-08-16T10:29:20Z</time>
      </trkpt>
      <trkpt lat="43.89575" lon="3.64909">
        <ele>187</ele>
        <time>2021-08-16T10:29:55Z</time>
      </trkpt>
      <trkpt lat="43.8951" lon="3.64818">
        <ele>188.3</ele>
        <time>2021-08-16T10:30:25Z</time>
      </trkpt>
      <trkpt lat="43.89437" lon="3.647">
        <ele>185.5</ele>
        <time>2021-08-16T10:30:55Z</time>
      </trkpt>
      <trkpt lat="43.89362" lon="3.64611">
        <ele>185.2</ele>
        <time>2021-08-16T10:31:15Z</time>
      </trkpt>
      <trkpt lat="43.89313" lon="3.64461">
        <ele>184.2</ele>
        <time>2021-08-16T10:31:35Z</time>
      </trkpt>
      <trkpt lat="43.89282" lon="3.64319">
        <ele>183.3</ele>
        <time>2021-08-16T10:31:50Z</time>
      </trkpt>
      <trkpt lat="43.89214" lon="3.64233">
        <ele>181.9</ele>
        <time>2021-08-16T10:32:15Z</time>
      </trkpt>
      <trkpt lat="43.89127" lon="3.64163">
        <ele>184.5</ele>
        <time>2021-08-16T10:32:50Z</time>
      </trkpt>
      <trkpt lat="43.89095" lon="3.64032">
        <ele>182.1</ele>
        <time>2021-08-16T10:33:15Z</time>
      </trkpt>
      <trkpt lat="43.89133" lon="3.63909">
        <ele>189.6</ele>
        <time>2021-08-16T10:33:45Z</time>
      </trkpt>
      <trkpt lat="43.89166" lon="3.63785">
        <ele>189.3</ele>
        <time>2021-08-16T10:34:15Z</time>
      </trkpt>
      <trkpt lat="43.89132" lon="3.63664">
        <ele>186.6</ele>
        <time>2021-08-16T10:34:45Z</time>
      </trkpt>
      <trkpt lat="43.89069" lon="3.63568">
        <ele>189.4</ele>
        <time>2021-08-16T10:35:20Z</time>
      </trkpt>
      <trkpt lat="43.89017" lon="3.63452">
        <ele>186.1</ele>
        <time>2021-08-16T10:35:45Z</time>
      </trkpt>
      <trkpt lat="43.88978" lon="3.63314">
        <ele>184.4</ele>
        <time>2021-08-16T10:36:10Z</time>
      </trkpt>
      <trkpt lat="43.88983" lon="3.63181">
        <ele>191.3</ele>
        <time>2021-08-16T10:36:30Z</time>
      </trkpt>
      <trkpt lat="43.89068" lon="3.63091">
        <ele>199.4</ele>
        <time>2021-08-16T10:36:50Z</time>
      </trkpt>
      <trkpt lat="43.8915" lon="3.63019">
        <ele>205.2</ele>
        <time>2021-08-16T10:37:10Z</time>
      </trkpt>
      <trkpt lat="43.89207" lon="3.62899">
        <ele>206.1</ele>
        <time>2021-08-16T10:37:35Z</time>
      </trkpt>
      <trkpt lat="43.89164" lon="3.62771">
        <ele>196.7</ele>
        <time>2021-08-16T11:47:33Z</time>
      </trkpt>
      <trkpt lat="43.8909" lon="3.62694">
        <ele>199.1</ele>
        <time>2021-08-16T11:48:08Z</time>
      </trkpt>
      <trkpt lat="43.89053" lon="3.62576">
        <ele>205.2</ele>
        <time>2021-08-16T11:48:38Z</time>
      </trkpt>
      <trkpt lat="43.88981" lon="3.62496">
        <ele>208.3</ele>
        <time>2021-08-16T11:49:08Z</time>
      </trkpt>
      <trkpt lat="43.88879" lon="3.62445">
        <ele>211.8</ele>
        <time>2021-08-16T11:49:38Z</time>
      </trkpt>
      <trkpt lat="43.88826" lon="3.62329">
        <ele>213</ele>
        <time>2021-08-16T11:50:08Z</time>
      </trkpt>
      <trkpt lat="43.88817" lon="3.62203">
        <ele>214.5</ele>
        <time>2021-08-16T11:50:33Z</time>
      </trkpt>
      <trkpt lat="43.88811" lon="3.62064">
        <ele>214.3</ele>
        <time>2021-08-16T11:51:03Z</time>
      </trkpt>
      <trkpt lat="43.88797" lon="3.61923">
        <ele>214.1</ele>
        <time>2021-08-16T11:51:43Z</time>
      </trkpt>
      <trkpt lat="43.88755" lon="3.61781">
        <ele>214</ele>
        <time>2021-08-16T11:52:13Z</time>
      </trkpt>
      <trkpt lat="43.88709" lon="3.6166">
        <ele>212.8</ele>
        <time>2021-08-16T11:52:38Z</time>
      </trkpt>
      <trkpt lat="43.88618" lon="3.61574">
        <ele>209.1</ele>
        <time>2021-08-16T11:53:03Z</time>
      </trkpt>
      <trkpt lat="43.88518" lon="3.61501">
        <ele>205.6</ele>
        <time>2021-08-16T11:53:28Z</time>
      </trkpt>
      <trkpt lat="43.88429" lon="3.61478">
        <ele>203.1</ele>
        <time>2021-08-16T11:53:43Z</time>
      </trkpt>
      <trkpt lat="43.88334" lon="3.61392">
        <ele>199.9</ele>
        <time>2021-08-16T11:53:58Z</time>
      </trkpt>
      <trkpt lat="43.88253" lon="3.613">
        <ele>196.8</ele>
        <time>2021-08-16T11:54:13Z</time>
      </trkpt>
      <trkpt lat="43.88175" lon="3.61207">
        <ele>192.2</ele>
        <time>2021-08-16T11:54:33Z</time>
      </trkpt>
      <trkpt lat="43.88095" lon="3.61116">
        <ele>187.3</ele>
        <time>2021-08-16T11:54:53Z</time>
      </trkpt>
      <trkpt lat="43.88014" lon="3.61026">
        <ele>183.6</ele>
        <time>2021-08-16T11:55:13Z</time>
      </trkpt>
      <trkpt lat="43.87931" lon="3.60959">
        <ele>180.7</ele>
        <time>2021-08-16T11:55:38Z</time>
      </trkpt>
      <trkpt lat="43.87847" lon="3.60883">
        <ele>178.7</ele>
        <time>2021-08-16T11:56:03Z</time>
      </trkpt>
      <trkpt lat="43.87761" lon="3.60821">
        <ele>196.6</ele>
        <time>2021-08-16T11:56:23Z</time>
      </trkpt>
      <trkpt lat="43.87671" lon="3.60786">
        <ele>199.8</ele>
        <time>2021-08-16T11:56:43Z</time>
      </trkpt>
      <trkpt lat="43.87578" lon="3.6074">
        <ele>201.7</ele>
        <time>2021-08-16T11:57:03Z</time>
      </trkpt>
      <trkpt lat="43.87493" lon="3.60658">
        <ele>200.6</ele>
        <time>2021-08-16T11:57:23Z</time>
      </trkpt>
      <trkpt lat="43.87429" lon="3.60546">
        <ele>199.7</ele>
        <time>2021-08-16T11:57:43Z</time>
      </trkpt>
      <trkpt lat="43.87347" lon="3.60455">
        <ele>198.2</ele>
        <time>2021-08-16T11:58:03Z</time>
      </trkpt>
      <trkpt lat="43.87249" lon="3.60388">
        <ele>204.1</ele>
        <time>2021-08-16T11:58:28Z</time>
      </trkpt>
      <trkpt lat="43.87156" lon="3.60316">
        <ele>212.3</ele>
        <time>2021-08-16T11:58:58Z</time>
      </trkpt>
      <trkpt lat="43.87055" lon="3.60244">
        <ele>216</ele>
        <time>2021-08-16T11:59:28Z</time>
      </trkpt>
      <trkpt lat="43.86967" lon="3.60178">
        <ele>213</ele>
        <time>2021-08-16T11:59:43Z</time>
      </trkpt>
      <trkpt lat="43.86896" lon="3.60073">
        <ele>208.7</ele>
        <time>2021-08-16T12:00:03Z</time>
      </trkpt>
      <trkpt lat="43.86865" lon="3.59942">
        <ele>205.3</ele>
        <time>2021-08-16T12:00:23Z</time>
      </trkpt>
      <trkpt lat="43.86836" lon="3.59812">
        <ele>200.4</ele>
        <time>2021-08-16T12:00:43Z</time>
      </trkpt>
      <trkpt lat="43.86812" lon="3.59673">
        <ele>196.2</ele>
        <time>2021-08-16T12:01:03Z</time>
      </trkpt>
      <trkpt lat="43.86785" lon="3.59522">
        <ele>195.6</ele>
        <time>2021-08-16T12:01:23Z</time>
      </trkpt>
      <trkpt lat="43.86756" lon="3.59386">
        <ele>193.5</ele>
        <time>2021-08-16T12:01:43Z</time>
      </trkpt>
      <trkpt lat="43.86723" lon="3.5925">
        <ele>190.4</ele>
        <time>2021-08-16T12:02:03Z</time>
      </trkpt>
      <trkpt lat="43.86723" lon="3.59105">
        <ele>187.4</ele>
        <time>2021-08-16T12:02:23Z</time>
      </trkpt>
      <trkpt lat="43.86708" lon="3.5896">
        <ele>182.7</ele>
        <time>2021-08-16T12:02:43Z</time>
      </trkpt>
      <trkpt lat="43.86645" lon="3.58828">
        <ele>178.8</ele>
        <time>2021-08-16T12:03:03Z</time>
      </trkpt>
      <trkpt lat="43.86588" lon="3.58724">
        <ele>177.3</ele>
        <time>2021-08-16T12:03:23Z</time>
      </trkpt>
      <trkpt lat="43.86505" lon="3.58659">
        <ele>174</ele>
        <time>2021-08-16T12:03:43Z</time>
      </trkpt>
      <trkpt lat="43.86387" lon="3.58636">
        <ele>168.2</ele>
        <time>2021-08-16T12:04:03Z</time>
      </trkpt>
      <trkpt lat="43.86287" lon="3.58616">
        <ele>164.8</ele>
        <time>2021-08-16T12:04:23Z</time>
      </trkpt>
      <trkpt lat="43.86197" lon="3.58593">
        <ele>159.5</ele>
        <time>2021-08-16T12:04:53Z</time>
      </trkpt>
      <trkpt lat="43.86103" lon="3.58557">
        <ele>152.6</ele>
        <time>2021-08-16T12:05:23Z</time>
      </trkpt>
      <trkpt lat="43.86021" lon="3.58456">
        <ele>141.2</ele>
        <time>2021-08-16T12:05:53Z</time>
      </trkpt>
      <trkpt lat="43.85971" lon="3.58327">
        <ele>132.3</ele>
        <time>2021-08-16T12:06:18Z</time>
      </trkpt>
      <trkpt lat="43.85952" lon="3.58193">
        <ele>122.4</ele>
        <time>2021-08-16T12:06:43Z</time>
      </trkpt>
      <trkpt lat="43.85946" lon="3.58054">
        <ele>116.3</ele>
        <time>2021-08-16T12:07:08Z</time>
      </trkpt>
      <trkpt lat="43.8594" lon="3.57928">
        <ele>110.2</ele>
        <time>2021-08-16T12:07:33Z</time>
      </trkpt>
      <trkpt lat="43.85901" lon="3.57785">
        <ele>101.3</ele>
        <time>2021-08-16T12:08:03Z</time>
      </trkpt>
      <trkpt lat="43.85843" lon="3.57662">
        <ele>93</ele>
        <time>2021-08-16T12:08:28Z</time>
      </trkpt>
      <trkpt lat="43.85782" lon="3.57555">
        <ele>85.4</ele>
        <time>2021-08-16T12:08:53Z</time>
      </trkpt>
      <trkpt lat="43.85712" lon="3.57445">
        <ele>77.4</ele>
        <time>2021-08-16T12:09:23Z</time>
      </trkpt>
      <trkpt lat="43.85641" lon="3.57332">
        <ele>70.3</ele>
        <time>2021-08-16T12:09:53Z</time>
      </trkpt>
      <trkpt lat="43.85576" lon="3.57212">
        <ele>58.4</ele>
        <time>2021-08-16T12:10:23Z</time>
      </trkpt>
      <trkpt lat="43.85507" lon="3.57097">
        <ele>59.9</ele>
        <time>2021-08-16T12:10:53Z</time>
      </trkpt>
      <trkpt lat="43.85432" lon="3.57014">
        <ele>84.4</ele>
        <time>2021-08-16T12:11:18Z</time>
      </trkpt>
      <trkpt lat="43.85394" lon="3.56896">
        <ele>152.1</ele>
        <time>2021-08-16T12:11:43Z</time>
      </trkpt>
      <trkpt lat="43.85393" lon="3.56746">
        <ele>191</ele>
        <time>2021-08-16T12:12:08Z</time>
      </trkpt>
      <trkpt lat="43.85422" lon="3.56618">
        <ele>240.9</ele>
        <time>2021-08-16T12:12:33Z</time>
      </trkpt>
      <trkpt lat="43.85439" lon="3.56477">
        <ele>249.4</ele>
        <time>2021-08-16T12:13:03Z</time>
      </trkpt>
      <trkpt lat="43.85389" lon="3.56367">
        <ele>247.4</ele>
        <time>2021-08-16T12:13:33Z</time>
      </trkpt>
      <trkpt lat="43.85412" lon="3.56233">
        <ele>235.2</ele>
        <time>2021-08-16T12:18:41Z</time>
      </trkpt>
      <trkpt lat="43.85491" lon="3.56141">
        <ele>234.3</ele>
        <time>2021-08-16T12:19:06Z</time>
      </trkpt>
      <trkpt lat="43.85552" lon="3.56019">
        <ele>229.8</ele>
        <time>2021-08-16T12:19:31Z</time>
      </trkpt>
      <trkpt lat="43.85594" lon="3.55892">
        <ele>225.2</ele>
        <time>2021-08-16T12:19:56Z</time>
      </trkpt>
      <trkpt lat="43.85589" lon="3.55752">
        <ele>229.8</ele>
        <time>2021-08-16T12:20:21Z</time>
      </trkpt>
      <trkpt lat="43.85546" lon="3.55626">
        <ele>226.5</ele>
        <time>2021-08-16T12:20:51Z</time>
      </trkpt>
      <trkpt lat="43.85453" lon="3.55589">
        <ele>229.8</ele>
        <time>2021-08-16T12:21:31Z</time>
      </trkpt>
      <trkpt lat="43.85353" lon="3.55595">
        <ele>237.1</ele>
        <time>2021-08-16T12:22:11Z</time>
      </trkpt>
      <trkpt lat="43.85261" lon="3.55555">
        <ele>241.8</ele>
        <time>2021-08-16T12:22:46Z</time>
      </trkpt>
      <trkpt lat="43.85166" lon="3.55498">
        <ele>255</ele>
        <time>2021-08-16T12:23:33Z</time>
      </trkpt>
      <trkpt lat="43.85095" lon="3.55403">
        <ele>265.1</ele>
        <time>2021-08-16T12:24:13Z</time>
      </trkpt>
      <trkpt lat="43.8505" lon="3.55284">
        <ele>273.3</ele>
        <time>2021-08-16T12:24:53Z</time>
      </trkpt>
      <trkpt lat="43.85059" lon="3.55154">
        <ele>269.2</ele>
        <time>2021-08-16T12:25:33Z</time>
      </trkpt>
      <trkpt lat="43.8506" lon="3.55027">
        <ele>267.8</ele>
        <time>2021-08-16T12:26:08Z</time>
      </trkpt>
      <trkpt lat="43.85057" lon="3.54902">
        <ele>272.1</ele>
        <time>2021-08-16T12:26:43Z</time>
      </trkpt>
      <trkpt lat="43.85076" lon="3.54756">
        <ele>280</ele>
        <time>2021-08-16T12:27:23Z</time>
      </trkpt>
      <trkpt lat="43.8514" lon="3.54646">
        <ele>287.8</ele>
        <time>2021-08-16T12:27:58Z</time>
      </trkpt>
      <trkpt lat="43.85162" lon="3.54515">
        <ele>292</ele>
        <time>2021-08-16T12:28:57Z</time>
      </trkpt>
      <trkpt lat="43.85118" lon="3.54389">
        <ele>293.8</ele>
        <time>2021-08-16T12:30:02Z</time>
      </trkpt>
      <trkpt lat="43.85118" lon="3.54258">
        <ele>297</ele>
        <time>2021-08-16T12:31:02Z</time>
      </trkpt>
      <trkpt lat="43.85047" lon="3.54163">
        <ele>298.4</ele>
        <time>2021-08-16T12:32:01Z</time>
      </trkpt>
      <trkpt lat="43.85002" lon="3.54048">
        <ele>303.4</ele>
        <time>2021-08-16T12:33:02Z</time>
      </trkpt>
      <trkpt lat="43.84953" lon="3.53932">
        <ele>309.6</ele>
        <time>2021-08-16T12:33:59Z</time>
      </trkpt>
      <trkpt lat="43.85041" lon="3.539">
        <ele>337.4</ele>
        <time>2021-08-16T12:35:42Z</time>
      </trkpt>
      <trkpt lat="43.85119" lon="3.53987">
        <ele>357.8</ele>
        <time>2021-08-16T12:36:39Z</time>
      </trkpt>
      <trkpt lat="43.85086" lon="3.53866">
        <ele>338.6</ele>
        <time>2021-08-16T12:43:51Z</time>
      </trkpt>
      <trkpt lat="43.85034" lon="3.53752">
        <ele>339</ele>
        <time>2021-08-16T12:44:48Z</time>
      </trkpt>
      <trkpt lat="43.84968" lon="3.53658">
        <ele>341.4</ele>
        <time>2021-08-16T12:45:50Z</time>
      </trkpt>
      <trkpt lat="43.84902" lon="3.53563">
        <ele>342.9</ele>
        <time>2021-08-16T12:46:46Z</time>
      </trkpt>
      <trkpt lat="43.84826" lon="3.5348">
        <ele>343.2</ele>
        <time>2021-08-16T12:47:48Z</time>
      </trkpt>
      <trkpt lat="43.84765" lon="3.53379">
        <ele>341</ele>
        <time>2021-08-16T12:48:45Z</time>
      </trkpt>
      <trkpt lat="43.8472" lon="3.53259">
        <ele>336.9</ele>
        <time>2021-08-16T12:49:44Z</time>
      </trkpt>
      <trkpt lat="43.84772" lon="3.5338">
        <ele>391.1</ele>
        <time>2021-08-16T12:51:32Z</time>
      </trkpt>
      <trkpt lat="43.8485" lon="3.53455">
        <ele>424</ele>
        <time>2021-08-16T12:52:41Z</time>
      </trkpt>
      <trkpt lat="43.84938" lon="3.53511">
        <ele>436.6</ele>
        <time>2021-08-16T12:53:40Z</time>
      </trkpt>
      <trkpt lat="43.85019" lon="3.53593">
        <ele>443.6</ele>
        <time>2021-08-16T12:54:41Z</time>
      </trkpt>
      <trkpt lat="43.85102" lon="3.5367">
        <ele>451.2</ele>
        <time>2021-08-16T12:55:46Z</time>
      </trkpt>
      <trkpt lat="43.85038" lon="3.53577">
        <ele>450.7</ele>
        <time>2021-08-16T13:02:55Z</time>
      </trkpt>
      <trkpt lat="43.84971" lon="3.53479">
        <ele>451.4</ele>
        <time>2021-08-16T13:03:58Z</time>
      </trkpt>
      <trkpt lat="43.84894" lon="3.53398">
        <ele>456.9</ele>
        <time>2021-08-16T13:05:00Z</time>
      </trkpt>
      <trkpt lat="43.8483" lon="3.53299">
        <ele>462.7</ele>
        <time>2021-08-16T13:06:02Z</time>
      </trkpt>
      <trkpt lat="43.84787" lon="3.53177">
        <ele>468.6</ele>
        <time>2021-08-16T13:07:05Z</time>
      </trkpt>
      <trkpt lat="43.84751" lon="3.53055">
        <ele>479.9</ele>
        <time>2021-08-16T13:08:07Z</time>
      </trkpt>
      <trkpt lat="43.84808" lon="3.53156">
        <ele>508.5</ele>
        <time>2021-08-16T13:10:10Z</time>
      </trkpt>
      <trkpt lat="43.84867" lon="3.53266">
        <ele>517.2</ele>
        <time>2021-08-16T13:11:06Z</time>
      </trkpt>
      <trkpt lat="43.84962" lon="3.53249">
        <ele>523.8</ele>
        <time>2021-08-16T13:11:58Z</time>
      </trkpt>
      <trkpt lat="43.84869" lon="3.53225">
        <ele>517.9</ele>
        <time>2021-08-16T13:12:54Z</time>
      </trkpt>
      <trkpt lat="43.84829" lon="3.53101">
        <ele>516.4</ele>
        <time>2021-08-16T13:13:54Z</time>
      </trkpt>
      <trkpt lat="43.8479" lon="3.52985">
        <ele>516.6</ele>
        <time>2021-08-16T13:14:43Z</time>
      </trkpt>
      <trkpt lat="43.84708" lon="3.52924">
        <ele>527</ele>
        <time>2021-08-16T13:15:30Z</time>
      </trkpt>
      <trkpt lat="43.84769" lon="3.52831">
        <ele>535.6</ele>
        <time>2021-08-16T13:16:28Z</time>
      </trkpt>
      <trkpt lat="43.84857" lon="3.52793">
        <ele>550.1</ele>
        <time>2021-08-16T13:17:22Z</time>
      </trkpt>
      <trkpt lat="43.84943" lon="3.52726">
        <ele>556.8</ele>
        <time>2021-08-16T13:18:02Z</time>
      </trkpt>
      <trkpt lat="43.85002" lon="3.52623">
        <ele>555.2</ele>
        <time>2021-08-16T13:23:30Z</time>
      </trkpt>
      <trkpt lat="43.84931" lon="3.52522">
        <ele>553.4</ele>
        <time>2021-08-16T13:24:19Z</time>
      </trkpt>
      <trkpt lat="43.84921" lon="3.52383">
        <ele>553.7</ele>
        <time>2021-08-16T13:25:17Z</time>
      </trkpt>
      <trkpt lat="43.84839" lon="3.52324">
        <ele>556.1</ele>
        <time>2021-08-16T13:25:47Z</time>
      </trkpt>
      <trkpt lat="43.84781" lon="3.52212">
        <ele>559.7</ele>
        <time>2021-08-16T13:26:17Z</time>
      </trkpt>
      <trkpt lat="43.8479" lon="3.52088">
        <ele>566.9</ele>
        <time>2021-08-16T13:26:47Z</time>
      </trkpt>
      <trkpt lat="43.84779" lon="3.51954">
        <ele>566.2</ele>
        <time>2021-08-16T13:27:12Z</time>
      </trkpt>
      <trkpt lat="43.84686" lon="3.51862">
        <ele>566.2</ele>
        <time>2021-08-16T13:27:37Z</time>
      </trkpt>
      <trkpt lat="43.84585" lon="3.51874">
        <ele>578.5</ele>
        <time>2021-08-16T13:35:25Z</time>
      </trkpt>
      <trkpt lat="43.84489" lon="3.51803">
        <ele>573.3</ele>
        <time>2021-08-16T13:36:21Z</time>
      </trkpt>
      <trkpt lat="43.84416" lon="3.51719">
        <ele>570.5</ele>
        <time>2021-08-16T13:37:08Z</time>
      </trkpt>
      <trkpt lat="43.84335" lon="3.51621">
        <ele>566.3</ele>
        <time>2021-08-16T13:37:33Z</time>
      </trkpt>
      <trkpt lat="43.84258" lon="3.5152">
        <ele>559.3</ele>
        <time>2021-08-16T13:38:03Z</time>
      </trkpt>
      <trkpt lat="43.84268" lon="3.51394">
        <ele>564.7</ele>
        <time>2021-08-16T13:38:28Z</time>
      </trkpt>
      <trkpt lat="43.84338" lon="3.51297">
        <ele>568.9</ele>
        <time>2021-08-16T13:38:58Z</time>
      </trkpt>
      <trkpt lat="43.8439" lon="3.51198">
        <ele>570.3</ele>
        <time>2021-08-16T13:39:55Z</time>
      </trkpt>
      <trkpt lat="43.8437" lon="3.51063">
        <ele>570.5</ele>
        <time>2021-08-16T13:40:15Z</time>
      </trkpt>
      <trkpt lat="43.8435" lon="3.50918">
        <ele>571.1</ele>
        <time>2021-08-16T13:40:35Z</time>
      </trkpt>
      <trkpt lat="43.8434" lon="3.50767">
        <ele>570.7</ele>
        <time>2021-08-16T13:40:55Z</time>
      </trkpt>
      <trkpt lat="43.84346" lon="3.50628">
        <ele>566.8</ele>
        <time>2021-08-16T13:41:15Z</time>
      </trkpt>
      <trkpt lat="43.84367" lon="3.50486">
        <ele>563.3</ele>
        <time>2021-08-16T13:41:35Z</time>
      </trkpt>
      <trkpt lat="43.84376" lon="3.50358">
        <ele>564.4</ele>
        <time>2021-08-16T13:41:55Z</time>
      </trkpt>
      <trkpt lat="43.84364" lon="3.50228">
        <ele>559.6</ele>
        <time>2021-08-16T13:43:17Z</time>
      </trkpt>
      <trkpt lat="43.84347" lon="3.50076">
        <ele>561</ele>
        <time>2021-08-16T13:43:42Z</time>
      </trkpt>
      <trkpt lat="43.84336" lon="3.4994">
        <ele>559.7</ele>
        <time>2021-08-16T13:44:02Z</time>
      </trkpt>
      <trkpt lat="43.84318" lon="3.49796">
        <ele>561.2</ele>
        <time>2021-08-16T13:44:32Z</time>
      </trkpt>
      <trkpt lat="43.84314" lon="3.49655">
        <ele>560.1</ele>
        <time>2021-08-16T13:44:52Z</time>
      </trkpt>
      <trkpt lat="43.84329" lon="3.49526">
        <ele>561.8</ele>
        <time>2021-08-16T13:45:12Z</time>
      </trkpt>
      <trkpt lat="43.84306" lon="3.49402">
        <ele>560.9</ele>
        <time>2021-08-16T13:45:32Z</time>
      </trkpt>
      <trkpt lat="43.84278" lon="3.49255">
        <ele>564.7</ele>
        <time>2021-08-16T13:46:02Z</time>
      </trkpt>
      <trkpt lat="43.84269" lon="3.49108">
        <ele>564.1</ele>
        <time>2021-08-16T13:46:32Z</time>
      </trkpt>
      <trkpt lat="43.84275" lon="3.48968">
        <ele>561.5</ele>
        <time>2021-08-16T13:47:02Z</time>
      </trkpt>
      <trkpt lat="43.84283" lon="3.48836">
        <ele>557.9</ele>
        <time>2021-08-16T13:47:32Z</time>
      </trkpt>
      <trkpt lat="43.84292" lon="3.487">
        <ele>571.2</ele>
        <time>2021-08-16T13:48:17Z</time>
      </trkpt>
      <trkpt lat="43.84306" lon="3.48577">
        <ele>585.4</ele>
        <time>2021-08-16T13:49:15Z</time>
      </trkpt>
      <trkpt lat="43.8426" lon="3.48461">
        <ele>595.8</ele>
        <time>2021-08-16T13:50:26Z</time>
      </trkpt>
      <trkpt lat="43.84178" lon="3.48387">
        <ele>600.6</ele>
        <time>2021-08-16T13:51:32Z</time>
      </trkpt>
      <trkpt lat="43.8409" lon="3.48333">
        <ele>606.5</ele>
        <time>2021-08-16T13:52:55Z</time>
      </trkpt>
      <trkpt lat="43.84029" lon="3.48234">
        <ele>612.5</ele>
        <time>2021-08-16T13:54:08Z</time>
      </trkpt>
      <trkpt lat="43.84016" lon="3.481">
        <ele>622.1</ele>
        <time>2021-08-16T13:55:10Z</time>
      </trkpt>
      <trkpt lat="43.84018" lon="3.47966">
        <ele>631.1</ele>
        <time>2021-08-16T13:56:12Z</time>
      </trkpt>
      <trkpt lat="43.84001" lon="3.47826">
        <ele>635.4</ele>
        <time>2021-08-16T13:56:56Z</time>
      </trkpt>
      <trkpt lat="43.8397" lon="3.47704">
        <ele>635</ele>
        <time>2021-08-16T13:57:26Z</time>
      </trkpt>
      <trkpt lat="43.8396" lon="3.47572">
        <ele>637.8</ele>
        <time>2021-08-16T13:58:07Z</time>
      </trkpt>
      <trkpt lat="43.83951" lon="3.47438">
        <ele>639.3</ele>
        <time>2021-08-16T13:58:42Z</time>
      </trkpt>
      <trkpt lat="43.83929" lon="3.47299">
        <ele>636.5</ele>
        <time>2021-08-16T13:59:17Z</time>
      </trkpt>
      <trkpt lat="43.83883" lon="3.47159">
        <ele>642.3</ele>
        <time>2021-08-16T13:59:47Z</time>
      </trkpt>
      <trkpt lat="43.83831" lon="3.47049">
        <ele>635</ele>
        <time>2021-08-16T14:00:18Z</time>
      </trkpt>
      <trkpt lat="43.83797" lon="3.46911">
        <ele>635.2</ele>
        <time>2021-08-16T14:00:58Z</time>
      </trkpt>
      <trkpt lat="43.83805" lon="3.46776">
        <ele>644.3</ele>
        <time>2021-08-16T14:01:28Z</time>
      </trkpt>
      <trkpt lat="43.83812" lon="3.46646">
        <ele>644.8</ele>
        <time>2021-08-16T14:01:53Z</time>
      </trkpt>
      <trkpt lat="43.83818" lon="3.46517">
        <ele>643.9</ele>
        <time>2021-08-16T14:02:18Z</time>
      </trkpt>
      <trkpt lat="43.83834" lon="3.46385">
        <ele>641.6</ele>
        <time>2021-08-16T14:02:43Z</time>
      </trkpt>
      <trkpt lat="43.83844" lon="3.46236">
        <ele>642.8</ele>
        <time>2021-08-16T14:03:08Z</time>
      </trkpt>
      <trkpt lat="43.83858" lon="3.46109">
        <ele>639.7</ele>
        <time>2021-08-16T14:03:38Z</time>
      </trkpt>
      <trkpt lat="43.83861" lon="3.45975">
        <ele>647.6</ele>
        <time>2021-08-16T14:04:32Z</time>
      </trkpt>
      <trkpt lat="43.83907" lon="3.4587">
        <ele>641.9</ele>
        <time>2021-08-16T14:05:24Z</time>
      </trkpt>
      <trkpt lat="43.83971" lon="3.45776">
        <ele>641</ele>
        <time>2021-08-16T14:06:06Z</time>
      </trkpt>
      <trkpt lat="43.84051" lon="3.45698">
        <ele>642.1</ele>
        <time>2021-08-16T14:06:53Z</time>
      </trkpt>
      <trkpt lat="43.84151" lon="3.45688">
        <ele>652.2</ele>
        <time>2021-08-16T14:07:46Z</time>
      </trkpt>
      <trkpt lat="43.84242" lon="3.45633">
        <ele>648.7</ele>
        <time>2021-08-16T14:08:11Z</time>
      </trkpt>
      <trkpt lat="43.8436" lon="3.45646">
        <ele>647.7</ele>
        <time>2021-08-16T14:08:31Z</time>
      </trkpt>
      <trkpt lat="43.84461" lon="3.4559">
        <ele>644.5</ele>
        <time>2021-08-16T14:08:46Z</time>
      </trkpt>
      <trkpt lat="43.84577" lon="3.45555">
        <ele>642.2</ele>
        <time>2021-08-16T14:09:06Z</time>
      </trkpt>
      <trkpt lat="43.84677" lon="3.45523">
        <ele>635.9</ele>
        <time>2021-08-16T14:09:26Z</time>
      </trkpt>
      <trkpt lat="43.84702" lon="3.45401">
        <ele>634.1</ele>
        <time>2021-08-16T14:09:46Z</time>
      </trkpt>
      <trkpt lat="43.84697" lon="3.45269">
        <ele>626.6</ele>
        <time>2021-08-16T14:10:06Z</time>
      </trkpt>
      <trkpt lat="43.84733" lon="3.45141">
        <ele>622.7</ele>
        <time>2021-08-16T14:10:36Z</time>
      </trkpt>
      <trkpt lat="43.84779" lon="3.45027">
        <ele>620</ele>
        <time>2021-08-16T14:11:06Z</time>
      </trkpt>
      <trkpt lat="43.84834" lon="3.44923">
        <ele>625.6</ele>
        <time>2021-08-16T14:11:49Z</time>
      </trkpt>
      <trkpt lat="43.84817" lon="3.44788">
        <ele>633.8</ele>
        <time>2021-08-16T14:12:52Z</time>
      </trkpt>
      <trkpt lat="43.8481" lon="3.44662">
        <ele>644.2</ele>
        <time>2021-08-16T14:13:39Z</time>
      </trkpt>
      <trkpt lat="43.84841" lon="3.44529">
        <ele>650.3</ele>
        <time>2021-08-16T14:14:33Z</time>
      </trkpt>
      <trkpt lat="43.84791" lon="3.44417">
        <ele>654</ele>
        <time>2021-08-16T14:15:28Z</time>
      </trkpt>
      <trkpt lat="43.84849" lon="3.44307">
        <ele>658.2</ele>
        <time>2021-08-16T14:16:27Z</time>
      </trkpt>
      <trkpt lat="43.84873" lon="3.44174">
        <ele>663.1</ele>
        <time>2021-08-16T14:17:26Z</time>
      </trkpt>
      <trkpt lat="43.8486" lon="3.44041">
        <ele>666</ele>
        <time>2021-08-16T14:17:56Z</time>
      </trkpt>
      <trkpt lat="43.8484" lon="3.43918">
        <ele>667.7</ele>
        <time>2021-08-16T14:18:26Z</time>
      </trkpt>
      <trkpt lat="43.84788" lon="3.43794">
        <ele>662.1</ele>
        <time>2021-08-16T14:18:56Z</time>
      </trkpt>
      <trkpt lat="43.84833" lon="3.43662">
        <ele>658.6</ele>
        <time>2021-08-16T14:19:21Z</time>
      </trkpt>
      <trkpt lat="43.84834" lon="3.43535">
        <ele>658</ele>
        <time>2021-08-16T14:19:46Z</time>
      </trkpt>
      <trkpt lat="43.84767" lon="3.43445">
        <ele>656.6</ele>
        <time>2021-08-16T14:33:34Z</time>
      </trkpt>
      <trkpt lat="43.84727" lon="3.43321">
        <ele>659</ele>
        <time>2021-08-16T14:34:04Z</time>
      </trkpt>
      <trkpt lat="43.84768" lon="3.43203">
        <ele>659.2</ele>
        <time>2021-08-16T14:34:34Z</time>
      </trkpt>
      <trkpt lat="43.84793" lon="3.4306">
        <ele>662.2</ele>
        <time>2021-08-16T14:35:04Z</time>
      </trkpt>
      <trkpt lat="43.84819" lon="3.42931">
        <ele>658.6</ele>
        <time>2021-08-16T14:35:29Z</time>
      </trkpt>
      <trkpt lat="43.84831" lon="3.42802">
        <ele>659.1</ele>
        <time>2021-08-16T14:36:04Z</time>
      </trkpt>
      <trkpt lat="43.84849" lon="3.4267">
        <ele>677.8</ele>
        <time>2021-08-16T14:36:50Z</time>
      </trkpt>
      <trkpt lat="43.84872" lon="3.42535">
        <ele>678.5</ele>
        <time>2021-08-16T14:37:25Z</time>
      </trkpt>
      <trkpt lat="43.8489" lon="3.42404">
        <ele>683</ele>
        <time>2021-08-16T14:38:00Z</time>
      </trkpt>
      <trkpt lat="43.84933" lon="3.42273">
        <ele>676.5</ele>
        <time>2021-08-16T14:38:35Z</time>
      </trkpt>
      <trkpt lat="43.84985" lon="3.42157">
        <ele>669.2</ele>
        <time>2021-08-16T14:38:55Z</time>
      </trkpt>
      <trkpt lat="43.85026" lon="3.42033">
        <ele>668.9</ele>
        <time>2021-08-16T14:39:25Z</time>
      </trkpt>
      <trkpt lat="43.85065" lon="3.41911">
        <ele>670.7</ele>
        <time>2021-08-16T14:40:05Z</time>
      </trkpt>
      <trkpt lat="43.85108" lon="3.41786">
        <ele>670.9</ele>
        <time>2021-08-16T14:40:50Z</time>
      </trkpt>
      <trkpt lat="43.85144" lon="3.41668">
        <ele>677</ele>
        <time>2021-08-16T14:41:36Z</time>
      </trkpt>
      <trkpt lat="43.85178" lon="3.41549">
        <ele>678.3</ele>
        <time>2021-08-16T14:42:16Z</time>
      </trkpt>
      <trkpt lat="43.85199" lon="3.41427">
        <ele>684.1</ele>
        <time>2021-08-16T14:42:51Z</time>
      </trkpt>
      <trkpt lat="43.85222" lon="3.41299">
        <ele>684.3</ele>
        <time>2021-08-16T14:43:31Z</time>
      </trkpt>
      <trkpt lat="43.85238" lon="3.41175">
        <ele>685.1</ele>
        <time>2021-08-16T14:44:08Z</time>
      </trkpt>
      <trkpt lat="43.85296" lon="3.41067">
        <ele>694.2</ele>
        <time>2021-08-16T14:44:56Z</time>
      </trkpt>
      <trkpt lat="43.8528" lon="3.40935">
        <ele>698.7</ele>
        <time>2021-08-16T14:45:41Z</time>
      </trkpt>
      <trkpt lat="43.85261" lon="3.40804">
        <ele>705.1</ele>
        <time>2021-08-16T14:46:16Z</time>
      </trkpt>
      <trkpt lat="43.85299" lon="3.40678">
        <ele>710.3</ele>
        <time>2021-08-16T14:46:57Z</time>
      </trkpt>
      <trkpt lat="43.85333" lon="3.40557">
        <ele>706.3</ele>
        <time>2021-08-16T14:47:43Z</time>
      </trkpt>
      <trkpt lat="43.85372" lon="3.40431">
        <ele>705.6</ele>
        <time>2021-08-16T14:48:34Z</time>
      </trkpt>
      <trkpt lat="43.85454" lon="3.40368">
        <ele>714.4</ele>
        <time>2021-08-16T14:49:29Z</time>
      </trkpt>
      <trkpt lat="43.8555" lon="3.40381">
        <ele>727.4</ele>
        <time>2021-08-16T14:50:16Z</time>
      </trkpt>
      <trkpt lat="43.85616" lon="3.40296">
        <ele>722.5</ele>
        <time>2021-08-16T14:51:07Z</time>
      </trkpt>
      <trkpt lat="43.85622" lon="3.40165">
        <ele>729.6</ele>
        <time>2021-08-16T14:51:59Z</time>
      </trkpt>
      <trkpt lat="43.85646" lon="3.4004">
        <ele>736.9</ele>
        <time>2021-08-16T14:52:44Z</time>
      </trkpt>
      <trkpt lat="43.85645" lon="3.39905">
        <ele>733.8</ele>
        <time>2021-08-16T14:53:37Z</time>
      </trkpt>
      <trkpt lat="43.85622" lon="3.39776">
        <ele>736.8</ele>
        <time>2021-08-16T14:54:12Z</time>
      </trkpt>
      <trkpt lat="43.85608" lon="3.39642">
        <ele>737.4</ele>
        <time>2021-08-16T14:54:58Z</time>
      </trkpt>
      <trkpt lat="43.85588" lon="3.39509">
        <ele>740.8</ele>
        <time>2021-08-16T14:55:43Z</time>
      </trkpt>
      <trkpt lat="43.85537" lon="3.39379">
        <ele>748.1</ele>
        <time>2021-08-16T14:56:18Z</time>
      </trkpt>
      <trkpt lat="43.85499" lon="3.39248">
        <ele>754.4</ele>
        <time>2021-08-16T14:56:53Z</time>
      </trkpt>
      <trkpt lat="43.85424" lon="3.39162">
        <ele>768.4</ele>
        <time>2021-08-16T14:57:39Z</time>
      </trkpt>
      <trkpt lat="43.85374" lon="3.39053">
        <ele>771.6</ele>
        <time>2021-08-16T14:58:24Z</time>
      </trkpt>
      <trkpt lat="43.85392" lon="3.38931">
        <ele>772.1</ele>
        <time>2021-08-16T14:59:16Z</time>
      </trkpt>
      <trkpt lat="43.85475" lon="3.38878">
        <ele>771.9</ele>
        <time>2021-08-16T14:59:56Z</time>
      </trkpt>
      <trkpt lat="43.85539" lon="3.38772">
        <ele>771.1</ele>
        <time>2021-08-16T15:00:31Z</time>
      </trkpt>
      <trkpt lat="43.85528" lon="3.38631">
        <ele>773</ele>
        <time>2021-08-16T15:01:06Z</time>
      </trkpt>
      <trkpt lat="43.85509" lon="3.38484">
        <ele>775.7</ele>
        <time>2021-08-16T15:06:22Z</time>
      </trkpt>
      <trkpt lat="43.85526" lon="3.3835">
        <ele>771.2</ele>
        <time>2021-08-16T15:06:42Z</time>
      </trkpt>
      <trkpt lat="43.85581" lon="3.38248">
        <ele>771.7</ele>
        <time>2021-08-16T15:07:02Z</time>
      </trkpt>
      <trkpt lat="43.8566" lon="3.38179">
        <ele>776</ele>
        <time>2021-08-16T15:07:45Z</time>
      </trkpt>
      <trkpt lat="43.8569" lon="3.38051">
        <ele>776.3</ele>
        <time>2021-08-16T15:08:26Z</time>
      </trkpt>
      <trkpt lat="43.85694" lon="3.37903">
        <ele>777</ele>
        <time>2021-08-16T15:09:01Z</time>
      </trkpt>
      <trkpt lat="43.85691" lon="3.37747">
        <ele>771.9</ele>
        <time>2021-08-16T15:09:21Z</time>
      </trkpt>
      <trkpt lat="43.85669" lon="3.37594">
        <ele>764.7</ele>
        <time>2021-08-16T15:09:36Z</time>
      </trkpt>
      <trkpt lat="43.85654" lon="3.37462">
        <ele>757.9</ele>
        <time>2021-08-16T15:09:51Z</time>
      </trkpt>
      <trkpt lat="43.85615" lon="3.37322">
        <ele>752.2</ele>
        <time>2021-08-16T15:10:06Z</time>
      </trkpt>
      <trkpt lat="43.85576" lon="3.37194">
        <ele>748.6</ele>
        <time>2021-08-16T15:10:21Z</time>
      </trkpt>
      <trkpt lat="43.85545" lon="3.37047">
        <ele>745.6</ele>
        <time>2021-08-16T15:10:36Z</time>
      </trkpt>
      <trkpt lat="43.85532" lon="3.3691">
        <ele>743</ele>
        <time>2021-08-16T15:10:51Z</time>
      </trkpt>
      <trkpt lat="43.85489" lon="3.36795">
        <ele>740.4</ele>
        <time>2021-08-16T15:11:06Z</time>
      </trkpt>
      <trkpt lat="43.85427" lon="3.36671">
        <ele>738.5</ele>
        <time>2021-08-16T15:11:21Z</time>
      </trkpt>
      <trkpt lat="43.85357" lon="3.36531">
        <ele>737</ele>
        <time>2021-08-16T15:11:36Z</time>
      </trkpt>
      <trkpt lat="43.85295" lon="3.36394">
        <ele>733.8</ele>
        <time>2021-08-16T15:11:51Z</time>
      </trkpt>
      <trkpt lat="43.85235" lon="3.36271">
        <ele>732</ele>
        <time>2021-08-16T15:12:11Z</time>
      </trkpt>
      <trkpt lat="43.85161" lon="3.36182">
        <ele>739.7</ele>
        <time>2021-08-16T15:12:41Z</time>
      </trkpt>
      <trkpt lat="43.85105" lon="3.36057">
        <ele>742.2</ele>
        <time>2021-08-16T15:14:02Z</time>
      </trkpt>
      <trkpt lat="43.85075" lon="3.35933">
        <ele>739.3</ele>
        <time>2021-08-16T15:14:17Z</time>
      </trkpt>
      <trkpt lat="43.85051" lon="3.35787">
        <ele>735.4</ele>
        <time>2021-08-16T15:14:32Z</time>
      </trkpt>
      <trkpt lat="43.85073" lon="3.35657">
        <ele>731.4</ele>
        <time>2021-08-16T15:14:47Z</time>
      </trkpt>
      <trkpt lat="43.85112" lon="3.3553">
        <ele>723.8</ele>
        <time>2021-08-16T15:15:02Z</time>
      </trkpt>
      <trkpt lat="43.8515" lon="3.35416">
        <ele>718.1</ele>
        <time>2021-08-16T15:15:17Z</time>
      </trkpt>
      <trkpt lat="43.85192" lon="3.35294">
        <ele>717.7</ele>
        <time>2021-08-16T15:15:32Z</time>
      </trkpt>
      <trkpt lat="43.8523" lon="3.35183">
        <ele>720.5</ele>
        <time>2021-08-16T15:15:52Z</time>
      </trkpt>
      <trkpt lat="43.85269" lon="3.35068">
        <ele>723.6</ele>
        <time>2021-08-16T15:16:27Z</time>
      </trkpt>
      <trkpt lat="43.85306" lon="3.34943">
        <ele>728.4</ele>
        <time>2021-08-16T15:17:12Z</time>
      </trkpt>
      <trkpt lat="43.85352" lon="3.34816">
        <ele>732</ele>
        <time>2021-08-16T15:17:47Z</time>
      </trkpt>
      <trkpt lat="43.85386" lon="3.3468">
        <ele>727.3</ele>
        <time>2021-08-16T15:18:17Z</time>
      </trkpt>
      <trkpt lat="43.85407" lon="3.34559">
        <ele>731.5</ele>
        <time>2021-08-16T15:18:52Z</time>
      </trkpt>
      <trkpt lat="43.85429" lon="3.34432">
        <ele>736.7</ele>
        <time>2021-08-16T15:19:32Z</time>
      </trkpt>
      <trkpt lat="43.85454" lon="3.34302">
        <ele>737</ele>
        <time>2021-08-16T15:19:52Z</time>
      </trkpt>
      <trkpt lat="43.85482" lon="3.34168">
        <ele>735.6</ele>
        <time>2021-08-16T15:20:22Z</time>
      </trkpt>
      <trkpt lat="43.85512" lon="3.34021">
        <ele>735.2</ele>
        <time>2021-08-16T15:20:52Z</time>
      </trkpt>
      <trkpt lat="43.85534" lon="3.339">
        <ele>734.3</ele>
        <time>2021-08-16T15:21:12Z</time>
      </trkpt>
      <trkpt lat="43.85562" lon="3.33769">
        <ele>733.8</ele>
        <time>2021-08-16T15:21:42Z</time>
      </trkpt>
      <trkpt lat="43.85583" lon="3.33644">
        <ele>730.9</ele>
        <time>2021-08-16T15:22:07Z</time>
      </trkpt>
      <trkpt lat="43.85609" lon="3.33509">
        <ele>729.4</ele>
        <time>2021-08-16T15:22:42Z</time>
      </trkpt>
      <trkpt lat="43.85633" lon="3.33384">
        <ele>730.9</ele>
        <time>2021-08-16T15:23:12Z</time>
      </trkpt>
      <trkpt lat="43.85661" lon="3.33249">
        <ele>731.1</ele>
        <time>2021-08-16T15:23:42Z</time>
      </trkpt>
      <trkpt lat="43.85687" lon="3.3311">
        <ele>736.2</ele>
        <time>2021-08-16T15:24:22Z</time>
      </trkpt>
      <trkpt lat="43.85716" lon="3.32993">
        <ele>736.5</ele>
        <time>2021-08-16T15:24:42Z</time>
      </trkpt>
      <trkpt lat="43.85754" lon="3.32851">
        <ele>735</ele>
        <time>2021-08-16T15:25:02Z</time>
      </trkpt>
      <trkpt lat="43.85788" lon="3.32736">
        <ele>733.6</ele>
        <time>2021-08-16T15:25:17Z</time>
      </trkpt>
      <trkpt lat="43.8582" lon="3.3261">
        <ele>731.3</ele>
        <time>2021-08-16T15:25:32Z</time>
      </trkpt>
      <trkpt lat="43.85871" lon="3.32504">
        <ele>728</ele>
        <time>2021-08-16T15:25:47Z</time>
      </trkpt>
      <trkpt lat="43.85939" lon="3.32413">
        <ele>725.6</ele>
        <time>2021-08-16T15:26:07Z</time>
      </trkpt>
      <trkpt lat="43.86026" lon="3.32308">
        <ele>726.9</ele>
        <time>2021-08-16T15:26:27Z</time>
      </trkpt>
      <trkpt lat="43.86104" lon="3.32211">
        <ele>725.3</ele>
        <time>2021-08-16T15:26:47Z</time>
      </trkpt>
      <trkpt lat="43.86165" lon="3.32103">
        <ele>726.2</ele>
        <time>2021-08-16T15:27:22Z</time>
      </trkpt>
      <trkpt lat="43.86219" lon="3.32005">
        <ele>727</ele>
        <time>2021-08-16T15:27:57Z</time>
      </trkpt>
      <trkpt lat="43.86287" lon="3.31919">
        <ele>734.4</ele>
        <time>2021-08-16T15:28:32Z</time>
      </trkpt>
      <trkpt lat="43.86368" lon="3.31835">
        <ele>739.3</ele>
        <time>2021-08-16T15:29:17Z</time>
      </trkpt>
      <trkpt lat="43.86427" lon="3.31732">
        <ele>748.1</ele>
        <time>2021-08-16T15:45:09Z</time>
      </trkpt>
    </trkseg>
  </trk>
  <trk>
    <name><![CDATA[Jour05]]></name>
    <trkseg>
      <trkpt lat="43.86517" lon="3.31677">
        <ele>701.4</ele>
        <time>2021-08-17T06:02:16Z</time>
      </trkpt>
      <trkpt lat="43.86611" lon="3.31592">
        <ele>718.1</ele>
        <time>2021-08-17T06:02:36Z</time>
      </trkpt>
      <trkpt lat="43.8672" lon="3.31558">
        <ele>718.8</ele>
        <time>2021-08-17T06:02:51Z</time>
      </trkpt>
      <trkpt lat="43.8682" lon="3.31524">
        <ele>717.7</ele>
        <time>2021-08-17T06:03:06Z</time>
      </trkpt>
      <trkpt lat="43.86904" lon="3.31482">
        <ele>716.6</ele>
        <time>2021-08-17T06:03:21Z</time>
      </trkpt>
      <trkpt lat="43.8699" lon="3.31419">
        <ele>717.4</ele>
        <time>2021-08-17T06:03:46Z</time>
      </trkpt>
      <trkpt lat="43.87083" lon="3.31377">
        <ele>723</ele>
        <time>2021-08-17T06:04:21Z</time>
      </trkpt>
      <trkpt lat="43.87162" lon="3.31319">
        <ele>734.4</ele>
        <time>2021-08-17T06:04:56Z</time>
      </trkpt>
      <trkpt lat="43.8726" lon="3.31334">
        <ele>729.3</ele>
        <time>2021-08-17T06:05:31Z</time>
      </trkpt>
      <trkpt lat="43.8735" lon="3.31373">
        <ele>731.5</ele>
        <time>2021-08-17T06:06:06Z</time>
      </trkpt>
      <trkpt lat="43.8744" lon="3.31398">
        <ele>728.1</ele>
        <time>2021-08-17T06:06:41Z</time>
      </trkpt>
      <trkpt lat="43.87535" lon="3.31355">
        <ele>735</ele>
        <time>2021-08-17T06:07:21Z</time>
      </trkpt>
      <trkpt lat="43.87629" lon="3.31306">
        <ele>746.3</ele>
        <time>2021-08-17T06:08:08Z</time>
      </trkpt>
      <trkpt lat="43.87718" lon="3.31277">
        <ele>750.9</ele>
        <time>2021-08-17T06:08:43Z</time>
      </trkpt>
      <trkpt lat="43.87811" lon="3.31242">
        <ele>749.6</ele>
        <time>2021-08-17T06:09:13Z</time>
      </trkpt>
      <trkpt lat="43.87898" lon="3.31206">
        <ele>747.7</ele>
        <time>2021-08-17T06:09:38Z</time>
      </trkpt>
      <trkpt lat="43.87994" lon="3.31163">
        <ele>752.8</ele>
        <time>2021-08-17T06:10:13Z</time>
      </trkpt>
      <trkpt lat="43.88082" lon="3.31112">
        <ele>764.8</ele>
        <time>2021-08-17T06:10:53Z</time>
      </trkpt>
      <trkpt lat="43.88164" lon="3.31058">
        <ele>760.1</ele>
        <time>2021-08-17T06:11:33Z</time>
      </trkpt>
      <trkpt lat="43.88212" lon="3.30952">
        <ele>764.3</ele>
        <time>2021-08-17T06:11:58Z</time>
      </trkpt>
      <trkpt lat="43.88278" lon="3.30852">
        <ele>764.7</ele>
        <time>2021-08-17T06:12:23Z</time>
      </trkpt>
      <trkpt lat="43.88335" lon="3.30756">
        <ele>760.2</ele>
        <time>2021-08-17T06:12:43Z</time>
      </trkpt>
      <trkpt lat="43.88385" lon="3.30645">
        <ele>761.5</ele>
        <time>2021-08-17T06:13:08Z</time>
      </trkpt>
      <trkpt lat="43.88426" lon="3.30518">
        <ele>763</ele>
        <time>2021-08-17T06:13:43Z</time>
      </trkpt>
      <trkpt lat="43.88461" lon="3.3039">
        <ele>762.6</ele>
        <time>2021-08-17T06:14:08Z</time>
      </trkpt>
      <trkpt lat="43.88476" lon="3.3024">
        <ele>759</ele>
        <time>2021-08-17T06:14:28Z</time>
      </trkpt>
      <trkpt lat="43.88481" lon="3.30103">
        <ele>756</ele>
        <time>2021-08-17T06:14:48Z</time>
      </trkpt>
      <trkpt lat="43.88489" lon="3.29974">
        <ele>756.2</ele>
        <time>2021-08-17T06:15:23Z</time>
      </trkpt>
      <trkpt lat="43.88505" lon="3.29842">
        <ele>760.5</ele>
        <time>2021-08-17T06:15:58Z</time>
      </trkpt>
      <trkpt lat="43.88551" lon="3.29707">
        <ele>760.6</ele>
        <time>2021-08-17T06:16:23Z</time>
      </trkpt>
      <trkpt lat="43.88566" lon="3.2958">
        <ele>758</ele>
        <time>2021-08-17T06:17:11Z</time>
      </trkpt>
      <trkpt lat="43.88631" lon="3.29492">
        <ele>759.7</ele>
        <time>2021-08-17T06:17:41Z</time>
      </trkpt>
      <trkpt lat="43.88703" lon="3.29399">
        <ele>766.8</ele>
        <time>2021-08-17T06:18:11Z</time>
      </trkpt>
      <trkpt lat="43.8876" lon="3.29291">
        <ele>765.3</ele>
        <time>2021-08-17T06:18:41Z</time>
      </trkpt>
      <trkpt lat="43.88812" lon="3.29162">
        <ele>763</ele>
        <time>2021-08-17T06:19:11Z</time>
      </trkpt>
      <trkpt lat="43.88844" lon="3.2902">
        <ele>754</ele>
        <time>2021-08-17T06:19:36Z</time>
      </trkpt>
      <trkpt lat="43.88867" lon="3.28892">
        <ele>750.5</ele>
        <time>2021-08-17T06:19:56Z</time>
      </trkpt>
      <trkpt lat="43.88905" lon="3.28747">
        <ele>743.3</ele>
        <time>2021-08-17T06:20:16Z</time>
      </trkpt>
      <trkpt lat="43.88947" lon="3.28635">
        <ele>738.3</ele>
        <time>2021-08-17T06:20:46Z</time>
      </trkpt>
      <trkpt lat="43.89009" lon="3.2852">
        <ele>747.4</ele>
        <time>2021-08-17T06:21:26Z</time>
      </trkpt>
      <trkpt lat="43.89072" lon="3.28422">
        <ele>750</ele>
        <time>2021-08-17T06:21:56Z</time>
      </trkpt>
      <trkpt lat="43.89147" lon="3.28339">
        <ele>749.7</ele>
        <time>2021-08-17T06:22:31Z</time>
      </trkpt>
      <trkpt lat="43.89227" lon="3.28272">
        <ele>748.4</ele>
        <time>2021-08-17T06:23:06Z</time>
      </trkpt>
      <trkpt lat="43.89319" lon="3.28209">
        <ele>753</ele>
        <time>2021-08-17T06:23:36Z</time>
      </trkpt>
      <trkpt lat="43.89402" lon="3.28156">
        <ele>751.7</ele>
        <time>2021-08-17T06:24:06Z</time>
      </trkpt>
      <trkpt lat="43.89473" lon="3.28051">
        <ele>746.8</ele>
        <time>2021-08-17T06:24:41Z</time>
      </trkpt>
      <trkpt lat="43.89524" lon="3.27946">
        <ele>749.1</ele>
        <time>2021-08-17T06:25:06Z</time>
      </trkpt>
      <trkpt lat="43.89612" lon="3.27863">
        <ele>749</ele>
        <time>2021-08-17T06:25:36Z</time>
      </trkpt>
      <trkpt lat="43.89687" lon="3.27795">
        <ele>750.9</ele>
        <time>2021-08-17T06:26:01Z</time>
      </trkpt>
      <trkpt lat="43.89735" lon="3.27692">
        <ele>751.9</ele>
        <time>2021-08-17T06:26:31Z</time>
      </trkpt>
      <trkpt lat="43.89799" lon="3.27596">
        <ele>761.7</ele>
        <time>2021-08-17T06:27:49Z</time>
      </trkpt>
      <trkpt lat="43.89871" lon="3.27517">
        <ele>763</ele>
        <time>2021-08-17T06:28:30Z</time>
      </trkpt>
      <trkpt lat="43.89916" lon="3.27411">
        <ele>772</ele>
        <time>2021-08-17T06:29:10Z</time>
      </trkpt>
      <trkpt lat="43.89941" lon="3.27285">
        <ele>774.6</ele>
        <time>2021-08-17T06:29:55Z</time>
      </trkpt>
      <trkpt lat="43.89992" lon="3.27183">
        <ele>777.4</ele>
        <time>2021-08-17T06:30:35Z</time>
      </trkpt>
      <trkpt lat="43.90055" lon="3.27078">
        <ele>771.4</ele>
        <time>2021-08-17T06:31:20Z</time>
      </trkpt>
      <trkpt lat="43.90117" lon="3.26986">
        <ele>778.1</ele>
        <time>2021-08-17T06:32:00Z</time>
      </trkpt>
      <trkpt lat="43.90163" lon="3.26856">
        <ele>789.6</ele>
        <time>2021-08-17T06:32:35Z</time>
      </trkpt>
      <trkpt lat="43.90205" lon="3.26732">
        <ele>795.2</ele>
        <time>2021-08-17T06:34:14Z</time>
      </trkpt>
      <trkpt lat="43.90194" lon="3.2658">
        <ele>790.8</ele>
        <time>2021-08-17T06:34:39Z</time>
      </trkpt>
      <trkpt lat="43.90154" lon="3.26435">
        <ele>785.2</ele>
        <time>2021-08-17T06:35:04Z</time>
      </trkpt>
      <trkpt lat="43.9008" lon="3.26311">
        <ele>783.4</ele>
        <time>2021-08-17T06:35:24Z</time>
      </trkpt>
      <trkpt lat="43.901" lon="3.26185">
        <ele>788.1</ele>
        <time>2021-08-17T06:35:44Z</time>
      </trkpt>
      <trkpt lat="43.90088" lon="3.2604">
        <ele>781.3</ele>
        <time>2021-08-17T06:36:14Z</time>
      </trkpt>
      <trkpt lat="43.90044" lon="3.25919">
        <ele>777.9</ele>
        <time>2021-08-17T06:36:34Z</time>
      </trkpt>
      <trkpt lat="43.90028" lon="3.25767">
        <ele>775.5</ele>
        <time>2021-08-17T06:36:54Z</time>
      </trkpt>
      <trkpt lat="43.90053" lon="3.25645">
        <ele>782.5</ele>
        <time>2021-08-17T06:37:24Z</time>
      </trkpt>
      <trkpt lat="43.90088" lon="3.25519">
        <ele>789.5</ele>
        <time>2021-08-17T06:37:59Z</time>
      </trkpt>
      <trkpt lat="43.90091" lon="3.25387">
        <ele>794.6</ele>
        <time>2021-08-17T06:38:29Z</time>
      </trkpt>
      <trkpt lat="43.90074" lon="3.25235">
        <ele>794</ele>
        <time>2021-08-17T06:38:59Z</time>
      </trkpt>
      <trkpt lat="43.90084" lon="3.25087">
        <ele>794</ele>
        <time>2021-08-17T06:39:19Z</time>
      </trkpt>
      <trkpt lat="43.90074" lon="3.24944">
        <ele>791.6</ele>
        <time>2021-08-17T06:39:39Z</time>
      </trkpt>
      <trkpt lat="43.90055" lon="3.24818">
        <ele>792.9</ele>
        <time>2021-08-17T06:40:04Z</time>
      </trkpt>
      <trkpt lat="43.90026" lon="3.24697">
        <ele>793.7</ele>
        <time>2021-08-17T06:40:29Z</time>
      </trkpt>
      <trkpt lat="43.90024" lon="3.24549">
        <ele>793.5</ele>
        <time>2021-08-17T06:40:54Z</time>
      </trkpt>
      <trkpt lat="43.90058" lon="3.24419">
        <ele>795</ele>
        <time>2021-08-17T06:41:19Z</time>
      </trkpt>
      <trkpt lat="43.90098" lon="3.24308">
        <ele>797.4</ele>
        <time>2021-08-17T06:41:49Z</time>
      </trkpt>
      <trkpt lat="43.90132" lon="3.24172">
        <ele>801.9</ele>
        <time>2021-08-17T06:42:19Z</time>
      </trkpt>
      <trkpt lat="43.90155" lon="3.24038">
        <ele>795.8</ele>
        <time>2021-08-17T06:42:49Z</time>
      </trkpt>
      <trkpt lat="43.90199" lon="3.23906">
        <ele>794.2</ele>
        <time>2021-08-17T06:43:14Z</time>
      </trkpt>
      <trkpt lat="43.90227" lon="3.23788">
        <ele>790.8</ele>
        <time>2021-08-17T06:43:34Z</time>
      </trkpt>
      <trkpt lat="43.90245" lon="3.23664">
        <ele>795.9</ele>
        <time>2021-08-17T06:44:38Z</time>
      </trkpt>
      <trkpt lat="43.90266" lon="3.23532">
        <ele>796.2</ele>
        <time>2021-08-17T06:44:58Z</time>
      </trkpt>
      <trkpt lat="43.90292" lon="3.23389">
        <ele>795.6</ele>
        <time>2021-08-17T06:45:18Z</time>
      </trkpt>
      <trkpt lat="43.90308" lon="3.23245">
        <ele>792</ele>
        <time>2021-08-17T06:45:38Z</time>
      </trkpt>
      <trkpt lat="43.90322" lon="3.23097">
        <ele>791.3</ele>
        <time>2021-08-17T06:45:58Z</time>
      </trkpt>
      <trkpt lat="43.90348" lon="3.22968">
        <ele>789.3</ele>
        <time>2021-08-17T06:46:13Z</time>
      </trkpt>
      <trkpt lat="43.90381" lon="3.22851">
        <ele>786.9</ele>
        <time>2021-08-17T06:46:28Z</time>
      </trkpt>
      <trkpt lat="43.90427" lon="3.22727">
        <ele>785.9</ele>
        <time>2021-08-17T06:46:43Z</time>
      </trkpt>
      <trkpt lat="43.90462" lon="3.22576">
        <ele>782.4</ele>
        <time>2021-08-17T06:47:03Z</time>
      </trkpt>
      <trkpt lat="43.9047" lon="3.22425">
        <ele>779.8</ele>
        <time>2021-08-17T06:47:23Z</time>
      </trkpt>
      <trkpt lat="43.90483" lon="3.22279">
        <ele>774.8</ele>
        <time>2021-08-17T06:47:48Z</time>
      </trkpt>
      <trkpt lat="43.90516" lon="3.22137">
        <ele>774.5</ele>
        <time>2021-08-17T06:48:13Z</time>
      </trkpt>
      <trkpt lat="43.90537" lon="3.21999">
        <ele>770.2</ele>
        <time>2021-08-17T06:48:38Z</time>
      </trkpt>
      <trkpt lat="43.90544" lon="3.21873">
        <ele>772.2</ele>
        <time>2021-08-17T06:49:08Z</time>
      </trkpt>
      <trkpt lat="43.90548" lon="3.21735">
        <ele>771.3</ele>
        <time>2021-08-17T06:49:56Z</time>
      </trkpt>
      <trkpt lat="43.90585" lon="3.21598">
        <ele>771.6</ele>
        <time>2021-08-17T06:50:16Z</time>
      </trkpt>
      <trkpt lat="43.90673" lon="3.21521">
        <ele>771.1</ele>
        <time>2021-08-17T06:50:41Z</time>
      </trkpt>
      <trkpt lat="43.90739" lon="3.214">
        <ele>775.1</ele>
        <time>2021-08-17T06:51:01Z</time>
      </trkpt>
      <trkpt lat="43.90781" lon="3.21289">
        <ele>778.2</ele>
        <time>2021-08-17T06:51:21Z</time>
      </trkpt>
      <trkpt lat="43.90821" lon="3.21139">
        <ele>773.6</ele>
        <time>2021-08-17T06:51:41Z</time>
      </trkpt>
      <trkpt lat="43.9088" lon="3.21017">
        <ele>767.6</ele>
        <time>2021-08-17T06:51:56Z</time>
      </trkpt>
      <trkpt lat="43.90959" lon="3.20934">
        <ele>763.9</ele>
        <time>2021-08-17T06:52:16Z</time>
      </trkpt>
      <trkpt lat="43.91032" lon="3.20814">
        <ele>765.3</ele>
        <time>2021-08-17T06:52:36Z</time>
      </trkpt>
      <trkpt lat="43.91081" lon="3.20687">
        <ele>766.3</ele>
        <time>2021-08-17T06:52:56Z</time>
      </trkpt>
      <trkpt lat="43.91133" lon="3.20545">
        <ele>766.7</ele>
        <time>2021-08-17T06:53:16Z</time>
      </trkpt>
      <trkpt lat="43.91175" lon="3.20435">
        <ele>759.3</ele>
        <time>2021-08-17T06:53:31Z</time>
      </trkpt>
      <trkpt lat="43.91223" lon="3.20302">
        <ele>761.7</ele>
        <time>2021-08-17T06:53:51Z</time>
      </trkpt>
      <trkpt lat="43.91274" lon="3.20184">
        <ele>766.4</ele>
        <time>2021-08-17T06:54:11Z</time>
      </trkpt>
      <trkpt lat="43.91296" lon="3.20058">
        <ele>766.2</ele>
        <time>2021-08-17T06:54:31Z</time>
      </trkpt>
      <trkpt lat="43.91319" lon="3.19913">
        <ele>766.2</ele>
        <time>2021-08-17T06:54:56Z</time>
      </trkpt>
      <trkpt lat="43.91314" lon="3.19768">
        <ele>760.8</ele>
        <time>2021-08-17T06:55:26Z</time>
      </trkpt>
      <trkpt lat="43.91328" lon="3.19637">
        <ele>760.3</ele>
        <time>2021-08-17T06:56:01Z</time>
      </trkpt>
      <trkpt lat="43.91317" lon="3.19507">
        <ele>758.1</ele>
        <time>2021-08-17T06:56:31Z</time>
      </trkpt>
      <trkpt lat="43.91301" lon="3.19374">
        <ele>756.7</ele>
        <time>2021-08-17T06:57:01Z</time>
      </trkpt>
      <trkpt lat="43.91265" lon="3.19249">
        <ele>756</ele>
        <time>2021-08-17T06:57:16Z</time>
      </trkpt>
      <trkpt lat="43.9121" lon="3.19135">
        <ele>755.5</ele>
        <time>2021-08-17T06:57:31Z</time>
      </trkpt>
      <trkpt lat="43.91192" lon="3.19">
        <ele>753.6</ele>
        <time>2021-08-17T06:57:46Z</time>
      </trkpt>
      <trkpt lat="43.91159" lon="3.18871">
        <ele>751.8</ele>
        <time>2021-08-17T06:58:06Z</time>
      </trkpt>
      <trkpt lat="43.9109" lon="3.18737">
        <ele>749.5</ele>
        <time>2021-08-17T06:58:21Z</time>
      </trkpt>
      <trkpt lat="43.91057" lon="3.18596">
        <ele>747.8</ele>
        <time>2021-08-17T06:58:36Z</time>
      </trkpt>
      <trkpt lat="43.91051" lon="3.18468">
        <ele>745.7</ele>
        <time>2021-08-17T06:58:51Z</time>
      </trkpt>
      <trkpt lat="43.9102" lon="3.18341">
        <ele>742.1</ele>
        <time>2021-08-17T06:59:21Z</time>
      </trkpt>
      <trkpt lat="43.90958" lon="3.18245">
        <ele>741.2</ele>
        <time>2021-08-17T06:59:41Z</time>
      </trkpt>
      <trkpt lat="43.90904" lon="3.18096">
        <ele>739.8</ele>
        <time>2021-08-17T07:00:01Z</time>
      </trkpt>
      <trkpt lat="43.90862" lon="3.17939">
        <ele>737.1</ele>
        <time>2021-08-17T07:00:21Z</time>
      </trkpt>
      <trkpt lat="43.90878" lon="3.17792">
        <ele>741.3</ele>
        <time>2021-08-17T07:00:41Z</time>
      </trkpt>
      <trkpt lat="43.90858" lon="3.17653">
        <ele>748</ele>
        <time>2021-08-17T07:03:28Z</time>
      </trkpt>
      <trkpt lat="43.90742" lon="3.17597">
        <ele>746</ele>
        <time>2021-08-17T07:03:43Z</time>
      </trkpt>
      <trkpt lat="43.9065" lon="3.17551">
        <ele>743.5</ele>
        <time>2021-08-17T07:03:53Z</time>
      </trkpt>
      <trkpt lat="43.90556" lon="3.17519">
        <ele>741.5</ele>
        <time>2021-08-17T07:04:03Z</time>
      </trkpt>
      <trkpt lat="43.90458" lon="3.175">
        <ele>739.1</ele>
        <time>2021-08-17T07:04:13Z</time>
      </trkpt>
      <trkpt lat="43.90335" lon="3.17527">
        <ele>735.9</ele>
        <time>2021-08-17T07:04:23Z</time>
      </trkpt>
      <trkpt lat="43.90224" lon="3.17598">
        <ele>731.1</ele>
        <time>2021-08-17T07:04:33Z</time>
      </trkpt>
      <trkpt lat="43.90331" lon="3.1759">
        <ele>709.1</ele>
        <time>2021-08-17T07:04:58Z</time>
      </trkpt>
      <trkpt lat="43.90444" lon="3.17604">
        <ele>699.8</ele>
        <time>2021-08-17T07:05:08Z</time>
      </trkpt>
      <trkpt lat="43.9055" lon="3.17642">
        <ele>689</ele>
        <time>2021-08-17T07:05:18Z</time>
      </trkpt>
      <trkpt lat="43.9045" lon="3.17692">
        <ele>669.8</ele>
        <time>2021-08-17T07:05:38Z</time>
      </trkpt>
      <trkpt lat="43.90363" lon="3.17747">
        <ele>660.4</ele>
        <time>2021-08-17T07:05:48Z</time>
      </trkpt>
      <trkpt lat="43.90328" lon="3.17871">
        <ele>641</ele>
        <time>2021-08-17T07:06:08Z</time>
      </trkpt>
      <trkpt lat="43.90229" lon="3.17865">
        <ele>621.4</ele>
        <time>2021-08-17T07:06:33Z</time>
      </trkpt>
      <trkpt lat="43.90139" lon="3.17883">
        <ele>608.7</ele>
        <time>2021-08-17T07:06:53Z</time>
      </trkpt>
      <trkpt lat="43.90045" lon="3.17859">
        <ele>602.9</ele>
        <time>2021-08-17T07:07:13Z</time>
      </trkpt>
      <trkpt lat="43.89933" lon="3.1784">
        <ele>593.9</ele>
        <time>2021-08-17T07:07:33Z</time>
      </trkpt>
      <trkpt lat="43.89837" lon="3.17819">
        <ele>592.5</ele>
        <time>2021-08-17T07:07:48Z</time>
      </trkpt>
      <trkpt lat="43.89782" lon="3.177">
        <ele>594.1</ele>
        <time>2021-08-17T07:08:03Z</time>
      </trkpt>
      <trkpt lat="43.89765" lon="3.17561">
        <ele>599.8</ele>
        <time>2021-08-17T07:08:23Z</time>
      </trkpt>
      <trkpt lat="43.89747" lon="3.17435">
        <ele>605.7</ele>
        <time>2021-08-17T07:08:43Z</time>
      </trkpt>
      <trkpt lat="43.89697" lon="3.17315">
        <ele>610.6</ele>
        <time>2021-08-17T07:09:03Z</time>
      </trkpt>
      <trkpt lat="43.89609" lon="3.17257">
        <ele>613.2</ele>
        <time>2021-08-17T07:09:18Z</time>
      </trkpt>
      <trkpt lat="43.89567" lon="3.17123">
        <ele>610.1</ele>
        <time>2021-08-17T07:09:33Z</time>
      </trkpt>
      <trkpt lat="43.89527" lon="3.17001">
        <ele>606.6</ele>
        <time>2021-08-17T07:09:43Z</time>
      </trkpt>
      <trkpt lat="43.89448" lon="3.16922">
        <ele>603.3</ele>
        <time>2021-08-17T07:09:53Z</time>
      </trkpt>
      <trkpt lat="43.89338" lon="3.16922">
        <ele>599.7</ele>
        <time>2021-08-17T07:10:03Z</time>
      </trkpt>
      <trkpt lat="43.8926" lon="3.16846">
        <ele>596.5</ele>
        <time>2021-08-17T07:10:13Z</time>
      </trkpt>
      <trkpt lat="43.89246" lon="3.16666">
        <ele>590.1</ele>
        <time>2021-08-17T07:10:28Z</time>
      </trkpt>
      <trkpt lat="43.89215" lon="3.16542">
        <ele>586.1</ele>
        <time>2021-08-17T07:10:38Z</time>
      </trkpt>
      <trkpt lat="43.89182" lon="3.16411">
        <ele>580.8</ele>
        <time>2021-08-17T07:10:48Z</time>
      </trkpt>
      <trkpt lat="43.8912" lon="3.16271">
        <ele>572.5</ele>
        <time>2021-08-17T07:11:03Z</time>
      </trkpt>
      <trkpt lat="43.89081" lon="3.16128">
        <ele>562.4</ele>
        <time>2021-08-17T07:11:23Z</time>
      </trkpt>
      <trkpt lat="43.89083" lon="3.15992">
        <ele>555.1</ele>
        <time>2021-08-17T07:11:38Z</time>
      </trkpt>
      <trkpt lat="43.89088" lon="3.15828">
        <ele>548.2</ele>
        <time>2021-08-17T07:11:53Z</time>
      </trkpt>
      <trkpt lat="43.89075" lon="3.15665">
        <ele>539.7</ele>
        <time>2021-08-17T07:12:08Z</time>
      </trkpt>
      <trkpt lat="43.89054" lon="3.15497">
        <ele>529.4</ele>
        <time>2021-08-17T07:12:23Z</time>
      </trkpt>
      <trkpt lat="43.89018" lon="3.15344">
        <ele>520.6</ele>
        <time>2021-08-17T07:12:38Z</time>
      </trkpt>
      <trkpt lat="43.88958" lon="3.15235">
        <ele>509</ele>
        <time>2021-08-17T07:12:58Z</time>
      </trkpt>
      <trkpt lat="43.88876" lon="3.15132">
        <ele>498.9</ele>
        <time>2021-08-17T07:13:23Z</time>
      </trkpt>
      <trkpt lat="43.88781" lon="3.15011">
        <ele>493.3</ele>
        <time>2021-08-17T07:13:43Z</time>
      </trkpt>
      <trkpt lat="43.8866" lon="3.14958">
        <ele>490.2</ele>
        <time>2021-08-17T07:13:58Z</time>
      </trkpt>
      <trkpt lat="43.8853" lon="3.14914">
        <ele>487.1</ele>
        <time>2021-08-17T07:14:13Z</time>
      </trkpt>
      <trkpt lat="43.88432" lon="3.1485">
        <ele>484.2</ele>
        <time>2021-08-17T07:14:28Z</time>
      </trkpt>
      <trkpt lat="43.88335" lon="3.14812">
        <ele>477.6</ele>
        <time>2021-08-17T07:14:53Z</time>
      </trkpt>
      <trkpt lat="43.88318" lon="3.14683">
        <ele>478.5</ele>
        <time>2021-08-17T07:15:13Z</time>
      </trkpt>
      <trkpt lat="43.88346" lon="3.14559">
        <ele>478.9</ele>
        <time>2021-08-17T07:15:28Z</time>
      </trkpt>
      <trkpt lat="43.88328" lon="3.14422">
        <ele>477.4</ele>
        <time>2021-08-17T07:15:43Z</time>
      </trkpt>
      <trkpt lat="43.88267" lon="3.14322">
        <ele>475.3</ele>
        <time>2021-08-17T07:15:58Z</time>
      </trkpt>
      <trkpt lat="43.88232" lon="3.14194">
        <ele>473.8</ele>
        <time>2021-08-17T07:16:18Z</time>
      </trkpt>
      <trkpt lat="43.8825" lon="3.14051">
        <ele>471.7</ele>
        <time>2021-08-17T07:16:38Z</time>
      </trkpt>
      <trkpt lat="43.88286" lon="3.13921">
        <ele>472.8</ele>
        <time>2021-08-17T07:16:58Z</time>
      </trkpt>
      <trkpt lat="43.88319" lon="3.1378">
        <ele>471</ele>
        <time>2021-08-17T07:17:18Z</time>
      </trkpt>
      <trkpt lat="43.88297" lon="3.13646">
        <ele>470.8</ele>
        <time>2021-08-17T07:17:33Z</time>
      </trkpt>
      <trkpt lat="43.88232" lon="3.13533">
        <ele>473.2</ele>
        <time>2021-08-17T07:17:48Z</time>
      </trkpt>
      <trkpt lat="43.88145" lon="3.13433">
        <ele>472.8</ele>
        <time>2021-08-17T07:18:03Z</time>
      </trkpt>
      <trkpt lat="43.88039" lon="3.1339">
        <ele>473.1</ele>
        <time>2021-08-17T07:18:18Z</time>
      </trkpt>
      <trkpt lat="43.87929" lon="3.1338">
        <ele>473.4</ele>
        <time>2021-08-17T07:18:33Z</time>
      </trkpt>
      <trkpt lat="43.8783" lon="3.13339">
        <ele>472.3</ele>
        <time>2021-08-17T07:18:48Z</time>
      </trkpt>
      <trkpt lat="43.87744" lon="3.13266">
        <ele>472.1</ele>
        <time>2021-08-17T07:19:03Z</time>
      </trkpt>
      <trkpt lat="43.87673" lon="3.13134">
        <ele>471.3</ele>
        <time>2021-08-17T07:19:23Z</time>
      </trkpt>
      <trkpt lat="43.8761" lon="3.13019">
        <ele>471.2</ele>
        <time>2021-08-17T07:19:43Z</time>
      </trkpt>
      <trkpt lat="43.87588" lon="3.12868">
        <ele>473</ele>
        <time>2021-08-17T07:20:08Z</time>
      </trkpt>
      <trkpt lat="43.87622" lon="3.12723">
        <ele>473.6</ele>
        <time>2021-08-17T07:20:28Z</time>
      </trkpt>
      <trkpt lat="43.87641" lon="3.12601">
        <ele>474.2</ele>
        <time>2021-08-17T07:20:43Z</time>
      </trkpt>
      <trkpt lat="43.87654" lon="3.12453">
        <ele>476.2</ele>
        <time>2021-08-17T07:21:03Z</time>
      </trkpt>
      <trkpt lat="43.87644" lon="3.12319">
        <ele>478.3</ele>
        <time>2021-08-17T07:21:28Z</time>
      </trkpt>
      <trkpt lat="43.87719" lon="3.12252">
        <ele>492.3</ele>
        <time>2021-08-17T07:26:32Z</time>
      </trkpt>
      <trkpt lat="43.87815" lon="3.12256">
        <ele>490.6</ele>
        <time>2021-08-17T07:26:52Z</time>
      </trkpt>
      <trkpt lat="43.87904" lon="3.12197">
        <ele>483.9</ele>
        <time>2021-08-17T07:27:17Z</time>
      </trkpt>
      <trkpt lat="43.87997" lon="3.12156">
        <ele>478.7</ele>
        <time>2021-08-17T07:27:37Z</time>
      </trkpt>
      <trkpt lat="43.8809" lon="3.12078">
        <ele>470.2</ele>
        <time>2021-08-17T07:28:02Z</time>
      </trkpt>
      <trkpt lat="43.88182" lon="3.1203">
        <ele>460.4</ele>
        <time>2021-08-17T07:28:32Z</time>
      </trkpt>
      <trkpt lat="43.88282" lon="3.11998">
        <ele>449.2</ele>
        <time>2021-08-17T07:29:07Z</time>
      </trkpt>
      <trkpt lat="43.88372" lon="3.11981">
        <ele>446.9</ele>
        <time>2021-08-17T07:29:37Z</time>
      </trkpt>
      <trkpt lat="43.88479" lon="3.11983">
        <ele>453.4</ele>
        <time>2021-08-17T07:30:07Z</time>
      </trkpt>
      <trkpt lat="43.88558" lon="3.1192">
        <ele>462.8</ele>
        <time>2021-08-17T07:30:32Z</time>
      </trkpt>
      <trkpt lat="43.88644" lon="3.11849">
        <ele>464.4</ele>
        <time>2021-08-17T07:31:02Z</time>
      </trkpt>
      <trkpt lat="43.88727" lon="3.11778">
        <ele>468</ele>
        <time>2021-08-17T07:31:32Z</time>
      </trkpt>
      <trkpt lat="43.88821" lon="3.1173">
        <ele>466.9</ele>
        <time>2021-08-17T07:32:02Z</time>
      </trkpt>
      <trkpt lat="43.8891" lon="3.11657">
        <ele>465.4</ele>
        <time>2021-08-17T07:32:32Z</time>
      </trkpt>
      <trkpt lat="43.88986" lon="3.11591">
        <ele>466.4</ele>
        <time>2021-08-17T07:33:02Z</time>
      </trkpt>
      <trkpt lat="43.89062" lon="3.11512">
        <ele>478.1</ele>
        <time>2021-08-17T07:33:37Z</time>
      </trkpt>
      <trkpt lat="43.89124" lon="3.11407">
        <ele>486</ele>
        <time>2021-08-17T07:34:17Z</time>
      </trkpt>
      <trkpt lat="43.89181" lon="3.11299">
        <ele>500.3</ele>
        <time>2021-08-17T07:35:02Z</time>
      </trkpt>
      <trkpt lat="43.89251" lon="3.11202">
        <ele>502.5</ele>
        <time>2021-08-17T07:35:49Z</time>
      </trkpt>
      <trkpt lat="43.89304" lon="3.11099">
        <ele>507.1</ele>
        <time>2021-08-17T07:36:09Z</time>
      </trkpt>
      <trkpt lat="43.89391" lon="3.11041">
        <ele>511.8</ele>
        <time>2021-08-17T07:36:29Z</time>
      </trkpt>
      <trkpt lat="43.89492" lon="3.11043">
        <ele>518.5</ele>
        <time>2021-08-17T07:36:59Z</time>
      </trkpt>
      <trkpt lat="43.89582" lon="3.11014">
        <ele>542</ele>
        <time>2021-08-17T07:37:39Z</time>
      </trkpt>
      <trkpt lat="43.89675" lon="3.10985">
        <ele>554</ele>
        <time>2021-08-17T07:38:24Z</time>
      </trkpt>
      <trkpt lat="43.89743" lon="3.10906">
        <ele>555</ele>
        <time>2021-08-17T07:38:59Z</time>
      </trkpt>
      <trkpt lat="43.89808" lon="3.10812">
        <ele>555.7</ele>
        <time>2021-08-17T07:39:51Z</time>
      </trkpt>
      <trkpt lat="43.89851" lon="3.10686">
        <ele>556.8</ele>
        <time>2021-08-17T07:45:46Z</time>
      </trkpt>
      <trkpt lat="43.89889" lon="3.10567">
        <ele>557.1</ele>
        <time>2021-08-17T07:46:11Z</time>
      </trkpt>
      <trkpt lat="43.89887" lon="3.10435">
        <ele>563.7</ele>
        <time>2021-08-17T07:46:56Z</time>
      </trkpt>
      <trkpt lat="43.89905" lon="3.1031">
        <ele>566.4</ele>
        <time>2021-08-17T07:47:43Z</time>
      </trkpt>
      <trkpt lat="43.89951" lon="3.10189">
        <ele>572.1</ele>
        <time>2021-08-17T07:48:39Z</time>
      </trkpt>
      <trkpt lat="43.8999" lon="3.10077">
        <ele>576.7</ele>
        <time>2021-08-17T07:49:33Z</time>
      </trkpt>
      <trkpt lat="43.90016" lon="3.09958">
        <ele>583.3</ele>
        <time>2021-08-17T07:50:26Z</time>
      </trkpt>
      <trkpt lat="43.90036" lon="3.09832">
        <ele>596.4</ele>
        <time>2021-08-17T07:51:18Z</time>
      </trkpt>
      <trkpt lat="43.90095" lon="3.09734">
        <ele>597.3</ele>
        <time>2021-08-17T07:51:58Z</time>
      </trkpt>
      <trkpt lat="43.90131" lon="3.09602">
        <ele>596.1</ele>
        <time>2021-08-17T07:52:33Z</time>
      </trkpt>
      <trkpt lat="43.90167" lon="3.0948">
        <ele>593</ele>
        <time>2021-08-17T07:53:03Z</time>
      </trkpt>
      <trkpt lat="43.90219" lon="3.09362">
        <ele>602.6</ele>
        <time>2021-08-17T07:53:38Z</time>
      </trkpt>
      <trkpt lat="43.90264" lon="3.09236">
        <ele>606.2</ele>
        <time>2021-08-17T07:54:23Z</time>
      </trkpt>
      <trkpt lat="43.90306" lon="3.09115">
        <ele>611.9</ele>
        <time>2021-08-17T07:55:08Z</time>
      </trkpt>
      <trkpt lat="43.90343" lon="3.08997">
        <ele>610.6</ele>
        <time>2021-08-17T07:55:48Z</time>
      </trkpt>
      <trkpt lat="43.90385" lon="3.08886">
        <ele>614.7</ele>
        <time>2021-08-17T07:56:33Z</time>
      </trkpt>
      <trkpt lat="43.90441" lon="3.08786">
        <ele>613.3</ele>
        <time>2021-08-17T07:57:19Z</time>
      </trkpt>
      <trkpt lat="43.90491" lon="3.08684">
        <ele>615.5</ele>
        <time>2021-08-17T07:57:59Z</time>
      </trkpt>
      <trkpt lat="43.9048" lon="3.08526">
        <ele>621.7</ele>
        <time>2021-08-17T07:58:24Z</time>
      </trkpt>
      <trkpt lat="43.90528" lon="3.08377">
        <ele>616.4</ele>
        <time>2021-08-17T07:58:44Z</time>
      </trkpt>
      <trkpt lat="43.90579" lon="3.08268">
        <ele>610.9</ele>
        <time>2021-08-17T07:58:59Z</time>
      </trkpt>
      <trkpt lat="43.90624" lon="3.0816">
        <ele>607.4</ele>
        <time>2021-08-17T07:59:14Z</time>
      </trkpt>
      <trkpt lat="43.90671" lon="3.08051">
        <ele>603.4</ele>
        <time>2021-08-17T07:59:29Z</time>
      </trkpt>
      <trkpt lat="43.9071" lon="3.0794">
        <ele>600.2</ele>
        <time>2021-08-17T07:59:44Z</time>
      </trkpt>
      <trkpt lat="43.90732" lon="3.07819">
        <ele>596.6</ele>
        <time>2021-08-17T07:59:59Z</time>
      </trkpt>
      <trkpt lat="43.90773" lon="3.07702">
        <ele>590.5</ele>
        <time>2021-08-17T08:00:14Z</time>
      </trkpt>
      <trkpt lat="43.90799" lon="3.07579">
        <ele>587.8</ele>
        <time>2021-08-17T08:00:34Z</time>
      </trkpt>
      <trkpt lat="43.90836" lon="3.07461">
        <ele>584.4</ele>
        <time>2021-08-17T08:00:54Z</time>
      </trkpt>
      <trkpt lat="43.90864" lon="3.07329">
        <ele>581.5</ele>
        <time>2021-08-17T08:01:19Z</time>
      </trkpt>
      <trkpt lat="43.90886" lon="3.07186">
        <ele>580.3</ele>
        <time>2021-08-17T08:01:49Z</time>
      </trkpt>
      <trkpt lat="43.90925" lon="3.0703">
        <ele>581.6</ele>
        <time>2021-08-17T08:02:14Z</time>
      </trkpt>
      <trkpt lat="43.90973" lon="3.06887">
        <ele>581.6</ele>
        <time>2021-08-17T08:02:29Z</time>
      </trkpt>
      <trkpt lat="43.91023" lon="3.06739">
        <ele>580.5</ele>
        <time>2021-08-17T08:02:44Z</time>
      </trkpt>
      <trkpt lat="43.91062" lon="3.06627">
        <ele>582.3</ele>
        <time>2021-08-17T08:03:04Z</time>
      </trkpt>
      <trkpt lat="43.91114" lon="3.0649">
        <ele>576.4</ele>
        <time>2021-08-17T08:03:24Z</time>
      </trkpt>
      <trkpt lat="43.91147" lon="3.0636">
        <ele>571.7</ele>
        <time>2021-08-17T08:03:39Z</time>
      </trkpt>
      <trkpt lat="43.91167" lon="3.06224">
        <ele>567.9</ele>
        <time>2021-08-17T08:03:54Z</time>
      </trkpt>
      <trkpt lat="43.91215" lon="3.06117">
        <ele>564.5</ele>
        <time>2021-08-17T08:04:09Z</time>
      </trkpt>
      <trkpt lat="43.91288" lon="3.06008">
        <ele>560.6</ele>
        <time>2021-08-17T08:04:24Z</time>
      </trkpt>
      <trkpt lat="43.91302" lon="3.05864">
        <ele>555.3</ele>
        <time>2021-08-17T08:04:39Z</time>
      </trkpt>
      <trkpt lat="43.91339" lon="3.05733">
        <ele>550.6</ele>
        <time>2021-08-17T08:05:09Z</time>
      </trkpt>
      <trkpt lat="43.91389" lon="3.05598">
        <ele>550.2</ele>
        <time>2021-08-17T08:05:29Z</time>
      </trkpt>
      <trkpt lat="43.91453" lon="3.05481">
        <ele>546.4</ele>
        <time>2021-08-17T08:05:44Z</time>
      </trkpt>
      <trkpt lat="43.91546" lon="3.054">
        <ele>538.5</ele>
        <time>2021-08-17T08:05:59Z</time>
      </trkpt>
      <trkpt lat="43.91601" lon="3.05289">
        <ele>532.4</ele>
        <time>2021-08-17T08:06:14Z</time>
      </trkpt>
      <trkpt lat="43.91663" lon="3.05171">
        <ele>530.2</ele>
        <time>2021-08-17T08:06:29Z</time>
      </trkpt>
      <trkpt lat="43.91742" lon="3.05109">
        <ele>525.8</ele>
        <time>2021-08-17T08:06:39Z</time>
      </trkpt>
      <trkpt lat="43.91864" lon="3.05074">
        <ele>517.6</ele>
        <time>2021-08-17T08:06:54Z</time>
      </trkpt>
      <trkpt lat="43.91986" lon="3.05145">
        <ele>509.7</ele>
        <time>2021-08-17T08:07:09Z</time>
      </trkpt>
      <trkpt lat="43.92017" lon="3.05293">
        <ele>504</ele>
        <time>2021-08-17T08:07:24Z</time>
      </trkpt>
      <trkpt lat="43.92117" lon="3.05361">
        <ele>497.6</ele>
        <time>2021-08-17T08:07:39Z</time>
      </trkpt>
      <trkpt lat="43.92157" lon="3.05249">
        <ele>495.2</ele>
        <time>2021-08-17T08:07:54Z</time>
      </trkpt>
      <trkpt lat="43.92218" lon="3.05151">
        <ele>489.6</ele>
        <time>2021-08-17T08:08:14Z</time>
      </trkpt>
      <trkpt lat="43.9232" lon="3.05238">
        <ele>489.7</ele>
        <time>2021-08-17T08:08:34Z</time>
      </trkpt>
      <trkpt lat="43.92421" lon="3.0525">
        <ele>486.5</ele>
        <time>2021-08-17T08:08:54Z</time>
      </trkpt>
      <trkpt lat="43.9251" lon="3.05218">
        <ele>485.3</ele>
        <time>2021-08-17T08:09:19Z</time>
      </trkpt>
      <trkpt lat="43.92612" lon="3.05172">
        <ele>490</ele>
        <time>2021-08-17T08:09:49Z</time>
      </trkpt>
      <trkpt lat="43.92684" lon="3.05072">
        <ele>496.4</ele>
        <time>2021-08-17T08:10:19Z</time>
      </trkpt>
      <trkpt lat="43.92752" lon="3.04978">
        <ele>504.8</ele>
        <time>2021-08-17T08:10:59Z</time>
      </trkpt>
      <trkpt lat="43.92807" lon="3.04881">
        <ele>509.1</ele>
        <time>2021-08-17T08:11:40Z</time>
      </trkpt>
      <trkpt lat="43.92855" lon="3.04778">
        <ele>508.1</ele>
        <time>2021-08-17T08:12:20Z</time>
      </trkpt>
      <trkpt lat="43.92905" lon="3.04664">
        <ele>513.1</ele>
        <time>2021-08-17T08:13:01Z</time>
      </trkpt>
      <trkpt lat="43.92952" lon="3.04557">
        <ele>515.6</ele>
        <time>2021-08-17T08:13:41Z</time>
      </trkpt>
      <trkpt lat="43.92998" lon="3.04435">
        <ele>523.6</ele>
        <time>2021-08-17T08:14:26Z</time>
      </trkpt>
      <trkpt lat="43.93023" lon="3.04313">
        <ele>526.6</ele>
        <time>2021-08-17T08:15:06Z</time>
      </trkpt>
      <trkpt lat="43.9305" lon="3.04189">
        <ele>529.5</ele>
        <time>2021-08-17T08:15:46Z</time>
      </trkpt>
      <trkpt lat="43.93101" lon="3.04076">
        <ele>534.4</ele>
        <time>2021-08-17T08:16:32Z</time>
      </trkpt>
      <trkpt lat="43.9316" lon="3.03978">
        <ele>541.8</ele>
        <time>2021-08-17T08:17:20Z</time>
      </trkpt>
      <trkpt lat="43.93191" lon="3.03856">
        <ele>548</ele>
        <time>2021-08-17T08:18:08Z</time>
      </trkpt>
      <trkpt lat="43.93207" lon="3.03722">
        <ele>557.7</ele>
        <time>2021-08-17T08:18:56Z</time>
      </trkpt>
      <trkpt lat="43.93182" lon="3.0359">
        <ele>564.2</ele>
        <time>2021-08-17T08:19:44Z</time>
      </trkpt>
      <trkpt lat="43.93153" lon="3.03463">
        <ele>569.8</ele>
        <time>2021-08-17T08:20:39Z</time>
      </trkpt>
      <trkpt lat="43.93161" lon="3.03339">
        <ele>567.7</ele>
        <time>2021-08-17T08:21:24Z</time>
      </trkpt>
      <trkpt lat="43.93118" lon="3.03216">
        <ele>571.2</ele>
        <time>2021-08-17T08:22:04Z</time>
      </trkpt>
      <trkpt lat="43.93064" lon="3.0309">
        <ele>573.3</ele>
        <time>2021-08-17T08:22:34Z</time>
      </trkpt>
      <trkpt lat="43.93017" lon="3.02973">
        <ele>576.1</ele>
        <time>2021-08-17T08:22:59Z</time>
      </trkpt>
      <trkpt lat="43.92984" lon="3.02842">
        <ele>576.5</ele>
        <time>2021-08-17T08:23:24Z</time>
      </trkpt>
      <trkpt lat="43.92993" lon="3.02707">
        <ele>567.6</ele>
        <time>2021-08-17T08:23:54Z</time>
      </trkpt>
      <trkpt lat="43.93004" lon="3.02569">
        <ele>565.9</ele>
        <time>2021-08-17T08:24:24Z</time>
      </trkpt>
      <trkpt lat="43.93016" lon="3.02428">
        <ele>566.7</ele>
        <time>2021-08-17T08:24:54Z</time>
      </trkpt>
      <trkpt lat="43.9303" lon="3.02304">
        <ele>565.6</ele>
        <time>2021-08-17T08:25:19Z</time>
      </trkpt>
      <trkpt lat="43.93049" lon="3.02167">
        <ele>563.3</ele>
        <time>2021-08-17T08:25:44Z</time>
      </trkpt>
      <trkpt lat="43.93071" lon="3.02031">
        <ele>559.6</ele>
        <time>2021-08-17T08:26:04Z</time>
      </trkpt>
      <trkpt lat="43.93097" lon="3.01879">
        <ele>559.8</ele>
        <time>2021-08-17T08:26:24Z</time>
      </trkpt>
      <trkpt lat="43.93123" lon="3.01725">
        <ele>556.4</ele>
        <time>2021-08-17T08:26:44Z</time>
      </trkpt>
      <trkpt lat="43.93224" lon="3.01663">
        <ele>551.6</ele>
        <time>2021-08-17T08:27:09Z</time>
      </trkpt>
      <trkpt lat="43.9332" lon="3.01612">
        <ele>544.6</ele>
        <time>2021-08-17T08:27:34Z</time>
      </trkpt>
      <trkpt lat="43.93387" lon="3.01516">
        <ele>544.4</ele>
        <time>2021-08-17T08:27:59Z</time>
      </trkpt>
      <trkpt lat="43.93454" lon="3.0142">
        <ele>547.9</ele>
        <time>2021-08-17T08:28:29Z</time>
      </trkpt>
      <trkpt lat="43.93552" lon="3.0146">
        <ele>547.3</ele>
        <time>2021-08-17T08:28:54Z</time>
      </trkpt>
      <trkpt lat="43.93644" lon="3.01479">
        <ele>550.3</ele>
        <time>2021-08-17T08:29:14Z</time>
      </trkpt>
      <trkpt lat="43.93718" lon="3.014">
        <ele>551.7</ele>
        <time>2021-08-17T08:29:39Z</time>
      </trkpt>
      <trkpt lat="43.93766" lon="3.01279">
        <ele>556.9</ele>
        <time>2021-08-17T08:30:09Z</time>
      </trkpt>
      <trkpt lat="43.93814" lon="3.01149">
        <ele>553.5</ele>
        <time>2021-08-17T08:30:44Z</time>
      </trkpt>
      <trkpt lat="43.93862" lon="3.01041">
        <ele>553.6</ele>
        <time>2021-08-17T08:31:09Z</time>
      </trkpt>
      <trkpt lat="43.93926" lon="3.00946">
        <ele>555.8</ele>
        <time>2021-08-17T08:31:29Z</time>
      </trkpt>
      <trkpt lat="43.94002" lon="3.00837">
        <ele>552.3</ele>
        <time>2021-08-17T08:31:54Z</time>
      </trkpt>
      <trkpt lat="43.94071" lon="3.00744">
        <ele>550.3</ele>
        <time>2021-08-17T08:32:14Z</time>
      </trkpt>
      <trkpt lat="43.94146" lon="3.00665">
        <ele>550.7</ele>
        <time>2021-08-17T08:32:34Z</time>
      </trkpt>
      <trkpt lat="43.94221" lon="3.00582">
        <ele>550.1</ele>
        <time>2021-08-17T08:32:54Z</time>
      </trkpt>
      <trkpt lat="43.9429" lon="3.0047">
        <ele>547.5</ele>
        <time>2021-08-17T08:58:35Z</time>
      </trkpt>
      <trkpt lat="43.9434" lon="3.00365">
        <ele>541.6</ele>
        <time>2021-08-17T08:58:55Z</time>
      </trkpt>
      <trkpt lat="43.94398" lon="3.00249">
        <ele>539.4</ele>
        <time>2021-08-17T08:59:15Z</time>
      </trkpt>
      <trkpt lat="43.94425" lon="3.00125">
        <ele>538.3</ele>
        <time>2021-08-17T08:59:35Z</time>
      </trkpt>
      <trkpt lat="43.94467" lon="3.00016">
        <ele>537.7</ele>
        <time>2021-08-17T09:00:00Z</time>
      </trkpt>
      <trkpt lat="43.94507" lon="2.999">
        <ele>541.8</ele>
        <time>2021-08-17T09:00:52Z</time>
      </trkpt>
      <trkpt lat="43.94519" lon="2.99749">
        <ele>541.5</ele>
        <time>2021-08-17T09:01:27Z</time>
      </trkpt>
      <trkpt lat="43.94496" lon="2.99619">
        <ele>540.6</ele>
        <time>2021-08-17T09:01:52Z</time>
      </trkpt>
      <trkpt lat="43.94455" lon="2.99487">
        <ele>539</ele>
        <time>2021-08-17T09:02:22Z</time>
      </trkpt>
      <trkpt lat="43.94422" lon="2.99341">
        <ele>539.1</ele>
        <time>2021-08-17T09:02:52Z</time>
      </trkpt>
      <trkpt lat="43.94418" lon="2.99209">
        <ele>545.4</ele>
        <time>2021-08-17T09:03:12Z</time>
      </trkpt>
      <trkpt lat="43.94421" lon="2.99054">
        <ele>540.4</ele>
        <time>2021-08-17T09:03:32Z</time>
      </trkpt>
      <trkpt lat="43.94416" lon="2.98905">
        <ele>534.3</ele>
        <time>2021-08-17T09:03:47Z</time>
      </trkpt>
      <trkpt lat="43.9444" lon="2.98772">
        <ele>528.7</ele>
        <time>2021-08-17T09:04:02Z</time>
      </trkpt>
      <trkpt lat="43.94489" lon="2.9866">
        <ele>522.6</ele>
        <time>2021-08-17T09:04:17Z</time>
      </trkpt>
      <trkpt lat="43.94576" lon="2.98554">
        <ele>516.6</ele>
        <time>2021-08-17T09:04:32Z</time>
      </trkpt>
      <trkpt lat="43.94673" lon="2.98462">
        <ele>514.4</ele>
        <time>2021-08-17T09:04:47Z</time>
      </trkpt>
      <trkpt lat="43.94762" lon="2.98377">
        <ele>507.8</ele>
        <time>2021-08-17T09:05:02Z</time>
      </trkpt>
      <trkpt lat="43.94838" lon="2.98303">
        <ele>507.4</ele>
        <time>2021-08-17T09:05:17Z</time>
      </trkpt>
      <trkpt lat="43.94896" lon="2.98188">
        <ele>501.1</ele>
        <time>2021-08-17T09:05:37Z</time>
      </trkpt>
      <trkpt lat="43.94898" lon="2.98051">
        <ele>500.9</ele>
        <time>2021-08-17T09:07:01Z</time>
      </trkpt>
      <trkpt lat="43.94889" lon="2.97909">
        <ele>499</ele>
        <time>2021-08-17T09:07:26Z</time>
      </trkpt>
      <trkpt lat="43.94921" lon="2.97786">
        <ele>494.9</ele>
        <time>2021-08-17T09:07:46Z</time>
      </trkpt>
      <trkpt lat="43.94985" lon="2.97685">
        <ele>491.4</ele>
        <time>2021-08-17T09:08:06Z</time>
      </trkpt>
      <trkpt lat="43.95038" lon="2.97553">
        <ele>487.5</ele>
        <time>2021-08-17T09:08:26Z</time>
      </trkpt>
      <trkpt lat="43.95082" lon="2.97436">
        <ele>487.5</ele>
        <time>2021-08-17T09:08:41Z</time>
      </trkpt>
      <trkpt lat="43.95124" lon="2.97325">
        <ele>491.9</ele>
        <time>2021-08-17T09:08:56Z</time>
      </trkpt>
      <trkpt lat="43.9516" lon="2.97186">
        <ele>487.6</ele>
        <time>2021-08-17T09:09:41Z</time>
      </trkpt>
      <trkpt lat="43.95155" lon="2.97032">
        <ele>483.6</ele>
        <time>2021-08-17T09:10:01Z</time>
      </trkpt>
      <trkpt lat="43.95129" lon="2.96877">
        <ele>478.1</ele>
        <time>2021-08-17T09:10:21Z</time>
      </trkpt>
      <trkpt lat="43.9511" lon="2.96747">
        <ele>473.6</ele>
        <time>2021-08-17T09:10:36Z</time>
      </trkpt>
      <trkpt lat="43.95105" lon="2.96614">
        <ele>468.6</ele>
        <time>2021-08-17T09:10:51Z</time>
      </trkpt>
      <trkpt lat="43.95118" lon="2.96477">
        <ele>463.6</ele>
        <time>2021-08-17T09:11:06Z</time>
      </trkpt>
      <trkpt lat="43.95163" lon="2.96325">
        <ele>458.5</ele>
        <time>2021-08-17T09:11:26Z</time>
      </trkpt>
      <trkpt lat="43.95193" lon="2.96207">
        <ele>455.8</ele>
        <time>2021-08-17T09:11:41Z</time>
      </trkpt>
      <trkpt lat="43.95234" lon="2.96072">
        <ele>452.6</ele>
        <time>2021-08-17T09:12:01Z</time>
      </trkpt>
      <trkpt lat="43.95254" lon="2.95927">
        <ele>446</ele>
        <time>2021-08-17T09:12:21Z</time>
      </trkpt>
      <trkpt lat="43.9529" lon="2.95797">
        <ele>441.6</ele>
        <time>2021-08-17T09:12:41Z</time>
      </trkpt>
      <trkpt lat="43.95338" lon="2.95654">
        <ele>437.9</ele>
        <time>2021-08-17T09:13:01Z</time>
      </trkpt>
      <trkpt lat="43.95373" lon="2.95534">
        <ele>435.9</ele>
        <time>2021-08-17T09:13:16Z</time>
      </trkpt>
      <trkpt lat="43.95422" lon="2.95426">
        <ele>433.7</ele>
        <time>2021-08-17T09:13:31Z</time>
      </trkpt>
      <trkpt lat="43.95468" lon="2.9531">
        <ele>433.3</ele>
        <time>2021-08-17T09:13:46Z</time>
      </trkpt>
      <trkpt lat="43.95514" lon="2.95174">
        <ele>432.5</ele>
        <time>2021-08-17T09:14:06Z</time>
      </trkpt>
      <trkpt lat="43.95542" lon="2.95056">
        <ele>430.2</ele>
        <time>2021-08-17T09:14:21Z</time>
      </trkpt>
      <trkpt lat="43.95574" lon="2.94934">
        <ele>430.6</ele>
        <time>2021-08-17T09:14:36Z</time>
      </trkpt>
      <trkpt lat="43.95605" lon="2.94805">
        <ele>430.9</ele>
        <time>2021-08-17T09:14:51Z</time>
      </trkpt>
      <trkpt lat="43.95578" lon="2.94684">
        <ele>426.6</ele>
        <time>2021-08-17T09:15:11Z</time>
      </trkpt>
      <trkpt lat="43.95526" lon="2.94572">
        <ele>423.3</ele>
        <time>2021-08-17T09:15:36Z</time>
      </trkpt>
      <trkpt lat="43.95498" lon="2.9445">
        <ele>427.7</ele>
        <time>2021-08-17T09:16:01Z</time>
      </trkpt>
      <trkpt lat="43.95495" lon="2.94324">
        <ele>434.1</ele>
        <time>2021-08-17T09:16:31Z</time>
      </trkpt>
      <trkpt lat="43.95477" lon="2.94196">
        <ele>437.2</ele>
        <time>2021-08-17T09:18:13Z</time>
      </trkpt>
      <trkpt lat="43.95463" lon="2.94058">
        <ele>437</ele>
        <time>2021-08-17T09:18:38Z</time>
      </trkpt>
      <trkpt lat="43.95501" lon="2.93942">
        <ele>438.9</ele>
        <time>2021-08-17T09:18:58Z</time>
      </trkpt>
      <trkpt lat="43.95551" lon="2.93809">
        <ele>439.4</ele>
        <time>2021-08-17T09:19:18Z</time>
      </trkpt>
      <trkpt lat="43.95519" lon="2.93654">
        <ele>440.8</ele>
        <time>2021-08-17T09:19:38Z</time>
      </trkpt>
      <trkpt lat="43.9548" lon="2.93523">
        <ele>436.9</ele>
        <time>2021-08-17T09:19:58Z</time>
      </trkpt>
      <trkpt lat="43.95461" lon="2.93394">
        <ele>437.3</ele>
        <time>2021-08-17T09:20:18Z</time>
      </trkpt>
      <trkpt lat="43.95449" lon="2.93237">
        <ele>434.6</ele>
        <time>2021-08-17T09:20:38Z</time>
      </trkpt>
      <trkpt lat="43.95441" lon="2.93107">
        <ele>429.5</ele>
        <time>2021-08-17T09:20:53Z</time>
      </trkpt>
      <trkpt lat="43.95453" lon="2.92976">
        <ele>426.9</ele>
        <time>2021-08-17T09:21:08Z</time>
      </trkpt>
      <trkpt lat="43.95469" lon="2.92851">
        <ele>423.9</ele>
        <time>2021-08-17T09:21:23Z</time>
      </trkpt>
      <trkpt lat="43.95463" lon="2.92689">
        <ele>416</ele>
        <time>2021-08-17T09:21:43Z</time>
      </trkpt>
      <trkpt lat="43.95437" lon="2.92564">
        <ele>412.9</ele>
        <time>2021-08-17T09:21:58Z</time>
      </trkpt>
      <trkpt lat="43.9538" lon="2.92439">
        <ele>405</ele>
        <time>2021-08-17T09:22:18Z</time>
      </trkpt>
      <trkpt lat="43.95304" lon="2.92349">
        <ele>400.6</ele>
        <time>2021-08-17T09:23:35Z</time>
      </trkpt>
      <trkpt lat="43.95256" lon="2.92211">
        <ele>397.9</ele>
        <time>2021-08-17T09:23:55Z</time>
      </trkpt>
      <trkpt lat="43.95224" lon="2.92065">
        <ele>395.2</ele>
        <time>2021-08-17T09:24:15Z</time>
      </trkpt>
      <trkpt lat="43.95182" lon="2.91907">
        <ele>390.2</ele>
        <time>2021-08-17T09:24:35Z</time>
      </trkpt>
      <trkpt lat="43.95128" lon="2.91772">
        <ele>385.9</ele>
        <time>2021-08-17T09:24:55Z</time>
      </trkpt>
      <trkpt lat="43.95063" lon="2.91622">
        <ele>379</ele>
        <time>2021-08-17T09:25:15Z</time>
      </trkpt>
      <trkpt lat="43.95009" lon="2.91501">
        <ele>374.7</ele>
        <time>2021-08-17T09:25:30Z</time>
      </trkpt>
      <trkpt lat="43.94952" lon="2.91394">
        <ele>369.7</ele>
        <time>2021-08-17T09:25:45Z</time>
      </trkpt>
      <trkpt lat="43.94873" lon="2.91282">
        <ele>361.2</ele>
        <time>2021-08-17T09:26:05Z</time>
      </trkpt>
      <trkpt lat="43.94801" lon="2.91201">
        <ele>353.6</ele>
        <time>2021-08-17T09:26:30Z</time>
      </trkpt>
      <trkpt lat="43.94728" lon="2.91066">
        <ele>347.7</ele>
        <time>2021-08-17T09:26:55Z</time>
      </trkpt>
      <trkpt lat="43.94691" lon="2.90914">
        <ele>341</ele>
        <time>2021-08-17T09:27:15Z</time>
      </trkpt>
      <trkpt lat="43.94655" lon="2.90758">
        <ele>332.9</ele>
        <time>2021-08-17T09:27:35Z</time>
      </trkpt>
      <trkpt lat="43.94613" lon="2.90611">
        <ele>323.8</ele>
        <time>2021-08-17T09:28:00Z</time>
      </trkpt>
      <trkpt lat="43.94597" lon="2.90446">
        <ele>317</ele>
        <time>2021-08-17T09:28:20Z</time>
      </trkpt>
      <trkpt lat="43.94619" lon="2.9029">
        <ele>311.3</ele>
        <time>2021-08-17T09:28:40Z</time>
      </trkpt>
      <trkpt lat="43.94646" lon="2.90133">
        <ele>321.1</ele>
        <time>2021-08-17T09:29:00Z</time>
      </trkpt>
      <trkpt lat="43.94681" lon="2.89987">
        <ele>328.6</ele>
        <time>2021-08-17T09:29:20Z</time>
      </trkpt>
      <trkpt lat="43.9471" lon="2.89862">
        <ele>334.6</ele>
        <time>2021-08-17T09:29:40Z</time>
      </trkpt>
      <trkpt lat="43.94744" lon="2.89721">
        <ele>334.6</ele>
        <time>2021-08-17T09:30:16Z</time>
      </trkpt>
      <trkpt lat="43.94812" lon="2.89605">
        <ele>333.2</ele>
        <time>2021-08-17T09:30:36Z</time>
      </trkpt>
      <trkpt lat="43.94898" lon="2.89519">
        <ele>333.2</ele>
        <time>2021-08-17T09:30:56Z</time>
      </trkpt>
      <trkpt lat="43.94988" lon="2.89455">
        <ele>333.6</ele>
        <time>2021-08-17T09:31:21Z</time>
      </trkpt>
      <trkpt lat="43.95069" lon="2.89388">
        <ele>334.5</ele>
        <time>2021-08-17T09:31:51Z</time>
      </trkpt>
      <trkpt lat="43.95154" lon="2.89338">
        <ele>334.4</ele>
        <time>2021-08-17T09:33:19Z</time>
      </trkpt>
      <trkpt lat="43.95233" lon="2.8927">
        <ele>333.5</ele>
        <time>2021-08-17T09:33:44Z</time>
      </trkpt>
      <trkpt lat="43.9533" lon="2.89205">
        <ele>332.4</ele>
        <time>2021-08-17T09:34:25Z</time>
      </trkpt>
      <trkpt lat="43.95404" lon="2.89132">
        <ele>334.5</ele>
        <time>2021-08-17T09:34:50Z</time>
      </trkpt>
      <trkpt lat="43.95482" lon="2.89059">
        <ele>331.1</ele>
        <time>2021-08-17T09:35:20Z</time>
      </trkpt>
      <trkpt lat="43.95575" lon="2.89023">
        <ele>328.7</ele>
        <time>2021-08-17T09:35:55Z</time>
      </trkpt>
      <trkpt lat="43.95671" lon="2.88989">
        <ele>332.3</ele>
        <time>2021-08-17T09:37:15Z</time>
      </trkpt>
      <trkpt lat="43.95736" lon="2.88886">
        <ele>335.3</ele>
        <time>2021-08-17T09:37:45Z</time>
      </trkpt>
      <trkpt lat="43.95803" lon="2.88789">
        <ele>339.9</ele>
        <time>2021-08-17T09:38:15Z</time>
      </trkpt>
      <trkpt lat="43.95856" lon="2.88689">
        <ele>338.8</ele>
        <time>2021-08-17T09:50:29Z</time>
      </trkpt>
      <trkpt lat="43.95849" lon="2.88552">
        <ele>338.3</ele>
        <time>2021-08-17T09:50:49Z</time>
      </trkpt>
      <trkpt lat="43.95822" lon="2.88421">
        <ele>331.1</ele>
        <time>2021-08-17T09:51:09Z</time>
      </trkpt>
      <trkpt lat="43.95802" lon="2.88282">
        <ele>318.7</ele>
        <time>2021-08-17T09:51:34Z</time>
      </trkpt>
      <trkpt lat="43.95774" lon="2.8815">
        <ele>314.4</ele>
        <time>2021-08-17T09:52:04Z</time>
      </trkpt>
      <trkpt lat="43.9568" lon="2.88152">
        <ele>319.4</ele>
        <time>2021-08-17T09:54:34Z</time>
      </trkpt>
      <trkpt lat="43.95703" lon="2.87684">
        <ele>295.6</ele>
        <time>2021-08-17T10:53:37Z</time>
      </trkpt>
      <trkpt lat="43.95793" lon="2.87666">
        <ele>333.6</ele>
        <time>2021-08-17T10:54:46Z</time>
      </trkpt>
      <trkpt lat="43.95713" lon="2.87597">
        <ele>332.7</ele>
        <time>2021-08-17T10:55:45Z</time>
      </trkpt>
      <trkpt lat="43.95733" lon="2.87459">
        <ele>330.5</ele>
        <time>2021-08-17T10:56:10Z</time>
      </trkpt>
      <trkpt lat="43.95749" lon="2.87334">
        <ele>329.8</ele>
        <time>2021-08-17T10:56:30Z</time>
      </trkpt>
      <trkpt lat="43.95748" lon="2.87207">
        <ele>322.2</ele>
        <time>2021-08-17T10:58:12Z</time>
      </trkpt>
      <trkpt lat="43.95708" lon="2.87066">
        <ele>321.4</ele>
        <time>2021-08-17T10:59:53Z</time>
      </trkpt>
      <trkpt lat="43.95686" lon="2.86932">
        <ele>319.1</ele>
        <time>2021-08-17T11:00:13Z</time>
      </trkpt>
      <trkpt lat="43.95662" lon="2.86788">
        <ele>315.9</ele>
        <time>2021-08-17T11:00:33Z</time>
      </trkpt>
      <trkpt lat="43.95631" lon="2.86635">
        <ele>310.8</ele>
        <time>2021-08-17T11:00:53Z</time>
      </trkpt>
      <trkpt lat="43.95619" lon="2.86486">
        <ele>307.4</ele>
        <time>2021-08-17T11:01:13Z</time>
      </trkpt>
      <trkpt lat="43.95631" lon="2.86344">
        <ele>310</ele>
        <time>2021-08-17T11:01:33Z</time>
      </trkpt>
      <trkpt lat="43.95623" lon="2.86212">
        <ele>311.1</ele>
        <time>2021-08-17T11:01:53Z</time>
      </trkpt>
      <trkpt lat="43.95602" lon="2.86083">
        <ele>309.3</ele>
        <time>2021-08-17T11:02:13Z</time>
      </trkpt>
      <trkpt lat="43.95594" lon="2.85948">
        <ele>313.4</ele>
        <time>2021-08-17T11:03:03Z</time>
      </trkpt>
      <trkpt lat="43.9557" lon="2.85798">
        <ele>312.7</ele>
        <time>2021-08-17T11:03:28Z</time>
      </trkpt>
      <trkpt lat="43.95548" lon="2.85655">
        <ele>312</ele>
        <time>2021-08-17T11:03:53Z</time>
      </trkpt>
      <trkpt lat="43.95516" lon="2.85527">
        <ele>309</ele>
        <time>2021-08-17T11:04:13Z</time>
      </trkpt>
      <trkpt lat="43.95467" lon="2.85415">
        <ele>307.6</ele>
        <time>2021-08-17T11:04:38Z</time>
      </trkpt>
      <trkpt lat="43.95435" lon="2.8529">
        <ele>309.9</ele>
        <time>2021-08-17T11:05:03Z</time>
      </trkpt>
      <trkpt lat="43.95401" lon="2.8516">
        <ele>310.5</ele>
        <time>2021-08-17T11:05:28Z</time>
      </trkpt>
      <trkpt lat="43.95366" lon="2.85033">
        <ele>308.6</ele>
        <time>2021-08-17T11:05:53Z</time>
      </trkpt>
      <trkpt lat="43.95334" lon="2.84908">
        <ele>311.1</ele>
        <time>2021-08-17T11:06:23Z</time>
      </trkpt>
      <trkpt lat="43.9531" lon="2.84787">
        <ele>307</ele>
        <time>2021-08-17T11:06:53Z</time>
      </trkpt>
      <trkpt lat="43.95272" lon="2.84659">
        <ele>308.3</ele>
        <time>2021-08-17T11:08:20Z</time>
      </trkpt>
      <trkpt lat="43.95232" lon="2.84513">
        <ele>305.5</ele>
        <time>2021-08-17T11:08:40Z</time>
      </trkpt>
      <trkpt lat="43.95184" lon="2.84374">
        <ele>310.8</ele>
        <time>2021-08-17T11:10:15Z</time>
      </trkpt>
      <trkpt lat="43.95151" lon="2.84242">
        <ele>309</ele>
        <time>2021-08-17T11:10:35Z</time>
      </trkpt>
      <trkpt lat="43.9514" lon="2.84093">
        <ele>307.2</ele>
        <time>2021-08-17T11:10:55Z</time>
      </trkpt>
      <trkpt lat="43.95151" lon="2.83963">
        <ele>310.4</ele>
        <time>2021-08-17T11:11:15Z</time>
      </trkpt>
      <trkpt lat="43.95167" lon="2.83818">
        <ele>308.6</ele>
        <time>2021-08-17T11:11:35Z</time>
      </trkpt>
      <trkpt lat="43.95195" lon="2.83675">
        <ele>307.1</ele>
        <time>2021-08-17T11:12:00Z</time>
      </trkpt>
      <trkpt lat="43.9525" lon="2.83577">
        <ele>308</ele>
        <time>2021-08-17T11:12:20Z</time>
      </trkpt>
      <trkpt lat="43.95323" lon="2.83473">
        <ele>312.1</ele>
        <time>2021-08-17T11:12:45Z</time>
      </trkpt>
      <trkpt lat="43.9538" lon="2.83342">
        <ele>309.9</ele>
        <time>2021-08-17T11:13:10Z</time>
      </trkpt>
      <trkpt lat="43.95436" lon="2.83212">
        <ele>312.7</ele>
        <time>2021-08-17T11:13:35Z</time>
      </trkpt>
      <trkpt lat="43.95505" lon="2.83102">
        <ele>315.4</ele>
        <time>2021-08-17T11:13:55Z</time>
      </trkpt>
      <trkpt lat="43.95571" lon="2.83017">
        <ele>311.3</ele>
        <time>2021-08-17T11:14:10Z</time>
      </trkpt>
      <trkpt lat="43.95629" lon="2.82896">
        <ele>310.9</ele>
        <time>2021-08-17T11:14:30Z</time>
      </trkpt>
      <trkpt lat="43.95648" lon="2.82762">
        <ele>307.2</ele>
        <time>2021-08-17T11:14:50Z</time>
      </trkpt>
      <trkpt lat="43.95639" lon="2.82622">
        <ele>302.8</ele>
        <time>2021-08-17T11:15:10Z</time>
      </trkpt>
      <trkpt lat="43.95587" lon="2.82517">
        <ele>306.6</ele>
        <time>2021-08-17T11:16:26Z</time>
      </trkpt>
      <trkpt lat="43.95566" lon="2.82394">
        <ele>304.4</ele>
        <time>2021-08-17T11:16:51Z</time>
      </trkpt>
      <trkpt lat="43.95571" lon="2.8225">
        <ele>305.9</ele>
        <time>2021-08-17T11:17:21Z</time>
      </trkpt>
      <trkpt lat="43.95582" lon="2.82115">
        <ele>303.6</ele>
        <time>2021-08-17T11:17:51Z</time>
      </trkpt>
      <trkpt lat="43.95588" lon="2.81976">
        <ele>307.7</ele>
        <time>2021-08-17T11:18:21Z</time>
      </trkpt>
      <trkpt lat="43.95589" lon="2.81838">
        <ele>308.6</ele>
        <time>2021-08-17T11:18:46Z</time>
      </trkpt>
      <trkpt lat="43.95595" lon="2.81713">
        <ele>310.1</ele>
        <time>2021-08-17T11:19:11Z</time>
      </trkpt>
      <trkpt lat="43.95591" lon="2.81571">
        <ele>311.7</ele>
        <time>2021-08-17T11:19:41Z</time>
      </trkpt>
      <trkpt lat="43.95569" lon="2.81431">
        <ele>314.5</ele>
        <time>2021-08-17T11:20:11Z</time>
      </trkpt>
      <trkpt lat="43.95564" lon="2.813">
        <ele>312.7</ele>
        <time>2021-08-17T11:20:36Z</time>
      </trkpt>
      <trkpt lat="43.95571" lon="2.81157">
        <ele>307.3</ele>
        <time>2021-08-17T11:21:56Z</time>
      </trkpt>
      <trkpt lat="43.95566" lon="2.81018">
        <ele>305.4</ele>
        <time>2021-08-17T11:22:26Z</time>
      </trkpt>
      <trkpt lat="43.95547" lon="2.80873">
        <ele>309.8</ele>
        <time>2021-08-17T11:22:56Z</time>
      </trkpt>
      <trkpt lat="43.95545" lon="2.80725">
        <ele>305.9</ele>
        <time>2021-08-17T11:23:26Z</time>
      </trkpt>
      <trkpt lat="43.95552" lon="2.80594">
        <ele>306</ele>
        <time>2021-08-17T11:23:51Z</time>
      </trkpt>
      <trkpt lat="43.95577" lon="2.80465">
        <ele>308.2</ele>
        <time>2021-08-17T11:24:16Z</time>
      </trkpt>
      <trkpt lat="43.9562" lon="2.80337">
        <ele>308.7</ele>
        <time>2021-08-17T11:24:41Z</time>
      </trkpt>
      <trkpt lat="43.95668" lon="2.80196">
        <ele>308.8</ele>
        <time>2021-08-17T11:25:06Z</time>
      </trkpt>
      <trkpt lat="43.95723" lon="2.80085">
        <ele>301.8</ele>
        <time>2021-08-17T11:25:26Z</time>
      </trkpt>
      <trkpt lat="43.95791" lon="2.7999">
        <ele>301.7</ele>
        <time>2021-08-17T11:25:46Z</time>
      </trkpt>
      <trkpt lat="43.95874" lon="2.79938">
        <ele>305.8</ele>
        <time>2021-08-17T11:26:21Z</time>
      </trkpt>
      <trkpt lat="43.95925" lon="2.79833">
        <ele>303.8</ele>
        <time>2021-08-17T11:27:13Z</time>
      </trkpt>
      <trkpt lat="43.95995" lon="2.79745">
        <ele>298.4</ele>
        <time>2021-08-17T11:28:15Z</time>
      </trkpt>
      <trkpt lat="43.96068" lon="2.7965">
        <ele>301.2</ele>
        <time>2021-08-17T11:28:40Z</time>
      </trkpt>
      <trkpt lat="43.96134" lon="2.79557">
        <ele>306.6</ele>
        <time>2021-08-17T11:29:00Z</time>
      </trkpt>
      <trkpt lat="43.96207" lon="2.79479">
        <ele>303.6</ele>
        <time>2021-08-17T11:29:20Z</time>
      </trkpt>
      <trkpt lat="43.96295" lon="2.79391">
        <ele>297.7</ele>
        <time>2021-08-17T11:29:45Z</time>
      </trkpt>
      <trkpt lat="43.96375" lon="2.79295">
        <ele>294.5</ele>
        <time>2021-08-17T11:30:10Z</time>
      </trkpt>
      <trkpt lat="43.96424" lon="2.7919">
        <ele>296.8</ele>
        <time>2021-08-17T11:31:06Z</time>
      </trkpt>
      <trkpt lat="43.96459" lon="2.79069">
        <ele>296.2</ele>
        <time>2021-08-17T11:31:26Z</time>
      </trkpt>
      <trkpt lat="43.9646" lon="2.78738">
        <ele>328.4</ele>
        <time>2021-08-17T11:32:39Z</time>
      </trkpt>
      <trkpt lat="43.96466" lon="2.78593">
        <ele>297.4</ele>
        <time>2021-08-17T11:35:37Z</time>
      </trkpt>
      <trkpt lat="43.96438" lon="2.7847">
        <ele>296.7</ele>
        <time>2021-08-17T11:37:17Z</time>
      </trkpt>
      <trkpt lat="43.96389" lon="2.78339">
        <ele>294.5</ele>
        <time>2021-08-17T11:37:47Z</time>
      </trkpt>
      <trkpt lat="43.96349" lon="2.78225">
        <ele>290.8</ele>
        <time>2021-08-17T11:38:12Z</time>
      </trkpt>
      <trkpt lat="43.96265" lon="2.78153">
        <ele>289.7</ele>
        <time>2021-08-17T11:39:03Z</time>
      </trkpt>
      <trkpt lat="43.96203" lon="2.78044">
        <ele>288.6</ele>
        <time>2021-08-17T11:39:23Z</time>
      </trkpt>
      <trkpt lat="43.96134" lon="2.77924">
        <ele>289.9</ele>
        <time>2021-08-17T11:39:48Z</time>
      </trkpt>
      <trkpt lat="43.96071" lon="2.77817">
        <ele>294.3</ele>
        <time>2021-08-17T11:40:13Z</time>
      </trkpt>
      <trkpt lat="43.96022" lon="2.77697">
        <ele>294.3</ele>
        <time>2021-08-17T11:40:38Z</time>
      </trkpt>
      <trkpt lat="43.96008" lon="2.77564">
        <ele>292.9</ele>
        <time>2021-08-17T11:41:03Z</time>
      </trkpt>
      <trkpt lat="43.96023" lon="2.77417">
        <ele>295.8</ele>
        <time>2021-08-17T11:41:28Z</time>
      </trkpt>
      <trkpt lat="43.96047" lon="2.77293">
        <ele>297.7</ele>
        <time>2021-08-17T11:41:53Z</time>
      </trkpt>
      <trkpt lat="43.96077" lon="2.77172">
        <ele>296.7</ele>
        <time>2021-08-17T11:42:23Z</time>
      </trkpt>
      <trkpt lat="43.96108" lon="2.77033">
        <ele>295.7</ele>
        <time>2021-08-17T11:42:53Z</time>
      </trkpt>
      <trkpt lat="43.961" lon="2.76899">
        <ele>292.6</ele>
        <time>2021-08-17T11:43:23Z</time>
      </trkpt>
      <trkpt lat="43.96052" lon="2.76786">
        <ele>294.4</ele>
        <time>2021-08-17T11:43:48Z</time>
      </trkpt>
      <trkpt lat="43.9596" lon="2.76705">
        <ele>297.9</ele>
        <time>2021-08-17T11:44:13Z</time>
      </trkpt>
      <trkpt lat="43.95869" lon="2.76657">
        <ele>306.4</ele>
        <time>2021-08-17T11:44:38Z</time>
      </trkpt>
      <trkpt lat="43.95773" lon="2.76612">
        <ele>314.5</ele>
        <time>2021-08-17T11:45:03Z</time>
      </trkpt>
      <trkpt lat="43.9568" lon="2.76567">
        <ele>317.1</ele>
        <time>2021-08-17T11:45:28Z</time>
      </trkpt>
      <trkpt lat="43.9559" lon="2.76551">
        <ele>319.6</ele>
        <time>2021-08-17T11:45:53Z</time>
      </trkpt>
      <trkpt lat="43.95482" lon="2.76557">
        <ele>320.5</ele>
        <time>2021-08-17T11:46:23Z</time>
      </trkpt>
      <trkpt lat="43.95381" lon="2.76583">
        <ele>314.5</ele>
        <time>2021-08-17T11:46:53Z</time>
      </trkpt>
      <trkpt lat="43.95291" lon="2.76641">
        <ele>313.6</ele>
        <time>2021-08-17T11:47:23Z</time>
      </trkpt>
      <trkpt lat="43.95211" lon="2.76703">
        <ele>318.1</ele>
        <time>2021-08-17T11:47:48Z</time>
      </trkpt>
      <trkpt lat="43.95108" lon="2.76711">
        <ele>313.2</ele>
        <time>2021-08-17T11:48:18Z</time>
      </trkpt>
      <trkpt lat="43.95024" lon="2.76646">
        <ele>317.6</ele>
        <time>2021-08-17T11:48:48Z</time>
      </trkpt>
      <trkpt lat="43.94988" lon="2.76524">
        <ele>326.2</ele>
        <time>2021-08-17T11:49:18Z</time>
      </trkpt>
      <trkpt lat="43.94993" lon="2.76396">
        <ele>319.7</ele>
        <time>2021-08-17T11:52:25Z</time>
      </trkpt>
      <trkpt lat="43.95061" lon="2.76262">
        <ele>313.2</ele>
        <time>2021-08-17T11:52:45Z</time>
      </trkpt>
      <trkpt lat="43.95132" lon="2.7614">
        <ele>304.4</ele>
        <time>2021-08-17T11:53:00Z</time>
      </trkpt>
      <trkpt lat="43.95196" lon="2.76038">
        <ele>297.3</ele>
        <time>2021-08-17T11:53:15Z</time>
      </trkpt>
      <trkpt lat="43.9528" lon="2.75981">
        <ele>295.9</ele>
        <time>2021-08-17T11:53:30Z</time>
      </trkpt>
      <trkpt lat="43.95375" lon="2.75936">
        <ele>293.1</ele>
        <time>2021-08-17T11:53:45Z</time>
      </trkpt>
      <trkpt lat="43.95452" lon="2.75859">
        <ele>289.2</ele>
        <time>2021-08-17T11:54:00Z</time>
      </trkpt>
      <trkpt lat="43.95536" lon="2.75795">
        <ele>286.4</ele>
        <time>2021-08-17T11:54:15Z</time>
      </trkpt>
      <trkpt lat="43.95636" lon="2.75715">
        <ele>285.2</ele>
        <time>2021-08-17T11:54:35Z</time>
      </trkpt>
      <trkpt lat="43.95697" lon="2.75623">
        <ele>285.1</ele>
        <time>2021-08-17T11:54:50Z</time>
      </trkpt>
      <trkpt lat="43.9578" lon="2.75546">
        <ele>284.8</ele>
        <time>2021-08-17T11:55:10Z</time>
      </trkpt>
      <trkpt lat="43.95876" lon="2.75481">
        <ele>284.8</ele>
        <time>2021-08-17T11:55:35Z</time>
      </trkpt>
      <trkpt lat="43.9594" lon="2.75357">
        <ele>283.5</ele>
        <time>2021-08-17T11:56:00Z</time>
      </trkpt>
      <trkpt lat="43.95955" lon="2.75228">
        <ele>287</ele>
        <time>2021-08-17T11:56:20Z</time>
      </trkpt>
      <trkpt lat="43.95961" lon="2.751">
        <ele>292.9</ele>
        <time>2021-08-17T11:56:40Z</time>
      </trkpt>
      <trkpt lat="43.95913" lon="2.74983">
        <ele>293.6</ele>
        <time>2021-08-17T11:57:05Z</time>
      </trkpt>
      <trkpt lat="43.95858" lon="2.74864">
        <ele>290.1</ele>
        <time>2021-08-17T11:57:25Z</time>
      </trkpt>
      <trkpt lat="43.95776" lon="2.74751">
        <ele>291.1</ele>
        <time>2021-08-17T11:57:45Z</time>
      </trkpt>
      <trkpt lat="43.95674" lon="2.74688">
        <ele>287.8</ele>
        <time>2021-08-17T11:58:05Z</time>
      </trkpt>
      <trkpt lat="43.95603" lon="2.74593">
        <ele>282.4</ele>
        <time>2021-08-17T11:58:25Z</time>
      </trkpt>
      <trkpt lat="43.9555" lon="2.74471">
        <ele>284.4</ele>
        <time>2021-08-17T11:58:45Z</time>
      </trkpt>
      <trkpt lat="43.95521" lon="2.7434">
        <ele>285.3</ele>
        <time>2021-08-17T11:59:05Z</time>
      </trkpt>
      <trkpt lat="43.9557" lon="2.7422">
        <ele>287.9</ele>
        <time>2021-08-17T11:59:25Z</time>
      </trkpt>
      <trkpt lat="43.95651" lon="2.74122">
        <ele>287</ele>
        <time>2021-08-17T11:59:50Z</time>
      </trkpt>
      <trkpt lat="43.95732" lon="2.74036">
        <ele>283.1</ele>
        <time>2021-08-17T12:00:15Z</time>
      </trkpt>
      <trkpt lat="43.95811" lon="2.73967">
        <ele>284.1</ele>
        <time>2021-08-17T12:00:35Z</time>
      </trkpt>
      <trkpt lat="43.95896" lon="2.73914">
        <ele>282.2</ele>
        <time>2021-08-17T12:00:55Z</time>
      </trkpt>
      <trkpt lat="43.95993" lon="2.73935">
        <ele>279</ele>
        <time>2021-08-17T12:01:15Z</time>
      </trkpt>
      <trkpt lat="43.96085" lon="2.73941">
        <ele>279.3</ele>
        <time>2021-08-17T12:01:35Z</time>
      </trkpt>
      <trkpt lat="43.96157" lon="2.73852">
        <ele>279.2</ele>
        <time>2021-08-17T12:01:55Z</time>
      </trkpt>
      <trkpt lat="43.96266" lon="2.73832">
        <ele>278.3</ele>
        <time>2021-08-17T12:02:20Z</time>
      </trkpt>
      <trkpt lat="43.96369" lon="2.73891">
        <ele>277.5</ele>
        <time>2021-08-17T12:02:40Z</time>
      </trkpt>
      <trkpt lat="43.96464" lon="2.73948">
        <ele>276.7</ele>
        <time>2021-08-17T12:03:00Z</time>
      </trkpt>
      <trkpt lat="43.96563" lon="2.7401">
        <ele>278</ele>
        <time>2021-08-17T12:03:20Z</time>
      </trkpt>
      <trkpt lat="43.9666" lon="2.74072">
        <ele>275.9</ele>
        <time>2021-08-17T12:03:40Z</time>
      </trkpt>
      <trkpt lat="43.96757" lon="2.74133">
        <ele>273.4</ele>
        <time>2021-08-17T12:04:00Z</time>
      </trkpt>
      <trkpt lat="43.96874" lon="2.74148">
        <ele>271.8</ele>
        <time>2021-08-17T12:04:20Z</time>
      </trkpt>
      <trkpt lat="43.96989" lon="2.74154">
        <ele>268.3</ele>
        <time>2021-08-17T12:04:40Z</time>
      </trkpt>
      <trkpt lat="43.97104" lon="2.74151">
        <ele>272.1</ele>
        <time>2021-08-17T12:05:00Z</time>
      </trkpt>
      <trkpt lat="43.97187" lon="2.74098">
        <ele>270.3</ele>
        <time>2021-08-17T12:05:15Z</time>
      </trkpt>
      <trkpt lat="43.97266" lon="2.74013">
        <ele>273</ele>
        <time>2021-08-17T12:05:30Z</time>
      </trkpt>
      <trkpt lat="43.97343" lon="2.73896">
        <ele>270</ele>
        <time>2021-08-17T12:05:50Z</time>
      </trkpt>
      <trkpt lat="43.97396" lon="2.73786">
        <ele>268.7</ele>
        <time>2021-08-17T12:06:05Z</time>
      </trkpt>
      <trkpt lat="43.97403" lon="2.73634">
        <ele>271.6</ele>
        <time>2021-08-17T12:06:25Z</time>
      </trkpt>
      <trkpt lat="43.97381" lon="2.73483">
        <ele>275.1</ele>
        <time>2021-08-17T12:06:45Z</time>
      </trkpt>
      <trkpt lat="43.97338" lon="2.7335">
        <ele>277.3</ele>
        <time>2021-08-17T12:07:05Z</time>
      </trkpt>
      <trkpt lat="43.97303" lon="2.73205">
        <ele>276.8</ele>
        <time>2021-08-17T12:07:30Z</time>
      </trkpt>
      <trkpt lat="43.97275" lon="2.73061">
        <ele>275.5</ele>
        <time>2021-08-17T12:07:55Z</time>
      </trkpt>
      <trkpt lat="43.97252" lon="2.72938">
        <ele>272.8</ele>
        <time>2021-08-17T12:08:20Z</time>
      </trkpt>
      <trkpt lat="43.97219" lon="2.72807">
        <ele>271.7</ele>
        <time>2021-08-17T12:08:45Z</time>
      </trkpt>
      <trkpt lat="43.97203" lon="2.72671">
        <ele>270.9</ele>
        <time>2021-08-17T12:09:10Z</time>
      </trkpt>
      <trkpt lat="43.97193" lon="2.72535">
        <ele>272.1</ele>
        <time>2021-08-17T12:09:35Z</time>
      </trkpt>
      <trkpt lat="43.97144" lon="2.72408">
        <ele>273.1</ele>
        <time>2021-08-17T12:10:05Z</time>
      </trkpt>
      <trkpt lat="43.97092" lon="2.72276">
        <ele>275.9</ele>
        <time>2021-08-17T12:10:30Z</time>
      </trkpt>
      <trkpt lat="43.97085" lon="2.72146">
        <ele>275.5</ele>
        <time>2021-08-17T12:10:50Z</time>
      </trkpt>
      <trkpt lat="43.9711" lon="2.72022">
        <ele>272.9</ele>
        <time>2021-08-17T12:11:10Z</time>
      </trkpt>
      <trkpt lat="43.97213" lon="2.7201">
        <ele>268.1</ele>
        <time>2021-08-17T12:11:35Z</time>
      </trkpt>
      <trkpt lat="43.97294" lon="2.72087">
        <ele>268.4</ele>
        <time>2021-08-17T12:11:55Z</time>
      </trkpt>
      <trkpt lat="43.97331" lon="2.72205">
        <ele>261.6</ele>
        <time>2021-08-17T12:12:15Z</time>
      </trkpt>
      <trkpt lat="43.97419" lon="2.72139">
        <ele>268.3</ele>
        <time>2021-08-17T12:22:53Z</time>
      </trkpt>
      <trkpt lat="43.97456" lon="2.72011">
        <ele>257.9</ele>
        <time>2021-08-17T12:40:22Z</time>
      </trkpt>
      <trkpt lat="43.97415" lon="2.71887">
        <ele>258.9</ele>
        <time>2021-08-17T12:40:57Z</time>
      </trkpt>
      <trkpt lat="43.97381" lon="2.71763">
        <ele>266.8</ele>
        <time>2021-08-17T12:42:04Z</time>
      </trkpt>
      <trkpt lat="43.97314" lon="2.7166">
        <ele>277.6</ele>
        <time>2021-08-17T12:42:56Z</time>
      </trkpt>
      <trkpt lat="43.97222" lon="2.71602">
        <ele>285.1</ele>
        <time>2021-08-17T12:43:41Z</time>
      </trkpt>
      <trkpt lat="43.97142" lon="2.71533">
        <ele>288.6</ele>
        <time>2021-08-17T12:44:27Z</time>
      </trkpt>
      <trkpt lat="43.97045" lon="2.71511">
        <ele>296.4</ele>
        <time>2021-08-17T12:45:22Z</time>
      </trkpt>
      <trkpt lat="43.96947" lon="2.71504">
        <ele>302.4</ele>
        <time>2021-08-17T12:46:14Z</time>
      </trkpt>
      <trkpt lat="43.96862" lon="2.71566">
        <ele>306.7</ele>
        <time>2021-08-17T12:46:54Z</time>
      </trkpt>
      <trkpt lat="43.96767" lon="2.71591">
        <ele>313</ele>
        <time>2021-08-17T12:47:52Z</time>
      </trkpt>
      <trkpt lat="43.96678" lon="2.71618">
        <ele>321.6</ele>
        <time>2021-08-17T12:48:42Z</time>
      </trkpt>
      <trkpt lat="43.96592" lon="2.71657">
        <ele>330</ele>
        <time>2021-08-17T12:49:22Z</time>
      </trkpt>
      <trkpt lat="43.96563" lon="2.71526">
        <ele>335.9</ele>
        <time>2021-08-17T12:50:42Z</time>
      </trkpt>
      <trkpt lat="43.96574" lon="2.71393">
        <ele>339.4</ele>
        <time>2021-08-17T12:51:27Z</time>
      </trkpt>
      <trkpt lat="43.96512" lon="2.71295">
        <ele>346.6</ele>
        <time>2021-08-17T12:52:21Z</time>
      </trkpt>
      <trkpt lat="43.96451" lon="2.71198">
        <ele>350.1</ele>
        <time>2021-08-17T12:53:15Z</time>
      </trkpt>
      <trkpt lat="43.96364" lon="2.71228">
        <ele>357.7</ele>
        <time>2021-08-17T12:54:34Z</time>
      </trkpt>
      <trkpt lat="43.96277" lon="2.7117">
        <ele>371.3</ele>
        <time>2021-08-17T12:55:47Z</time>
      </trkpt>
      <trkpt lat="43.9628" lon="2.71036">
        <ele>380.5</ele>
        <time>2021-08-17T12:56:40Z</time>
      </trkpt>
      <trkpt lat="43.96281" lon="2.70907">
        <ele>391</ele>
        <time>2021-08-17T12:57:29Z</time>
      </trkpt>
      <trkpt lat="43.96227" lon="2.708">
        <ele>396.6</ele>
        <time>2021-08-17T12:58:23Z</time>
      </trkpt>
      <trkpt lat="43.96169" lon="2.70691">
        <ele>397.4</ele>
        <time>2021-08-17T12:59:14Z</time>
      </trkpt>
      <trkpt lat="43.96198" lon="2.70548">
        <ele>394</ele>
        <time>2021-08-17T13:03:02Z</time>
      </trkpt>
      <trkpt lat="43.96115" lon="2.70455">
        <ele>392.8</ele>
        <time>2021-08-17T13:03:17Z</time>
      </trkpt>
      <trkpt lat="43.96013" lon="2.70369">
        <ele>390.6</ele>
        <time>2021-08-17T13:03:32Z</time>
      </trkpt>
      <trkpt lat="43.95988" lon="2.70205">
        <ele>387.1</ele>
        <time>2021-08-17T13:03:47Z</time>
      </trkpt>
      <trkpt lat="43.95978" lon="2.7008">
        <ele>381.7</ele>
        <time>2021-08-17T13:03:57Z</time>
      </trkpt>
      <trkpt lat="43.95951" lon="2.70225">
        <ele>374.2</ele>
        <time>2021-08-17T13:04:17Z</time>
      </trkpt>
      <trkpt lat="43.9595" lon="2.70359">
        <ele>366.8</ele>
        <time>2021-08-17T13:04:32Z</time>
      </trkpt>
      <trkpt lat="43.95927" lon="2.70214">
        <ele>359.6</ele>
        <time>2021-08-17T13:04:47Z</time>
      </trkpt>
      <trkpt lat="43.95903" lon="2.70092">
        <ele>354.3</ele>
        <time>2021-08-17T13:04:57Z</time>
      </trkpt>
      <trkpt lat="43.95875" lon="2.69921">
        <ele>342.4</ele>
        <time>2021-08-17T13:05:12Z</time>
      </trkpt>
      <trkpt lat="43.95822" lon="2.69811">
        <ele>337.6</ele>
        <time>2021-08-17T13:05:22Z</time>
      </trkpt>
      <trkpt lat="43.95806" lon="2.69673">
        <ele>332.6</ele>
        <time>2021-08-17T13:05:32Z</time>
      </trkpt>
      <trkpt lat="43.95832" lon="2.69548">
        <ele>327.3</ele>
        <time>2021-08-17T13:05:42Z</time>
      </trkpt>
      <trkpt lat="43.95885" lon="2.69431">
        <ele>321.8</ele>
        <time>2021-08-17T13:05:52Z</time>
      </trkpt>
      <trkpt lat="43.95946" lon="2.69328">
        <ele>316.6</ele>
        <time>2021-08-17T13:06:02Z</time>
      </trkpt>
      <trkpt lat="43.95941" lon="2.6919">
        <ele>309.4</ele>
        <time>2021-08-17T13:06:17Z</time>
      </trkpt>
      <trkpt lat="43.9602" lon="2.69093">
        <ele>290.4</ele>
        <time>2021-08-17T13:07:01Z</time>
      </trkpt>
      <trkpt lat="43.96115" lon="2.69054">
        <ele>284.8</ele>
        <time>2021-08-17T13:07:21Z</time>
      </trkpt>
      <trkpt lat="43.9621" lon="2.69066">
        <ele>284.9</ele>
        <time>2021-08-17T13:07:46Z</time>
      </trkpt>
      <trkpt lat="43.96299" lon="2.68997">
        <ele>281.2</ele>
        <time>2021-08-17T13:08:01Z</time>
      </trkpt>
      <trkpt lat="43.96427" lon="2.68991">
        <ele>277.6</ele>
        <time>2021-08-17T13:08:16Z</time>
      </trkpt>
      <trkpt lat="43.96537" lon="2.68988">
        <ele>273.8</ele>
        <time>2021-08-17T13:08:31Z</time>
      </trkpt>
      <trkpt lat="43.96566" lon="2.68847">
        <ele>275.2</ele>
        <time>2021-08-17T13:08:46Z</time>
      </trkpt>
      <trkpt lat="43.96633" lon="2.68728">
        <ele>273.3</ele>
        <time>2021-08-17T13:09:06Z</time>
      </trkpt>
      <trkpt lat="43.96695" lon="2.68634">
        <ele>273.3</ele>
        <time>2021-08-17T13:09:26Z</time>
      </trkpt>
      <trkpt lat="43.96764" lon="2.68538">
        <ele>273.4</ele>
        <time>2021-08-17T13:09:46Z</time>
      </trkpt>
      <trkpt lat="43.96853" lon="2.68461">
        <ele>273.2</ele>
        <time>2021-08-17T13:10:11Z</time>
      </trkpt>
      <trkpt lat="43.96964" lon="2.68404">
        <ele>270.2</ele>
        <time>2021-08-17T13:10:31Z</time>
      </trkpt>
      <trkpt lat="43.97018" lon="2.68291">
        <ele>270.6</ele>
        <time>2021-08-17T13:10:46Z</time>
      </trkpt>
      <trkpt lat="43.97095" lon="2.68199">
        <ele>268.8</ele>
        <time>2021-08-17T13:11:06Z</time>
      </trkpt>
      <trkpt lat="43.97186" lon="2.68198">
        <ele>272.4</ele>
        <time>2021-08-17T13:11:36Z</time>
      </trkpt>
      <trkpt lat="43.97279" lon="2.68195">
        <ele>272.8</ele>
        <time>2021-08-17T13:12:06Z</time>
      </trkpt>
      <trkpt lat="43.97368" lon="2.68124">
        <ele>270.4</ele>
        <time>2021-08-17T13:12:21Z</time>
      </trkpt>
      <trkpt lat="43.97474" lon="2.68083">
        <ele>269.3</ele>
        <time>2021-08-17T13:12:36Z</time>
      </trkpt>
      <trkpt lat="43.97582" lon="2.68112">
        <ele>272.7</ele>
        <time>2021-08-17T13:12:56Z</time>
      </trkpt>
      <trkpt lat="43.9766" lon="2.68177">
        <ele>273.8</ele>
        <time>2021-08-17T13:13:21Z</time>
      </trkpt>
      <trkpt lat="43.97756" lon="2.6809">
        <ele>267.4</ele>
        <time>2021-08-17T13:13:36Z</time>
      </trkpt>
      <trkpt lat="43.97771" lon="2.6794">
        <ele>264.5</ele>
        <time>2021-08-17T13:13:51Z</time>
      </trkpt>
      <trkpt lat="43.97851" lon="2.67837">
        <ele>261.7</ele>
        <time>2021-08-17T13:14:11Z</time>
      </trkpt>
      <trkpt lat="43.97895" lon="2.67717">
        <ele>258.7</ele>
        <time>2021-08-17T13:14:26Z</time>
      </trkpt>
      <trkpt lat="43.97979" lon="2.67616">
        <ele>252.9</ele>
        <time>2021-08-17T13:14:41Z</time>
      </trkpt>
      <trkpt lat="43.98015" lon="2.67491">
        <ele>249.2</ele>
        <time>2021-08-17T13:14:56Z</time>
      </trkpt>
      <trkpt lat="43.98073" lon="2.67398">
        <ele>246.5</ele>
        <time>2021-08-17T13:15:11Z</time>
      </trkpt>
      <trkpt lat="43.98107" lon="2.67283">
        <ele>244.9</ele>
        <time>2021-08-17T13:15:26Z</time>
      </trkpt>
      <trkpt lat="43.98168" lon="2.67163">
        <ele>244.2</ele>
        <time>2021-08-17T13:15:41Z</time>
      </trkpt>
      <trkpt lat="43.98271" lon="2.67113">
        <ele>242</ele>
        <time>2021-08-17T13:15:56Z</time>
      </trkpt>
      <trkpt lat="43.98324" lon="2.66987">
        <ele>239.2</ele>
        <time>2021-08-17T13:16:16Z</time>
      </trkpt>
      <trkpt lat="43.9834" lon="2.66836">
        <ele>234.5</ele>
        <time>2021-08-17T13:16:36Z</time>
      </trkpt>
      <trkpt lat="43.9834" lon="2.66691">
        <ele>235.1</ele>
        <time>2021-08-17T13:16:56Z</time>
      </trkpt>
      <trkpt lat="43.98361" lon="2.66569">
        <ele>234.4</ele>
        <time>2021-08-17T13:17:21Z</time>
      </trkpt>
      <trkpt lat="43.98386" lon="2.66442">
        <ele>232.8</ele>
        <time>2021-08-17T13:17:46Z</time>
      </trkpt>
      <trkpt lat="43.98449" lon="2.66315">
        <ele>230.4</ele>
        <time>2021-08-17T13:18:06Z</time>
      </trkpt>
      <trkpt lat="43.98544" lon="2.66221">
        <ele>235.9</ele>
        <time>2021-08-17T13:18:26Z</time>
      </trkpt>
      <trkpt lat="43.98623" lon="2.66148">
        <ele>239.6</ele>
        <time>2021-08-17T13:18:41Z</time>
      </trkpt>
      <trkpt lat="43.98681" lon="2.66033">
        <ele>240.9</ele>
        <time>2021-08-17T13:19:01Z</time>
      </trkpt>
      <trkpt lat="43.98758" lon="2.65939">
        <ele>240.1</ele>
        <time>2021-08-17T13:19:26Z</time>
      </trkpt>
      <trkpt lat="43.98792" lon="2.65822">
        <ele>241.8</ele>
        <time>2021-08-17T13:22:48Z</time>
      </trkpt>
      <trkpt lat="43.98835" lon="2.65673">
        <ele>244.5</ele>
        <time>2021-08-17T13:23:13Z</time>
      </trkpt>
      <trkpt lat="43.98861" lon="2.65552">
        <ele>247.7</ele>
        <time>2021-08-17T13:23:28Z</time>
      </trkpt>
      <trkpt lat="43.98908" lon="2.65416">
        <ele>253</ele>
        <time>2021-08-17T13:23:53Z</time>
      </trkpt>
      <trkpt lat="43.98937" lon="2.65281">
        <ele>257.9</ele>
        <time>2021-08-17T13:24:13Z</time>
      </trkpt>
      <trkpt lat="43.98959" lon="2.65149">
        <ele>260.5</ele>
        <time>2021-08-17T13:24:33Z</time>
      </trkpt>
      <trkpt lat="43.98975" lon="2.65001">
        <ele>262.1</ele>
        <time>2021-08-17T13:24:53Z</time>
      </trkpt>
      <trkpt lat="43.98963" lon="2.64853">
        <ele>263.8</ele>
        <time>2021-08-17T13:25:13Z</time>
      </trkpt>
      <trkpt lat="43.98942" lon="2.64724">
        <ele>262.9</ele>
        <time>2021-08-17T13:25:33Z</time>
      </trkpt>
      <trkpt lat="43.98916" lon="2.64602">
        <ele>263.1</ele>
        <time>2021-08-17T13:25:53Z</time>
      </trkpt>
      <trkpt lat="43.98877" lon="2.64458">
        <ele>264.2</ele>
        <time>2021-08-17T13:26:13Z</time>
      </trkpt>
      <trkpt lat="43.98852" lon="2.64321">
        <ele>265.2</ele>
        <time>2021-08-17T13:26:33Z</time>
      </trkpt>
      <trkpt lat="43.98861" lon="2.64178">
        <ele>264.5</ele>
        <time>2021-08-17T13:26:53Z</time>
      </trkpt>
      <trkpt lat="43.98877" lon="2.64028">
        <ele>264.7</ele>
        <time>2021-08-17T13:27:18Z</time>
      </trkpt>
      <trkpt lat="43.9888" lon="2.63893">
        <ele>264.1</ele>
        <time>2021-08-17T13:27:43Z</time>
      </trkpt>
      <trkpt lat="43.98894" lon="2.63763">
        <ele>262.8</ele>
        <time>2021-08-17T13:28:03Z</time>
      </trkpt>
      <trkpt lat="43.98902" lon="2.63629">
        <ele>263.3</ele>
        <time>2021-08-17T13:28:23Z</time>
      </trkpt>
      <trkpt lat="43.98903" lon="2.63495">
        <ele>262.1</ele>
        <time>2021-08-17T13:28:43Z</time>
      </trkpt>
      <trkpt lat="43.98907" lon="2.63358">
        <ele>259.3</ele>
        <time>2021-08-17T13:29:13Z</time>
      </trkpt>
      <trkpt lat="43.98925" lon="2.63231">
        <ele>256</ele>
        <time>2021-08-17T13:29:43Z</time>
      </trkpt>
      <trkpt lat="43.98938" lon="2.63092">
        <ele>255.4</ele>
        <time>2021-08-17T13:30:03Z</time>
      </trkpt>
      <trkpt lat="43.98955" lon="2.62966">
        <ele>253.7</ele>
        <time>2021-08-17T13:30:18Z</time>
      </trkpt>
      <trkpt lat="43.98987" lon="2.62839">
        <ele>249.6</ele>
        <time>2021-08-17T13:30:43Z</time>
      </trkpt>
      <trkpt lat="43.99071" lon="2.62747">
        <ele>246.4</ele>
        <time>2021-08-17T13:31:03Z</time>
      </trkpt>
      <trkpt lat="43.99174" lon="2.62732">
        <ele>244.1</ele>
        <time>2021-08-17T13:31:23Z</time>
      </trkpt>
      <trkpt lat="43.99273" lon="2.62694">
        <ele>242.1</ele>
        <time>2021-08-17T13:31:43Z</time>
      </trkpt>
      <trkpt lat="43.99335" lon="2.62605">
        <ele>238.9</ele>
        <time>2021-08-17T13:31:58Z</time>
      </trkpt>
      <trkpt lat="43.99427" lon="2.62501">
        <ele>234.4</ele>
        <time>2021-08-17T13:32:18Z</time>
      </trkpt>
      <trkpt lat="43.99505" lon="2.62402">
        <ele>229.6</ele>
        <time>2021-08-17T13:32:38Z</time>
      </trkpt>
      <trkpt lat="43.99596" lon="2.62305">
        <ele>229.5</ele>
        <time>2021-08-17T13:32:58Z</time>
      </trkpt>
      <trkpt lat="43.99678" lon="2.62224">
        <ele>232.3</ele>
        <time>2021-08-17T13:33:18Z</time>
      </trkpt>
      <trkpt lat="43.99749" lon="2.62137">
        <ele>242.9</ele>
        <time>2021-08-17T13:37:06Z</time>
      </trkpt>
      <trkpt lat="43.99809" lon="2.62012">
        <ele>242.4</ele>
        <time>2021-08-17T13:37:31Z</time>
      </trkpt>
      <trkpt lat="43.99864" lon="2.61885">
        <ele>240.9</ele>
        <time>2021-08-17T13:37:56Z</time>
      </trkpt>
      <trkpt lat="43.99917" lon="2.61757">
        <ele>238.6</ele>
        <time>2021-08-17T13:38:21Z</time>
      </trkpt>
      <trkpt lat="43.99972" lon="2.61633">
        <ele>235.9</ele>
        <time>2021-08-17T13:38:46Z</time>
      </trkpt>
      <trkpt lat="44.00008" lon="2.61503">
        <ele>231.8</ele>
        <time>2021-08-17T13:39:11Z</time>
      </trkpt>
      <trkpt lat="44.00052" lon="2.61378">
        <ele>230.5</ele>
        <time>2021-08-17T13:39:31Z</time>
      </trkpt>
      <trkpt lat="44.00108" lon="2.6126">
        <ele>232.9</ele>
        <time>2021-08-17T13:39:51Z</time>
      </trkpt>
      <trkpt lat="44.00185" lon="2.61145">
        <ele>229.9</ele>
        <time>2021-08-17T13:40:11Z</time>
      </trkpt>
      <trkpt lat="44.00251" lon="2.61033">
        <ele>228.5</ele>
        <time>2021-08-17T13:40:31Z</time>
      </trkpt>
      <trkpt lat="44.00316" lon="2.60937">
        <ele>229.6</ele>
        <time>2021-08-17T13:41:01Z</time>
      </trkpt>
      <trkpt lat="44.0042" lon="2.60895">
        <ele>232.4</ele>
        <time>2021-08-17T13:41:26Z</time>
      </trkpt>
      <trkpt lat="44.00513" lon="2.60886">
        <ele>233.7</ele>
        <time>2021-08-17T13:41:41Z</time>
      </trkpt>
      <trkpt lat="44.00625" lon="2.60915">
        <ele>238.8</ele>
        <time>2021-08-17T13:41:56Z</time>
      </trkpt>
      <trkpt lat="44.00723" lon="2.60901">
        <ele>245.7</ele>
        <time>2021-08-17T13:42:16Z</time>
      </trkpt>
      <trkpt lat="44.00789" lon="2.60799">
        <ele>248.4</ele>
        <time>2021-08-17T13:42:36Z</time>
      </trkpt>
      <trkpt lat="44.00816" lon="2.60659">
        <ele>245.2</ele>
        <time>2021-08-17T13:42:56Z</time>
      </trkpt>
      <trkpt lat="44.00775" lon="2.60526">
        <ele>245.6</ele>
        <time>2021-08-17T13:43:26Z</time>
      </trkpt>
      <trkpt lat="44.00683" lon="2.60474">
        <ele>244.8</ele>
        <time>2021-08-17T13:43:56Z</time>
      </trkpt>
      <trkpt lat="44.00602" lon="2.60395">
        <ele>245.5</ele>
        <time>2021-08-17T13:44:21Z</time>
      </trkpt>
      <trkpt lat="44.00526" lon="2.60308">
        <ele>247.7</ele>
        <time>2021-08-17T13:44:41Z</time>
      </trkpt>
      <trkpt lat="44.0062" lon="2.60293">
        <ele>248.2</ele>
        <time>2021-08-17T13:46:44Z</time>
      </trkpt>
      <trkpt lat="44.00667" lon="2.60151">
        <ele>245</ele>
        <time>2021-08-17T13:47:04Z</time>
      </trkpt>
      <trkpt lat="44.00689" lon="2.59998">
        <ele>243.1</ele>
        <time>2021-08-17T13:47:24Z</time>
      </trkpt>
      <trkpt lat="44.007" lon="2.59841">
        <ele>244.5</ele>
        <time>2021-08-17T13:47:44Z</time>
      </trkpt>
      <trkpt lat="44.00745" lon="2.59715">
        <ele>245.8</ele>
        <time>2021-08-17T13:48:04Z</time>
      </trkpt>
      <trkpt lat="44.00799" lon="2.59598">
        <ele>246.9</ele>
        <time>2021-08-17T13:48:19Z</time>
      </trkpt>
      <trkpt lat="44.00848" lon="2.59456">
        <ele>248.1</ele>
        <time>2021-08-17T13:48:39Z</time>
      </trkpt>
      <trkpt lat="44.00853" lon="2.59303">
        <ele>249.3</ele>
        <time>2021-08-17T13:48:59Z</time>
      </trkpt>
      <trkpt lat="44.00837" lon="2.59172">
        <ele>249.3</ele>
        <time>2021-08-17T13:49:14Z</time>
      </trkpt>
      <trkpt lat="44.0081" lon="2.59048">
        <ele>248.3</ele>
        <time>2021-08-17T13:49:29Z</time>
      </trkpt>
      <trkpt lat="44.00795" lon="2.58893">
        <ele>247.5</ele>
        <time>2021-08-17T13:49:49Z</time>
      </trkpt>
      <trkpt lat="44.00777" lon="2.58737">
        <ele>246</ele>
        <time>2021-08-17T13:50:09Z</time>
      </trkpt>
      <trkpt lat="44.00751" lon="2.58593">
        <ele>246.3</ele>
        <time>2021-08-17T13:50:29Z</time>
      </trkpt>
      <trkpt lat="44.00701" lon="2.58455">
        <ele>242.5</ele>
        <time>2021-08-17T13:50:49Z</time>
      </trkpt>
      <trkpt lat="44.00628" lon="2.58337">
        <ele>235.8</ele>
        <time>2021-08-17T13:51:09Z</time>
      </trkpt>
      <trkpt lat="44.00563" lon="2.58198">
        <ele>233.1</ele>
        <time>2021-08-17T13:51:29Z</time>
      </trkpt>
      <trkpt lat="44.00494" lon="2.58064">
        <ele>231.6</ele>
        <time>2021-08-17T13:51:49Z</time>
      </trkpt>
      <trkpt lat="44.00434" lon="2.57958">
        <ele>229.1</ele>
        <time>2021-08-17T13:52:04Z</time>
      </trkpt>
      <trkpt lat="44.00384" lon="2.57821">
        <ele>229</ele>
        <time>2021-08-17T13:52:24Z</time>
      </trkpt>
      <trkpt lat="44.00337" lon="2.57695">
        <ele>228.8</ele>
        <time>2021-08-17T13:52:44Z</time>
      </trkpt>
      <trkpt lat="44.0028" lon="2.5757">
        <ele>229.6</ele>
        <time>2021-08-17T13:53:04Z</time>
      </trkpt>
      <trkpt lat="44.00243" lon="2.57425">
        <ele>231.2</ele>
        <time>2021-08-17T13:53:29Z</time>
      </trkpt>
      <trkpt lat="44.00258" lon="2.57274">
        <ele>231.4</ele>
        <time>2021-08-17T13:53:54Z</time>
      </trkpt>
      <trkpt lat="44.00294" lon="2.57152">
        <ele>231.1</ele>
        <time>2021-08-17T13:54:14Z</time>
      </trkpt>
      <trkpt lat="44.00333" lon="2.57033">
        <ele>228</ele>
        <time>2021-08-17T13:54:34Z</time>
      </trkpt>
      <trkpt lat="44.00354" lon="2.56877">
        <ele>227.6</ele>
        <time>2021-08-17T13:54:59Z</time>
      </trkpt>
      <trkpt lat="44.00348" lon="2.56747">
        <ele>232.4</ele>
        <time>2021-08-17T13:56:51Z</time>
      </trkpt>
      <trkpt lat="44.00343" lon="2.56622">
        <ele>232.2</ele>
        <time>2021-08-17T13:57:16Z</time>
      </trkpt>
      <trkpt lat="44.00319" lon="2.56487">
        <ele>237.8</ele>
        <time>2021-08-17T13:57:51Z</time>
      </trkpt>
      <trkpt lat="44.00268" lon="2.5637">
        <ele>243.5</ele>
        <time>2021-08-17T13:58:26Z</time>
      </trkpt>
      <trkpt lat="44.00181" lon="2.56321">
        <ele>246.1</ele>
        <time>2021-08-17T13:59:01Z</time>
      </trkpt>
      <trkpt lat="44.00081" lon="2.56278">
        <ele>251.4</ele>
        <time>2021-08-17T13:59:36Z</time>
      </trkpt>
      <trkpt lat="44.00044" lon="2.5614">
        <ele>256.6</ele>
        <time>2021-08-17T14:00:55Z</time>
      </trkpt>
      <trkpt lat="43.99941" lon="2.56107">
        <ele>256.8</ele>
        <time>2021-08-17T14:01:10Z</time>
      </trkpt>
      <trkpt lat="43.99877" lon="2.56207">
        <ele>252.8</ele>
        <time>2021-08-17T14:01:20Z</time>
      </trkpt>
      <trkpt lat="43.99823" lon="2.56312">
        <ele>244.2</ele>
        <time>2021-08-17T14:01:35Z</time>
      </trkpt>
      <trkpt lat="43.99733" lon="2.56297">
        <ele>232</ele>
        <time>2021-08-17T14:01:50Z</time>
      </trkpt>
      <trkpt lat="43.9963" lon="2.56262">
        <ele>219.9</ele>
        <time>2021-08-17T14:02:15Z</time>
      </trkpt>
      <trkpt lat="43.99582" lon="2.56144">
        <ele>222.4</ele>
        <time>2021-08-17T14:02:45Z</time>
      </trkpt>
    </trkseg>
  </trk>
  <trk>
    <name><![CDATA[Jour06A]]></name>
    <trkseg>
      <trkpt lat="43.99644" lon="2.55998">
        <ele>186.7</ele>
        <time>2021-08-18T06:05:12Z</time>
      </trkpt>
      <trkpt lat="43.99686" lon="2.55881">
        <ele>224.1</ele>
        <time>2021-08-18T06:09:57Z</time>
      </trkpt>
      <trkpt lat="43.99673" lon="2.5574">
        <ele>223.2</ele>
        <time>2021-08-18T06:10:17Z</time>
      </trkpt>
      <trkpt lat="43.99674" lon="2.55588">
        <ele>223</ele>
        <time>2021-08-18T06:10:37Z</time>
      </trkpt>
      <trkpt lat="43.99679" lon="2.55436">
        <ele>223.7</ele>
        <time>2021-08-18T06:11:39Z</time>
      </trkpt>
      <trkpt lat="43.99696" lon="2.55277">
        <ele>224.1</ele>
        <time>2021-08-18T06:11:59Z</time>
      </trkpt>
      <trkpt lat="43.9973" lon="2.55142">
        <ele>224.1</ele>
        <time>2021-08-18T06:12:19Z</time>
      </trkpt>
      <trkpt lat="43.99757" lon="2.55007">
        <ele>226.4</ele>
        <time>2021-08-18T06:12:39Z</time>
      </trkpt>
      <trkpt lat="43.99749" lon="2.54878">
        <ele>226.6</ele>
        <time>2021-08-18T06:12:59Z</time>
      </trkpt>
      <trkpt lat="43.99715" lon="2.54742">
        <ele>227.7</ele>
        <time>2021-08-18T06:13:19Z</time>
      </trkpt>
      <trkpt lat="43.99642" lon="2.54627">
        <ele>227.2</ele>
        <time>2021-08-18T06:13:39Z</time>
      </trkpt>
      <trkpt lat="43.99561" lon="2.54515">
        <ele>226.9</ele>
        <time>2021-08-18T06:13:59Z</time>
      </trkpt>
      <trkpt lat="43.99473" lon="2.54457">
        <ele>226.9</ele>
        <time>2021-08-18T06:14:19Z</time>
      </trkpt>
      <trkpt lat="43.99377" lon="2.54447">
        <ele>227.3</ele>
        <time>2021-08-18T06:14:39Z</time>
      </trkpt>
      <trkpt lat="43.9928" lon="2.54457">
        <ele>227.6</ele>
        <time>2021-08-18T06:14:59Z</time>
      </trkpt>
      <trkpt lat="43.9918" lon="2.54463">
        <ele>228.8</ele>
        <time>2021-08-18T06:15:19Z</time>
      </trkpt>
      <trkpt lat="43.9907" lon="2.54431">
        <ele>229.6</ele>
        <time>2021-08-18T06:15:44Z</time>
      </trkpt>
      <trkpt lat="43.98974" lon="2.54376">
        <ele>229.6</ele>
        <time>2021-08-18T06:16:04Z</time>
      </trkpt>
      <trkpt lat="43.9889" lon="2.54268">
        <ele>228.6</ele>
        <time>2021-08-18T06:16:29Z</time>
      </trkpt>
      <trkpt lat="43.98843" lon="2.54123">
        <ele>227.8</ele>
        <time>2021-08-18T06:16:54Z</time>
      </trkpt>
      <trkpt lat="43.9883" lon="2.53988">
        <ele>225.8</ele>
        <time>2021-08-18T06:17:14Z</time>
      </trkpt>
      <trkpt lat="43.9882" lon="2.53846">
        <ele>222.3</ele>
        <time>2021-08-18T06:17:34Z</time>
      </trkpt>
      <trkpt lat="43.98792" lon="2.53721">
        <ele>220.2</ele>
        <time>2021-08-18T06:17:54Z</time>
      </trkpt>
      <trkpt lat="43.98763" lon="2.53584">
        <ele>218.4</ele>
        <time>2021-08-18T06:18:14Z</time>
      </trkpt>
      <trkpt lat="43.9874" lon="2.53435">
        <ele>217</ele>
        <time>2021-08-18T06:18:34Z</time>
      </trkpt>
      <trkpt lat="43.9872" lon="2.53302">
        <ele>214.9</ele>
        <time>2021-08-18T06:18:54Z</time>
      </trkpt>
      <trkpt lat="43.98698" lon="2.53176">
        <ele>213.4</ele>
        <time>2021-08-18T06:19:14Z</time>
      </trkpt>
      <trkpt lat="43.98659" lon="2.53031">
        <ele>215.2</ele>
        <time>2021-08-18T06:19:34Z</time>
      </trkpt>
      <trkpt lat="43.98592" lon="2.52932">
        <ele>215.2</ele>
        <time>2021-08-18T06:19:54Z</time>
      </trkpt>
      <trkpt lat="43.98498" lon="2.52837">
        <ele>216</ele>
        <time>2021-08-18T06:20:19Z</time>
      </trkpt>
      <trkpt lat="43.98408" lon="2.52794">
        <ele>215.3</ele>
        <time>2021-08-18T06:20:39Z</time>
      </trkpt>
      <trkpt lat="43.98302" lon="2.52816">
        <ele>216</ele>
        <time>2021-08-18T06:20:59Z</time>
      </trkpt>
      <trkpt lat="43.98199" lon="2.52852">
        <ele>216.6</ele>
        <time>2021-08-18T06:21:19Z</time>
      </trkpt>
      <trkpt lat="43.98104" lon="2.52877">
        <ele>216.9</ele>
        <time>2021-08-18T06:21:39Z</time>
      </trkpt>
      <trkpt lat="43.97994" lon="2.52869">
        <ele>217</ele>
        <time>2021-08-18T06:21:59Z</time>
      </trkpt>
      <trkpt lat="43.97907" lon="2.52809">
        <ele>221</ele>
        <time>2021-08-18T06:22:43Z</time>
      </trkpt>
      <trkpt lat="43.97842" lon="2.5269">
        <ele>219.5</ele>
        <time>2021-08-18T06:23:03Z</time>
      </trkpt>
      <trkpt lat="43.97803" lon="2.52574">
        <ele>217.5</ele>
        <time>2021-08-18T06:23:23Z</time>
      </trkpt>
      <trkpt lat="43.97759" lon="2.52419">
        <ele>216.9</ele>
        <time>2021-08-18T06:23:48Z</time>
      </trkpt>
      <trkpt lat="43.97713" lon="2.523">
        <ele>216.9</ele>
        <time>2021-08-18T06:24:08Z</time>
      </trkpt>
      <trkpt lat="43.97637" lon="2.52209">
        <ele>215.6</ele>
        <time>2021-08-18T06:24:28Z</time>
      </trkpt>
      <trkpt lat="43.97542" lon="2.52157">
        <ele>215.3</ele>
        <time>2021-08-18T06:24:48Z</time>
      </trkpt>
      <trkpt lat="43.97436" lon="2.52155">
        <ele>216.5</ele>
        <time>2021-08-18T06:25:08Z</time>
      </trkpt>
      <trkpt lat="43.97344" lon="2.52169">
        <ele>216.5</ele>
        <time>2021-08-18T06:25:23Z</time>
      </trkpt>
      <trkpt lat="43.97198" lon="2.52256">
        <ele>214.2</ele>
        <time>2021-08-18T06:25:55Z</time>
      </trkpt>
      <trkpt lat="43.97111" lon="2.52282">
        <ele>212</ele>
        <time>2021-08-18T06:26:16Z</time>
      </trkpt>
      <trkpt lat="43.96996" lon="2.5223">
        <ele>209.8</ele>
        <time>2021-08-18T06:26:36Z</time>
      </trkpt>
      <trkpt lat="43.96889" lon="2.5218">
        <ele>207.8</ele>
        <time>2021-08-18T06:26:56Z</time>
      </trkpt>
      <trkpt lat="43.96786" lon="2.52136">
        <ele>205.1</ele>
        <time>2021-08-18T06:27:16Z</time>
      </trkpt>
      <trkpt lat="43.96684" lon="2.52104">
        <ele>204.5</ele>
        <time>2021-08-18T06:27:36Z</time>
      </trkpt>
      <trkpt lat="43.96592" lon="2.52076">
        <ele>202.9</ele>
        <time>2021-08-18T06:27:51Z</time>
      </trkpt>
      <trkpt lat="43.96494" lon="2.5205">
        <ele>200.8</ele>
        <time>2021-08-18T06:28:11Z</time>
      </trkpt>
      <trkpt lat="43.96397" lon="2.52024">
        <ele>198.2</ele>
        <time>2021-08-18T06:28:31Z</time>
      </trkpt>
      <trkpt lat="43.96278" lon="2.51996">
        <ele>198.2</ele>
        <time>2021-08-18T06:28:56Z</time>
      </trkpt>
      <trkpt lat="43.96179" lon="2.51969">
        <ele>199.4</ele>
        <time>2021-08-18T06:29:16Z</time>
      </trkpt>
      <trkpt lat="43.96085" lon="2.51916">
        <ele>198.6</ele>
        <time>2021-08-18T06:29:31Z</time>
      </trkpt>
      <trkpt lat="43.96001" lon="2.51849">
        <ele>198.1</ele>
        <time>2021-08-18T06:29:51Z</time>
      </trkpt>
      <trkpt lat="43.95936" lon="2.51744">
        <ele>198.1</ele>
        <time>2021-08-18T06:30:11Z</time>
      </trkpt>
      <trkpt lat="43.95893" lon="2.51625">
        <ele>199.2</ele>
        <time>2021-08-18T06:30:31Z</time>
      </trkpt>
      <trkpt lat="43.95878" lon="2.51486">
        <ele>201.2</ele>
        <time>2021-08-18T06:30:51Z</time>
      </trkpt>
      <trkpt lat="43.95845" lon="2.51344">
        <ele>202.6</ele>
        <time>2021-08-18T06:31:16Z</time>
      </trkpt>
      <trkpt lat="43.95816" lon="2.51214">
        <ele>204.2</ele>
        <time>2021-08-18T06:31:36Z</time>
      </trkpt>
      <trkpt lat="43.95785" lon="2.51062">
        <ele>204.1</ele>
        <time>2021-08-18T06:31:56Z</time>
      </trkpt>
      <trkpt lat="43.95756" lon="2.5093">
        <ele>204.1</ele>
        <time>2021-08-18T06:32:16Z</time>
      </trkpt>
      <trkpt lat="43.9573" lon="2.50789">
        <ele>206</ele>
        <time>2021-08-18T06:32:36Z</time>
      </trkpt>
      <trkpt lat="43.95684" lon="2.50675">
        <ele>207.4</ele>
        <time>2021-08-18T06:32:56Z</time>
      </trkpt>
      <trkpt lat="43.95626" lon="2.50567">
        <ele>209.1</ele>
        <time>2021-08-18T06:33:16Z</time>
      </trkpt>
      <trkpt lat="43.95577" lon="2.50433">
        <ele>211.7</ele>
        <time>2021-08-18T06:33:36Z</time>
      </trkpt>
      <trkpt lat="43.95526" lon="2.50313">
        <ele>214.6</ele>
        <time>2021-08-18T06:33:56Z</time>
      </trkpt>
      <trkpt lat="43.95463" lon="2.50186">
        <ele>217.4</ele>
        <time>2021-08-18T06:34:16Z</time>
      </trkpt>
      <trkpt lat="43.95393" lon="2.50096">
        <ele>219.1</ele>
        <time>2021-08-18T06:34:36Z</time>
      </trkpt>
      <trkpt lat="43.95315" lon="2.50006">
        <ele>220.8</ele>
        <time>2021-08-18T06:34:56Z</time>
      </trkpt>
      <trkpt lat="43.95221" lon="2.49919">
        <ele>222.7</ele>
        <time>2021-08-18T06:35:21Z</time>
      </trkpt>
      <trkpt lat="43.95122" lon="2.49872">
        <ele>226.3</ele>
        <time>2021-08-18T06:35:46Z</time>
      </trkpt>
      <trkpt lat="43.95027" lon="2.4985">
        <ele>228.7</ele>
        <time>2021-08-18T06:36:01Z</time>
      </trkpt>
      <trkpt lat="43.94933" lon="2.49867">
        <ele>230.5</ele>
        <time>2021-08-18T06:36:16Z</time>
      </trkpt>
      <trkpt lat="43.94828" lon="2.49869">
        <ele>232.7</ele>
        <time>2021-08-18T06:36:36Z</time>
      </trkpt>
      <trkpt lat="43.94727" lon="2.4986">
        <ele>235.6</ele>
        <time>2021-08-18T06:36:56Z</time>
      </trkpt>
      <trkpt lat="43.94621" lon="2.49828">
        <ele>238.4</ele>
        <time>2021-08-18T06:37:21Z</time>
      </trkpt>
      <trkpt lat="43.94545" lon="2.49753">
        <ele>239.8</ele>
        <time>2021-08-18T06:37:41Z</time>
      </trkpt>
      <trkpt lat="43.94478" lon="2.49659">
        <ele>237.6</ele>
        <time>2021-08-18T06:37:56Z</time>
      </trkpt>
      <trkpt lat="43.94422" lon="2.49554">
        <ele>235.8</ele>
        <time>2021-08-18T06:38:16Z</time>
      </trkpt>
      <trkpt lat="43.9437" lon="2.4944">
        <ele>236.4</ele>
        <time>2021-08-18T06:38:36Z</time>
      </trkpt>
      <trkpt lat="43.9433" lon="2.49302">
        <ele>232.3</ele>
        <time>2021-08-18T06:38:56Z</time>
      </trkpt>
      <trkpt lat="43.94312" lon="2.49166">
        <ele>230.2</ele>
        <time>2021-08-18T06:39:16Z</time>
      </trkpt>
      <trkpt lat="43.94319" lon="2.49004">
        <ele>225.3</ele>
        <time>2021-08-18T06:39:41Z</time>
      </trkpt>
      <trkpt lat="43.94315" lon="2.48879">
        <ele>222.3</ele>
        <time>2021-08-18T06:40:01Z</time>
      </trkpt>
      <trkpt lat="43.94265" lon="2.48743">
        <ele>211.5</ele>
        <time>2021-08-18T06:42:24Z</time>
      </trkpt>
      <trkpt lat="43.94253" lon="2.486">
        <ele>207.2</ele>
        <time>2021-08-18T06:42:44Z</time>
      </trkpt>
      <trkpt lat="43.94258" lon="2.48452">
        <ele>200.6</ele>
        <time>2021-08-18T06:43:04Z</time>
      </trkpt>
      <trkpt lat="43.94292" lon="2.48329">
        <ele>195.6</ele>
        <time>2021-08-18T06:43:29Z</time>
      </trkpt>
      <trkpt lat="43.94355" lon="2.4823">
        <ele>193.1</ele>
        <time>2021-08-18T06:44:22Z</time>
      </trkpt>
      <trkpt lat="43.94367" lon="2.48083">
        <ele>191.3</ele>
        <time>2021-08-18T06:44:42Z</time>
      </trkpt>
      <trkpt lat="43.94417" lon="2.47964">
        <ele>192.7</ele>
        <time>2021-08-18T06:45:07Z</time>
      </trkpt>
      <trkpt lat="43.94458" lon="2.47817">
        <ele>196.3</ele>
        <time>2021-08-18T06:45:32Z</time>
      </trkpt>
      <trkpt lat="43.94488" lon="2.47687">
        <ele>197.4</ele>
        <time>2021-08-18T06:45:47Z</time>
      </trkpt>
      <trkpt lat="43.94528" lon="2.4757">
        <ele>198.6</ele>
        <time>2021-08-18T06:46:02Z</time>
      </trkpt>
      <trkpt lat="43.94574" lon="2.47427">
        <ele>202.7</ele>
        <time>2021-08-18T06:46:22Z</time>
      </trkpt>
      <trkpt lat="43.94594" lon="2.47301">
        <ele>210.1</ele>
        <time>2021-08-18T06:46:47Z</time>
      </trkpt>
      <trkpt lat="43.94591" lon="2.47165">
        <ele>215.6</ele>
        <time>2021-08-18T06:47:12Z</time>
      </trkpt>
      <trkpt lat="43.94591" lon="2.47029">
        <ele>215.8</ele>
        <time>2021-08-18T06:47:32Z</time>
      </trkpt>
      <trkpt lat="43.94588" lon="2.46901">
        <ele>213</ele>
        <time>2021-08-18T06:47:47Z</time>
      </trkpt>
      <trkpt lat="43.94603" lon="2.46755">
        <ele>210.1</ele>
        <time>2021-08-18T06:48:02Z</time>
      </trkpt>
      <trkpt lat="43.9463" lon="2.46609">
        <ele>208</ele>
        <time>2021-08-18T06:48:17Z</time>
      </trkpt>
      <trkpt lat="43.94669" lon="2.46497">
        <ele>206.7</ele>
        <time>2021-08-18T06:48:37Z</time>
      </trkpt>
      <trkpt lat="43.94715" lon="2.46369">
        <ele>209.2</ele>
        <time>2021-08-18T06:49:02Z</time>
      </trkpt>
      <trkpt lat="43.94749" lon="2.46246">
        <ele>210.9</ele>
        <time>2021-08-18T06:49:22Z</time>
      </trkpt>
      <trkpt lat="43.94767" lon="2.46096">
        <ele>210.5</ele>
        <time>2021-08-18T06:49:42Z</time>
      </trkpt>
      <trkpt lat="43.94804" lon="2.45958">
        <ele>210</ele>
        <time>2021-08-18T06:50:02Z</time>
      </trkpt>
      <trkpt lat="43.94863" lon="2.45843">
        <ele>210.6</ele>
        <time>2021-08-18T06:50:22Z</time>
      </trkpt>
      <trkpt lat="43.94925" lon="2.45744">
        <ele>211.4</ele>
        <time>2021-08-18T06:50:42Z</time>
      </trkpt>
      <trkpt lat="43.95015" lon="2.45682">
        <ele>214.8</ele>
        <time>2021-08-18T06:51:12Z</time>
      </trkpt>
      <trkpt lat="43.95104" lon="2.45605">
        <ele>216.5</ele>
        <time>2021-08-18T06:51:47Z</time>
      </trkpt>
      <trkpt lat="43.95161" lon="2.4551">
        <ele>217.9</ele>
        <time>2021-08-18T06:52:07Z</time>
      </trkpt>
      <trkpt lat="43.95193" lon="2.4538">
        <ele>219.1</ele>
        <time>2021-08-18T06:52:27Z</time>
      </trkpt>
      <trkpt lat="43.95204" lon="2.45246">
        <ele>219.6</ele>
        <time>2021-08-18T06:52:47Z</time>
      </trkpt>
      <trkpt lat="43.95215" lon="2.45096">
        <ele>219.4</ele>
        <time>2021-08-18T06:53:07Z</time>
      </trkpt>
      <trkpt lat="43.95201" lon="2.44937">
        <ele>220</ele>
        <time>2021-08-18T06:53:27Z</time>
      </trkpt>
      <trkpt lat="43.95177" lon="2.44797">
        <ele>220.6</ele>
        <time>2021-08-18T06:53:47Z</time>
      </trkpt>
      <trkpt lat="43.95157" lon="2.44673">
        <ele>221.4</ele>
        <time>2021-08-18T06:54:07Z</time>
      </trkpt>
      <trkpt lat="43.95119" lon="2.44548">
        <ele>220.8</ele>
        <time>2021-08-18T06:54:27Z</time>
      </trkpt>
      <trkpt lat="43.95079" lon="2.44423">
        <ele>218.5</ele>
        <time>2021-08-18T06:54:52Z</time>
      </trkpt>
      <trkpt lat="43.95074" lon="2.44272">
        <ele>218.1</ele>
        <time>2021-08-18T06:55:17Z</time>
      </trkpt>
      <trkpt lat="43.95089" lon="2.44144">
        <ele>216.3</ele>
        <time>2021-08-18T06:55:37Z</time>
      </trkpt>
      <trkpt lat="43.95113" lon="2.4401">
        <ele>213.7</ele>
        <time>2021-08-18T06:55:57Z</time>
      </trkpt>
      <trkpt lat="43.95154" lon="2.43886">
        <ele>211.6</ele>
        <time>2021-08-18T06:56:17Z</time>
      </trkpt>
      <trkpt lat="43.95204" lon="2.43761">
        <ele>210</ele>
        <time>2021-08-18T06:56:37Z</time>
      </trkpt>
      <trkpt lat="43.9525" lon="2.43655">
        <ele>208.3</ele>
        <time>2021-08-18T06:56:57Z</time>
      </trkpt>
      <trkpt lat="43.95324" lon="2.4357">
        <ele>207.2</ele>
        <time>2021-08-18T06:57:17Z</time>
      </trkpt>
      <trkpt lat="43.95413" lon="2.43488">
        <ele>208.4</ele>
        <time>2021-08-18T06:57:42Z</time>
      </trkpt>
      <trkpt lat="43.95495" lon="2.43399">
        <ele>205.3</ele>
        <time>2021-08-18T06:58:02Z</time>
      </trkpt>
      <trkpt lat="43.95555" lon="2.43267">
        <ele>202.5</ele>
        <time>2021-08-18T06:58:22Z</time>
      </trkpt>
      <trkpt lat="43.95549" lon="2.43118">
        <ele>201.2</ele>
        <time>2021-08-18T06:58:42Z</time>
      </trkpt>
      <trkpt lat="43.95519" lon="2.42982">
        <ele>199.7</ele>
        <time>2021-08-18T06:59:02Z</time>
      </trkpt>
      <trkpt lat="43.95449" lon="2.42854">
        <ele>200.2</ele>
        <time>2021-08-18T06:59:22Z</time>
      </trkpt>
      <trkpt lat="43.95362" lon="2.42759">
        <ele>198.1</ele>
        <time>2021-08-18T06:59:47Z</time>
      </trkpt>
      <trkpt lat="43.95273" lon="2.42699">
        <ele>196.8</ele>
        <time>2021-08-18T07:00:07Z</time>
      </trkpt>
      <trkpt lat="43.9518" lon="2.42635">
        <ele>196.1</ele>
        <time>2021-08-18T07:00:27Z</time>
      </trkpt>
      <trkpt lat="43.95094" lon="2.42575">
        <ele>194.9</ele>
        <time>2021-08-18T07:00:47Z</time>
      </trkpt>
      <trkpt lat="43.95006" lon="2.4252">
        <ele>200.7</ele>
        <time>2021-08-18T07:01:07Z</time>
      </trkpt>
      <trkpt lat="43.94941" lon="2.42411">
        <ele>202.7</ele>
        <time>2021-08-18T07:01:27Z</time>
      </trkpt>
      <trkpt lat="43.94904" lon="2.42285">
        <ele>204.5</ele>
        <time>2021-08-18T07:01:47Z</time>
      </trkpt>
      <trkpt lat="43.94925" lon="2.42141">
        <ele>207.3</ele>
        <time>2021-08-18T07:02:12Z</time>
      </trkpt>
      <trkpt lat="43.9499" lon="2.42028">
        <ele>208.3</ele>
        <time>2021-08-18T07:02:37Z</time>
      </trkpt>
      <trkpt lat="43.95031" lon="2.41914">
        <ele>209.3</ele>
        <time>2021-08-18T07:02:57Z</time>
      </trkpt>
      <trkpt lat="43.95115" lon="2.41848">
        <ele>212.6</ele>
        <time>2021-08-18T07:03:17Z</time>
      </trkpt>
      <trkpt lat="43.95191" lon="2.41773">
        <ele>213.4</ele>
        <time>2021-08-18T07:03:37Z</time>
      </trkpt>
      <trkpt lat="43.95248" lon="2.41664">
        <ele>213.2</ele>
        <time>2021-08-18T07:03:57Z</time>
      </trkpt>
      <trkpt lat="43.95298" lon="2.41544">
        <ele>212.1</ele>
        <time>2021-08-18T07:04:17Z</time>
      </trkpt>
      <trkpt lat="43.9528" lon="2.41384">
        <ele>213</ele>
        <time>2021-08-18T07:04:37Z</time>
      </trkpt>
      <trkpt lat="43.9525" lon="2.41249">
        <ele>211.4</ele>
        <time>2021-08-18T07:04:57Z</time>
      </trkpt>
      <trkpt lat="43.95203" lon="2.41125">
        <ele>208.6</ele>
        <time>2021-08-18T07:05:12Z</time>
      </trkpt>
      <trkpt lat="43.95148" lon="2.41001">
        <ele>207.2</ele>
        <time>2021-08-18T07:05:32Z</time>
      </trkpt>
      <trkpt lat="43.95088" lon="2.40898">
        <ele>208.2</ele>
        <time>2021-08-18T07:05:52Z</time>
      </trkpt>
      <trkpt lat="43.95004" lon="2.40795">
        <ele>204.3</ele>
        <time>2021-08-18T07:06:17Z</time>
      </trkpt>
      <trkpt lat="43.94902" lon="2.4072">
        <ele>206.4</ele>
        <time>2021-08-18T07:06:42Z</time>
      </trkpt>
      <trkpt lat="43.94809" lon="2.40682">
        <ele>210.6</ele>
        <time>2021-08-18T07:07:02Z</time>
      </trkpt>
      <trkpt lat="43.94715" lon="2.40663">
        <ele>211.9</ele>
        <time>2021-08-18T07:07:22Z</time>
      </trkpt>
      <trkpt lat="43.94608" lon="2.40629">
        <ele>212.2</ele>
        <time>2021-08-18T07:07:47Z</time>
      </trkpt>
      <trkpt lat="43.94503" lon="2.40604">
        <ele>213.6</ele>
        <time>2021-08-18T07:08:07Z</time>
      </trkpt>
      <trkpt lat="43.94403" lon="2.40566">
        <ele>213.1</ele>
        <time>2021-08-18T07:08:27Z</time>
      </trkpt>
      <trkpt lat="43.94306" lon="2.40476">
        <ele>213</ele>
        <time>2021-08-18T07:08:47Z</time>
      </trkpt>
      <trkpt lat="43.94229" lon="2.4039">
        <ele>215.6</ele>
        <time>2021-08-18T07:09:07Z</time>
      </trkpt>
      <trkpt lat="43.94188" lon="2.40263">
        <ele>218.3</ele>
        <time>2021-08-18T07:09:32Z</time>
      </trkpt>
      <trkpt lat="43.94182" lon="2.39986">
        <ele>205.5</ele>
        <time>2021-08-18T07:12:59Z</time>
      </trkpt>
      <trkpt lat="43.94235" lon="2.39879">
        <ele>217.7</ele>
        <time>2021-08-18T07:13:19Z</time>
      </trkpt>
      <trkpt lat="43.94276" lon="2.39755">
        <ele>223.2</ele>
        <time>2021-08-18T07:13:39Z</time>
      </trkpt>
      <trkpt lat="43.9432" lon="2.39648">
        <ele>223.6</ele>
        <time>2021-08-18T07:13:59Z</time>
      </trkpt>
      <trkpt lat="43.9437" lon="2.39518">
        <ele>225.4</ele>
        <time>2021-08-18T07:14:19Z</time>
      </trkpt>
      <trkpt lat="43.94405" lon="2.39384">
        <ele>223.3</ele>
        <time>2021-08-18T07:14:39Z</time>
      </trkpt>
      <trkpt lat="43.94401" lon="2.39257">
        <ele>222.7</ele>
        <time>2021-08-18T07:14:54Z</time>
      </trkpt>
      <trkpt lat="43.94375" lon="2.39135">
        <ele>221.6</ele>
        <time>2021-08-18T07:15:09Z</time>
      </trkpt>
      <trkpt lat="43.94344" lon="2.39">
        <ele>218.9</ele>
        <time>2021-08-18T07:15:29Z</time>
      </trkpt>
      <trkpt lat="43.94308" lon="2.38861">
        <ele>217.7</ele>
        <time>2021-08-18T07:15:49Z</time>
      </trkpt>
      <trkpt lat="43.9426" lon="2.38734">
        <ele>216.9</ele>
        <time>2021-08-18T07:16:09Z</time>
      </trkpt>
      <trkpt lat="43.94188" lon="2.38599">
        <ele>215.8</ele>
        <time>2021-08-18T07:16:29Z</time>
      </trkpt>
      <trkpt lat="43.94143" lon="2.38468">
        <ele>217.4</ele>
        <time>2021-08-18T07:16:49Z</time>
      </trkpt>
      <trkpt lat="43.94123" lon="2.38313">
        <ele>216.1</ele>
        <time>2021-08-18T07:17:09Z</time>
      </trkpt>
      <trkpt lat="43.94141" lon="2.3818">
        <ele>216.4</ele>
        <time>2021-08-18T07:17:44Z</time>
      </trkpt>
      <trkpt lat="43.94171" lon="2.38053">
        <ele>219.3</ele>
        <time>2021-08-18T07:18:19Z</time>
      </trkpt>
      <trkpt lat="43.94221" lon="2.37944">
        <ele>223.5</ele>
        <time>2021-08-18T07:18:44Z</time>
      </trkpt>
      <trkpt lat="43.94281" lon="2.37845">
        <ele>236.2</ele>
        <time>2021-08-18T07:20:33Z</time>
      </trkpt>
      <trkpt lat="43.94365" lon="2.37797">
        <ele>236.7</ele>
        <time>2021-08-18T07:20:53Z</time>
      </trkpt>
      <trkpt lat="43.9446" lon="2.3781">
        <ele>237.8</ele>
        <time>2021-08-18T07:21:13Z</time>
      </trkpt>
      <trkpt lat="43.94535" lon="2.3771">
        <ele>241.9</ele>
        <time>2021-08-18T07:22:24Z</time>
      </trkpt>
      <trkpt lat="43.94603" lon="2.37613">
        <ele>242.2</ele>
        <time>2021-08-18T07:23:21Z</time>
      </trkpt>
      <trkpt lat="43.94525" lon="2.377">
        <ele>215.5</ele>
        <time>2021-08-18T07:47:35Z</time>
      </trkpt>
      <trkpt lat="43.94433" lon="2.37674">
        <ele>209.7</ele>
        <time>2021-08-18T07:48:15Z</time>
      </trkpt>
      <trkpt lat="43.94382" lon="2.3756">
        <ele>207.3</ele>
        <time>2021-08-18T07:48:35Z</time>
      </trkpt>
      <trkpt lat="43.94363" lon="2.37433">
        <ele>205</ele>
        <time>2021-08-18T07:48:50Z</time>
      </trkpt>
      <trkpt lat="43.9435" lon="2.37265">
        <ele>200.9</ele>
        <time>2021-08-18T07:49:10Z</time>
      </trkpt>
      <trkpt lat="43.94352" lon="2.37132">
        <ele>197.2</ele>
        <time>2021-08-18T07:49:25Z</time>
      </trkpt>
      <trkpt lat="43.94334" lon="2.36994">
        <ele>190.9</ele>
        <time>2021-08-18T07:49:40Z</time>
      </trkpt>
      <trkpt lat="43.94317" lon="2.36864">
        <ele>187.7</ele>
        <time>2021-08-18T07:49:55Z</time>
      </trkpt>
      <trkpt lat="43.94273" lon="2.36734">
        <ele>185.7</ele>
        <time>2021-08-18T07:50:15Z</time>
      </trkpt>
      <trkpt lat="43.94232" lon="2.36607">
        <ele>185.8</ele>
        <time>2021-08-18T07:50:35Z</time>
      </trkpt>
      <trkpt lat="43.94192" lon="2.36488">
        <ele>186.2</ele>
        <time>2021-08-18T07:50:55Z</time>
      </trkpt>
      <trkpt lat="43.94149" lon="2.36362">
        <ele>187.5</ele>
        <time>2021-08-18T07:51:15Z</time>
      </trkpt>
      <trkpt lat="43.94106" lon="2.36236">
        <ele>189.6</ele>
        <time>2021-08-18T07:51:35Z</time>
      </trkpt>
      <trkpt lat="43.94059" lon="2.3611">
        <ele>189.9</ele>
        <time>2021-08-18T07:51:55Z</time>
      </trkpt>
      <trkpt lat="43.94002" lon="2.35969">
        <ele>190.1</ele>
        <time>2021-08-18T07:52:15Z</time>
      </trkpt>
      <trkpt lat="43.93967" lon="2.35848">
        <ele>192.9</ele>
        <time>2021-08-18T07:52:35Z</time>
      </trkpt>
      <trkpt lat="43.9393" lon="2.35727">
        <ele>194.2</ele>
        <time>2021-08-18T07:52:55Z</time>
      </trkpt>
      <trkpt lat="43.93875" lon="2.35621">
        <ele>192.3</ele>
        <time>2021-08-18T07:53:15Z</time>
      </trkpt>
      <trkpt lat="43.9381" lon="2.35526">
        <ele>192.5</ele>
        <time>2021-08-18T07:53:35Z</time>
      </trkpt>
      <trkpt lat="43.93732" lon="2.35425">
        <ele>190.7</ele>
        <time>2021-08-18T07:53:55Z</time>
      </trkpt>
      <trkpt lat="43.93652" lon="2.35317">
        <ele>191.3</ele>
        <time>2021-08-18T07:54:15Z</time>
      </trkpt>
      <trkpt lat="43.93579" lon="2.35215">
        <ele>190.9</ele>
        <time>2021-08-18T07:54:35Z</time>
      </trkpt>
      <trkpt lat="43.93501" lon="2.35121">
        <ele>192.4</ele>
        <time>2021-08-18T07:54:55Z</time>
      </trkpt>
      <trkpt lat="43.93418" lon="2.3502">
        <ele>193.2</ele>
        <time>2021-08-18T07:55:15Z</time>
      </trkpt>
      <trkpt lat="43.93348" lon="2.3493">
        <ele>195.5</ele>
        <time>2021-08-18T07:55:35Z</time>
      </trkpt>
      <trkpt lat="43.93268" lon="2.34822">
        <ele>198.8</ele>
        <time>2021-08-18T07:56:00Z</time>
      </trkpt>
      <trkpt lat="43.93216" lon="2.34716">
        <ele>199</ele>
        <time>2021-08-18T07:56:20Z</time>
      </trkpt>
      <trkpt lat="43.93174" lon="2.34565">
        <ele>196.8</ele>
        <time>2021-08-18T07:56:40Z</time>
      </trkpt>
      <trkpt lat="43.93147" lon="2.34401">
        <ele>194</ele>
        <time>2021-08-18T07:57:00Z</time>
      </trkpt>
      <trkpt lat="43.93126" lon="2.34238">
        <ele>190.7</ele>
        <time>2021-08-18T07:57:15Z</time>
      </trkpt>
      <trkpt lat="43.93123" lon="2.34073">
        <ele>189.4</ele>
        <time>2021-08-18T07:57:35Z</time>
      </trkpt>
      <trkpt lat="43.93144" lon="2.33949">
        <ele>188.7</ele>
        <time>2021-08-18T07:57:50Z</time>
      </trkpt>
      <trkpt lat="43.9318" lon="2.33812">
        <ele>187.5</ele>
        <time>2021-08-18T07:58:10Z</time>
      </trkpt>
      <trkpt lat="43.93213" lon="2.33679">
        <ele>187.2</ele>
        <time>2021-08-18T07:58:30Z</time>
      </trkpt>
      <trkpt lat="43.93221" lon="2.33545">
        <ele>191.7</ele>
        <time>2021-08-18T07:58:50Z</time>
      </trkpt>
      <trkpt lat="43.93211" lon="2.33404">
        <ele>197.5</ele>
        <time>2021-08-18T07:59:15Z</time>
      </trkpt>
      <trkpt lat="43.93217" lon="2.33261">
        <ele>200.5</ele>
        <time>2021-08-18T07:59:35Z</time>
      </trkpt>
      <trkpt lat="43.9321" lon="2.33099">
        <ele>200.4</ele>
        <time>2021-08-18T07:59:55Z</time>
      </trkpt>
      <trkpt lat="43.93203" lon="2.32943">
        <ele>204.5</ele>
        <time>2021-08-18T08:00:15Z</time>
      </trkpt>
      <trkpt lat="43.93201" lon="2.32812">
        <ele>208.1</ele>
        <time>2021-08-18T08:00:35Z</time>
      </trkpt>
      <trkpt lat="43.93198" lon="2.32675">
        <ele>209.4</ele>
        <time>2021-08-18T08:00:55Z</time>
      </trkpt>
      <trkpt lat="43.93207" lon="2.32548">
        <ele>207.6</ele>
        <time>2021-08-18T08:01:15Z</time>
      </trkpt>
      <trkpt lat="43.93242" lon="2.32391">
        <ele>208.2</ele>
        <time>2021-08-18T08:01:40Z</time>
      </trkpt>
      <trkpt lat="43.93259" lon="2.32249">
        <ele>209.9</ele>
        <time>2021-08-18T08:02:00Z</time>
      </trkpt>
      <trkpt lat="43.93264" lon="2.32122">
        <ele>213.4</ele>
        <time>2021-08-18T08:02:20Z</time>
      </trkpt>
      <trkpt lat="43.93267" lon="2.31958">
        <ele>214.1</ele>
        <time>2021-08-18T08:02:40Z</time>
      </trkpt>
      <trkpt lat="43.93266" lon="2.31808">
        <ele>216</ele>
        <time>2021-08-18T08:02:55Z</time>
      </trkpt>
      <trkpt lat="43.93262" lon="2.31679">
        <ele>214.4</ele>
        <time>2021-08-18T08:03:10Z</time>
      </trkpt>
      <trkpt lat="43.93258" lon="2.31532">
        <ele>205.2</ele>
        <time>2021-08-18T08:03:30Z</time>
      </trkpt>
      <trkpt lat="43.93242" lon="2.31383">
        <ele>203.8</ele>
        <time>2021-08-18T08:03:55Z</time>
      </trkpt>
      <trkpt lat="43.9322" lon="2.31254">
        <ele>203.6</ele>
        <time>2021-08-18T08:04:15Z</time>
      </trkpt>
      <trkpt lat="43.93206" lon="2.31111">
        <ele>205.2</ele>
        <time>2021-08-18T08:04:35Z</time>
      </trkpt>
      <trkpt lat="43.93195" lon="2.30974">
        <ele>204.1</ele>
        <time>2021-08-18T08:04:55Z</time>
      </trkpt>
      <trkpt lat="43.93184" lon="2.30831">
        <ele>201.7</ele>
        <time>2021-08-18T08:05:20Z</time>
      </trkpt>
      <trkpt lat="43.93171" lon="2.30696">
        <ele>200.2</ele>
        <time>2021-08-18T08:06:45Z</time>
      </trkpt>
      <trkpt lat="43.93162" lon="2.30561">
        <ele>201.7</ele>
        <time>2021-08-18T08:07:05Z</time>
      </trkpt>
      <trkpt lat="43.9315" lon="2.30433">
        <ele>203.7</ele>
        <time>2021-08-18T08:07:25Z</time>
      </trkpt>
      <trkpt lat="43.93152" lon="2.303">
        <ele>204.8</ele>
        <time>2021-08-18T08:07:45Z</time>
      </trkpt>
      <trkpt lat="43.93184" lon="2.30165">
        <ele>203.3</ele>
        <time>2021-08-18T08:08:05Z</time>
      </trkpt>
      <trkpt lat="43.93221" lon="2.30037">
        <ele>203.2</ele>
        <time>2021-08-18T08:08:25Z</time>
      </trkpt>
      <trkpt lat="43.93273" lon="2.29912">
        <ele>203.4</ele>
        <time>2021-08-18T08:08:45Z</time>
      </trkpt>
      <trkpt lat="43.93331" lon="2.29814">
        <ele>201.2</ele>
        <time>2021-08-18T08:10:32Z</time>
      </trkpt>
      <trkpt lat="43.93337" lon="2.29188">
        <ele>207.1</ele>
        <time>2021-08-18T08:12:11Z</time>
      </trkpt>
      <trkpt lat="43.93256" lon="2.29106">
        <ele>197.1</ele>
        <time>2021-08-18T08:12:26Z</time>
      </trkpt>
      <trkpt lat="43.93158" lon="2.29054">
        <ele>190.3</ele>
        <time>2021-08-18T08:12:41Z</time>
      </trkpt>
      <trkpt lat="43.93071" lon="2.28991">
        <ele>183.4</ele>
        <time>2021-08-18T08:12:56Z</time>
      </trkpt>
      <trkpt lat="43.92996" lon="2.2885">
        <ele>178.9</ele>
        <time>2021-08-18T08:13:16Z</time>
      </trkpt>
      <trkpt lat="43.92971" lon="2.2872">
        <ele>182.7</ele>
        <time>2021-08-18T08:13:31Z</time>
      </trkpt>
      <trkpt lat="43.92979" lon="2.28569">
        <ele>186.6</ele>
        <time>2021-08-18T08:13:51Z</time>
      </trkpt>
      <trkpt lat="43.93034" lon="2.28435">
        <ele>190.9</ele>
        <time>2021-08-18T08:14:11Z</time>
      </trkpt>
      <trkpt lat="43.93103" lon="2.28357">
        <ele>193.4</ele>
        <time>2021-08-18T08:14:26Z</time>
      </trkpt>
      <trkpt lat="43.93163" lon="2.28252">
        <ele>197.6</ele>
        <time>2021-08-18T08:15:22Z</time>
      </trkpt>
      <trkpt lat="43.93804" lon="2.26178">
        <ele>-51.8</ele>
        <time>2021-08-18T08:17:59Z</time>
      </trkpt>
      <trkpt lat="43.93292" lon="2.2697">
        <ele>180.3</ele>
        <time>2021-08-18T08:18:07Z</time>
      </trkpt>
      <trkpt lat="43.9325" lon="2.26843">
        <ele>184.4</ele>
        <time>2021-08-18T08:18:22Z</time>
      </trkpt>
      <trkpt lat="43.93225" lon="2.26714">
        <ele>179.6</ele>
        <time>2021-08-18T08:18:37Z</time>
      </trkpt>
      <trkpt lat="43.93202" lon="2.26588">
        <ele>182.1</ele>
        <time>2021-08-18T08:18:52Z</time>
      </trkpt>
      <trkpt lat="43.93181" lon="2.26448">
        <ele>179.6</ele>
        <time>2021-08-18T08:19:07Z</time>
      </trkpt>
      <trkpt lat="43.93141" lon="2.26331">
        <ele>178.8</ele>
        <time>2021-08-18T08:19:22Z</time>
      </trkpt>
      <trkpt lat="43.93086" lon="2.26183">
        <ele>180.9</ele>
        <time>2021-08-18T08:19:42Z</time>
      </trkpt>
      <trkpt lat="43.93058" lon="2.26063">
        <ele>179.4</ele>
        <time>2021-08-18T08:19:57Z</time>
      </trkpt>
      <trkpt lat="43.93029" lon="2.25903">
        <ele>179.4</ele>
        <time>2021-08-18T08:20:17Z</time>
      </trkpt>
      <trkpt lat="43.93012" lon="2.25749">
        <ele>177.8</ele>
        <time>2021-08-18T08:20:37Z</time>
      </trkpt>
      <trkpt lat="43.93025" lon="2.25614">
        <ele>178.8</ele>
        <time>2021-08-18T08:20:52Z</time>
      </trkpt>
      <trkpt lat="43.93049" lon="2.25489">
        <ele>180.6</ele>
        <time>2021-08-18T08:21:07Z</time>
      </trkpt>
      <trkpt lat="43.93098" lon="2.25355">
        <ele>182.6</ele>
        <time>2021-08-18T08:21:27Z</time>
      </trkpt>
      <trkpt lat="43.9316" lon="2.25228">
        <ele>185.2</ele>
        <time>2021-08-18T08:21:47Z</time>
      </trkpt>
      <trkpt lat="43.93211" lon="2.25118">
        <ele>187</ele>
        <time>2021-08-18T08:22:07Z</time>
      </trkpt>
      <trkpt lat="43.9327" lon="2.25011">
        <ele>189.5</ele>
        <time>2021-08-18T08:22:27Z</time>
      </trkpt>
      <trkpt lat="43.93351" lon="2.24907">
        <ele>192.9</ele>
        <time>2021-08-18T08:22:47Z</time>
      </trkpt>
      <trkpt lat="43.93415" lon="2.24823">
        <ele>195</ele>
        <time>2021-08-18T08:23:02Z</time>
      </trkpt>
      <trkpt lat="43.93486" lon="2.24705">
        <ele>198.4</ele>
        <time>2021-08-18T08:23:22Z</time>
      </trkpt>
      <trkpt lat="43.93537" lon="2.24601">
        <ele>199.7</ele>
        <time>2021-08-18T08:23:37Z</time>
      </trkpt>
      <trkpt lat="43.93595" lon="2.24504">
        <ele>196.2</ele>
        <time>2021-08-18T08:23:52Z</time>
      </trkpt>
      <trkpt lat="43.93648" lon="2.24404">
        <ele>191.8</ele>
        <time>2021-08-18T08:24:12Z</time>
      </trkpt>
      <trkpt lat="43.93721" lon="2.24291">
        <ele>184.4</ele>
        <time>2021-08-18T08:24:32Z</time>
      </trkpt>
      <trkpt lat="43.93809" lon="2.24184">
        <ele>178.2</ele>
        <time>2021-08-18T08:24:52Z</time>
      </trkpt>
      <trkpt lat="43.93878" lon="2.24096">
        <ele>177.3</ele>
        <time>2021-08-18T08:25:12Z</time>
      </trkpt>
      <trkpt lat="43.93953" lon="2.24029">
        <ele>179.8</ele>
        <time>2021-08-18T08:25:37Z</time>
      </trkpt>
      <trkpt lat="43.94006" lon="2.23905">
        <ele>176.9</ele>
        <time>2021-08-18T08:29:06Z</time>
      </trkpt>
      <trkpt lat="43.94104" lon="2.23818">
        <ele>177.4</ele>
        <time>2021-08-18T08:29:31Z</time>
      </trkpt>
      <trkpt lat="43.94191" lon="2.23747">
        <ele>176.7</ele>
        <time>2021-08-18T08:29:51Z</time>
      </trkpt>
      <trkpt lat="43.9429" lon="2.23684">
        <ele>179.7</ele>
        <time>2021-08-18T08:30:34Z</time>
      </trkpt>
      <trkpt lat="43.94377" lon="2.23635">
        <ele>180.1</ele>
        <time>2021-08-18T08:30:54Z</time>
      </trkpt>
      <trkpt lat="43.94487" lon="2.23592">
        <ele>180.6</ele>
        <time>2021-08-18T08:31:19Z</time>
      </trkpt>
      <trkpt lat="43.94585" lon="2.23559">
        <ele>180.4</ele>
        <time>2021-08-18T08:31:39Z</time>
      </trkpt>
      <trkpt lat="43.94695" lon="2.23522">
        <ele>178.7</ele>
        <time>2021-08-18T08:31:59Z</time>
      </trkpt>
      <trkpt lat="43.94785" lon="2.23476">
        <ele>177.1</ele>
        <time>2021-08-18T08:32:19Z</time>
      </trkpt>
      <trkpt lat="43.94871" lon="2.23387">
        <ele>176.9</ele>
        <time>2021-08-18T08:32:39Z</time>
      </trkpt>
      <trkpt lat="43.94945" lon="2.23266">
        <ele>180.7</ele>
        <time>2021-08-18T08:32:54Z</time>
      </trkpt>
      <trkpt lat="43.94986" lon="2.23147">
        <ele>177.4</ele>
        <time>2021-08-18T08:33:09Z</time>
      </trkpt>
      <trkpt lat="43.95012" lon="2.23005">
        <ele>175.4</ele>
        <time>2021-08-18T08:33:24Z</time>
      </trkpt>
      <trkpt lat="43.9501" lon="2.22879">
        <ele>174</ele>
        <time>2021-08-18T08:33:39Z</time>
      </trkpt>
      <trkpt lat="43.95027" lon="2.22751">
        <ele>174.4</ele>
        <time>2021-08-18T08:34:04Z</time>
      </trkpt>
      <trkpt lat="43.95023" lon="2.22605">
        <ele>173.6</ele>
        <time>2021-08-18T08:34:24Z</time>
      </trkpt>
      <trkpt lat="43.95037" lon="2.22469">
        <ele>168.9</ele>
        <time>2021-08-18T08:34:44Z</time>
      </trkpt>
      <trkpt lat="43.95064" lon="2.22334">
        <ele>166.4</ele>
        <time>2021-08-18T08:34:59Z</time>
      </trkpt>
      <trkpt lat="43.95113" lon="2.22218">
        <ele>166.3</ele>
        <time>2021-08-18T08:35:14Z</time>
      </trkpt>
      <trkpt lat="43.95162" lon="2.22114">
        <ele>165.3</ele>
        <time>2021-08-18T08:35:29Z</time>
      </trkpt>
      <trkpt lat="43.95204" lon="2.22">
        <ele>166</ele>
        <time>2021-08-18T08:35:49Z</time>
      </trkpt>
      <trkpt lat="43.95219" lon="2.21845">
        <ele>168.6</ele>
        <time>2021-08-18T08:36:19Z</time>
      </trkpt>
      <trkpt lat="43.95211" lon="2.21719">
        <ele>170.4</ele>
        <time>2021-08-18T08:36:39Z</time>
      </trkpt>
      <trkpt lat="43.95188" lon="2.21584">
        <ele>169.1</ele>
        <time>2021-08-18T08:36:59Z</time>
      </trkpt>
      <trkpt lat="43.9518" lon="2.21453">
        <ele>168.2</ele>
        <time>2021-08-18T08:37:19Z</time>
      </trkpt>
      <trkpt lat="43.9517" lon="2.21303">
        <ele>167</ele>
        <time>2021-08-18T08:37:39Z</time>
      </trkpt>
      <trkpt lat="43.95119" lon="2.2118">
        <ele>166</ele>
        <time>2021-08-18T08:37:59Z</time>
      </trkpt>
      <trkpt lat="43.95072" lon="2.21067">
        <ele>170.8</ele>
        <time>2021-08-18T08:39:09Z</time>
      </trkpt>
      <trkpt lat="43.95044" lon="2.20924">
        <ele>172.3</ele>
        <time>2021-08-18T08:39:29Z</time>
      </trkpt>
      <trkpt lat="43.9501" lon="2.20784">
        <ele>174</ele>
        <time>2021-08-18T08:39:44Z</time>
      </trkpt>
      <trkpt lat="43.94948" lon="2.20658">
        <ele>172.5</ele>
        <time>2021-08-18T08:40:04Z</time>
      </trkpt>
      <trkpt lat="43.94891" lon="2.20536">
        <ele>173</ele>
        <time>2021-08-18T08:40:24Z</time>
      </trkpt>
      <trkpt lat="43.94821" lon="2.20416">
        <ele>173.5</ele>
        <time>2021-08-18T08:40:44Z</time>
      </trkpt>
      <trkpt lat="43.94745" lon="2.20302">
        <ele>175.8</ele>
        <time>2021-08-18T08:41:04Z</time>
      </trkpt>
      <trkpt lat="43.94703" lon="2.20187">
        <ele>174.6</ele>
        <time>2021-08-18T08:41:19Z</time>
      </trkpt>
      <trkpt lat="43.94634" lon="2.20099">
        <ele>174.4</ele>
        <time>2021-08-18T08:41:34Z</time>
      </trkpt>
      <trkpt lat="43.94557" lon="2.1998">
        <ele>172.5</ele>
        <time>2021-08-18T08:41:54Z</time>
      </trkpt>
      <trkpt lat="43.94506" lon="2.19868">
        <ele>174.1</ele>
        <time>2021-08-18T08:42:14Z</time>
      </trkpt>
      <trkpt lat="43.94439" lon="2.19771">
        <ele>174.6</ele>
        <time>2021-08-18T08:42:44Z</time>
      </trkpt>
      <trkpt lat="43.94394" lon="2.19636">
        <ele>175.4</ele>
        <time>2021-08-18T08:43:04Z</time>
      </trkpt>
      <trkpt lat="43.94337" lon="2.19505">
        <ele>171.3</ele>
        <time>2021-08-18T08:43:24Z</time>
      </trkpt>
      <trkpt lat="43.94281" lon="2.19374">
        <ele>168</ele>
        <time>2021-08-18T08:43:44Z</time>
      </trkpt>
      <trkpt lat="43.9424" lon="2.1922">
        <ele>170.2</ele>
        <time>2021-08-18T08:44:04Z</time>
      </trkpt>
      <trkpt lat="43.94197" lon="2.19067">
        <ele>173.5</ele>
        <time>2021-08-18T08:44:24Z</time>
      </trkpt>
      <trkpt lat="43.9413" lon="2.18956">
        <ele>175.4</ele>
        <time>2021-08-18T08:44:49Z</time>
      </trkpt>
      <trkpt lat="43.94052" lon="2.18868">
        <ele>175.2</ele>
        <time>2021-08-18T08:45:19Z</time>
      </trkpt>
      <trkpt lat="43.94004" lon="2.18742">
        <ele>175.6</ele>
        <time>2021-08-18T08:45:49Z</time>
      </trkpt>
      <trkpt lat="43.9394" lon="2.18639">
        <ele>175.6</ele>
        <time>2021-08-18T08:46:09Z</time>
      </trkpt>
      <trkpt lat="43.93881" lon="2.18511">
        <ele>176.3</ele>
        <time>2021-08-18T08:46:29Z</time>
      </trkpt>
      <trkpt lat="43.93829" lon="2.18369">
        <ele>176.7</ele>
        <time>2021-08-18T08:46:49Z</time>
      </trkpt>
      <trkpt lat="43.93783" lon="2.18248">
        <ele>178.7</ele>
        <time>2021-08-18T08:47:09Z</time>
      </trkpt>
      <trkpt lat="43.93711" lon="2.18141">
        <ele>179.9</ele>
        <time>2021-08-18T08:47:49Z</time>
      </trkpt>
      <trkpt lat="43.9365" lon="2.18046">
        <ele>181.3</ele>
        <time>2021-08-18T08:48:24Z</time>
      </trkpt>
      <trkpt lat="43.93595" lon="2.17938">
        <ele>181.1</ele>
        <time>2021-08-18T08:48:49Z</time>
      </trkpt>
      <trkpt lat="43.93574" lon="2.17803">
        <ele>178.1</ele>
        <time>2021-08-18T08:49:14Z</time>
      </trkpt>
      <trkpt lat="43.93509" lon="2.17705">
        <ele>173.9</ele>
        <time>2021-08-18T08:49:34Z</time>
      </trkpt>
      <trkpt lat="43.93466" lon="2.17582">
        <ele>172.8</ele>
        <time>2021-08-18T08:49:54Z</time>
      </trkpt>
      <trkpt lat="43.93431" lon="2.17444">
        <ele>172.7</ele>
        <time>2021-08-18T08:50:14Z</time>
      </trkpt>
      <trkpt lat="43.93402" lon="2.17322">
        <ele>171.9</ele>
        <time>2021-08-18T08:50:34Z</time>
      </trkpt>
      <trkpt lat="43.93395" lon="2.17186">
        <ele>170.4</ele>
        <time>2021-08-18T08:50:54Z</time>
      </trkpt>
      <trkpt lat="43.93328" lon="2.17055">
        <ele>169.4</ele>
        <time>2021-08-18T08:51:19Z</time>
      </trkpt>
      <trkpt lat="43.93276" lon="2.16922">
        <ele>170.9</ele>
        <time>2021-08-18T08:51:39Z</time>
      </trkpt>
      <trkpt lat="43.93213" lon="2.16809">
        <ele>173.3</ele>
        <time>2021-08-18T08:52:30Z</time>
      </trkpt>
      <trkpt lat="43.93194" lon="2.16647">
        <ele>172.5</ele>
        <time>2021-08-18T08:52:50Z</time>
      </trkpt>
      <trkpt lat="43.93153" lon="2.16529">
        <ele>171.5</ele>
        <time>2021-08-18T08:53:05Z</time>
      </trkpt>
      <trkpt lat="43.93124" lon="2.16408">
        <ele>170.9</ele>
        <time>2021-08-18T08:53:25Z</time>
      </trkpt>
      <trkpt lat="43.93087" lon="2.16284">
        <ele>169.2</ele>
        <time>2021-08-18T08:53:50Z</time>
      </trkpt>
      <trkpt lat="43.93068" lon="2.1615">
        <ele>169.2</ele>
        <time>2021-08-18T08:54:25Z</time>
      </trkpt>
      <trkpt lat="43.93057" lon="2.16008">
        <ele>168.2</ele>
        <time>2021-08-18T08:54:45Z</time>
      </trkpt>
      <trkpt lat="43.93045" lon="2.15853">
        <ele>166.3</ele>
        <time>2021-08-18T08:55:05Z</time>
      </trkpt>
      <trkpt lat="43.93037" lon="2.15703">
        <ele>162.7</ele>
        <time>2021-08-18T08:55:30Z</time>
      </trkpt>
      <trkpt lat="43.93028" lon="2.15565">
        <ele>159.8</ele>
        <time>2021-08-18T08:55:50Z</time>
      </trkpt>
      <trkpt lat="43.93021" lon="2.15423">
        <ele>157.2</ele>
        <time>2021-08-18T08:56:10Z</time>
      </trkpt>
      <trkpt lat="43.93013" lon="2.15288">
        <ele>156.4</ele>
        <time>2021-08-18T08:56:30Z</time>
      </trkpt>
      <trkpt lat="43.92959" lon="2.15172">
        <ele>155.2</ele>
        <time>2021-08-18T08:57:14Z</time>
      </trkpt>
      <trkpt lat="43.9289" lon="2.15074">
        <ele>155.7</ele>
        <time>2021-08-18T08:57:34Z</time>
      </trkpt>
      <trkpt lat="43.9282" lon="2.14973">
        <ele>155.2</ele>
        <time>2021-08-18T08:57:54Z</time>
      </trkpt>
      <trkpt lat="43.92766" lon="2.14869">
        <ele>156.3</ele>
        <time>2021-08-18T08:58:19Z</time>
      </trkpt>
      <trkpt lat="43.92671" lon="2.14815">
        <ele>156.7</ele>
        <time>2021-08-18T08:59:23Z</time>
      </trkpt>
      <trkpt lat="43.92565" lon="2.14843">
        <ele>157</ele>
        <time>2021-08-18T08:59:48Z</time>
      </trkpt>
      <trkpt lat="43.92545" lon="2.147">
        <ele>159.7</ele>
        <time>2021-08-18T09:00:24Z</time>
      </trkpt>
      <trkpt lat="43.92544" lon="2.14559">
        <ele>159.9</ele>
        <time>2021-08-18T09:00:44Z</time>
      </trkpt>
      <trkpt lat="43.92471" lon="2.14465">
        <ele>159.4</ele>
        <time>2021-08-18T09:01:04Z</time>
      </trkpt>
      <trkpt lat="43.9239" lon="2.14387">
        <ele>159.1</ele>
        <time>2021-08-18T09:01:29Z</time>
      </trkpt>
      <trkpt lat="43.9232" lon="2.14298">
        <ele>158.5</ele>
        <time>2021-08-18T09:01:49Z</time>
      </trkpt>
      <trkpt lat="43.92257" lon="2.14195">
        <ele>156.9</ele>
        <time>2021-08-18T09:02:14Z</time>
      </trkpt>
      <trkpt lat="43.92248" lon="2.14051">
        <ele>157.1</ele>
        <time>2021-08-18T09:02:39Z</time>
      </trkpt>
      <trkpt lat="43.92246" lon="2.13904">
        <ele>158.4</ele>
        <time>2021-08-18T09:02:59Z</time>
      </trkpt>
      <trkpt lat="43.9223" lon="2.13774">
        <ele>159.7</ele>
        <time>2021-08-18T09:05:34Z</time>
      </trkpt>
      <trkpt lat="43.92139" lon="2.13738">
        <ele>167</ele>
        <time>2021-08-18T09:12:18Z</time>
      </trkpt>
      <trkpt lat="43.92077" lon="2.13615">
        <ele>162.1</ele>
        <time>2021-08-18T09:12:43Z</time>
      </trkpt>
      <trkpt lat="43.9214" lon="2.13716">
        <ele>153</ele>
        <time>2021-08-18T09:13:45Z</time>
      </trkpt>
      <trkpt lat="43.92188" lon="2.13825">
        <ele>151.2</ele>
        <time>2021-08-18T09:14:10Z</time>
      </trkpt>
      <trkpt lat="43.92216" lon="2.13958">
        <ele>141</ele>
        <time>2021-08-18T09:15:06Z</time>
      </trkpt>
      <trkpt lat="43.92254" lon="2.13839">
        <ele>142.9</ele>
        <time>2021-08-18T09:15:46Z</time>
      </trkpt>
    </trkseg>
  </trk>
  <trk>
    <name><![CDATA[Jour06B]]></name>
    <trkseg>
      <trkpt lat="43.77408" lon="1.68614">
        <ele>110.4</ele>
        <time>2021-08-18T10:37:15Z</time>
      </trkpt>
      <trkpt lat="43.77437" lon="1.68471">
        <ele>112.7</ele>
        <time>2021-08-18T10:38:27Z</time>
      </trkpt>
      <trkpt lat="43.77519" lon="1.68395">
        <ele>112.2</ele>
        <time>2021-08-18T10:38:57Z</time>
      </trkpt>
      <trkpt lat="43.7761" lon="1.68379">
        <ele>111.9</ele>
        <time>2021-08-18T10:39:22Z</time>
      </trkpt>
      <trkpt lat="43.7765" lon="1.6825">
        <ele>115.3</ele>
        <time>2021-08-18T10:39:47Z</time>
      </trkpt>
      <trkpt lat="43.77677" lon="1.68126">
        <ele>119.8</ele>
        <time>2021-08-18T10:40:07Z</time>
      </trkpt>
      <trkpt lat="43.77679" lon="1.67999">
        <ele>121</ele>
        <time>2021-08-18T10:40:27Z</time>
      </trkpt>
      <trkpt lat="43.77701" lon="1.67862">
        <ele>119.2</ele>
        <time>2021-08-18T10:40:52Z</time>
      </trkpt>
      <trkpt lat="43.77725" lon="1.67731">
        <ele>114.3</ele>
        <time>2021-08-18T10:41:12Z</time>
      </trkpt>
      <trkpt lat="43.77715" lon="1.676">
        <ele>109.9</ele>
        <time>2021-08-18T10:41:32Z</time>
      </trkpt>
      <trkpt lat="43.77698" lon="1.67454">
        <ele>113.3</ele>
        <time>2021-08-18T10:41:57Z</time>
      </trkpt>
      <trkpt lat="43.77702" lon="1.67319">
        <ele>113.8</ele>
        <time>2021-08-18T10:42:17Z</time>
      </trkpt>
      <trkpt lat="43.77714" lon="1.67189">
        <ele>116.3</ele>
        <time>2021-08-18T10:42:37Z</time>
      </trkpt>
      <trkpt lat="43.77674" lon="1.67049">
        <ele>115.7</ele>
        <time>2021-08-18T10:43:02Z</time>
      </trkpt>
      <trkpt lat="43.77618" lon="1.6693">
        <ele>115.5</ele>
        <time>2021-08-18T10:43:22Z</time>
      </trkpt>
      <trkpt lat="43.77566" lon="1.66804">
        <ele>110.2</ele>
        <time>2021-08-18T10:43:42Z</time>
      </trkpt>
      <trkpt lat="43.7753" lon="1.66654">
        <ele>108.3</ele>
        <time>2021-08-18T10:44:02Z</time>
      </trkpt>
      <trkpt lat="43.77507" lon="1.66523">
        <ele>109.5</ele>
        <time>2021-08-18T10:49:03Z</time>
      </trkpt>
      <trkpt lat="43.77484" lon="1.66392">
        <ele>108.1</ele>
        <time>2021-08-18T10:49:23Z</time>
      </trkpt>
      <trkpt lat="43.77454" lon="1.66268">
        <ele>107.6</ele>
        <time>2021-08-18T10:49:48Z</time>
      </trkpt>
      <trkpt lat="43.77391" lon="1.66135">
        <ele>106.8</ele>
        <time>2021-08-18T10:50:08Z</time>
      </trkpt>
      <trkpt lat="43.77336" lon="1.66031">
        <ele>106.9</ele>
        <time>2021-08-18T10:50:28Z</time>
      </trkpt>
      <trkpt lat="43.77278" lon="1.65916">
        <ele>107.8</ele>
        <time>2021-08-18T10:50:48Z</time>
      </trkpt>
      <trkpt lat="43.77223" lon="1.65807">
        <ele>111.7</ele>
        <time>2021-08-18T10:51:08Z</time>
      </trkpt>
      <trkpt lat="43.77161" lon="1.65676">
        <ele>116.5</ele>
        <time>2021-08-18T10:51:28Z</time>
      </trkpt>
      <trkpt lat="43.77118" lon="1.65551">
        <ele>115.7</ele>
        <time>2021-08-18T10:51:53Z</time>
      </trkpt>
      <trkpt lat="43.7715" lon="1.65412">
        <ele>105.8</ele>
        <time>2021-08-18T10:52:18Z</time>
      </trkpt>
      <trkpt lat="43.77199" lon="1.65292">
        <ele>107.8</ele>
        <time>2021-08-18T10:52:38Z</time>
      </trkpt>
      <trkpt lat="43.77233" lon="1.65164">
        <ele>110.3</ele>
        <time>2021-08-18T10:52:58Z</time>
      </trkpt>
      <trkpt lat="43.77254" lon="1.65002">
        <ele>110.5</ele>
        <time>2021-08-18T10:53:18Z</time>
      </trkpt>
      <trkpt lat="43.77267" lon="1.64877">
        <ele>109.7</ele>
        <time>2021-08-18T10:53:33Z</time>
      </trkpt>
      <trkpt lat="43.77286" lon="1.64727">
        <ele>110.4</ele>
        <time>2021-08-18T10:53:53Z</time>
      </trkpt>
      <trkpt lat="43.77315" lon="1.64596">
        <ele>110</ele>
        <time>2021-08-18T10:54:13Z</time>
      </trkpt>
      <trkpt lat="43.77351" lon="1.6447">
        <ele>110.5</ele>
        <time>2021-08-18T10:54:33Z</time>
      </trkpt>
      <trkpt lat="43.77391" lon="1.64328">
        <ele>109.1</ele>
        <time>2021-08-18T10:54:53Z</time>
      </trkpt>
      <trkpt lat="43.77437" lon="1.64178">
        <ele>108.1</ele>
        <time>2021-08-18T10:55:13Z</time>
      </trkpt>
      <trkpt lat="43.77469" lon="1.64061">
        <ele>111.8</ele>
        <time>2021-08-18T10:55:28Z</time>
      </trkpt>
      <trkpt lat="43.77511" lon="1.63916">
        <ele>112.4</ele>
        <time>2021-08-18T10:55:48Z</time>
      </trkpt>
      <trkpt lat="43.77551" lon="1.63782">
        <ele>109.3</ele>
        <time>2021-08-18T10:56:08Z</time>
      </trkpt>
      <trkpt lat="43.77582" lon="1.63658">
        <ele>111</ele>
        <time>2021-08-18T10:56:28Z</time>
      </trkpt>
      <trkpt lat="43.77614" lon="1.63526">
        <ele>110.1</ele>
        <time>2021-08-18T10:56:53Z</time>
      </trkpt>
      <trkpt lat="43.77677" lon="1.63421">
        <ele>112.1</ele>
        <time>2021-08-18T10:58:42Z</time>
      </trkpt>
      <trkpt lat="43.77773" lon="1.63423">
        <ele>108.8</ele>
        <time>2021-08-18T10:59:31Z</time>
      </trkpt>
      <trkpt lat="43.77877" lon="1.63469">
        <ele>107.9</ele>
        <time>2021-08-18T10:59:56Z</time>
      </trkpt>
      <trkpt lat="43.77967" lon="1.63525">
        <ele>103.3</ele>
        <time>2021-08-18T11:00:31Z</time>
      </trkpt>
      <trkpt lat="43.77879" lon="1.63468">
        <ele>107.7</ele>
        <time>2021-08-18T11:01:06Z</time>
      </trkpt>
      <trkpt lat="43.77882" lon="1.63332">
        <ele>111.5</ele>
        <time>2021-08-18T11:01:41Z</time>
      </trkpt>
      <trkpt lat="43.77969" lon="1.6338">
        <ele>111.8</ele>
        <time>2021-08-18T11:02:06Z</time>
      </trkpt>
      <trkpt lat="43.78067" lon="1.63368">
        <ele>108.5</ele>
        <time>2021-08-18T11:02:58Z</time>
      </trkpt>
      <trkpt lat="43.78004" lon="1.63259">
        <ele>101</ele>
        <time>2021-08-18T12:31:08Z</time>
      </trkpt>
      <trkpt lat="43.78032" lon="1.63131">
        <ele>103.8</ele>
        <time>2021-08-18T12:31:48Z</time>
      </trkpt>
      <trkpt lat="43.78104" lon="1.63048">
        <ele>105.5</ele>
        <time>2021-08-18T12:32:08Z</time>
      </trkpt>
      <trkpt lat="43.78178" lon="1.62948">
        <ele>115.7</ele>
        <time>2021-08-18T12:32:33Z</time>
      </trkpt>
      <trkpt lat="43.78247" lon="1.62866">
        <ele>112.9</ele>
        <time>2021-08-18T12:32:58Z</time>
      </trkpt>
      <trkpt lat="43.78332" lon="1.6279">
        <ele>111.7</ele>
        <time>2021-08-18T12:33:23Z</time>
      </trkpt>
      <trkpt lat="43.78411" lon="1.62709">
        <ele>107.3</ele>
        <time>2021-08-18T12:33:43Z</time>
      </trkpt>
      <trkpt lat="43.78497" lon="1.62609">
        <ele>106.7</ele>
        <time>2021-08-18T12:34:03Z</time>
      </trkpt>
      <trkpt lat="43.78579" lon="1.62513">
        <ele>104.6</ele>
        <time>2021-08-18T12:34:23Z</time>
      </trkpt>
      <trkpt lat="43.7866" lon="1.62419">
        <ele>107.2</ele>
        <time>2021-08-18T12:34:43Z</time>
      </trkpt>
      <trkpt lat="43.78734" lon="1.62327">
        <ele>109.4</ele>
        <time>2021-08-18T12:35:03Z</time>
      </trkpt>
      <trkpt lat="43.78806" lon="1.6224">
        <ele>106.4</ele>
        <time>2021-08-18T12:35:28Z</time>
      </trkpt>
      <trkpt lat="43.78897" lon="1.62198">
        <ele>106.6</ele>
        <time>2021-08-18T12:35:48Z</time>
      </trkpt>
      <trkpt lat="43.78985" lon="1.62144">
        <ele>104.9</ele>
        <time>2021-08-18T12:36:08Z</time>
      </trkpt>
      <trkpt lat="43.7908" lon="1.62071">
        <ele>104.2</ele>
        <time>2021-08-18T12:36:33Z</time>
      </trkpt>
      <trkpt lat="43.79163" lon="1.61981">
        <ele>103.6</ele>
        <time>2021-08-18T12:36:58Z</time>
      </trkpt>
      <trkpt lat="43.79235" lon="1.61907">
        <ele>104.8</ele>
        <time>2021-08-18T12:37:18Z</time>
      </trkpt>
      <trkpt lat="43.79309" lon="1.6183">
        <ele>102.5</ele>
        <time>2021-08-18T12:37:38Z</time>
      </trkpt>
      <trkpt lat="43.79386" lon="1.61751">
        <ele>100.8</ele>
        <time>2021-08-18T12:37:58Z</time>
      </trkpt>
      <trkpt lat="43.79462" lon="1.6167">
        <ele>102.5</ele>
        <time>2021-08-18T12:38:18Z</time>
      </trkpt>
      <trkpt lat="43.79544" lon="1.61567">
        <ele>102.8</ele>
        <time>2021-08-18T12:38:43Z</time>
      </trkpt>
      <trkpt lat="43.7961" lon="1.61443">
        <ele>107.6</ele>
        <time>2021-08-18T12:39:03Z</time>
      </trkpt>
      <trkpt lat="43.79686" lon="1.61322">
        <ele>106</ele>
        <time>2021-08-18T12:39:23Z</time>
      </trkpt>
      <trkpt lat="43.79773" lon="1.61226">
        <ele>107</ele>
        <time>2021-08-18T12:39:43Z</time>
      </trkpt>
      <trkpt lat="43.79857" lon="1.61121">
        <ele>107.1</ele>
        <time>2021-08-18T12:40:03Z</time>
      </trkpt>
      <trkpt lat="43.79922" lon="1.61013">
        <ele>106.3</ele>
        <time>2021-08-18T12:40:23Z</time>
      </trkpt>
      <trkpt lat="43.7996" lon="1.60877">
        <ele>106.8</ele>
        <time>2021-08-18T12:40:43Z</time>
      </trkpt>
      <trkpt lat="43.80031" lon="1.60801">
        <ele>110.3</ele>
        <time>2021-08-18T12:41:18Z</time>
      </trkpt>
      <trkpt lat="43.80073" lon="1.60675">
        <ele>95.9</ele>
        <time>2021-08-18T12:53:33Z</time>
      </trkpt>
      <trkpt lat="43.8007" lon="1.60546">
        <ele>103.9</ele>
        <time>2021-08-18T12:54:33Z</time>
      </trkpt>
      <trkpt lat="43.80049" lon="1.60422">
        <ele>104.9</ele>
        <time>2021-08-18T12:55:03Z</time>
      </trkpt>
      <trkpt lat="43.80085" lon="1.60283">
        <ele>106.9</ele>
        <time>2021-08-18T12:55:28Z</time>
      </trkpt>
      <trkpt lat="43.80101" lon="1.60148">
        <ele>108.1</ele>
        <time>2021-08-18T12:55:48Z</time>
      </trkpt>
      <trkpt lat="43.80103" lon="1.60013">
        <ele>107.7</ele>
        <time>2021-08-18T12:56:08Z</time>
      </trkpt>
      <trkpt lat="43.80118" lon="1.59879">
        <ele>110.2</ele>
        <time>2021-08-18T12:56:28Z</time>
      </trkpt>
      <trkpt lat="43.80136" lon="1.59747">
        <ele>104.8</ele>
        <time>2021-08-18T12:56:48Z</time>
      </trkpt>
      <trkpt lat="43.80135" lon="1.59597">
        <ele>103.2</ele>
        <time>2021-08-18T12:57:13Z</time>
      </trkpt>
      <trkpt lat="43.80099" lon="1.5947">
        <ele>101.7</ele>
        <time>2021-08-18T12:57:38Z</time>
      </trkpt>
      <trkpt lat="43.80079" lon="1.59337">
        <ele>105.5</ele>
        <time>2021-08-18T12:58:03Z</time>
      </trkpt>
      <trkpt lat="43.80102" lon="1.59202">
        <ele>108.8</ele>
        <time>2021-08-18T12:58:41Z</time>
      </trkpt>
      <trkpt lat="43.80144" lon="1.59076">
        <ele>106.2</ele>
        <time>2021-08-18T12:59:53Z</time>
      </trkpt>
      <trkpt lat="43.80217" lon="1.58968">
        <ele>106</ele>
        <time>2021-08-18T13:00:18Z</time>
      </trkpt>
      <trkpt lat="43.80284" lon="1.58876">
        <ele>108.5</ele>
        <time>2021-08-18T13:00:38Z</time>
      </trkpt>
      <trkpt lat="43.80337" lon="1.58759">
        <ele>110.3</ele>
        <time>2021-08-18T13:00:58Z</time>
      </trkpt>
      <trkpt lat="43.80384" lon="1.58628">
        <ele>110</ele>
        <time>2021-08-18T13:01:18Z</time>
      </trkpt>
      <trkpt lat="43.80433" lon="1.58515">
        <ele>108.8</ele>
        <time>2021-08-18T13:01:38Z</time>
      </trkpt>
      <trkpt lat="43.80476" lon="1.58393">
        <ele>103.7</ele>
        <time>2021-08-18T13:01:58Z</time>
      </trkpt>
      <trkpt lat="43.80522" lon="1.58259">
        <ele>100.9</ele>
        <time>2021-08-18T13:02:18Z</time>
      </trkpt>
      <trkpt lat="43.80569" lon="1.58126">
        <ele>99.3</ele>
        <time>2021-08-18T13:02:38Z</time>
      </trkpt>
      <trkpt lat="43.80619" lon="1.5799">
        <ele>97</ele>
        <time>2021-08-18T13:02:58Z</time>
      </trkpt>
      <trkpt lat="43.80661" lon="1.5785">
        <ele>96.3</ele>
        <time>2021-08-18T13:03:18Z</time>
      </trkpt>
      <trkpt lat="43.80703" lon="1.57721">
        <ele>95.1</ele>
        <time>2021-08-18T13:03:38Z</time>
      </trkpt>
      <trkpt lat="43.80749" lon="1.57606">
        <ele>93.7</ele>
        <time>2021-08-18T13:03:58Z</time>
      </trkpt>
      <trkpt lat="43.80786" lon="1.57492">
        <ele>95.1</ele>
        <time>2021-08-18T13:04:18Z</time>
      </trkpt>
      <trkpt lat="43.80819" lon="1.57357">
        <ele>96.2</ele>
        <time>2021-08-18T13:04:38Z</time>
      </trkpt>
      <trkpt lat="43.80847" lon="1.57208">
        <ele>96.8</ele>
        <time>2021-08-18T13:04:58Z</time>
      </trkpt>
      <trkpt lat="43.80886" lon="1.57075">
        <ele>98.4</ele>
        <time>2021-08-18T13:05:18Z</time>
      </trkpt>
      <trkpt lat="43.80926" lon="1.56951">
        <ele>102.4</ele>
        <time>2021-08-18T13:05:38Z</time>
      </trkpt>
      <trkpt lat="43.80974" lon="1.56814">
        <ele>106</ele>
        <time>2021-08-18T13:06:03Z</time>
      </trkpt>
      <trkpt lat="43.81016" lon="1.56694">
        <ele>104.1</ele>
        <time>2021-08-18T13:06:23Z</time>
      </trkpt>
      <trkpt lat="43.81059" lon="1.56572">
        <ele>105.6</ele>
        <time>2021-08-18T13:06:43Z</time>
      </trkpt>
      <trkpt lat="43.8109" lon="1.56442">
        <ele>110.6</ele>
        <time>2021-08-18T13:07:03Z</time>
      </trkpt>
      <trkpt lat="43.81117" lon="1.56298">
        <ele>113.4</ele>
        <time>2021-08-18T13:07:23Z</time>
      </trkpt>
      <trkpt lat="43.81137" lon="1.56154">
        <ele>116.4</ele>
        <time>2021-08-18T13:07:43Z</time>
      </trkpt>
      <trkpt lat="43.81164" lon="1.56015">
        <ele>115.8</ele>
        <time>2021-08-18T13:08:03Z</time>
      </trkpt>
      <trkpt lat="43.81206" lon="1.5589">
        <ele>113.3</ele>
        <time>2021-08-18T13:08:23Z</time>
      </trkpt>
      <trkpt lat="43.81248" lon="1.55747">
        <ele>117.7</ele>
        <time>2021-08-18T13:08:43Z</time>
      </trkpt>
      <trkpt lat="43.81285" lon="1.55601">
        <ele>115.5</ele>
        <time>2021-08-18T13:09:03Z</time>
      </trkpt>
      <trkpt lat="43.8132" lon="1.55455">
        <ele>108.2</ele>
        <time>2021-08-18T13:09:23Z</time>
      </trkpt>
      <trkpt lat="43.81348" lon="1.55327">
        <ele>102.9</ele>
        <time>2021-08-18T13:09:43Z</time>
      </trkpt>
      <trkpt lat="43.81373" lon="1.55196">
        <ele>104.2</ele>
        <time>2021-08-18T13:10:03Z</time>
      </trkpt>
      <trkpt lat="43.814" lon="1.5506">
        <ele>104.3</ele>
        <time>2021-08-18T13:10:23Z</time>
      </trkpt>
      <trkpt lat="43.8144" lon="1.54906">
        <ele>101.2</ele>
        <time>2021-08-18T13:10:43Z</time>
      </trkpt>
      <trkpt lat="43.81483" lon="1.54768">
        <ele>99.2</ele>
        <time>2021-08-18T13:11:03Z</time>
      </trkpt>
      <trkpt lat="43.81544" lon="1.54671">
        <ele>99.1</ele>
        <time>2021-08-18T13:11:23Z</time>
      </trkpt>
      <trkpt lat="43.81601" lon="1.54576">
        <ele>99.1</ele>
        <time>2021-08-18T13:11:43Z</time>
      </trkpt>
      <trkpt lat="43.81573" lon="1.54437">
        <ele>101.2</ele>
        <time>2021-08-18T13:12:13Z</time>
      </trkpt>
      <trkpt lat="43.81595" lon="1.54315">
        <ele>101.1</ele>
        <time>2021-08-18T13:12:43Z</time>
      </trkpt>
      <trkpt lat="43.81522" lon="1.54198">
        <ele>99.7</ele>
        <time>2021-08-18T13:13:08Z</time>
      </trkpt>
      <trkpt lat="43.81544" lon="1.54067">
        <ele>98.4</ele>
        <time>2021-08-18T13:13:43Z</time>
      </trkpt>
      <trkpt lat="43.81556" lon="1.53943">
        <ele>97.6</ele>
        <time>2021-08-18T13:14:13Z</time>
      </trkpt>
      <trkpt lat="43.81572" lon="1.53806">
        <ele>98.4</ele>
        <time>2021-08-18T13:14:43Z</time>
      </trkpt>
      <trkpt lat="43.81594" lon="1.53669">
        <ele>102.5</ele>
        <time>2021-08-18T13:16:36Z</time>
      </trkpt>
      <trkpt lat="43.81603" lon="1.53522">
        <ele>104.2</ele>
        <time>2021-08-18T13:17:06Z</time>
      </trkpt>
      <trkpt lat="43.8162" lon="1.53376">
        <ele>105.2</ele>
        <time>2021-08-18T13:17:31Z</time>
      </trkpt>
      <trkpt lat="43.81656" lon="1.53256">
        <ele>105.2</ele>
        <time>2021-08-18T13:17:51Z</time>
      </trkpt>
      <trkpt lat="43.81679" lon="1.53133">
        <ele>107.1</ele>
        <time>2021-08-18T13:18:11Z</time>
      </trkpt>
      <trkpt lat="43.81696" lon="1.52981">
        <ele>109.5</ele>
        <time>2021-08-18T13:18:36Z</time>
      </trkpt>
      <trkpt lat="43.81692" lon="1.52846">
        <ele>113.4</ele>
        <time>2021-08-18T13:18:56Z</time>
      </trkpt>
      <trkpt lat="43.81673" lon="1.52711">
        <ele>116.4</ele>
        <time>2021-08-18T13:19:16Z</time>
      </trkpt>
      <trkpt lat="43.81682" lon="1.52576">
        <ele>117.9</ele>
        <time>2021-08-18T13:19:36Z</time>
      </trkpt>
      <trkpt lat="43.81691" lon="1.52442">
        <ele>121</ele>
        <time>2021-08-18T13:19:56Z</time>
      </trkpt>
      <trkpt lat="43.81726" lon="1.52316">
        <ele>123.2</ele>
        <time>2021-08-18T13:20:16Z</time>
      </trkpt>
      <trkpt lat="43.81766" lon="1.52174">
        <ele>126.1</ele>
        <time>2021-08-18T13:20:36Z</time>
      </trkpt>
      <trkpt lat="43.81812" lon="1.52046">
        <ele>127.4</ele>
        <time>2021-08-18T13:20:56Z</time>
      </trkpt>
      <trkpt lat="43.81778" lon="1.51914">
        <ele>123.2</ele>
        <time>2021-08-18T13:21:16Z</time>
      </trkpt>
      <trkpt lat="43.81742" lon="1.51797">
        <ele>115.7</ele>
        <time>2021-08-18T13:21:36Z</time>
      </trkpt>
      <trkpt lat="43.81698" lon="1.51676">
        <ele>114.5</ele>
        <time>2021-08-18T13:21:56Z</time>
      </trkpt>
      <trkpt lat="43.8165" lon="1.51545">
        <ele>113.9</ele>
        <time>2021-08-18T13:22:16Z</time>
      </trkpt>
      <trkpt lat="43.81647" lon="1.51408">
        <ele>112</ele>
        <time>2021-08-18T13:22:36Z</time>
      </trkpt>
      <trkpt lat="43.8167" lon="1.51286">
        <ele>109.6</ele>
        <time>2021-08-18T13:22:56Z</time>
      </trkpt>
      <trkpt lat="43.81672" lon="1.51144">
        <ele>109</ele>
        <time>2021-08-18T13:23:21Z</time>
      </trkpt>
      <trkpt lat="43.817" lon="1.51002">
        <ele>112.1</ele>
        <time>2021-08-18T13:23:41Z</time>
      </trkpt>
      <trkpt lat="43.81735" lon="1.50872">
        <ele>113.6</ele>
        <time>2021-08-18T13:23:56Z</time>
      </trkpt>
      <trkpt lat="43.81758" lon="1.50722">
        <ele>113.5</ele>
        <time>2021-08-18T13:24:16Z</time>
      </trkpt>
      <trkpt lat="43.81734" lon="1.50588">
        <ele>113.3</ele>
        <time>2021-08-18T13:24:36Z</time>
      </trkpt>
      <trkpt lat="43.81718" lon="1.5045">
        <ele>113.2</ele>
        <time>2021-08-18T13:24:56Z</time>
      </trkpt>
      <trkpt lat="43.81718" lon="1.50324">
        <ele>111</ele>
        <time>2021-08-18T13:25:16Z</time>
      </trkpt>
      <trkpt lat="43.81716" lon="1.50189">
        <ele>111.2</ele>
        <time>2021-08-18T13:25:36Z</time>
      </trkpt>
      <trkpt lat="43.81736" lon="1.50049">
        <ele>114.4</ele>
        <time>2021-08-18T13:25:58Z</time>
      </trkpt>
      <trkpt lat="43.8179" lon="1.4995">
        <ele>115.8</ele>
        <time>2021-08-18T13:26:18Z</time>
      </trkpt>
      <trkpt lat="43.81802" lon="1.4981">
        <ele>116.4</ele>
        <time>2021-08-18T13:26:43Z</time>
      </trkpt>
      <trkpt lat="43.81823" lon="1.49668">
        <ele>113.5</ele>
        <time>2021-08-18T13:27:08Z</time>
      </trkpt>
      <trkpt lat="43.81839" lon="1.49536">
        <ele>113.3</ele>
        <time>2021-08-18T13:27:33Z</time>
      </trkpt>
      <trkpt lat="43.81855" lon="1.49404">
        <ele>111.7</ele>
        <time>2021-08-18T13:27:58Z</time>
      </trkpt>
      <trkpt lat="43.81896" lon="1.4927">
        <ele>113.7</ele>
        <time>2021-08-18T13:28:23Z</time>
      </trkpt>
      <trkpt lat="43.81956" lon="1.49168">
        <ele>113.7</ele>
        <time>2021-08-18T13:28:43Z</time>
      </trkpt>
      <trkpt lat="43.82009" lon="1.49068">
        <ele>114.8</ele>
        <time>2021-08-18T13:29:03Z</time>
      </trkpt>
      <trkpt lat="43.82076" lon="1.48946">
        <ele>122.2</ele>
        <time>2021-08-18T13:29:28Z</time>
      </trkpt>
      <trkpt lat="43.82132" lon="1.48843">
        <ele>121.4</ele>
        <time>2021-08-18T13:29:48Z</time>
      </trkpt>
      <trkpt lat="43.82201" lon="1.48742">
        <ele>118.2</ele>
        <time>2021-08-18T13:30:08Z</time>
      </trkpt>
      <trkpt lat="43.82265" lon="1.48637">
        <ele>117.5</ele>
        <time>2021-08-18T13:30:28Z</time>
      </trkpt>
      <trkpt lat="43.82329" lon="1.48535">
        <ele>114.6</ele>
        <time>2021-08-18T13:30:48Z</time>
      </trkpt>
      <trkpt lat="43.82386" lon="1.48425">
        <ele>114.1</ele>
        <time>2021-08-18T13:31:08Z</time>
      </trkpt>
      <trkpt lat="43.8245" lon="1.48316">
        <ele>111.1</ele>
        <time>2021-08-18T13:31:28Z</time>
      </trkpt>
      <trkpt lat="43.82516" lon="1.48208">
        <ele>114</ele>
        <time>2021-08-18T13:31:48Z</time>
      </trkpt>
      <trkpt lat="43.82555" lon="1.48078">
        <ele>114.2</ele>
        <time>2021-08-18T13:32:08Z</time>
      </trkpt>
      <trkpt lat="43.8261" lon="1.47967">
        <ele>115.2</ele>
        <time>2021-08-18T13:32:28Z</time>
      </trkpt>
      <trkpt lat="43.82664" lon="1.47867">
        <ele>117.3</ele>
        <time>2021-08-18T13:32:48Z</time>
      </trkpt>
      <trkpt lat="43.82729" lon="1.47762">
        <ele>115.5</ele>
        <time>2021-08-18T13:33:08Z</time>
      </trkpt>
      <trkpt lat="43.82783" lon="1.47663">
        <ele>116.2</ele>
        <time>2021-08-18T13:33:28Z</time>
      </trkpt>
      <trkpt lat="43.82843" lon="1.47538">
        <ele>115.9</ele>
        <time>2021-08-18T13:33:53Z</time>
      </trkpt>
      <trkpt lat="43.82909" lon="1.47439">
        <ele>116</ele>
        <time>2021-08-18T13:34:13Z</time>
      </trkpt>
      <trkpt lat="43.82965" lon="1.47337">
        <ele>118.7</ele>
        <time>2021-08-18T13:34:33Z</time>
      </trkpt>
      <trkpt lat="43.8301" lon="1.47222">
        <ele>120.8</ele>
        <time>2021-08-18T13:34:53Z</time>
      </trkpt>
      <trkpt lat="43.83051" lon="1.47099">
        <ele>119.3</ele>
        <time>2021-08-18T13:35:13Z</time>
      </trkpt>
      <trkpt lat="43.83114" lon="1.4699">
        <ele>115.1</ele>
        <time>2021-08-18T13:35:33Z</time>
      </trkpt>
      <trkpt lat="43.83179" lon="1.46904">
        <ele>113.2</ele>
        <time>2021-08-18T13:35:53Z</time>
      </trkpt>
      <trkpt lat="43.83238" lon="1.46809">
        <ele>113.2</ele>
        <time>2021-08-18T13:36:13Z</time>
      </trkpt>
      <trkpt lat="43.83278" lon="1.46688">
        <ele>115.4</ele>
        <time>2021-08-18T13:36:33Z</time>
      </trkpt>
      <trkpt lat="43.83323" lon="1.4657">
        <ele>115.8</ele>
        <time>2021-08-18T13:36:53Z</time>
      </trkpt>
      <trkpt lat="43.83334" lon="1.46443">
        <ele>113.2</ele>
        <time>2021-08-18T13:37:13Z</time>
      </trkpt>
      <trkpt lat="43.8335" lon="1.46311">
        <ele>114.5</ele>
        <time>2021-08-18T13:37:38Z</time>
      </trkpt>
      <trkpt lat="43.83379" lon="1.46187">
        <ele>112</ele>
        <time>2021-08-18T13:37:58Z</time>
      </trkpt>
      <trkpt lat="43.83407" lon="1.4606">
        <ele>111.7</ele>
        <time>2021-08-18T13:38:18Z</time>
      </trkpt>
      <trkpt lat="43.83446" lon="1.45937">
        <ele>109.7</ele>
        <time>2021-08-18T13:38:38Z</time>
      </trkpt>
      <trkpt lat="43.83463" lon="1.45803">
        <ele>109</ele>
        <time>2021-08-18T13:38:58Z</time>
      </trkpt>
      <trkpt lat="43.83481" lon="1.45673">
        <ele>111.9</ele>
        <time>2021-08-18T13:39:18Z</time>
      </trkpt>
      <trkpt lat="43.83516" lon="1.45552">
        <ele>110.6</ele>
        <time>2021-08-18T13:39:38Z</time>
      </trkpt>
      <trkpt lat="43.83568" lon="1.45447">
        <ele>111.9</ele>
        <time>2021-08-18T13:39:53Z</time>
      </trkpt>
      <trkpt lat="43.83636" lon="1.45355">
        <ele>111.6</ele>
        <time>2021-08-18T13:40:13Z</time>
      </trkpt>
      <trkpt lat="43.83626" lon="1.45216">
        <ele>114</ele>
        <time>2021-08-18T13:40:38Z</time>
      </trkpt>
      <trkpt lat="43.83607" lon="1.45074">
        <ele>115.8</ele>
        <time>2021-08-18T13:41:03Z</time>
      </trkpt>
      <trkpt lat="43.83594" lon="1.44946">
        <ele>115.3</ele>
        <time>2021-08-18T13:41:28Z</time>
      </trkpt>
      <trkpt lat="43.83596" lon="1.44802">
        <ele>116.5</ele>
        <time>2021-08-18T13:41:53Z</time>
      </trkpt>
      <trkpt lat="43.83601" lon="1.44674">
        <ele>116.7</ele>
        <time>2021-08-18T13:42:13Z</time>
      </trkpt>
      <trkpt lat="43.83595" lon="1.44543">
        <ele>112.5</ele>
        <time>2021-08-18T13:42:33Z</time>
      </trkpt>
      <trkpt lat="43.83576" lon="1.44391">
        <ele>110.2</ele>
        <time>2021-08-18T13:42:58Z</time>
      </trkpt>
      <trkpt lat="43.83554" lon="1.44265">
        <ele>112.6</ele>
        <time>2021-08-18T13:43:18Z</time>
      </trkpt>
      <trkpt lat="43.83508" lon="1.44127">
        <ele>114.1</ele>
        <time>2021-08-18T13:43:43Z</time>
      </trkpt>
      <trkpt lat="43.83465" lon="1.43989">
        <ele>117.5</ele>
        <time>2021-08-18T13:44:13Z</time>
      </trkpt>
      <trkpt lat="43.83413" lon="1.43866">
        <ele>117.6</ele>
        <time>2021-08-18T13:44:43Z</time>
      </trkpt>
      <trkpt lat="43.8335" lon="1.43762">
        <ele>114.4</ele>
        <time>2021-08-18T13:45:18Z</time>
      </trkpt>
      <trkpt lat="43.83295" lon="1.43646">
        <ele>112.1</ele>
        <time>2021-08-18T13:46:04Z</time>
      </trkpt>
      <trkpt lat="43.83231" lon="1.43544">
        <ele>121.7</ele>
        <time>2021-08-18T13:46:50Z</time>
      </trkpt>
      <trkpt lat="43.83199" lon="1.43421">
        <ele>130.5</ele>
        <time>2021-08-18T13:47:30Z</time>
      </trkpt>
      <trkpt lat="43.83115" lon="1.43343">
        <ele>128.2</ele>
        <time>2021-08-18T13:48:00Z</time>
      </trkpt>
      <trkpt lat="43.83076" lon="1.43226">
        <ele>126.3</ele>
        <time>2021-08-18T13:48:35Z</time>
      </trkpt>
      <trkpt lat="43.83134" lon="1.43122">
        <ele>133.4</ele>
        <time>2021-08-18T13:50:15Z</time>
      </trkpt>
      <trkpt lat="43.83189" lon="1.43004">
        <ele>140.7</ele>
        <time>2021-08-18T13:50:40Z</time>
      </trkpt>
      <trkpt lat="43.83231" lon="1.42887">
        <ele>135.7</ele>
        <time>2021-08-18T13:51:00Z</time>
      </trkpt>
      <trkpt lat="43.83264" lon="1.42767">
        <ele>134.7</ele>
        <time>2021-08-18T13:51:20Z</time>
      </trkpt>
      <trkpt lat="43.83179" lon="1.42708">
        <ele>134.1</ele>
        <time>2021-08-18T13:51:55Z</time>
      </trkpt>
      <trkpt lat="43.83089" lon="1.42708">
        <ele>138.8</ele>
        <time>2021-08-18T13:52:20Z</time>
      </trkpt>
      <trkpt lat="43.83044" lon="1.42575">
        <ele>149.7</ele>
        <time>2021-08-18T13:52:50Z</time>
      </trkpt>
      <trkpt lat="43.83022" lon="1.42428">
        <ele>155.6</ele>
        <time>2021-08-18T13:53:15Z</time>
      </trkpt>
      <trkpt lat="43.82979" lon="1.42285">
        <ele>155.4</ele>
        <time>2021-08-18T13:53:40Z</time>
      </trkpt>
      <trkpt lat="43.82948" lon="1.42143">
        <ele>144.6</ele>
        <time>2021-08-18T13:54:05Z</time>
      </trkpt>
      <trkpt lat="43.82942" lon="1.41996">
        <ele>142</ele>
        <time>2021-08-18T13:54:30Z</time>
      </trkpt>
      <trkpt lat="43.82963" lon="1.41871">
        <ele>148.2</ele>
        <time>2021-08-18T13:54:50Z</time>
      </trkpt>
      <trkpt lat="43.82974" lon="1.41743">
        <ele>152.3</ele>
        <time>2021-08-18T13:55:15Z</time>
      </trkpt>
      <trkpt lat="43.83013" lon="1.41611">
        <ele>146.6</ele>
        <time>2021-08-18T13:55:45Z</time>
      </trkpt>
      <trkpt lat="43.83098" lon="1.41521">
        <ele>142.6</ele>
        <time>2021-08-18T13:56:15Z</time>
      </trkpt>
      <trkpt lat="43.83158" lon="1.41427">
        <ele>149.3</ele>
        <time>2021-08-18T13:56:35Z</time>
      </trkpt>
      <trkpt lat="43.83195" lon="1.41313">
        <ele>153.3</ele>
        <time>2021-08-18T13:56:55Z</time>
      </trkpt>
      <trkpt lat="43.83208" lon="1.41189">
        <ele>151.7</ele>
        <time>2021-08-18T13:57:15Z</time>
      </trkpt>
      <trkpt lat="43.83234" lon="1.41041">
        <ele>149.4</ele>
        <time>2021-08-18T13:57:40Z</time>
      </trkpt>
      <trkpt lat="43.83284" lon="1.40908">
        <ele>148.1</ele>
        <time>2021-08-18T13:58:05Z</time>
      </trkpt>
      <trkpt lat="43.83336" lon="1.40801">
        <ele>144.2</ele>
        <time>2021-08-18T13:58:25Z</time>
      </trkpt>
      <trkpt lat="43.83386" lon="1.40671">
        <ele>144.3</ele>
        <time>2021-08-18T13:58:50Z</time>
      </trkpt>
      <trkpt lat="43.83422" lon="1.40532">
        <ele>144.9</ele>
        <time>2021-08-18T13:59:15Z</time>
      </trkpt>
      <trkpt lat="43.83403" lon="1.40397">
        <ele>150.2</ele>
        <time>2021-08-18T13:59:35Z</time>
      </trkpt>
      <trkpt lat="43.8342" lon="1.40272">
        <ele>146.5</ele>
        <time>2021-08-18T13:59:55Z</time>
      </trkpt>
      <trkpt lat="43.83456" lon="1.40133">
        <ele>146.2</ele>
        <time>2021-08-18T14:00:20Z</time>
      </trkpt>
      <trkpt lat="43.83466" lon="1.39985">
        <ele>150.2</ele>
        <time>2021-08-18T14:00:45Z</time>
      </trkpt>
      <trkpt lat="43.83476" lon="1.39857">
        <ele>148.4</ele>
        <time>2021-08-18T14:01:05Z</time>
      </trkpt>
      <trkpt lat="43.83496" lon="1.39734">
        <ele>147.6</ele>
        <time>2021-08-18T14:01:25Z</time>
      </trkpt>
      <trkpt lat="43.83571" lon="1.3962">
        <ele>143.8</ele>
        <time>2021-08-18T14:01:45Z</time>
      </trkpt>
      <trkpt lat="43.83653" lon="1.39543">
        <ele>144.2</ele>
        <time>2021-08-18T14:02:05Z</time>
      </trkpt>
      <trkpt lat="43.83732" lon="1.39467">
        <ele>144.4</ele>
        <time>2021-08-18T14:02:20Z</time>
      </trkpt>
      <trkpt lat="43.83812" lon="1.39378">
        <ele>146.1</ele>
        <time>2021-08-18T14:02:35Z</time>
      </trkpt>
      <trkpt lat="43.83874" lon="1.39264">
        <ele>145.6</ele>
        <time>2021-08-18T14:03:00Z</time>
      </trkpt>
      <trkpt lat="43.83922" lon="1.39134">
        <ele>150.8</ele>
        <time>2021-08-18T14:03:30Z</time>
      </trkpt>
      <trkpt lat="43.83968" lon="1.39021">
        <ele>151.9</ele>
        <time>2021-08-18T14:03:50Z</time>
      </trkpt>
      <trkpt lat="43.8402" lon="1.38893">
        <ele>153.9</ele>
        <time>2021-08-18T14:04:15Z</time>
      </trkpt>
      <trkpt lat="43.83925" lon="1.38949">
        <ele>146.2</ele>
        <time>2021-08-18T14:08:50Z</time>
      </trkpt>
      <trkpt lat="43.84017" lon="1.38894">
        <ele>142.1</ele>
        <time>2021-08-18T14:32:11Z</time>
      </trkpt>
      <trkpt lat="43.84068" lon="1.38747">
        <ele>135.5</ele>
        <time>2021-08-18T14:32:36Z</time>
      </trkpt>
      <trkpt lat="43.84104" lon="1.38621">
        <ele>129.2</ele>
        <time>2021-08-18T14:32:46Z</time>
      </trkpt>
      <trkpt lat="43.84179" lon="1.3854">
        <ele>120.3</ele>
        <time>2021-08-18T14:33:16Z</time>
      </trkpt>
      <trkpt lat="43.84223" lon="1.38425">
        <ele>115.1</ele>
        <time>2021-08-18T14:33:41Z</time>
      </trkpt>
      <trkpt lat="43.84254" lon="1.38303">
        <ele>116.8</ele>
        <time>2021-08-18T14:34:06Z</time>
      </trkpt>
      <trkpt lat="43.84287" lon="1.38168">
        <ele>118</ele>
        <time>2021-08-18T14:34:36Z</time>
      </trkpt>
      <trkpt lat="43.84323" lon="1.38049">
        <ele>119.7</ele>
        <time>2021-08-18T14:35:11Z</time>
      </trkpt>
      <trkpt lat="43.84397" lon="1.37958">
        <ele>137</ele>
        <time>2021-08-18T14:35:51Z</time>
      </trkpt>
      <trkpt lat="43.84466" lon="1.37863">
        <ele>142.8</ele>
        <time>2021-08-18T14:36:26Z</time>
      </trkpt>
      <trkpt lat="43.84534" lon="1.37771">
        <ele>137.1</ele>
        <time>2021-08-18T14:36:56Z</time>
      </trkpt>
      <trkpt lat="43.84583" lon="1.37663">
        <ele>134.7</ele>
        <time>2021-08-18T14:37:21Z</time>
      </trkpt>
      <trkpt lat="43.84618" lon="1.3752">
        <ele>137.9</ele>
        <time>2021-08-18T14:37:46Z</time>
      </trkpt>
      <trkpt lat="43.84669" lon="1.37379">
        <ele>136.2</ele>
        <time>2021-08-18T14:38:11Z</time>
      </trkpt>
      <trkpt lat="43.84718" lon="1.37251">
        <ele>137.1</ele>
        <time>2021-08-18T14:38:31Z</time>
      </trkpt>
      <trkpt lat="43.84769" lon="1.37117">
        <ele>134.5</ele>
        <time>2021-08-18T14:38:56Z</time>
      </trkpt>
      <trkpt lat="43.84813" lon="1.36991">
        <ele>133.3</ele>
        <time>2021-08-18T14:39:21Z</time>
      </trkpt>
      <trkpt lat="43.84857" lon="1.36875">
        <ele>139.7</ele>
        <time>2021-08-18T14:39:46Z</time>
      </trkpt>
      <trkpt lat="43.84905" lon="1.36761">
        <ele>140</ele>
        <time>2021-08-18T14:40:11Z</time>
      </trkpt>
      <trkpt lat="43.84968" lon="1.36666">
        <ele>141.9</ele>
        <time>2021-08-18T14:40:36Z</time>
      </trkpt>
      <trkpt lat="43.85049" lon="1.36604">
        <ele>146.5</ele>
        <time>2021-08-18T14:41:01Z</time>
      </trkpt>
      <trkpt lat="43.85145" lon="1.36528">
        <ele>145.6</ele>
        <time>2021-08-18T14:41:26Z</time>
      </trkpt>
      <trkpt lat="43.85227" lon="1.36448">
        <ele>144.3</ele>
        <time>2021-08-18T14:41:46Z</time>
      </trkpt>
      <trkpt lat="43.85303" lon="1.36347">
        <ele>145.5</ele>
        <time>2021-08-18T14:42:06Z</time>
      </trkpt>
      <trkpt lat="43.85378" lon="1.36237">
        <ele>144.1</ele>
        <time>2021-08-18T14:42:26Z</time>
      </trkpt>
      <trkpt lat="43.85429" lon="1.36133">
        <ele>142.2</ele>
        <time>2021-08-18T14:42:46Z</time>
      </trkpt>
      <trkpt lat="43.85489" lon="1.3603">
        <ele>139.6</ele>
        <time>2021-08-18T14:43:06Z</time>
      </trkpt>
      <trkpt lat="43.85568" lon="1.35924">
        <ele>135.3</ele>
        <time>2021-08-18T14:43:31Z</time>
      </trkpt>
      <trkpt lat="43.85618" lon="1.35799">
        <ele>135.6</ele>
        <time>2021-08-18T14:43:56Z</time>
      </trkpt>
      <trkpt lat="43.85672" lon="1.35677">
        <ele>135.2</ele>
        <time>2021-08-18T14:44:21Z</time>
      </trkpt>
      <trkpt lat="43.85721" lon="1.3557">
        <ele>134.3</ele>
        <time>2021-08-18T14:44:41Z</time>
      </trkpt>
      <trkpt lat="43.85767" lon="1.35459">
        <ele>135.2</ele>
        <time>2021-08-18T14:45:01Z</time>
      </trkpt>
      <trkpt lat="43.85824" lon="1.35331">
        <ele>135.7</ele>
        <time>2021-08-18T14:45:26Z</time>
      </trkpt>
      <trkpt lat="43.85869" lon="1.35205">
        <ele>135.8</ele>
        <time>2021-08-18T14:45:51Z</time>
      </trkpt>
      <trkpt lat="43.8592" lon="1.35093">
        <ele>138.2</ele>
        <time>2021-08-18T14:46:16Z</time>
      </trkpt>
      <trkpt lat="43.86018" lon="1.35053">
        <ele>142.7</ele>
        <time>2021-08-18T14:46:41Z</time>
      </trkpt>
      <trkpt lat="43.86122" lon="1.35015">
        <ele>148.7</ele>
        <time>2021-08-18T14:47:06Z</time>
      </trkpt>
      <trkpt lat="43.86212" lon="1.34955">
        <ele>148.5</ele>
        <time>2021-08-18T14:47:40Z</time>
      </trkpt>
      <trkpt lat="43.86133" lon="1.34816">
        <ele>130.9</ele>
        <time>2021-08-18T14:49:24Z</time>
      </trkpt>
      <trkpt lat="43.8611" lon="1.34658">
        <ele>126.8</ele>
        <time>2021-08-18T14:49:39Z</time>
      </trkpt>
      <trkpt lat="43.86079" lon="1.34527">
        <ele>127.7</ele>
        <time>2021-08-18T14:50:14Z</time>
      </trkpt>
      <trkpt lat="43.86045" lon="1.34401">
        <ele>128</ele>
        <time>2021-08-18T14:51:06Z</time>
      </trkpt>
      <trkpt lat="43.86122" lon="1.34319">
        <ele>136</ele>
        <time>2021-08-18T14:51:52Z</time>
      </trkpt>
      <trkpt lat="43.86221" lon="1.34295">
        <ele>131</ele>
        <time>2021-08-18T14:52:12Z</time>
      </trkpt>
      <trkpt lat="43.8622" lon="1.3431">
        <ele>128</ele>
        <time>2021-08-18T14:53:04Z</time>
      </trkpt>
    </trkseg>
  </trk>
</gpx>